<?xml version="1.0" encoding="UTF-8" standalone="no" ?>
<gpx xmlns="http://www.topografix.com/GPX/1/1" xmlns:xsi="http://www.w3.org/2001/XMLSchema-instance" xsi:schemaLocation="http://www.topografix.com/GPX/1/1 http://www.topografix.com/GPX/1/1/gpx.xsd" version="1.1" creator="VisuGPX - https://www.visugpx.com">
  <metadata>
    <name>Preuilly 20/06/15</name>
    <desc><![CDATA[SORTIE DE PREUILLY SUR CLAISE AU DEPART DE TOURS]]></desc>
  </metadata>
  <trk>
    <name><![CDATA[Saint-Avertin Cyclisme]]></name>
    <trkseg>
      <trkpt lat="47.35417" lon="0.7509">
        <ele>92.2</ele>
        <time>2015-06-20T06:26:27.000Z</time>
      </trkpt>
      <trkpt lat="47.35418" lon="0.75097">
        <ele>92.5</ele>
        <time>2015-06-20T06:26:39.000Z</time>
      </trkpt>
      <trkpt lat="47.35421" lon="0.75152">
        <ele>92.9</ele>
        <time>2015-06-20T06:27:28.000Z</time>
      </trkpt>
      <trkpt lat="47.35428" lon="0.75145">
        <ele>92.9</ele>
        <time>2015-06-20T06:27:32.000Z</time>
      </trkpt>
      <trkpt lat="47.3547" lon="0.75094">
        <ele>92</ele>
        <time>2015-06-20T06:27:49.000Z</time>
      </trkpt>
      <trkpt lat="47.35511" lon="0.7504">
        <ele>91</ele>
        <time>2015-06-20T06:28:03.000Z</time>
      </trkpt>
      <trkpt lat="47.35549" lon="0.75007">
        <ele>90.4</ele>
        <time>2015-06-20T06:28:12.000Z</time>
      </trkpt>
      <trkpt lat="47.35571" lon="0.75032">
        <ele>90.5</ele>
        <time>2015-06-20T06:28:18.000Z</time>
      </trkpt>
      <trkpt lat="47.35594" lon="0.75105">
        <ele>90.1</ele>
        <time>2015-06-20T06:28:29.000Z</time>
      </trkpt>
      <trkpt lat="47.35623" lon="0.75179">
        <ele>89</ele>
        <time>2015-06-20T06:28:40.000Z</time>
      </trkpt>
      <trkpt lat="47.35659" lon="0.75241">
        <ele>88.3</ele>
        <time>2015-06-20T06:28:49.000Z</time>
      </trkpt>
      <trkpt lat="47.3568" lon="0.75273">
        <ele>88</ele>
        <time>2015-06-20T06:28:54.000Z</time>
      </trkpt>
      <trkpt lat="47.35705" lon="0.75256">
        <ele>87.6</ele>
        <time>2015-06-20T06:28:59.000Z</time>
      </trkpt>
      <trkpt lat="47.35751" lon="0.75199">
        <ele>87</ele>
        <time>2015-06-20T06:29:08.000Z</time>
      </trkpt>
      <trkpt lat="47.35796" lon="0.75147">
        <ele>86.3</ele>
        <time>2015-06-20T06:29:17.000Z</time>
      </trkpt>
      <trkpt lat="47.35842" lon="0.75112">
        <ele>86</ele>
        <time>2015-06-20T06:29:25.000Z</time>
      </trkpt>
      <trkpt lat="47.35866" lon="0.75101">
        <ele>86.1</ele>
        <time>2015-06-20T06:29:29.000Z</time>
      </trkpt>
      <trkpt lat="47.35918" lon="0.75078">
        <ele>87</ele>
        <time>2015-06-20T06:29:38.000Z</time>
      </trkpt>
      <trkpt lat="47.35973" lon="0.75052">
        <ele>88</ele>
        <time>2015-06-20T06:29:48.000Z</time>
      </trkpt>
      <trkpt lat="47.36024" lon="0.75025">
        <ele>89.1</ele>
        <time>2015-06-20T06:29:59.000Z</time>
      </trkpt>
      <trkpt lat="47.36069" lon="0.75003">
        <ele>90</ele>
        <time>2015-06-20T06:30:08.000Z</time>
      </trkpt>
      <trkpt lat="47.36084" lon="0.75004">
        <ele>90</ele>
        <time>2015-06-20T06:30:11.000Z</time>
      </trkpt>
      <trkpt lat="47.36117" lon="0.74978">
        <ele>90</ele>
        <time>2015-06-20T06:30:18.000Z</time>
      </trkpt>
      <trkpt lat="47.36128" lon="0.74974">
        <ele>90</ele>
        <time>2015-06-20T06:30:20.000Z</time>
      </trkpt>
      <trkpt lat="47.36184" lon="0.74958">
        <ele>90</ele>
        <time>2015-06-20T06:30:31.000Z</time>
      </trkpt>
      <trkpt lat="47.36186" lon="0.74927">
        <ele>90</ele>
        <time>2015-06-20T06:30:36.000Z</time>
      </trkpt>
      <trkpt lat="47.36172" lon="0.74848">
        <ele>90.2</ele>
        <time>2015-06-20T06:30:47.000Z</time>
      </trkpt>
      <trkpt lat="47.36155" lon="0.74804">
        <ele>90</ele>
        <time>2015-06-20T06:30:54.000Z</time>
      </trkpt>
      <trkpt lat="47.36137" lon="0.74723">
        <ele>91</ele>
        <time>2015-06-20T06:31:05.000Z</time>
      </trkpt>
      <trkpt lat="47.36128" lon="0.74665">
        <ele>91</ele>
        <time>2015-06-20T06:31:13.000Z</time>
      </trkpt>
      <trkpt lat="47.36124" lon="0.74638">
        <ele>90.5</ele>
        <time>2015-06-20T06:31:18.000Z</time>
      </trkpt>
      <trkpt lat="47.36116" lon="0.74639">
        <ele>90.2</ele>
        <time>2015-06-20T06:31:54.000Z</time>
      </trkpt>
      <trkpt lat="47.36123" lon="0.74651">
        <ele>90.7</ele>
        <time>2015-06-20T06:49:44.000Z</time>
      </trkpt>
      <trkpt lat="47.36135" lon="0.74731">
        <ele>90.7</ele>
        <time>2015-06-20T06:50:02.000Z</time>
      </trkpt>
      <trkpt lat="47.36154" lon="0.74808">
        <ele>90</ele>
        <time>2015-06-20T06:50:15.000Z</time>
      </trkpt>
      <trkpt lat="47.3616" lon="0.74825">
        <ele>90</ele>
        <time>2015-06-20T06:50:18.000Z</time>
      </trkpt>
      <trkpt lat="47.36174" lon="0.74863">
        <ele>90.3</ele>
        <time>2015-06-20T06:50:25.000Z</time>
      </trkpt>
      <trkpt lat="47.36177" lon="0.74881">
        <ele>90.8</ele>
        <time>2015-06-20T06:50:28.000Z</time>
      </trkpt>
      <trkpt lat="47.36183" lon="0.74959">
        <ele>90</ele>
        <time>2015-06-20T06:50:41.000Z</time>
      </trkpt>
      <trkpt lat="47.36176" lon="0.74965">
        <ele>90</ele>
        <time>2015-06-20T06:50:43.000Z</time>
      </trkpt>
      <trkpt lat="47.36122" lon="0.74977">
        <ele>90</ele>
        <time>2015-06-20T06:50:54.000Z</time>
      </trkpt>
      <trkpt lat="47.36094" lon="0.74986">
        <ele>90</ele>
        <time>2015-06-20T06:51:01.000Z</time>
      </trkpt>
      <trkpt lat="47.36086" lon="0.74983">
        <ele>90</ele>
        <time>2015-06-20T06:51:03.000Z</time>
      </trkpt>
      <trkpt lat="47.36074" lon="0.74997">
        <ele>90</ele>
        <time>2015-06-20T06:51:07.000Z</time>
      </trkpt>
      <trkpt lat="47.36075" lon="0.75004">
        <ele>90</ele>
        <time>2015-06-20T06:51:08.000Z</time>
      </trkpt>
      <trkpt lat="47.36086" lon="0.75023">
        <ele>90</ele>
        <time>2015-06-20T06:51:12.000Z</time>
      </trkpt>
      <trkpt lat="47.36088" lon="0.7503">
        <ele>90.1</ele>
        <time>2015-06-20T06:51:13.000Z</time>
      </trkpt>
      <trkpt lat="47.36106" lon="0.75112">
        <ele>90.2</ele>
        <time>2015-06-20T06:51:25.000Z</time>
      </trkpt>
      <trkpt lat="47.36122" lon="0.75189">
        <ele>89.1</ele>
        <time>2015-06-20T06:51:35.000Z</time>
      </trkpt>
      <trkpt lat="47.36139" lon="0.75269">
        <ele>87.3</ele>
        <time>2015-06-20T06:51:44.000Z</time>
      </trkpt>
      <trkpt lat="47.36155" lon="0.75344">
        <ele>87</ele>
        <time>2015-06-20T06:51:52.000Z</time>
      </trkpt>
      <trkpt lat="47.3615" lon="0.75387">
        <ele>85.9</ele>
        <time>2015-06-20T06:51:57.000Z</time>
      </trkpt>
      <trkpt lat="47.36145" lon="0.75394">
        <ele>85.6</ele>
        <time>2015-06-20T06:51:58.000Z</time>
      </trkpt>
      <trkpt lat="47.36103" lon="0.75449">
        <ele>83.1</ele>
        <time>2015-06-20T06:52:05.000Z</time>
      </trkpt>
      <trkpt lat="47.36067" lon="0.75516">
        <ele>81</ele>
        <time>2015-06-20T06:52:12.000Z</time>
      </trkpt>
      <trkpt lat="47.36053" lon="0.75544">
        <ele>80.5</ele>
        <time>2015-06-20T06:52:15.000Z</time>
      </trkpt>
      <trkpt lat="47.36023" lon="0.75615">
        <ele>81.5</ele>
        <time>2015-06-20T06:52:23.000Z</time>
      </trkpt>
      <trkpt lat="47.3599" lon="0.75683">
        <ele>82.6</ele>
        <time>2015-06-20T06:52:33.000Z</time>
      </trkpt>
      <trkpt lat="47.35973" lon="0.75712">
        <ele>82.3</ele>
        <time>2015-06-20T06:52:38.000Z</time>
      </trkpt>
      <trkpt lat="47.35936" lon="0.75763">
        <ele>82.5</ele>
        <time>2015-06-20T06:52:48.000Z</time>
      </trkpt>
      <trkpt lat="47.35917" lon="0.75768">
        <ele>82.7</ele>
        <time>2015-06-20T06:52:52.000Z</time>
      </trkpt>
      <trkpt lat="47.3589" lon="0.75794">
        <ele>83.6</ele>
        <time>2015-06-20T06:52:59.000Z</time>
      </trkpt>
      <trkpt lat="47.35876" lon="0.75817">
        <ele>84.9</ele>
        <time>2015-06-20T06:53:04.000Z</time>
      </trkpt>
      <trkpt lat="47.35845" lon="0.75881">
        <ele>87.4</ele>
        <time>2015-06-20T06:53:16.000Z</time>
      </trkpt>
      <trkpt lat="47.35834" lon="0.75903">
        <ele>88</ele>
        <time>2015-06-20T06:53:20.000Z</time>
      </trkpt>
      <trkpt lat="47.35803" lon="0.75969">
        <ele>89.1</ele>
        <time>2015-06-20T06:53:33.000Z</time>
      </trkpt>
      <trkpt lat="47.358" lon="0.75973">
        <ele>89.2</ele>
        <time>2015-06-20T06:53:34.000Z</time>
      </trkpt>
      <trkpt lat="47.35764" lon="0.76033">
        <ele>90.1</ele>
        <time>2015-06-20T06:53:46.000Z</time>
      </trkpt>
      <trkpt lat="47.35747" lon="0.76063">
        <ele>91</ele>
        <time>2015-06-20T06:53:52.000Z</time>
      </trkpt>
      <trkpt lat="47.35711" lon="0.76125">
        <ele>91.4</ele>
        <time>2015-06-20T06:54:04.000Z</time>
      </trkpt>
      <trkpt lat="47.35675" lon="0.76188">
        <ele>91.8</ele>
        <time>2015-06-20T06:54:15.000Z</time>
      </trkpt>
      <trkpt lat="47.3564" lon="0.76248">
        <ele>92</ele>
        <time>2015-06-20T06:54:26.000Z</time>
      </trkpt>
      <trkpt lat="47.35604" lon="0.76313">
        <ele>92.1</ele>
        <time>2015-06-20T06:54:37.000Z</time>
      </trkpt>
      <trkpt lat="47.35569" lon="0.76377">
        <ele>93</ele>
        <time>2015-06-20T06:54:48.000Z</time>
      </trkpt>
      <trkpt lat="47.35532" lon="0.7644">
        <ele>94.7</ele>
        <time>2015-06-20T06:55:00.000Z</time>
      </trkpt>
      <trkpt lat="47.35493" lon="0.76503">
        <ele>95.2</ele>
        <time>2015-06-20T06:55:12.000Z</time>
      </trkpt>
      <trkpt lat="47.35457" lon="0.76563">
        <ele>95.5</ele>
        <time>2015-06-20T06:55:23.000Z</time>
      </trkpt>
      <trkpt lat="47.35415" lon="0.76626">
        <ele>95</ele>
        <time>2015-06-20T06:55:34.000Z</time>
      </trkpt>
      <trkpt lat="47.35374" lon="0.76685">
        <ele>94.7</ele>
        <time>2015-06-20T06:55:44.000Z</time>
      </trkpt>
      <trkpt lat="47.35331" lon="0.76745">
        <ele>94</ele>
        <time>2015-06-20T06:55:54.000Z</time>
      </trkpt>
      <trkpt lat="47.35289" lon="0.76803">
        <ele>93.6</ele>
        <time>2015-06-20T06:56:04.000Z</time>
      </trkpt>
      <trkpt lat="47.35247" lon="0.76861">
        <ele>93.1</ele>
        <time>2015-06-20T06:56:14.000Z</time>
      </trkpt>
      <trkpt lat="47.35203" lon="0.76919">
        <ele>93</ele>
        <time>2015-06-20T06:56:24.000Z</time>
      </trkpt>
      <trkpt lat="47.35159" lon="0.76979">
        <ele>93.3</ele>
        <time>2015-06-20T06:56:34.000Z</time>
      </trkpt>
      <trkpt lat="47.35136" lon="0.77013">
        <ele>93.5</ele>
        <time>2015-06-20T06:56:40.000Z</time>
      </trkpt>
      <trkpt lat="47.3509" lon="0.77061">
        <ele>93</ele>
        <time>2015-06-20T06:56:50.000Z</time>
      </trkpt>
      <trkpt lat="47.35043" lon="0.77113">
        <ele>93</ele>
        <time>2015-06-20T06:57:00.000Z</time>
      </trkpt>
      <trkpt lat="47.35004" lon="0.77167">
        <ele>92</ele>
        <time>2015-06-20T06:57:14.000Z</time>
      </trkpt>
      <trkpt lat="47.34964" lon="0.77226">
        <ele>91.3</ele>
        <time>2015-06-20T06:57:24.000Z</time>
      </trkpt>
      <trkpt lat="47.34926" lon="0.77282">
        <ele>91</ele>
        <time>2015-06-20T06:57:32.000Z</time>
      </trkpt>
      <trkpt lat="47.34884" lon="0.77341">
        <ele>86.8</ele>
        <time>2015-06-20T06:57:40.000Z</time>
      </trkpt>
      <trkpt lat="47.34842" lon="0.77402">
        <ele>90</ele>
        <time>2015-06-20T06:57:48.000Z</time>
      </trkpt>
      <trkpt lat="47.3481" lon="0.77467">
        <ele>90.9</ele>
        <time>2015-06-20T06:57:56.000Z</time>
      </trkpt>
      <trkpt lat="47.34778" lon="0.77541">
        <ele>92</ele>
        <time>2015-06-20T06:58:06.000Z</time>
      </trkpt>
      <trkpt lat="47.34742" lon="0.77601">
        <ele>92</ele>
        <time>2015-06-20T06:58:15.000Z</time>
      </trkpt>
      <trkpt lat="47.34703" lon="0.77656">
        <ele>92.9</ele>
        <time>2015-06-20T06:58:24.000Z</time>
      </trkpt>
      <trkpt lat="47.34668" lon="0.77718">
        <ele>93</ele>
        <time>2015-06-20T06:58:33.000Z</time>
      </trkpt>
      <trkpt lat="47.3464" lon="0.77791">
        <ele>93</ele>
        <time>2015-06-20T06:58:43.000Z</time>
      </trkpt>
      <trkpt lat="47.34613" lon="0.77867">
        <ele>93.3</ele>
        <time>2015-06-20T06:58:53.000Z</time>
      </trkpt>
      <trkpt lat="47.34583" lon="0.77934">
        <ele>94</ele>
        <time>2015-06-20T06:59:02.000Z</time>
      </trkpt>
      <trkpt lat="47.34545" lon="0.77998">
        <ele>94</ele>
        <time>2015-06-20T06:59:11.000Z</time>
      </trkpt>
      <trkpt lat="47.34498" lon="0.78046">
        <ele>93</ele>
        <time>2015-06-20T06:59:20.000Z</time>
      </trkpt>
      <trkpt lat="47.34449" lon="0.78094">
        <ele>92.9</ele>
        <time>2015-06-20T06:59:29.000Z</time>
      </trkpt>
      <trkpt lat="47.34408" lon="0.78152">
        <ele>93</ele>
        <time>2015-06-20T06:59:38.000Z</time>
      </trkpt>
      <trkpt lat="47.34372" lon="0.78217">
        <ele>93.9</ele>
        <time>2015-06-20T06:59:47.000Z</time>
      </trkpt>
      <trkpt lat="47.34338" lon="0.7828">
        <ele>94</ele>
        <time>2015-06-20T06:59:56.000Z</time>
      </trkpt>
      <trkpt lat="47.34302" lon="0.78347">
        <ele>94</ele>
        <time>2015-06-20T07:00:06.000Z</time>
      </trkpt>
      <trkpt lat="47.34265" lon="0.78415">
        <ele>94</ele>
        <time>2015-06-20T07:00:16.000Z</time>
      </trkpt>
      <trkpt lat="47.3423" lon="0.78479">
        <ele>94</ele>
        <time>2015-06-20T07:00:25.000Z</time>
      </trkpt>
      <trkpt lat="47.34195" lon="0.78544">
        <ele>94</ele>
        <time>2015-06-20T07:00:34.000Z</time>
      </trkpt>
      <trkpt lat="47.34161" lon="0.78607">
        <ele>94</ele>
        <time>2015-06-20T07:00:43.000Z</time>
      </trkpt>
      <trkpt lat="47.3412" lon="0.78664">
        <ele>94</ele>
        <time>2015-06-20T07:00:52.000Z</time>
      </trkpt>
      <trkpt lat="47.34074" lon="0.78715">
        <ele>93.3</ele>
        <time>2015-06-20T07:01:01.000Z</time>
      </trkpt>
      <trkpt lat="47.34028" lon="0.78761">
        <ele>93</ele>
        <time>2015-06-20T07:01:10.000Z</time>
      </trkpt>
      <trkpt lat="47.33983" lon="0.78806">
        <ele>93</ele>
        <time>2015-06-20T07:01:19.000Z</time>
      </trkpt>
      <trkpt lat="47.33937" lon="0.78856">
        <ele>93</ele>
        <time>2015-06-20T07:01:29.000Z</time>
      </trkpt>
      <trkpt lat="47.33896" lon="0.78917">
        <ele>93</ele>
        <time>2015-06-20T07:01:38.000Z</time>
      </trkpt>
      <trkpt lat="47.33857" lon="0.78981">
        <ele>93</ele>
        <time>2015-06-20T07:01:47.000Z</time>
      </trkpt>
      <trkpt lat="47.3382" lon="0.79046">
        <ele>93</ele>
        <time>2015-06-20T07:01:56.000Z</time>
      </trkpt>
      <trkpt lat="47.33783" lon="0.79112">
        <ele>92.2</ele>
        <time>2015-06-20T07:02:05.000Z</time>
      </trkpt>
      <trkpt lat="47.33753" lon="0.79174">
        <ele>91.8</ele>
        <time>2015-06-20T07:02:13.000Z</time>
      </trkpt>
      <trkpt lat="47.33745" lon="0.79261">
        <ele>91</ele>
        <time>2015-06-20T07:02:22.000Z</time>
      </trkpt>
      <trkpt lat="47.33743" lon="0.79346">
        <ele>90.8</ele>
        <time>2015-06-20T07:02:31.000Z</time>
      </trkpt>
      <trkpt lat="47.33742" lon="0.79432">
        <ele>90.3</ele>
        <time>2015-06-20T07:02:40.000Z</time>
      </trkpt>
      <trkpt lat="47.3374" lon="0.79518">
        <ele>90</ele>
        <time>2015-06-20T07:02:49.000Z</time>
      </trkpt>
      <trkpt lat="47.33734" lon="0.79602">
        <ele>90</ele>
        <time>2015-06-20T07:02:58.000Z</time>
      </trkpt>
      <trkpt lat="47.33726" lon="0.79685">
        <ele>90.1</ele>
        <time>2015-06-20T07:03:07.000Z</time>
      </trkpt>
      <trkpt lat="47.33724" lon="0.79769">
        <ele>90</ele>
        <time>2015-06-20T07:03:16.000Z</time>
      </trkpt>
      <trkpt lat="47.33724" lon="0.79856">
        <ele>90</ele>
        <time>2015-06-20T07:03:25.000Z</time>
      </trkpt>
      <trkpt lat="47.33717" lon="0.79942">
        <ele>89</ele>
        <time>2015-06-20T07:03:34.000Z</time>
      </trkpt>
      <trkpt lat="47.33697" lon="0.80022">
        <ele>89</ele>
        <time>2015-06-20T07:03:43.000Z</time>
      </trkpt>
      <trkpt lat="47.33682" lon="0.80106">
        <ele>88.6</ele>
        <time>2015-06-20T07:03:52.000Z</time>
      </trkpt>
      <trkpt lat="47.33674" lon="0.80192">
        <ele>88.3</ele>
        <time>2015-06-20T07:04:01.000Z</time>
      </trkpt>
      <trkpt lat="47.33669" lon="0.80277">
        <ele>88.1</ele>
        <time>2015-06-20T07:04:11.000Z</time>
      </trkpt>
      <trkpt lat="47.33665" lon="0.80357">
        <ele>88.8</ele>
        <time>2015-06-20T07:04:25.000Z</time>
      </trkpt>
      <trkpt lat="47.33657" lon="0.80443">
        <ele>88.7</ele>
        <time>2015-06-20T07:04:35.000Z</time>
      </trkpt>
      <trkpt lat="47.33655" lon="0.80526">
        <ele>88.6</ele>
        <time>2015-06-20T07:04:44.000Z</time>
      </trkpt>
      <trkpt lat="47.33651" lon="0.80609">
        <ele>88.4</ele>
        <time>2015-06-20T07:04:53.000Z</time>
      </trkpt>
      <trkpt lat="47.33644" lon="0.80694">
        <ele>88</ele>
        <time>2015-06-20T07:05:02.000Z</time>
      </trkpt>
      <trkpt lat="47.33637" lon="0.80778">
        <ele>87</ele>
        <time>2015-06-20T07:05:11.000Z</time>
      </trkpt>
      <trkpt lat="47.3363" lon="0.80863">
        <ele>87</ele>
        <time>2015-06-20T07:05:20.000Z</time>
      </trkpt>
      <trkpt lat="47.33615" lon="0.80948">
        <ele>86.9</ele>
        <time>2015-06-20T07:05:29.000Z</time>
      </trkpt>
      <trkpt lat="47.33592" lon="0.81028">
        <ele>86</ele>
        <time>2015-06-20T07:05:38.000Z</time>
      </trkpt>
      <trkpt lat="47.33573" lon="0.81066">
        <ele>86.2</ele>
        <time>2015-06-20T07:05:43.000Z</time>
      </trkpt>
      <trkpt lat="47.33549" lon="0.81084">
        <ele>86</ele>
        <time>2015-06-20T07:05:47.000Z</time>
      </trkpt>
      <trkpt lat="47.33498" lon="0.81127">
        <ele>86</ele>
        <time>2015-06-20T07:05:56.000Z</time>
      </trkpt>
      <trkpt lat="47.33483" lon="0.81159">
        <ele>86</ele>
        <time>2015-06-20T07:06:00.000Z</time>
      </trkpt>
      <trkpt lat="47.33464" lon="0.81243">
        <ele>85.8</ele>
        <time>2015-06-20T07:06:09.000Z</time>
      </trkpt>
      <trkpt lat="47.33456" lon="0.81278">
        <ele>86</ele>
        <time>2015-06-20T07:06:13.000Z</time>
      </trkpt>
      <trkpt lat="47.334" lon="0.81292">
        <ele>86.6</ele>
        <time>2015-06-20T07:06:23.000Z</time>
      </trkpt>
      <trkpt lat="47.33394" lon="0.81294">
        <ele>86.8</ele>
        <time>2015-06-20T07:06:24.000Z</time>
      </trkpt>
      <trkpt lat="47.33343" lon="0.81321">
        <ele>87.8</ele>
        <time>2015-06-20T07:06:33.000Z</time>
      </trkpt>
      <trkpt lat="47.33295" lon="0.81361">
        <ele>88</ele>
        <time>2015-06-20T07:06:42.000Z</time>
      </trkpt>
      <trkpt lat="47.33267" lon="0.81399">
        <ele>87.6</ele>
        <time>2015-06-20T07:06:48.000Z</time>
      </trkpt>
      <trkpt lat="47.33252" lon="0.81443">
        <ele>87</ele>
        <time>2015-06-20T07:06:53.000Z</time>
      </trkpt>
      <trkpt lat="47.33238" lon="0.8152">
        <ele>87.4</ele>
        <time>2015-06-20T07:07:01.000Z</time>
      </trkpt>
      <trkpt lat="47.33223" lon="0.81604">
        <ele>88.7</ele>
        <time>2015-06-20T07:07:10.000Z</time>
      </trkpt>
      <trkpt lat="47.33209" lon="0.81685">
        <ele>89.3</ele>
        <time>2015-06-20T07:07:19.000Z</time>
      </trkpt>
      <trkpt lat="47.33199" lon="0.81767">
        <ele>89.8</ele>
        <time>2015-06-20T07:07:28.000Z</time>
      </trkpt>
      <trkpt lat="47.33192" lon="0.81829">
        <ele>89.1</ele>
        <time>2015-06-20T07:07:35.000Z</time>
      </trkpt>
      <trkpt lat="47.3318" lon="0.81914">
        <ele>88.6</ele>
        <time>2015-06-20T07:07:44.000Z</time>
      </trkpt>
      <trkpt lat="47.33163" lon="0.81996">
        <ele>88</ele>
        <time>2015-06-20T07:07:53.000Z</time>
      </trkpt>
      <trkpt lat="47.33143" lon="0.82078">
        <ele>87.9</ele>
        <time>2015-06-20T07:08:02.000Z</time>
      </trkpt>
      <trkpt lat="47.33132" lon="0.82114">
        <ele>87.9</ele>
        <time>2015-06-20T07:08:06.000Z</time>
      </trkpt>
      <trkpt lat="47.33089" lon="0.8217">
        <ele>88.8</ele>
        <time>2015-06-20T07:08:15.000Z</time>
      </trkpt>
      <trkpt lat="47.33042" lon="0.8222">
        <ele>90</ele>
        <time>2015-06-20T07:08:24.000Z</time>
      </trkpt>
      <trkpt lat="47.32993" lon="0.82263">
        <ele>90</ele>
        <time>2015-06-20T07:08:33.000Z</time>
      </trkpt>
      <trkpt lat="47.32939" lon="0.82298">
        <ele>90</ele>
        <time>2015-06-20T07:08:42.000Z</time>
      </trkpt>
      <trkpt lat="47.3289" lon="0.82345">
        <ele>90.4</ele>
        <time>2015-06-20T07:08:51.000Z</time>
      </trkpt>
      <trkpt lat="47.32845" lon="0.82402">
        <ele>91</ele>
        <time>2015-06-20T07:09:00.000Z</time>
      </trkpt>
      <trkpt lat="47.32803" lon="0.82463">
        <ele>91</ele>
        <time>2015-06-20T07:09:09.000Z</time>
      </trkpt>
      <trkpt lat="47.32773" lon="0.82537">
        <ele>91</ele>
        <time>2015-06-20T07:09:18.000Z</time>
      </trkpt>
      <trkpt lat="47.32769" lon="0.82545">
        <ele>91</ele>
        <time>2015-06-20T07:09:19.000Z</time>
      </trkpt>
      <trkpt lat="47.3273" lon="0.82603">
        <ele>91</ele>
        <time>2015-06-20T07:09:27.000Z</time>
      </trkpt>
      <trkpt lat="47.32689" lon="0.82666">
        <ele>91</ele>
        <time>2015-06-20T07:09:36.000Z</time>
      </trkpt>
      <trkpt lat="47.32653" lon="0.82738">
        <ele>90.2</ele>
        <time>2015-06-20T07:09:45.000Z</time>
      </trkpt>
      <trkpt lat="47.32627" lon="0.82811">
        <ele>90</ele>
        <time>2015-06-20T07:09:54.000Z</time>
      </trkpt>
      <trkpt lat="47.32614" lon="0.82876">
        <ele>90</ele>
        <time>2015-06-20T07:10:01.000Z</time>
      </trkpt>
      <trkpt lat="47.32589" lon="0.82953">
        <ele>89</ele>
        <time>2015-06-20T07:10:10.000Z</time>
      </trkpt>
      <trkpt lat="47.32586" lon="0.82961">
        <ele>89</ele>
        <time>2015-06-20T07:10:11.000Z</time>
      </trkpt>
      <trkpt lat="47.3256" lon="0.83038">
        <ele>88.8</ele>
        <time>2015-06-20T07:10:20.000Z</time>
      </trkpt>
      <trkpt lat="47.32532" lon="0.83112">
        <ele>89</ele>
        <time>2015-06-20T07:10:30.000Z</time>
      </trkpt>
      <trkpt lat="47.32497" lon="0.83173">
        <ele>90</ele>
        <time>2015-06-20T07:10:44.000Z</time>
      </trkpt>
      <trkpt lat="47.3246" lon="0.83231">
        <ele>90.3</ele>
        <time>2015-06-20T07:10:54.000Z</time>
      </trkpt>
      <trkpt lat="47.32424" lon="0.833">
        <ele>90.8</ele>
        <time>2015-06-20T07:11:04.000Z</time>
      </trkpt>
      <trkpt lat="47.32395" lon="0.83375">
        <ele>91.4</ele>
        <time>2015-06-20T07:11:14.000Z</time>
      </trkpt>
      <trkpt lat="47.32375" lon="0.83451">
        <ele>91.1</ele>
        <time>2015-06-20T07:11:23.000Z</time>
      </trkpt>
      <trkpt lat="47.32354" lon="0.83526">
        <ele>91.3</ele>
        <time>2015-06-20T07:11:32.000Z</time>
      </trkpt>
      <trkpt lat="47.32333" lon="0.83603">
        <ele>91</ele>
        <time>2015-06-20T07:11:41.000Z</time>
      </trkpt>
      <trkpt lat="47.32309" lon="0.8368">
        <ele>91</ele>
        <time>2015-06-20T07:11:50.000Z</time>
      </trkpt>
      <trkpt lat="47.32291" lon="0.83761">
        <ele>91</ele>
        <time>2015-06-20T07:11:59.000Z</time>
      </trkpt>
      <trkpt lat="47.32284" lon="0.83798">
        <ele>91</ele>
        <time>2015-06-20T07:12:03.000Z</time>
      </trkpt>
      <trkpt lat="47.32253" lon="0.83844">
        <ele>91</ele>
        <time>2015-06-20T07:12:10.000Z</time>
      </trkpt>
      <trkpt lat="47.32222" lon="0.83876">
        <ele>91</ele>
        <time>2015-06-20T07:12:16.000Z</time>
      </trkpt>
      <trkpt lat="47.32207" lon="0.83906">
        <ele>91</ele>
        <time>2015-06-20T07:12:20.000Z</time>
      </trkpt>
      <trkpt lat="47.32175" lon="0.83982">
        <ele>90</ele>
        <time>2015-06-20T07:12:29.000Z</time>
      </trkpt>
      <trkpt lat="47.32141" lon="0.84044">
        <ele>89</ele>
        <time>2015-06-20T07:12:37.000Z</time>
      </trkpt>
      <trkpt lat="47.32101" lon="0.84103">
        <ele>90</ele>
        <time>2015-06-20T07:12:46.000Z</time>
      </trkpt>
      <trkpt lat="47.32064" lon="0.84167">
        <ele>90</ele>
        <time>2015-06-20T07:12:58.000Z</time>
      </trkpt>
      <trkpt lat="47.32057" lon="0.84171">
        <ele>90</ele>
        <time>2015-06-20T07:13:00.000Z</time>
      </trkpt>
      <trkpt lat="47.32" lon="0.84168">
        <ele>89</ele>
        <time>2015-06-20T07:13:10.000Z</time>
      </trkpt>
      <trkpt lat="47.31944" lon="0.84161">
        <ele>89</ele>
        <time>2015-06-20T07:13:19.000Z</time>
      </trkpt>
      <trkpt lat="47.31889" lon="0.84155">
        <ele>88</ele>
        <time>2015-06-20T07:13:28.000Z</time>
      </trkpt>
      <trkpt lat="47.31831" lon="0.84148">
        <ele>87.7</ele>
        <time>2015-06-20T07:13:37.000Z</time>
      </trkpt>
      <trkpt lat="47.31772" lon="0.84142">
        <ele>88.9</ele>
        <time>2015-06-20T07:13:46.000Z</time>
      </trkpt>
      <trkpt lat="47.31717" lon="0.84137">
        <ele>89.2</ele>
        <time>2015-06-20T07:13:55.000Z</time>
      </trkpt>
      <trkpt lat="47.31658" lon="0.84132">
        <ele>90</ele>
        <time>2015-06-20T07:14:05.000Z</time>
      </trkpt>
      <trkpt lat="47.31601" lon="0.84126">
        <ele>90</ele>
        <time>2015-06-20T07:14:15.000Z</time>
      </trkpt>
      <trkpt lat="47.31571" lon="0.84123">
        <ele>90</ele>
        <time>2015-06-20T07:14:20.000Z</time>
      </trkpt>
      <trkpt lat="47.31513" lon="0.84118">
        <ele>90.6</ele>
        <time>2015-06-20T07:14:30.000Z</time>
      </trkpt>
      <trkpt lat="47.31456" lon="0.84113">
        <ele>91.6</ele>
        <time>2015-06-20T07:14:40.000Z</time>
      </trkpt>
      <trkpt lat="47.31398" lon="0.84106">
        <ele>92.7</ele>
        <time>2015-06-20T07:14:50.000Z</time>
      </trkpt>
      <trkpt lat="47.31339" lon="0.84099">
        <ele>93.8</ele>
        <time>2015-06-20T07:15:00.000Z</time>
      </trkpt>
      <trkpt lat="47.31281" lon="0.84093">
        <ele>95</ele>
        <time>2015-06-20T07:15:10.000Z</time>
      </trkpt>
      <trkpt lat="47.31226" lon="0.8409">
        <ele>95</ele>
        <time>2015-06-20T07:15:19.000Z</time>
      </trkpt>
      <trkpt lat="47.31166" lon="0.84084">
        <ele>96</ele>
        <time>2015-06-20T07:15:29.000Z</time>
      </trkpt>
      <trkpt lat="47.31112" lon="0.84079">
        <ele>96.8</ele>
        <time>2015-06-20T07:15:38.000Z</time>
      </trkpt>
      <trkpt lat="47.31057" lon="0.84073">
        <ele>96.6</ele>
        <time>2015-06-20T07:15:47.000Z</time>
      </trkpt>
      <trkpt lat="47.31" lon="0.8405">
        <ele>96</ele>
        <time>2015-06-20T07:15:57.000Z</time>
      </trkpt>
      <trkpt lat="47.30943" lon="0.84024">
        <ele>96</ele>
        <time>2015-06-20T07:16:06.000Z</time>
      </trkpt>
      <trkpt lat="47.3089" lon="0.84002">
        <ele>95</ele>
        <time>2015-06-20T07:16:14.000Z</time>
      </trkpt>
      <trkpt lat="47.30835" lon="0.8398">
        <ele>94</ele>
        <time>2015-06-20T07:16:22.000Z</time>
      </trkpt>
      <trkpt lat="47.3078" lon="0.83959">
        <ele>92.1</ele>
        <time>2015-06-20T07:16:30.000Z</time>
      </trkpt>
      <trkpt lat="47.30723" lon="0.8394">
        <ele>91</ele>
        <time>2015-06-20T07:16:38.000Z</time>
      </trkpt>
      <trkpt lat="47.30667" lon="0.83925">
        <ele>90.7</ele>
        <time>2015-06-20T07:16:46.000Z</time>
      </trkpt>
      <trkpt lat="47.30611" lon="0.83909">
        <ele>90</ele>
        <time>2015-06-20T07:16:54.000Z</time>
      </trkpt>
      <trkpt lat="47.30559" lon="0.83885">
        <ele>91</ele>
        <time>2015-06-20T07:17:02.000Z</time>
      </trkpt>
      <trkpt lat="47.30507" lon="0.83856">
        <ele>93.4</ele>
        <time>2015-06-20T07:17:11.000Z</time>
      </trkpt>
      <trkpt lat="47.30492" lon="0.83848">
        <ele>93.8</ele>
        <time>2015-06-20T07:17:14.000Z</time>
      </trkpt>
      <trkpt lat="47.30436" lon="0.83827">
        <ele>94.8</ele>
        <time>2015-06-20T07:17:25.000Z</time>
      </trkpt>
      <trkpt lat="47.30377" lon="0.83812">
        <ele>95.3</ele>
        <time>2015-06-20T07:17:35.000Z</time>
      </trkpt>
      <trkpt lat="47.30318" lon="0.83807">
        <ele>93.7</ele>
        <time>2015-06-20T07:17:43.000Z</time>
      </trkpt>
      <trkpt lat="47.30258" lon="0.83813">
        <ele>90.4</ele>
        <time>2015-06-20T07:17:50.000Z</time>
      </trkpt>
      <trkpt lat="47.30204" lon="0.83815">
        <ele>90</ele>
        <time>2015-06-20T07:17:56.000Z</time>
      </trkpt>
      <trkpt lat="47.3015" lon="0.83806">
        <ele>90</ele>
        <time>2015-06-20T07:18:03.000Z</time>
      </trkpt>
      <trkpt lat="47.30091" lon="0.83792">
        <ele>89.6</ele>
        <time>2015-06-20T07:18:11.000Z</time>
      </trkpt>
      <trkpt lat="47.30033" lon="0.83778">
        <ele>89.2</ele>
        <time>2015-06-20T07:18:19.000Z</time>
      </trkpt>
      <trkpt lat="47.29975" lon="0.83765">
        <ele>89</ele>
        <time>2015-06-20T07:18:27.000Z</time>
      </trkpt>
      <trkpt lat="47.29916" lon="0.83753">
        <ele>88</ele>
        <time>2015-06-20T07:18:35.000Z</time>
      </trkpt>
      <trkpt lat="47.29856" lon="0.83742">
        <ele>88</ele>
        <time>2015-06-20T07:18:43.000Z</time>
      </trkpt>
      <trkpt lat="47.29797" lon="0.83732">
        <ele>87.4</ele>
        <time>2015-06-20T07:18:51.000Z</time>
      </trkpt>
      <trkpt lat="47.29738" lon="0.83722">
        <ele>87</ele>
        <time>2015-06-20T07:18:59.000Z</time>
      </trkpt>
      <trkpt lat="47.29681" lon="0.83711">
        <ele>87</ele>
        <time>2015-06-20T07:19:07.000Z</time>
      </trkpt>
      <trkpt lat="47.29625" lon="0.83701">
        <ele>87</ele>
        <time>2015-06-20T07:19:15.000Z</time>
      </trkpt>
      <trkpt lat="47.29569" lon="0.83691">
        <ele>87</ele>
        <time>2015-06-20T07:19:23.000Z</time>
      </trkpt>
      <trkpt lat="47.29515" lon="0.83683">
        <ele>87</ele>
        <time>2015-06-20T07:19:31.000Z</time>
      </trkpt>
      <trkpt lat="47.29456" lon="0.8368">
        <ele>87.3</ele>
        <time>2015-06-20T07:19:40.000Z</time>
      </trkpt>
      <trkpt lat="47.29396" lon="0.83682">
        <ele>88</ele>
        <time>2015-06-20T07:19:49.000Z</time>
      </trkpt>
      <trkpt lat="47.29336" lon="0.83683">
        <ele>88</ele>
        <time>2015-06-20T07:19:58.000Z</time>
      </trkpt>
      <trkpt lat="47.2928" lon="0.83684">
        <ele>88</ele>
        <time>2015-06-20T07:20:06.000Z</time>
      </trkpt>
      <trkpt lat="47.29224" lon="0.83685">
        <ele>88</ele>
        <time>2015-06-20T07:20:14.000Z</time>
      </trkpt>
      <trkpt lat="47.29168" lon="0.83685">
        <ele>88</ele>
        <time>2015-06-20T07:20:22.000Z</time>
      </trkpt>
      <trkpt lat="47.29111" lon="0.83679">
        <ele>87</ele>
        <time>2015-06-20T07:20:30.000Z</time>
      </trkpt>
      <trkpt lat="47.29055" lon="0.83664">
        <ele>87</ele>
        <time>2015-06-20T07:20:38.000Z</time>
      </trkpt>
      <trkpt lat="47.28999" lon="0.83648">
        <ele>86</ele>
        <time>2015-06-20T07:20:46.000Z</time>
      </trkpt>
      <trkpt lat="47.28941" lon="0.83632">
        <ele>85.9</ele>
        <time>2015-06-20T07:20:54.000Z</time>
      </trkpt>
      <trkpt lat="47.28884" lon="0.83616">
        <ele>85</ele>
        <time>2015-06-20T07:21:02.000Z</time>
      </trkpt>
      <trkpt lat="47.28828" lon="0.836">
        <ele>85</ele>
        <time>2015-06-20T07:21:10.000Z</time>
      </trkpt>
      <trkpt lat="47.28773" lon="0.83584">
        <ele>85.7</ele>
        <time>2015-06-20T07:21:18.000Z</time>
      </trkpt>
      <trkpt lat="47.28718" lon="0.83569">
        <ele>85</ele>
        <time>2015-06-20T07:21:26.000Z</time>
      </trkpt>
      <trkpt lat="47.2866" lon="0.83553">
        <ele>85</ele>
        <time>2015-06-20T07:21:34.000Z</time>
      </trkpt>
      <trkpt lat="47.28603" lon="0.83539">
        <ele>84.6</ele>
        <time>2015-06-20T07:21:42.000Z</time>
      </trkpt>
      <trkpt lat="47.28546" lon="0.83527">
        <ele>85.3</ele>
        <time>2015-06-20T07:21:50.000Z</time>
      </trkpt>
      <trkpt lat="47.28491" lon="0.83521">
        <ele>85.8</ele>
        <time>2015-06-20T07:21:58.000Z</time>
      </trkpt>
      <trkpt lat="47.28435" lon="0.83529">
        <ele>86.4</ele>
        <time>2015-06-20T07:22:06.000Z</time>
      </trkpt>
      <trkpt lat="47.28382" lon="0.83545">
        <ele>86.6</ele>
        <time>2015-06-20T07:22:14.000Z</time>
      </trkpt>
      <trkpt lat="47.28328" lon="0.83562">
        <ele>87</ele>
        <time>2015-06-20T07:22:22.000Z</time>
      </trkpt>
      <trkpt lat="47.28269" lon="0.83574">
        <ele>87</ele>
        <time>2015-06-20T07:22:31.000Z</time>
      </trkpt>
      <trkpt lat="47.28215" lon="0.83586">
        <ele>87</ele>
        <time>2015-06-20T07:22:39.000Z</time>
      </trkpt>
      <trkpt lat="47.28159" lon="0.83591">
        <ele>87</ele>
        <time>2015-06-20T07:22:47.000Z</time>
      </trkpt>
      <trkpt lat="47.28102" lon="0.83584">
        <ele>86</ele>
        <time>2015-06-20T07:22:55.000Z</time>
      </trkpt>
      <trkpt lat="47.28046" lon="0.83565">
        <ele>86</ele>
        <time>2015-06-20T07:23:03.000Z</time>
      </trkpt>
      <trkpt lat="47.27993" lon="0.83543">
        <ele>85.5</ele>
        <time>2015-06-20T07:23:11.000Z</time>
      </trkpt>
      <trkpt lat="47.27939" lon="0.83526">
        <ele>85.9</ele>
        <time>2015-06-20T07:23:19.000Z</time>
      </trkpt>
      <trkpt lat="47.27886" lon="0.83511">
        <ele>86</ele>
        <time>2015-06-20T07:23:27.000Z</time>
      </trkpt>
      <trkpt lat="47.27826" lon="0.83498">
        <ele>86</ele>
        <time>2015-06-20T07:23:36.000Z</time>
      </trkpt>
      <trkpt lat="47.27773" lon="0.83474">
        <ele>86</ele>
        <time>2015-06-20T07:23:45.000Z</time>
      </trkpt>
      <trkpt lat="47.27721" lon="0.83449">
        <ele>86.9</ele>
        <time>2015-06-20T07:23:54.000Z</time>
      </trkpt>
      <trkpt lat="47.27663" lon="0.83425">
        <ele>87</ele>
        <time>2015-06-20T07:24:04.000Z</time>
      </trkpt>
      <trkpt lat="47.27608" lon="0.83406">
        <ele>87</ele>
        <time>2015-06-20T07:24:15.000Z</time>
      </trkpt>
      <trkpt lat="47.2759" lon="0.83395">
        <ele>87</ele>
        <time>2015-06-20T07:24:19.000Z</time>
      </trkpt>
      <trkpt lat="47.27555" lon="0.83354">
        <ele>87</ele>
        <time>2015-06-20T07:24:27.000Z</time>
      </trkpt>
      <trkpt lat="47.27542" lon="0.83321">
        <ele>87</ele>
        <time>2015-06-20T07:24:32.000Z</time>
      </trkpt>
      <trkpt lat="47.27538" lon="0.83317">
        <ele>87</ele>
        <time>2015-06-20T07:24:33.000Z</time>
      </trkpt>
      <trkpt lat="47.27521" lon="0.83353">
        <ele>87</ele>
        <time>2015-06-20T07:24:40.000Z</time>
      </trkpt>
      <trkpt lat="47.27509" lon="0.83435">
        <ele>87</ele>
        <time>2015-06-20T07:24:49.000Z</time>
      </trkpt>
      <trkpt lat="47.27501" lon="0.83499">
        <ele>87</ele>
        <time>2015-06-20T07:24:57.000Z</time>
      </trkpt>
      <trkpt lat="47.275" lon="0.83534">
        <ele>88</ele>
        <time>2015-06-20T07:25:01.000Z</time>
      </trkpt>
      <trkpt lat="47.27492" lon="0.83568">
        <ele>88</ele>
        <time>2015-06-20T07:25:05.000Z</time>
      </trkpt>
      <trkpt lat="47.2749" lon="0.83576">
        <ele>88</ele>
        <time>2015-06-20T07:25:06.000Z</time>
      </trkpt>
      <trkpt lat="47.27488" lon="0.8366">
        <ele>88</ele>
        <time>2015-06-20T07:25:15.000Z</time>
      </trkpt>
      <trkpt lat="47.27484" lon="0.83745">
        <ele>87.1</ele>
        <time>2015-06-20T07:25:24.000Z</time>
      </trkpt>
      <trkpt lat="47.2748" lon="0.83828">
        <ele>87</ele>
        <time>2015-06-20T07:25:33.000Z</time>
      </trkpt>
      <trkpt lat="47.27474" lon="0.83916">
        <ele>87</ele>
        <time>2015-06-20T07:25:42.000Z</time>
      </trkpt>
      <trkpt lat="47.27466" lon="0.83997">
        <ele>86.8</ele>
        <time>2015-06-20T07:25:50.000Z</time>
      </trkpt>
      <trkpt lat="47.27462" lon="0.84079">
        <ele>86</ele>
        <time>2015-06-20T07:25:58.000Z</time>
      </trkpt>
      <trkpt lat="47.27448" lon="0.84157">
        <ele>86</ele>
        <time>2015-06-20T07:26:06.000Z</time>
      </trkpt>
      <trkpt lat="47.27437" lon="0.84242">
        <ele>84.3</ele>
        <time>2015-06-20T07:26:15.000Z</time>
      </trkpt>
      <trkpt lat="47.27425" lon="0.84316">
        <ele>81.1</ele>
        <time>2015-06-20T07:26:22.000Z</time>
      </trkpt>
      <trkpt lat="47.27401" lon="0.84393">
        <ele>79.3</ele>
        <time>2015-06-20T07:26:30.000Z</time>
      </trkpt>
      <trkpt lat="47.27388" lon="0.84478">
        <ele>76.1</ele>
        <time>2015-06-20T07:26:39.000Z</time>
      </trkpt>
      <trkpt lat="47.27372" lon="0.84562">
        <ele>74.4</ele>
        <time>2015-06-20T07:26:47.000Z</time>
      </trkpt>
      <trkpt lat="47.2736" lon="0.84643">
        <ele>72</ele>
        <time>2015-06-20T07:26:55.000Z</time>
      </trkpt>
      <trkpt lat="47.27335" lon="0.84724">
        <ele>71.6</ele>
        <time>2015-06-20T07:27:03.000Z</time>
      </trkpt>
      <trkpt lat="47.27318" lon="0.84809">
        <ele>72.1</ele>
        <time>2015-06-20T07:27:11.000Z</time>
      </trkpt>
      <trkpt lat="47.27316" lon="0.8482">
        <ele>71.6</ele>
        <time>2015-06-20T07:27:12.000Z</time>
      </trkpt>
      <trkpt lat="47.27316" lon="0.84871">
        <ele>73.2</ele>
        <time>2015-06-20T07:27:17.000Z</time>
      </trkpt>
      <trkpt lat="47.27317" lon="0.84891">
        <ele>73.2</ele>
        <time>2015-06-20T07:27:19.000Z</time>
      </trkpt>
      <trkpt lat="47.27318" lon="0.84977">
        <ele>73.4</ele>
        <time>2015-06-20T07:27:28.000Z</time>
      </trkpt>
      <trkpt lat="47.27319" lon="0.85057">
        <ele>74</ele>
        <time>2015-06-20T07:27:38.000Z</time>
      </trkpt>
      <trkpt lat="47.27277" lon="0.85112">
        <ele>70</ele>
        <time>2015-06-20T07:27:46.000Z</time>
      </trkpt>
      <trkpt lat="47.27257" lon="0.85137">
        <ele>68.8</ele>
        <time>2015-06-20T07:27:49.000Z</time>
      </trkpt>
      <trkpt lat="47.27235" lon="0.85195">
        <ele>67.5</ele>
        <time>2015-06-20T07:27:54.000Z</time>
      </trkpt>
      <trkpt lat="47.27208" lon="0.8527">
        <ele>66.6</ele>
        <time>2015-06-20T07:28:01.000Z</time>
      </trkpt>
      <trkpt lat="47.27172" lon="0.85341">
        <ele>65.8</ele>
        <time>2015-06-20T07:28:09.000Z</time>
      </trkpt>
      <trkpt lat="47.27134" lon="0.85399">
        <ele>64.6</ele>
        <time>2015-06-20T07:28:16.000Z</time>
      </trkpt>
      <trkpt lat="47.2709" lon="0.85451">
        <ele>63.6</ele>
        <time>2015-06-20T07:28:23.000Z</time>
      </trkpt>
      <trkpt lat="47.27056" lon="0.85518">
        <ele>62.3</ele>
        <time>2015-06-20T07:28:30.000Z</time>
      </trkpt>
      <trkpt lat="47.27025" lon="0.85587">
        <ele>60.9</ele>
        <time>2015-06-20T07:28:37.000Z</time>
      </trkpt>
      <trkpt lat="47.27003" lon="0.85664">
        <ele>59.9</ele>
        <time>2015-06-20T07:28:44.000Z</time>
      </trkpt>
      <trkpt lat="47.26992" lon="0.85743">
        <ele>60</ele>
        <time>2015-06-20T07:28:51.000Z</time>
      </trkpt>
      <trkpt lat="47.26989" lon="0.85753">
        <ele>60</ele>
        <time>2015-06-20T07:28:52.000Z</time>
      </trkpt>
      <trkpt lat="47.26951" lon="0.85813">
        <ele>62.3</ele>
        <time>2015-06-20T07:29:00.000Z</time>
      </trkpt>
      <trkpt lat="47.26901" lon="0.85844">
        <ele>67.5</ele>
        <time>2015-06-20T07:29:12.000Z</time>
      </trkpt>
      <trkpt lat="47.26851" lon="0.85884">
        <ele>73.3</ele>
        <time>2015-06-20T07:29:28.000Z</time>
      </trkpt>
      <trkpt lat="47.26849" lon="0.85889">
        <ele>73.7</ele>
        <time>2015-06-20T07:29:29.000Z</time>
      </trkpt>
      <trkpt lat="47.26813" lon="0.85955">
        <ele>77.7</ele>
        <time>2015-06-20T07:29:45.000Z</time>
      </trkpt>
      <trkpt lat="47.26776" lon="0.86015">
        <ele>80.9</ele>
        <time>2015-06-20T07:30:01.000Z</time>
      </trkpt>
      <trkpt lat="47.26733" lon="0.86069">
        <ele>82.1</ele>
        <time>2015-06-20T07:30:16.000Z</time>
      </trkpt>
      <trkpt lat="47.26694" lon="0.86126">
        <ele>83.1</ele>
        <time>2015-06-20T07:30:25.000Z</time>
      </trkpt>
      <trkpt lat="47.26657" lon="0.86185">
        <ele>85.1</ele>
        <time>2015-06-20T07:30:34.000Z</time>
      </trkpt>
      <trkpt lat="47.26622" lon="0.86253">
        <ele>84.3</ele>
        <time>2015-06-20T07:30:43.000Z</time>
      </trkpt>
      <trkpt lat="47.26589" lon="0.8632">
        <ele>83.2</ele>
        <time>2015-06-20T07:30:52.000Z</time>
      </trkpt>
      <trkpt lat="47.26555" lon="0.86386">
        <ele>83.8</ele>
        <time>2015-06-20T07:31:01.000Z</time>
      </trkpt>
      <trkpt lat="47.26547" lon="0.86421">
        <ele>83.6</ele>
        <time>2015-06-20T07:31:05.000Z</time>
      </trkpt>
      <trkpt lat="47.2653" lon="0.86505">
        <ele>84.3</ele>
        <time>2015-06-20T07:31:14.000Z</time>
      </trkpt>
      <trkpt lat="47.265" lon="0.86579">
        <ele>86</ele>
        <time>2015-06-20T07:31:23.000Z</time>
      </trkpt>
      <trkpt lat="47.26465" lon="0.86642">
        <ele>86.9</ele>
        <time>2015-06-20T07:31:31.000Z</time>
      </trkpt>
      <trkpt lat="47.26424" lon="0.86706">
        <ele>86.6</ele>
        <time>2015-06-20T07:31:40.000Z</time>
      </trkpt>
      <trkpt lat="47.26381" lon="0.86756">
        <ele>85.9</ele>
        <time>2015-06-20T07:31:48.000Z</time>
      </trkpt>
      <trkpt lat="47.26332" lon="0.86799">
        <ele>87</ele>
        <time>2015-06-20T07:31:56.000Z</time>
      </trkpt>
      <trkpt lat="47.26279" lon="0.8684">
        <ele>88</ele>
        <time>2015-06-20T07:32:05.000Z</time>
      </trkpt>
      <trkpt lat="47.26239" lon="0.86876">
        <ele>88</ele>
        <time>2015-06-20T07:32:12.000Z</time>
      </trkpt>
      <trkpt lat="47.26188" lon="0.86919">
        <ele>88</ele>
        <time>2015-06-20T07:32:21.000Z</time>
      </trkpt>
      <trkpt lat="47.2614" lon="0.86961">
        <ele>87.4</ele>
        <time>2015-06-20T07:32:29.000Z</time>
      </trkpt>
      <trkpt lat="47.26093" lon="0.87008">
        <ele>87</ele>
        <time>2015-06-20T07:32:36.000Z</time>
      </trkpt>
      <trkpt lat="47.26043" lon="0.87042">
        <ele>87</ele>
        <time>2015-06-20T07:32:45.000Z</time>
      </trkpt>
      <trkpt lat="47.25993" lon="0.87085">
        <ele>87.7</ele>
        <time>2015-06-20T07:32:54.000Z</time>
      </trkpt>
      <trkpt lat="47.25943" lon="0.87127">
        <ele>88</ele>
        <time>2015-06-20T07:33:03.000Z</time>
      </trkpt>
      <trkpt lat="47.25894" lon="0.87172">
        <ele>88</ele>
        <time>2015-06-20T07:33:12.000Z</time>
      </trkpt>
      <trkpt lat="47.25846" lon="0.87218">
        <ele>88</ele>
        <time>2015-06-20T07:33:21.000Z</time>
      </trkpt>
      <trkpt lat="47.25797" lon="0.87263">
        <ele>88</ele>
        <time>2015-06-20T07:33:30.000Z</time>
      </trkpt>
      <trkpt lat="47.25761" lon="0.87287">
        <ele>88</ele>
        <time>2015-06-20T07:33:36.000Z</time>
      </trkpt>
      <trkpt lat="47.25703" lon="0.87295">
        <ele>88</ele>
        <time>2015-06-20T07:33:46.000Z</time>
      </trkpt>
      <trkpt lat="47.25643" lon="0.87294">
        <ele>88.5</ele>
        <time>2015-06-20T07:33:56.000Z</time>
      </trkpt>
      <trkpt lat="47.25586" lon="0.87303">
        <ele>88.1</ele>
        <time>2015-06-20T07:34:05.000Z</time>
      </trkpt>
      <trkpt lat="47.25528" lon="0.8732">
        <ele>88</ele>
        <time>2015-06-20T07:34:14.000Z</time>
      </trkpt>
      <trkpt lat="47.25472" lon="0.87342">
        <ele>88</ele>
        <time>2015-06-20T07:34:23.000Z</time>
      </trkpt>
      <trkpt lat="47.25422" lon="0.87375">
        <ele>87.6</ele>
        <time>2015-06-20T07:34:32.000Z</time>
      </trkpt>
      <trkpt lat="47.25375" lon="0.87426">
        <ele>87.7</ele>
        <time>2015-06-20T07:34:41.000Z</time>
      </trkpt>
      <trkpt lat="47.25333" lon="0.87486">
        <ele>88</ele>
        <time>2015-06-20T07:34:51.000Z</time>
      </trkpt>
      <trkpt lat="47.25322" lon="0.87501">
        <ele>87.6</ele>
        <time>2015-06-20T07:34:54.000Z</time>
      </trkpt>
      <trkpt lat="47.253" lon="0.8748">
        <ele>86.9</ele>
        <time>2015-06-20T07:34:59.000Z</time>
      </trkpt>
      <trkpt lat="47.2526" lon="0.87422">
        <ele>83.6</ele>
        <time>2015-06-20T07:35:08.000Z</time>
      </trkpt>
      <trkpt lat="47.25241" lon="0.87398">
        <ele>81.8</ele>
        <time>2015-06-20T07:35:12.000Z</time>
      </trkpt>
      <trkpt lat="47.25198" lon="0.87379">
        <ele>78.8</ele>
        <time>2015-06-20T07:35:19.000Z</time>
      </trkpt>
      <trkpt lat="47.25177" lon="0.87365">
        <ele>76.9</ele>
        <time>2015-06-20T07:35:25.000Z</time>
      </trkpt>
      <trkpt lat="47.25129" lon="0.87382">
        <ele>72.4</ele>
        <time>2015-06-20T07:35:34.000Z</time>
      </trkpt>
      <trkpt lat="47.25084" lon="0.8743">
        <ele>68.2</ele>
        <time>2015-06-20T07:35:40.000Z</time>
      </trkpt>
      <trkpt lat="47.25039" lon="0.87477">
        <ele>65</ele>
        <time>2015-06-20T07:35:46.000Z</time>
      </trkpt>
      <trkpt lat="47.25027" lon="0.87511">
        <ele>65.3</ele>
        <time>2015-06-20T07:35:49.000Z</time>
      </trkpt>
      <trkpt lat="47.25016" lon="0.87596">
        <ele>65.4</ele>
        <time>2015-06-20T07:35:56.000Z</time>
      </trkpt>
      <trkpt lat="47.24999" lon="0.8763">
        <ele>63.9</ele>
        <time>2015-06-20T07:36:03.000Z</time>
      </trkpt>
      <trkpt lat="47.24937" lon="0.87608">
        <ele>59.2</ele>
        <time>2015-06-20T07:36:08.000Z</time>
      </trkpt>
      <trkpt lat="47.24879" lon="0.876">
        <ele>59.5</ele>
        <time>2015-06-20T07:36:16.000Z</time>
      </trkpt>
      <trkpt lat="47.24823" lon="0.87599">
        <ele>61.9</ele>
        <time>2015-06-20T07:36:25.000Z</time>
      </trkpt>
      <trkpt lat="47.24792" lon="0.87609">
        <ele>65.9</ele>
        <time>2015-06-20T07:36:34.000Z</time>
      </trkpt>
      <trkpt lat="47.2479" lon="0.87637">
        <ele>66.3</ele>
        <time>2015-06-20T07:36:38.000Z</time>
      </trkpt>
      <trkpt lat="47.24783" lon="0.87718">
        <ele>67.1</ele>
        <time>2015-06-20T07:36:50.000Z</time>
      </trkpt>
      <trkpt lat="47.24782" lon="0.87724">
        <ele>67.2</ele>
        <time>2015-06-20T07:36:51.000Z</time>
      </trkpt>
      <trkpt lat="47.24756" lon="0.87795">
        <ele>71.2</ele>
        <time>2015-06-20T07:37:03.000Z</time>
      </trkpt>
      <trkpt lat="47.2475" lon="0.87813">
        <ele>72.2</ele>
        <time>2015-06-20T07:37:06.000Z</time>
      </trkpt>
      <trkpt lat="47.2474" lon="0.87895">
        <ele>75.4</ele>
        <time>2015-06-20T07:37:19.000Z</time>
      </trkpt>
      <trkpt lat="47.24732" lon="0.87974">
        <ele>77.7</ele>
        <time>2015-06-20T07:37:32.000Z</time>
      </trkpt>
      <trkpt lat="47.24727" lon="0.88011">
        <ele>78.8</ele>
        <time>2015-06-20T07:37:38.000Z</time>
      </trkpt>
      <trkpt lat="47.24698" lon="0.88013">
        <ele>81.8</ele>
        <time>2015-06-20T07:37:46.000Z</time>
      </trkpt>
      <trkpt lat="47.24653" lon="0.8796">
        <ele>84</ele>
        <time>2015-06-20T07:38:00.000Z</time>
      </trkpt>
      <trkpt lat="47.24635" lon="0.87935">
        <ele>85.2</ele>
        <time>2015-06-20T07:38:06.000Z</time>
      </trkpt>
      <trkpt lat="47.24632" lon="0.87887">
        <ele>86.3</ele>
        <time>2015-06-20T07:38:14.000Z</time>
      </trkpt>
      <trkpt lat="47.2464" lon="0.87809">
        <ele>87.1</ele>
        <time>2015-06-20T07:38:26.000Z</time>
      </trkpt>
      <trkpt lat="47.24638" lon="0.87783">
        <ele>87.1</ele>
        <time>2015-06-20T07:38:30.000Z</time>
      </trkpt>
      <trkpt lat="47.24614" lon="0.87746">
        <ele>88.9</ele>
        <time>2015-06-20T07:38:38.000Z</time>
      </trkpt>
      <trkpt lat="47.24567" lon="0.87704">
        <ele>90.6</ele>
        <time>2015-06-20T07:38:50.000Z</time>
      </trkpt>
      <trkpt lat="47.24521" lon="0.87664">
        <ele>92.2</ele>
        <time>2015-06-20T07:39:02.000Z</time>
      </trkpt>
      <trkpt lat="47.24474" lon="0.87622">
        <ele>93</ele>
        <time>2015-06-20T07:39:14.000Z</time>
      </trkpt>
      <trkpt lat="47.24427" lon="0.87581">
        <ele>94</ele>
        <time>2015-06-20T07:39:25.000Z</time>
      </trkpt>
      <trkpt lat="47.24379" lon="0.87539">
        <ele>93.7</ele>
        <time>2015-06-20T07:39:35.000Z</time>
      </trkpt>
      <trkpt lat="47.24332" lon="0.87493">
        <ele>93</ele>
        <time>2015-06-20T07:39:44.000Z</time>
      </trkpt>
      <trkpt lat="47.24282" lon="0.87443">
        <ele>93</ele>
        <time>2015-06-20T07:39:53.000Z</time>
      </trkpt>
      <trkpt lat="47.24232" lon="0.87393">
        <ele>92</ele>
        <time>2015-06-20T07:40:02.000Z</time>
      </trkpt>
      <trkpt lat="47.24185" lon="0.87348">
        <ele>92</ele>
        <time>2015-06-20T07:40:10.000Z</time>
      </trkpt>
      <trkpt lat="47.24147" lon="0.87305">
        <ele>92</ele>
        <time>2015-06-20T07:40:17.000Z</time>
      </trkpt>
      <trkpt lat="47.24132" lon="0.8726">
        <ele>92</ele>
        <time>2015-06-20T07:40:22.000Z</time>
      </trkpt>
      <trkpt lat="47.24121" lon="0.87225">
        <ele>92</ele>
        <time>2015-06-20T07:40:26.000Z</time>
      </trkpt>
      <trkpt lat="47.24073" lon="0.87179">
        <ele>92</ele>
        <time>2015-06-20T07:40:35.000Z</time>
      </trkpt>
      <trkpt lat="47.24023" lon="0.8713">
        <ele>92</ele>
        <time>2015-06-20T07:40:44.000Z</time>
      </trkpt>
      <trkpt lat="47.2402" lon="0.87121">
        <ele>92</ele>
        <time>2015-06-20T07:40:45.000Z</time>
      </trkpt>
      <trkpt lat="47.24026" lon="0.87082">
        <ele>92</ele>
        <time>2015-06-20T07:40:49.000Z</time>
      </trkpt>
      <trkpt lat="47.24036" lon="0.87034">
        <ele>92</ele>
        <time>2015-06-20T07:40:54.000Z</time>
      </trkpt>
      <trkpt lat="47.24009" lon="0.86969">
        <ele>92</ele>
        <time>2015-06-20T07:41:02.000Z</time>
      </trkpt>
      <trkpt lat="47.23989" lon="0.86959">
        <ele>92</ele>
        <time>2015-06-20T07:41:05.000Z</time>
      </trkpt>
      <trkpt lat="47.23936" lon="0.86921">
        <ele>92</ele>
        <time>2015-06-20T07:41:14.000Z</time>
      </trkpt>
      <trkpt lat="47.23891" lon="0.86865">
        <ele>92</ele>
        <time>2015-06-20T07:41:23.000Z</time>
      </trkpt>
      <trkpt lat="47.23861" lon="0.86834">
        <ele>92</ele>
        <time>2015-06-20T07:41:29.000Z</time>
      </trkpt>
      <trkpt lat="47.23829" lon="0.86817">
        <ele>91.6</ele>
        <time>2015-06-20T07:41:34.000Z</time>
      </trkpt>
      <trkpt lat="47.23786" lon="0.86769">
        <ele>92</ele>
        <time>2015-06-20T07:41:43.000Z</time>
      </trkpt>
      <trkpt lat="47.2374" lon="0.86721">
        <ele>92</ele>
        <time>2015-06-20T07:41:54.000Z</time>
      </trkpt>
      <trkpt lat="47.23736" lon="0.8671">
        <ele>92</ele>
        <time>2015-06-20T07:41:59.000Z</time>
      </trkpt>
      <trkpt lat="47.23717" lon="0.86698">
        <ele>92</ele>
        <time>2015-06-20T07:42:07.000Z</time>
      </trkpt>
      <trkpt lat="47.23709" lon="0.86692">
        <ele>92</ele>
        <time>2015-06-20T07:42:09.000Z</time>
      </trkpt>
      <trkpt lat="47.23668" lon="0.8664">
        <ele>92</ele>
        <time>2015-06-20T07:42:19.000Z</time>
      </trkpt>
      <trkpt lat="47.23622" lon="0.86597">
        <ele>92</ele>
        <time>2015-06-20T07:42:29.000Z</time>
      </trkpt>
      <trkpt lat="47.23571" lon="0.86551">
        <ele>92</ele>
        <time>2015-06-20T07:42:39.000Z</time>
      </trkpt>
      <trkpt lat="47.23524" lon="0.86506">
        <ele>92</ele>
        <time>2015-06-20T07:42:47.000Z</time>
      </trkpt>
      <trkpt lat="47.23474" lon="0.8646">
        <ele>92.9</ele>
        <time>2015-06-20T07:42:56.000Z</time>
      </trkpt>
      <trkpt lat="47.23425" lon="0.86415">
        <ele>93</ele>
        <time>2015-06-20T07:43:05.000Z</time>
      </trkpt>
      <trkpt lat="47.23375" lon="0.8637">
        <ele>93</ele>
        <time>2015-06-20T07:43:14.000Z</time>
      </trkpt>
      <trkpt lat="47.23325" lon="0.86328">
        <ele>93.8</ele>
        <time>2015-06-20T07:43:23.000Z</time>
      </trkpt>
      <trkpt lat="47.23276" lon="0.86287">
        <ele>94</ele>
        <time>2015-06-20T07:43:32.000Z</time>
      </trkpt>
      <trkpt lat="47.23224" lon="0.86241">
        <ele>94</ele>
        <time>2015-06-20T07:43:42.000Z</time>
      </trkpt>
      <trkpt lat="47.23173" lon="0.86196">
        <ele>94</ele>
        <time>2015-06-20T07:43:51.000Z</time>
      </trkpt>
      <trkpt lat="47.23122" lon="0.86159">
        <ele>93.6</ele>
        <time>2015-06-20T07:44:00.000Z</time>
      </trkpt>
      <trkpt lat="47.23073" lon="0.86115">
        <ele>93.1</ele>
        <time>2015-06-20T07:44:09.000Z</time>
      </trkpt>
      <trkpt lat="47.23025" lon="0.86066">
        <ele>94</ele>
        <time>2015-06-20T07:44:18.000Z</time>
      </trkpt>
      <trkpt lat="47.22981" lon="0.86011">
        <ele>94</ele>
        <time>2015-06-20T07:44:27.000Z</time>
      </trkpt>
      <trkpt lat="47.22942" lon="0.85966">
        <ele>94.1</ele>
        <time>2015-06-20T07:44:35.000Z</time>
      </trkpt>
      <trkpt lat="47.22891" lon="0.85932">
        <ele>95</ele>
        <time>2015-06-20T07:44:44.000Z</time>
      </trkpt>
      <trkpt lat="47.22838" lon="0.85896">
        <ele>95</ele>
        <time>2015-06-20T07:44:53.000Z</time>
      </trkpt>
      <trkpt lat="47.22813" lon="0.85887">
        <ele>95</ele>
        <time>2015-06-20T07:44:57.000Z</time>
      </trkpt>
      <trkpt lat="47.22801" lon="0.8589">
        <ele>95.2</ele>
        <time>2015-06-20T07:44:59.000Z</time>
      </trkpt>
      <trkpt lat="47.22752" lon="0.85932">
        <ele>96</ele>
        <time>2015-06-20T07:45:08.000Z</time>
      </trkpt>
      <trkpt lat="47.22723" lon="0.85956">
        <ele>95.5</ele>
        <time>2015-06-20T07:45:13.000Z</time>
      </trkpt>
      <trkpt lat="47.22698" lon="0.85964">
        <ele>95.1</ele>
        <time>2015-06-20T07:45:17.000Z</time>
      </trkpt>
      <trkpt lat="47.22671" lon="0.85962">
        <ele>95</ele>
        <time>2015-06-20T07:45:21.000Z</time>
      </trkpt>
      <trkpt lat="47.22613" lon="0.85946">
        <ele>95</ele>
        <time>2015-06-20T07:45:30.000Z</time>
      </trkpt>
      <trkpt lat="47.22556" lon="0.85921">
        <ele>95</ele>
        <time>2015-06-20T07:45:39.000Z</time>
      </trkpt>
      <trkpt lat="47.22503" lon="0.85899">
        <ele>94.1</ele>
        <time>2015-06-20T07:45:47.000Z</time>
      </trkpt>
      <trkpt lat="47.22452" lon="0.85862">
        <ele>93.3</ele>
        <time>2015-06-20T07:45:55.000Z</time>
      </trkpt>
      <trkpt lat="47.22403" lon="0.85824">
        <ele>93</ele>
        <time>2015-06-20T07:46:03.000Z</time>
      </trkpt>
      <trkpt lat="47.22352" lon="0.85786">
        <ele>93</ele>
        <time>2015-06-20T07:46:12.000Z</time>
      </trkpt>
      <trkpt lat="47.22307" lon="0.85736">
        <ele>94</ele>
        <time>2015-06-20T07:46:21.000Z</time>
      </trkpt>
      <trkpt lat="47.22271" lon="0.85668">
        <ele>94</ele>
        <time>2015-06-20T07:46:30.000Z</time>
      </trkpt>
      <trkpt lat="47.22243" lon="0.85591">
        <ele>95</ele>
        <time>2015-06-20T07:46:39.000Z</time>
      </trkpt>
      <trkpt lat="47.22223" lon="0.8551">
        <ele>95</ele>
        <time>2015-06-20T07:46:48.000Z</time>
      </trkpt>
      <trkpt lat="47.22201" lon="0.85431">
        <ele>95</ele>
        <time>2015-06-20T07:46:57.000Z</time>
      </trkpt>
      <trkpt lat="47.22176" lon="0.85353">
        <ele>95</ele>
        <time>2015-06-20T07:47:06.000Z</time>
      </trkpt>
      <trkpt lat="47.22151" lon="0.85275">
        <ele>95</ele>
        <time>2015-06-20T07:47:15.000Z</time>
      </trkpt>
      <trkpt lat="47.22135" lon="0.85195">
        <ele>96</ele>
        <time>2015-06-20T07:47:24.000Z</time>
      </trkpt>
      <trkpt lat="47.22125" lon="0.85114">
        <ele>95.5</ele>
        <time>2015-06-20T07:47:33.000Z</time>
      </trkpt>
      <trkpt lat="47.22113" lon="0.85032">
        <ele>95.9</ele>
        <time>2015-06-20T07:47:42.000Z</time>
      </trkpt>
      <trkpt lat="47.22095" lon="0.84951">
        <ele>96</ele>
        <time>2015-06-20T07:47:51.000Z</time>
      </trkpt>
      <trkpt lat="47.22069" lon="0.84871">
        <ele>96</ele>
        <time>2015-06-20T07:48:00.000Z</time>
      </trkpt>
      <trkpt lat="47.22045" lon="0.84796">
        <ele>96.4</ele>
        <time>2015-06-20T07:48:09.000Z</time>
      </trkpt>
      <trkpt lat="47.2202" lon="0.84722">
        <ele>97</ele>
        <time>2015-06-20T07:48:18.000Z</time>
      </trkpt>
      <trkpt lat="47.21997" lon="0.84649">
        <ele>97</ele>
        <time>2015-06-20T07:48:27.000Z</time>
      </trkpt>
      <trkpt lat="47.21972" lon="0.84574">
        <ele>97</ele>
        <time>2015-06-20T07:48:36.000Z</time>
      </trkpt>
      <trkpt lat="47.21948" lon="0.845">
        <ele>97</ele>
        <time>2015-06-20T07:48:45.000Z</time>
      </trkpt>
      <trkpt lat="47.21923" lon="0.84424">
        <ele>98</ele>
        <time>2015-06-20T07:48:54.000Z</time>
      </trkpt>
      <trkpt lat="47.21898" lon="0.84348">
        <ele>97.8</ele>
        <time>2015-06-20T07:49:03.000Z</time>
      </trkpt>
      <trkpt lat="47.21873" lon="0.84271">
        <ele>97</ele>
        <time>2015-06-20T07:49:12.000Z</time>
      </trkpt>
      <trkpt lat="47.21848" lon="0.84194">
        <ele>97</ele>
        <time>2015-06-20T07:49:21.000Z</time>
      </trkpt>
      <trkpt lat="47.21823" lon="0.84117">
        <ele>96.5</ele>
        <time>2015-06-20T07:49:30.000Z</time>
      </trkpt>
      <trkpt lat="47.21801" lon="0.84044">
        <ele>96.5</ele>
        <time>2015-06-20T07:49:38.000Z</time>
      </trkpt>
      <trkpt lat="47.21781" lon="0.83962">
        <ele>95.6</ele>
        <time>2015-06-20T07:49:47.000Z</time>
      </trkpt>
      <trkpt lat="47.21767" lon="0.83885">
        <ele>94.1</ele>
        <time>2015-06-20T07:49:56.000Z</time>
      </trkpt>
      <trkpt lat="47.21765" lon="0.83869">
        <ele>94.3</ele>
        <time>2015-06-20T07:49:58.000Z</time>
      </trkpt>
      <trkpt lat="47.21771" lon="0.83828">
        <ele>93.2</ele>
        <time>2015-06-20T07:50:03.000Z</time>
      </trkpt>
      <trkpt lat="47.2178" lon="0.83786">
        <ele>93</ele>
        <time>2015-06-20T07:50:08.000Z</time>
      </trkpt>
      <trkpt lat="47.21774" lon="0.83758">
        <ele>93.7</ele>
        <time>2015-06-20T07:50:12.000Z</time>
      </trkpt>
      <trkpt lat="47.21754" lon="0.83723">
        <ele>92.2</ele>
        <time>2015-06-20T07:50:17.000Z</time>
      </trkpt>
      <trkpt lat="47.21743" lon="0.83711">
        <ele>91.6</ele>
        <time>2015-06-20T07:50:19.000Z</time>
      </trkpt>
      <trkpt lat="47.21705" lon="0.83692">
        <ele>90.2</ele>
        <time>2015-06-20T07:50:25.000Z</time>
      </trkpt>
      <trkpt lat="47.21685" lon="0.83687">
        <ele>89.8</ele>
        <time>2015-06-20T07:50:28.000Z</time>
      </trkpt>
      <trkpt lat="47.21633" lon="0.83661">
        <ele>90</ele>
        <time>2015-06-20T07:50:36.000Z</time>
      </trkpt>
      <trkpt lat="47.2158" lon="0.83634">
        <ele>89.9</ele>
        <time>2015-06-20T07:50:45.000Z</time>
      </trkpt>
      <trkpt lat="47.21529" lon="0.83605">
        <ele>90.5</ele>
        <time>2015-06-20T07:50:54.000Z</time>
      </trkpt>
      <trkpt lat="47.21476" lon="0.83572">
        <ele>91.7</ele>
        <time>2015-06-20T07:51:03.000Z</time>
      </trkpt>
      <trkpt lat="47.21418" lon="0.83558">
        <ele>92</ele>
        <time>2015-06-20T07:51:13.000Z</time>
      </trkpt>
      <trkpt lat="47.21383" lon="0.83552">
        <ele>91.1</ele>
        <time>2015-06-20T07:51:19.000Z</time>
      </trkpt>
      <trkpt lat="47.21367" lon="0.8353">
        <ele>90.1</ele>
        <time>2015-06-20T07:51:23.000Z</time>
      </trkpt>
      <trkpt lat="47.21363" lon="0.83523">
        <ele>89.7</ele>
        <time>2015-06-20T07:51:24.000Z</time>
      </trkpt>
      <trkpt lat="47.21319" lon="0.83507">
        <ele>90.4</ele>
        <time>2015-06-20T07:51:31.000Z</time>
      </trkpt>
      <trkpt lat="47.21264" lon="0.83491">
        <ele>90.7</ele>
        <time>2015-06-20T07:51:41.000Z</time>
      </trkpt>
      <trkpt lat="47.21208" lon="0.8347">
        <ele>90.4</ele>
        <time>2015-06-20T07:51:51.000Z</time>
      </trkpt>
      <trkpt lat="47.21196" lon="0.83463">
        <ele>90.6</ele>
        <time>2015-06-20T07:51:53.000Z</time>
      </trkpt>
      <trkpt lat="47.21152" lon="0.83407">
        <ele>91.5</ele>
        <time>2015-06-20T07:52:02.000Z</time>
      </trkpt>
      <trkpt lat="47.21132" lon="0.83385">
        <ele>92.2</ele>
        <time>2015-06-20T07:52:06.000Z</time>
      </trkpt>
      <trkpt lat="47.21122" lon="0.83376">
        <ele>92.6</ele>
        <time>2015-06-20T07:52:08.000Z</time>
      </trkpt>
      <trkpt lat="47.21067" lon="0.83341">
        <ele>93.6</ele>
        <time>2015-06-20T07:52:18.000Z</time>
      </trkpt>
      <trkpt lat="47.21009" lon="0.83318">
        <ele>94.7</ele>
        <time>2015-06-20T07:52:28.000Z</time>
      </trkpt>
      <trkpt lat="47.20954" lon="0.83319">
        <ele>95.3</ele>
        <time>2015-06-20T07:52:37.000Z</time>
      </trkpt>
      <trkpt lat="47.20897" lon="0.83342">
        <ele>95.4</ele>
        <time>2015-06-20T07:52:46.000Z</time>
      </trkpt>
      <trkpt lat="47.20847" lon="0.83373">
        <ele>96.2</ele>
        <time>2015-06-20T07:52:54.000Z</time>
      </trkpt>
      <trkpt lat="47.2079" lon="0.83394">
        <ele>97</ele>
        <time>2015-06-20T07:53:03.000Z</time>
      </trkpt>
      <trkpt lat="47.20731" lon="0.83404">
        <ele>97</ele>
        <time>2015-06-20T07:53:12.000Z</time>
      </trkpt>
      <trkpt lat="47.20671" lon="0.834">
        <ele>97</ele>
        <time>2015-06-20T07:53:21.000Z</time>
      </trkpt>
      <trkpt lat="47.20611" lon="0.83394">
        <ele>98</ele>
        <time>2015-06-20T07:53:30.000Z</time>
      </trkpt>
      <trkpt lat="47.20551" lon="0.83391">
        <ele>97.1</ele>
        <time>2015-06-20T07:53:39.000Z</time>
      </trkpt>
      <trkpt lat="47.20496" lon="0.83403">
        <ele>96.5</ele>
        <time>2015-06-20T07:53:47.000Z</time>
      </trkpt>
      <trkpt lat="47.20442" lon="0.83428">
        <ele>96.3</ele>
        <time>2015-06-20T07:53:55.000Z</time>
      </trkpt>
      <trkpt lat="47.20387" lon="0.83467">
        <ele>95.5</ele>
        <time>2015-06-20T07:54:04.000Z</time>
      </trkpt>
      <trkpt lat="47.20336" lon="0.83505">
        <ele>97</ele>
        <time>2015-06-20T07:54:12.000Z</time>
      </trkpt>
      <trkpt lat="47.20279" lon="0.83534">
        <ele>97</ele>
        <time>2015-06-20T07:54:21.000Z</time>
      </trkpt>
      <trkpt lat="47.2022" lon="0.83548">
        <ele>97</ele>
        <time>2015-06-20T07:54:30.000Z</time>
      </trkpt>
      <trkpt lat="47.2016" lon="0.83554">
        <ele>97</ele>
        <time>2015-06-20T07:54:39.000Z</time>
      </trkpt>
      <trkpt lat="47.20099" lon="0.83558">
        <ele>97</ele>
        <time>2015-06-20T07:54:48.000Z</time>
      </trkpt>
      <trkpt lat="47.20045" lon="0.83561">
        <ele>96.5</ele>
        <time>2015-06-20T07:54:56.000Z</time>
      </trkpt>
      <trkpt lat="47.19989" lon="0.83567">
        <ele>94.6</ele>
        <time>2015-06-20T07:55:04.000Z</time>
      </trkpt>
      <trkpt lat="47.19931" lon="0.83575">
        <ele>90.4</ele>
        <time>2015-06-20T07:55:11.000Z</time>
      </trkpt>
      <trkpt lat="47.1987" lon="0.83583">
        <ele>90</ele>
        <time>2015-06-20T07:55:18.000Z</time>
      </trkpt>
      <trkpt lat="47.19813" lon="0.83593">
        <ele>93.1</ele>
        <time>2015-06-20T07:55:26.000Z</time>
      </trkpt>
      <trkpt lat="47.19758" lon="0.83612">
        <ele>94</ele>
        <time>2015-06-20T07:55:35.000Z</time>
      </trkpt>
      <trkpt lat="47.197" lon="0.83635">
        <ele>92.4</ele>
        <time>2015-06-20T07:55:45.000Z</time>
      </trkpt>
      <trkpt lat="47.19694" lon="0.83637">
        <ele>92</ele>
        <time>2015-06-20T07:55:46.000Z</time>
      </trkpt>
      <trkpt lat="47.1964" lon="0.83653">
        <ele>91</ele>
        <time>2015-06-20T07:55:54.000Z</time>
      </trkpt>
      <trkpt lat="47.19626" lon="0.83653">
        <ele>91.3</ele>
        <time>2015-06-20T07:55:56.000Z</time>
      </trkpt>
      <trkpt lat="47.19568" lon="0.83643">
        <ele>92.6</ele>
        <time>2015-06-20T07:56:05.000Z</time>
      </trkpt>
      <trkpt lat="47.19531" lon="0.83646">
        <ele>93</ele>
        <time>2015-06-20T07:56:11.000Z</time>
      </trkpt>
      <trkpt lat="47.19477" lon="0.83661">
        <ele>94</ele>
        <time>2015-06-20T07:56:20.000Z</time>
      </trkpt>
      <trkpt lat="47.19466" lon="0.83667">
        <ele>94</ele>
        <time>2015-06-20T07:56:22.000Z</time>
      </trkpt>
      <trkpt lat="47.19449" lon="0.8368">
        <ele>94</ele>
        <time>2015-06-20T07:56:25.000Z</time>
      </trkpt>
      <trkpt lat="47.19434" lon="0.83697">
        <ele>94.4</ele>
        <time>2015-06-20T07:56:28.000Z</time>
      </trkpt>
      <trkpt lat="47.19396" lon="0.83759">
        <ele>95</ele>
        <time>2015-06-20T07:56:37.000Z</time>
      </trkpt>
      <trkpt lat="47.19358" lon="0.83825">
        <ele>95</ele>
        <time>2015-06-20T07:56:46.000Z</time>
      </trkpt>
      <trkpt lat="47.19335" lon="0.8386">
        <ele>95</ele>
        <time>2015-06-20T07:56:51.000Z</time>
      </trkpt>
      <trkpt lat="47.19287" lon="0.83909">
        <ele>95</ele>
        <time>2015-06-20T07:57:00.000Z</time>
      </trkpt>
      <trkpt lat="47.19237" lon="0.83953">
        <ele>95.1</ele>
        <time>2015-06-20T07:57:09.000Z</time>
      </trkpt>
      <trkpt lat="47.19187" lon="0.83997">
        <ele>96</ele>
        <time>2015-06-20T07:57:18.000Z</time>
      </trkpt>
      <trkpt lat="47.19136" lon="0.84043">
        <ele>96.5</ele>
        <time>2015-06-20T07:57:28.000Z</time>
      </trkpt>
      <trkpt lat="47.19088" lon="0.84081">
        <ele>96.1</ele>
        <time>2015-06-20T07:57:37.000Z</time>
      </trkpt>
      <trkpt lat="47.19067" lon="0.84095">
        <ele>96.2</ele>
        <time>2015-06-20T07:57:40.000Z</time>
      </trkpt>
      <trkpt lat="47.19022" lon="0.84151">
        <ele>97.1</ele>
        <time>2015-06-20T07:57:49.000Z</time>
      </trkpt>
      <trkpt lat="47.18976" lon="0.84207">
        <ele>99.3</ele>
        <time>2015-06-20T07:57:59.000Z</time>
      </trkpt>
      <trkpt lat="47.18931" lon="0.84258">
        <ele>101.3</ele>
        <time>2015-06-20T07:58:09.000Z</time>
      </trkpt>
      <trkpt lat="47.18885" lon="0.84309">
        <ele>102</ele>
        <time>2015-06-20T07:58:19.000Z</time>
      </trkpt>
      <trkpt lat="47.18835" lon="0.84347">
        <ele>101.6</ele>
        <time>2015-06-20T07:58:28.000Z</time>
      </trkpt>
      <trkpt lat="47.18783" lon="0.84382">
        <ele>100.4</ele>
        <time>2015-06-20T07:58:37.000Z</time>
      </trkpt>
      <trkpt lat="47.18733" lon="0.84419">
        <ele>100</ele>
        <time>2015-06-20T07:58:45.000Z</time>
      </trkpt>
      <trkpt lat="47.18678" lon="0.84456">
        <ele>100</ele>
        <time>2015-06-20T07:58:54.000Z</time>
      </trkpt>
      <trkpt lat="47.18623" lon="0.84492">
        <ele>100</ele>
        <time>2015-06-20T07:59:03.000Z</time>
      </trkpt>
      <trkpt lat="47.18574" lon="0.84525">
        <ele>100</ele>
        <time>2015-06-20T07:59:11.000Z</time>
      </trkpt>
      <trkpt lat="47.18523" lon="0.8456">
        <ele>99.7</ele>
        <time>2015-06-20T07:59:19.000Z</time>
      </trkpt>
      <trkpt lat="47.18473" lon="0.84593">
        <ele>99</ele>
        <time>2015-06-20T07:59:27.000Z</time>
      </trkpt>
      <trkpt lat="47.18419" lon="0.8463">
        <ele>98</ele>
        <time>2015-06-20T07:59:35.000Z</time>
      </trkpt>
      <trkpt lat="47.1837" lon="0.84665">
        <ele>98</ele>
        <time>2015-06-20T07:59:42.000Z</time>
      </trkpt>
      <trkpt lat="47.1832" lon="0.84718">
        <ele>97</ele>
        <time>2015-06-20T07:59:50.000Z</time>
      </trkpt>
      <trkpt lat="47.18281" lon="0.84785">
        <ele>96</ele>
        <time>2015-06-20T07:59:58.000Z</time>
      </trkpt>
      <trkpt lat="47.18247" lon="0.84855">
        <ele>94.9</ele>
        <time>2015-06-20T08:00:05.000Z</time>
      </trkpt>
      <trkpt lat="47.18211" lon="0.84928">
        <ele>94</ele>
        <time>2015-06-20T08:00:12.000Z</time>
      </trkpt>
      <trkpt lat="47.18178" lon="0.84994">
        <ele>95.5</ele>
        <time>2015-06-20T08:00:19.000Z</time>
      </trkpt>
      <trkpt lat="47.18145" lon="0.85063">
        <ele>96</ele>
        <time>2015-06-20T08:00:27.000Z</time>
      </trkpt>
      <trkpt lat="47.18112" lon="0.8513">
        <ele>96</ele>
        <time>2015-06-20T08:00:35.000Z</time>
      </trkpt>
      <trkpt lat="47.1808" lon="0.85196">
        <ele>96.9</ele>
        <time>2015-06-20T08:00:43.000Z</time>
      </trkpt>
      <trkpt lat="47.18047" lon="0.85261">
        <ele>97</ele>
        <time>2015-06-20T08:00:51.000Z</time>
      </trkpt>
      <trkpt lat="47.18015" lon="0.85327">
        <ele>97</ele>
        <time>2015-06-20T08:00:59.000Z</time>
      </trkpt>
      <trkpt lat="47.17981" lon="0.85395">
        <ele>96</ele>
        <time>2015-06-20T08:01:07.000Z</time>
      </trkpt>
      <trkpt lat="47.17948" lon="0.85463">
        <ele>95.9</ele>
        <time>2015-06-20T08:01:15.000Z</time>
      </trkpt>
      <trkpt lat="47.17914" lon="0.85529">
        <ele>94.9</ele>
        <time>2015-06-20T08:01:23.000Z</time>
      </trkpt>
      <trkpt lat="47.1788" lon="0.85591">
        <ele>92.7</ele>
        <time>2015-06-20T08:01:30.000Z</time>
      </trkpt>
      <trkpt lat="47.17844" lon="0.85651">
        <ele>92</ele>
        <time>2015-06-20T08:01:37.000Z</time>
      </trkpt>
      <trkpt lat="47.17801" lon="0.85705">
        <ele>93</ele>
        <time>2015-06-20T08:01:45.000Z</time>
      </trkpt>
      <trkpt lat="47.17769" lon="0.85776">
        <ele>93.7</ele>
        <time>2015-06-20T08:01:53.000Z</time>
      </trkpt>
      <trkpt lat="47.17744" lon="0.85849">
        <ele>93</ele>
        <time>2015-06-20T08:02:01.000Z</time>
      </trkpt>
      <trkpt lat="47.17718" lon="0.85924">
        <ele>92.6</ele>
        <time>2015-06-20T08:02:09.000Z</time>
      </trkpt>
      <trkpt lat="47.177" lon="0.8597">
        <ele>92.7</ele>
        <time>2015-06-20T08:02:15.000Z</time>
      </trkpt>
      <trkpt lat="47.17675" lon="0.86037">
        <ele>93.3</ele>
        <time>2015-06-20T08:02:32.000Z</time>
      </trkpt>
      <trkpt lat="47.17664" lon="0.86046">
        <ele>93.7</ele>
        <time>2015-06-20T08:02:37.000Z</time>
      </trkpt>
      <trkpt lat="47.17638" lon="0.86095">
        <ele>94</ele>
        <time>2015-06-20T08:02:45.000Z</time>
      </trkpt>
      <trkpt lat="47.17633" lon="0.86101">
        <ele>94</ele>
        <time>2015-06-20T08:02:46.000Z</time>
      </trkpt>
      <trkpt lat="47.17593" lon="0.8616">
        <ele>94.3</ele>
        <time>2015-06-20T08:02:56.000Z</time>
      </trkpt>
      <trkpt lat="47.17555" lon="0.86218">
        <ele>93.8</ele>
        <time>2015-06-20T08:03:05.000Z</time>
      </trkpt>
      <trkpt lat="47.17516" lon="0.86278">
        <ele>93</ele>
        <time>2015-06-20T08:03:13.000Z</time>
      </trkpt>
      <trkpt lat="47.17476" lon="0.86336">
        <ele>93</ele>
        <time>2015-06-20T08:03:21.000Z</time>
      </trkpt>
      <trkpt lat="47.17435" lon="0.86394">
        <ele>94.3</ele>
        <time>2015-06-20T08:03:29.000Z</time>
      </trkpt>
      <trkpt lat="47.17394" lon="0.86453">
        <ele>96.1</ele>
        <time>2015-06-20T08:03:38.000Z</time>
      </trkpt>
      <trkpt lat="47.17352" lon="0.86515">
        <ele>98.5</ele>
        <time>2015-06-20T08:03:48.000Z</time>
      </trkpt>
      <trkpt lat="47.17311" lon="0.86575">
        <ele>100.8</ele>
        <time>2015-06-20T08:03:58.000Z</time>
      </trkpt>
      <trkpt lat="47.17269" lon="0.86637">
        <ele>102</ele>
        <time>2015-06-20T08:04:08.000Z</time>
      </trkpt>
      <trkpt lat="47.17228" lon="0.86696">
        <ele>102.2</ele>
        <time>2015-06-20T08:04:17.000Z</time>
      </trkpt>
      <trkpt lat="47.17185" lon="0.86759">
        <ele>102.2</ele>
        <time>2015-06-20T08:04:26.000Z</time>
      </trkpt>
      <trkpt lat="47.17147" lon="0.86815">
        <ele>102.1</ele>
        <time>2015-06-20T08:04:34.000Z</time>
      </trkpt>
      <trkpt lat="47.17104" lon="0.86877">
        <ele>102.6</ele>
        <time>2015-06-20T08:04:43.000Z</time>
      </trkpt>
      <trkpt lat="47.17063" lon="0.86938">
        <ele>102.3</ele>
        <time>2015-06-20T08:04:52.000Z</time>
      </trkpt>
      <trkpt lat="47.17022" lon="0.86999">
        <ele>101.8</ele>
        <time>2015-06-20T08:05:00.000Z</time>
      </trkpt>
      <trkpt lat="47.16984" lon="0.87055">
        <ele>100</ele>
        <time>2015-06-20T08:05:07.000Z</time>
      </trkpt>
      <trkpt lat="47.16945" lon="0.87111">
        <ele>99</ele>
        <time>2015-06-20T08:05:14.000Z</time>
      </trkpt>
      <trkpt lat="47.16906" lon="0.87169">
        <ele>98</ele>
        <time>2015-06-20T08:05:21.000Z</time>
      </trkpt>
      <trkpt lat="47.16863" lon="0.87232">
        <ele>98.3</ele>
        <time>2015-06-20T08:05:29.000Z</time>
      </trkpt>
      <trkpt lat="47.16821" lon="0.87292">
        <ele>99.1</ele>
        <time>2015-06-20T08:05:37.000Z</time>
      </trkpt>
      <trkpt lat="47.1678" lon="0.87353">
        <ele>98.8</ele>
        <time>2015-06-20T08:05:45.000Z</time>
      </trkpt>
      <trkpt lat="47.1674" lon="0.87412">
        <ele>99</ele>
        <time>2015-06-20T08:05:53.000Z</time>
      </trkpt>
      <trkpt lat="47.16701" lon="0.87471">
        <ele>99</ele>
        <time>2015-06-20T08:06:01.000Z</time>
      </trkpt>
      <trkpt lat="47.16661" lon="0.87529">
        <ele>100</ele>
        <time>2015-06-20T08:06:09.000Z</time>
      </trkpt>
      <trkpt lat="47.16619" lon="0.87591">
        <ele>101.8</ele>
        <time>2015-06-20T08:06:18.000Z</time>
      </trkpt>
      <trkpt lat="47.16577" lon="0.8765">
        <ele>102.5</ele>
        <time>2015-06-20T08:06:27.000Z</time>
      </trkpt>
      <trkpt lat="47.16535" lon="0.87709">
        <ele>103</ele>
        <time>2015-06-20T08:06:36.000Z</time>
      </trkpt>
      <trkpt lat="47.16496" lon="0.87765">
        <ele>104</ele>
        <time>2015-06-20T08:06:44.000Z</time>
      </trkpt>
      <trkpt lat="47.16453" lon="0.87826">
        <ele>104</ele>
        <time>2015-06-20T08:06:53.000Z</time>
      </trkpt>
      <trkpt lat="47.16411" lon="0.87888">
        <ele>105</ele>
        <time>2015-06-20T08:07:02.000Z</time>
      </trkpt>
      <trkpt lat="47.16371" lon="0.87951">
        <ele>106.2</ele>
        <time>2015-06-20T08:07:11.000Z</time>
      </trkpt>
      <trkpt lat="47.16344" lon="0.88021">
        <ele>108</ele>
        <time>2015-06-20T08:07:20.000Z</time>
      </trkpt>
      <trkpt lat="47.16333" lon="0.881">
        <ele>109.6</ele>
        <time>2015-06-20T08:07:29.000Z</time>
      </trkpt>
      <trkpt lat="47.16345" lon="0.88183">
        <ele>109</ele>
        <time>2015-06-20T08:07:38.000Z</time>
      </trkpt>
      <trkpt lat="47.16366" lon="0.88262">
        <ele>107.8</ele>
        <time>2015-06-20T08:07:46.000Z</time>
      </trkpt>
      <trkpt lat="47.16388" lon="0.88343">
        <ele>106.7</ele>
        <time>2015-06-20T08:07:54.000Z</time>
      </trkpt>
      <trkpt lat="47.1641" lon="0.88427">
        <ele>105.2</ele>
        <time>2015-06-20T08:08:02.000Z</time>
      </trkpt>
      <trkpt lat="47.16431" lon="0.88505">
        <ele>106.6</ele>
        <time>2015-06-20T08:08:10.000Z</time>
      </trkpt>
      <trkpt lat="47.1645" lon="0.8858">
        <ele>108.9</ele>
        <time>2015-06-20T08:08:18.000Z</time>
      </trkpt>
      <trkpt lat="47.16471" lon="0.88659">
        <ele>109.7</ele>
        <time>2015-06-20T08:08:27.000Z</time>
      </trkpt>
      <trkpt lat="47.1649" lon="0.88736">
        <ele>109.2</ele>
        <time>2015-06-20T08:08:36.000Z</time>
      </trkpt>
      <trkpt lat="47.1651" lon="0.88818">
        <ele>108</ele>
        <time>2015-06-20T08:08:46.000Z</time>
      </trkpt>
      <trkpt lat="47.1653" lon="0.88901">
        <ele>108</ele>
        <time>2015-06-20T08:08:55.000Z</time>
      </trkpt>
      <trkpt lat="47.16538" lon="0.88984">
        <ele>108</ele>
        <time>2015-06-20T08:09:03.000Z</time>
      </trkpt>
      <trkpt lat="47.16522" lon="0.89067">
        <ele>108.8</ele>
        <time>2015-06-20T08:09:12.000Z</time>
      </trkpt>
      <trkpt lat="47.16508" lon="0.89122">
        <ele>108</ele>
        <time>2015-06-20T08:09:18.000Z</time>
      </trkpt>
      <trkpt lat="47.1649" lon="0.89205">
        <ele>107.6</ele>
        <time>2015-06-20T08:09:26.000Z</time>
      </trkpt>
      <trkpt lat="47.16476" lon="0.89289">
        <ele>107.5</ele>
        <time>2015-06-20T08:09:35.000Z</time>
      </trkpt>
      <trkpt lat="47.16466" lon="0.89363">
        <ele>108</ele>
        <time>2015-06-20T08:09:44.000Z</time>
      </trkpt>
      <trkpt lat="47.16465" lon="0.8938">
        <ele>108</ele>
        <time>2015-06-20T08:09:46.000Z</time>
      </trkpt>
      <trkpt lat="47.16472" lon="0.89468">
        <ele>109</ele>
        <time>2015-06-20T08:09:55.000Z</time>
      </trkpt>
      <trkpt lat="47.16479" lon="0.8955">
        <ele>109.4</ele>
        <time>2015-06-20T08:10:03.000Z</time>
      </trkpt>
      <trkpt lat="47.16481" lon="0.89597">
        <ele>110.3</ele>
        <time>2015-06-20T08:10:08.000Z</time>
      </trkpt>
      <trkpt lat="47.16496" lon="0.89678">
        <ele>111</ele>
        <time>2015-06-20T08:10:17.000Z</time>
      </trkpt>
      <trkpt lat="47.16512" lon="0.89754">
        <ele>112.2</ele>
        <time>2015-06-20T08:10:26.000Z</time>
      </trkpt>
      <trkpt lat="47.16528" lon="0.89839">
        <ele>113</ele>
        <time>2015-06-20T08:10:36.000Z</time>
      </trkpt>
      <trkpt lat="47.1654" lon="0.89919">
        <ele>114</ele>
        <time>2015-06-20T08:10:45.000Z</time>
      </trkpt>
      <trkpt lat="47.16551" lon="0.9">
        <ele>114</ele>
        <time>2015-06-20T08:10:54.000Z</time>
      </trkpt>
      <trkpt lat="47.16556" lon="0.90043">
        <ele>114</ele>
        <time>2015-06-20T08:10:59.000Z</time>
      </trkpt>
      <trkpt lat="47.16533" lon="0.90079">
        <ele>114</ele>
        <time>2015-06-20T08:11:05.000Z</time>
      </trkpt>
      <trkpt lat="47.16479" lon="0.90098">
        <ele>113</ele>
        <time>2015-06-20T08:11:13.000Z</time>
      </trkpt>
      <trkpt lat="47.16426" lon="0.90111">
        <ele>113</ele>
        <time>2015-06-20T08:11:21.000Z</time>
      </trkpt>
      <trkpt lat="47.16367" lon="0.90126">
        <ele>113.9</ele>
        <time>2015-06-20T08:11:30.000Z</time>
      </trkpt>
      <trkpt lat="47.16308" lon="0.9014">
        <ele>114.9</ele>
        <time>2015-06-20T08:11:39.000Z</time>
      </trkpt>
      <trkpt lat="47.16252" lon="0.90155">
        <ele>116</ele>
        <time>2015-06-20T08:11:48.000Z</time>
      </trkpt>
      <trkpt lat="47.16193" lon="0.9017">
        <ele>117.2</ele>
        <time>2015-06-20T08:11:58.000Z</time>
      </trkpt>
      <trkpt lat="47.16136" lon="0.90183">
        <ele>118</ele>
        <time>2015-06-20T08:12:08.000Z</time>
      </trkpt>
      <trkpt lat="47.1608" lon="0.90193">
        <ele>118</ele>
        <time>2015-06-20T08:12:17.000Z</time>
      </trkpt>
      <trkpt lat="47.16024" lon="0.90203">
        <ele>119</ele>
        <time>2015-06-20T08:12:26.000Z</time>
      </trkpt>
      <trkpt lat="47.16017" lon="0.90205">
        <ele>119</ele>
        <time>2015-06-20T08:12:27.000Z</time>
      </trkpt>
      <trkpt lat="47.15991" lon="0.9023">
        <ele>119.2</ele>
        <time>2015-06-20T08:12:32.000Z</time>
      </trkpt>
      <trkpt lat="47.15949" lon="0.90289">
        <ele>120</ele>
        <time>2015-06-20T08:12:41.000Z</time>
      </trkpt>
      <trkpt lat="47.15907" lon="0.90348">
        <ele>120</ele>
        <time>2015-06-20T08:12:50.000Z</time>
      </trkpt>
      <trkpt lat="47.15867" lon="0.90405">
        <ele>119.1</ele>
        <time>2015-06-20T08:12:58.000Z</time>
      </trkpt>
      <trkpt lat="47.15839" lon="0.90451">
        <ele>119.8</ele>
        <time>2015-06-20T08:13:04.000Z</time>
      </trkpt>
      <trkpt lat="47.15832" lon="0.90499">
        <ele>120</ele>
        <time>2015-06-20T08:13:09.000Z</time>
      </trkpt>
      <trkpt lat="47.15828" lon="0.90582">
        <ele>120</ele>
        <time>2015-06-20T08:13:17.000Z</time>
      </trkpt>
      <trkpt lat="47.15823" lon="0.90671">
        <ele>120</ele>
        <time>2015-06-20T08:13:26.000Z</time>
      </trkpt>
      <trkpt lat="47.15819" lon="0.90752">
        <ele>120</ele>
        <time>2015-06-20T08:13:34.000Z</time>
      </trkpt>
      <trkpt lat="47.15815" lon="0.90834">
        <ele>119.7</ele>
        <time>2015-06-20T08:13:42.000Z</time>
      </trkpt>
      <trkpt lat="47.1581" lon="0.90916">
        <ele>119.8</ele>
        <time>2015-06-20T08:13:50.000Z</time>
      </trkpt>
      <trkpt lat="47.15805" lon="0.90998">
        <ele>119.1</ele>
        <time>2015-06-20T08:13:58.000Z</time>
      </trkpt>
      <trkpt lat="47.15801" lon="0.9108">
        <ele>120</ele>
        <time>2015-06-20T08:14:06.000Z</time>
      </trkpt>
      <trkpt lat="47.15801" lon="0.91169">
        <ele>120.2</ele>
        <time>2015-06-20T08:14:15.000Z</time>
      </trkpt>
      <trkpt lat="47.158" lon="0.91232">
        <ele>119.2</ele>
        <time>2015-06-20T08:14:21.000Z</time>
      </trkpt>
      <trkpt lat="47.15791" lon="0.91273">
        <ele>119.5</ele>
        <time>2015-06-20T08:14:25.000Z</time>
      </trkpt>
      <trkpt lat="47.15765" lon="0.91349">
        <ele>119.7</ele>
        <time>2015-06-20T08:14:33.000Z</time>
      </trkpt>
      <trkpt lat="47.1574" lon="0.91425">
        <ele>119.8</ele>
        <time>2015-06-20T08:14:41.000Z</time>
      </trkpt>
      <trkpt lat="47.15718" lon="0.91503">
        <ele>119.9</ele>
        <time>2015-06-20T08:14:49.000Z</time>
      </trkpt>
      <trkpt lat="47.15699" lon="0.91583">
        <ele>119.8</ele>
        <time>2015-06-20T08:14:57.000Z</time>
      </trkpt>
      <trkpt lat="47.15679" lon="0.91663">
        <ele>119.9</ele>
        <time>2015-06-20T08:15:05.000Z</time>
      </trkpt>
      <trkpt lat="47.15658" lon="0.9174">
        <ele>120</ele>
        <time>2015-06-20T08:15:13.000Z</time>
      </trkpt>
      <trkpt lat="47.15626" lon="0.9181">
        <ele>119</ele>
        <time>2015-06-20T08:15:21.000Z</time>
      </trkpt>
      <trkpt lat="47.15582" lon="0.91868">
        <ele>118</ele>
        <time>2015-06-20T08:15:29.000Z</time>
      </trkpt>
      <trkpt lat="47.15536" lon="0.91919">
        <ele>117.2</ele>
        <time>2015-06-20T08:15:36.000Z</time>
      </trkpt>
      <trkpt lat="47.15491" lon="0.91968">
        <ele>116.4</ele>
        <time>2015-06-20T08:15:43.000Z</time>
      </trkpt>
      <trkpt lat="47.15449" lon="0.92019">
        <ele>116.3</ele>
        <time>2015-06-20T08:15:50.000Z</time>
      </trkpt>
      <trkpt lat="47.15408" lon="0.92071">
        <ele>116.3</ele>
        <time>2015-06-20T08:15:57.000Z</time>
      </trkpt>
      <trkpt lat="47.15363" lon="0.9213">
        <ele>116.9</ele>
        <time>2015-06-20T08:16:05.000Z</time>
      </trkpt>
      <trkpt lat="47.15321" lon="0.92185">
        <ele>118.2</ele>
        <time>2015-06-20T08:16:13.000Z</time>
      </trkpt>
      <trkpt lat="47.15281" lon="0.92241">
        <ele>118.9</ele>
        <time>2015-06-20T08:16:21.000Z</time>
      </trkpt>
      <trkpt lat="47.15241" lon="0.92307">
        <ele>119.3</ele>
        <time>2015-06-20T08:16:30.000Z</time>
      </trkpt>
      <trkpt lat="47.15205" lon="0.92369">
        <ele>120</ele>
        <time>2015-06-20T08:16:38.000Z</time>
      </trkpt>
      <trkpt lat="47.15169" lon="0.92431">
        <ele>120</ele>
        <time>2015-06-20T08:16:46.000Z</time>
      </trkpt>
      <trkpt lat="47.15128" lon="0.92486">
        <ele>119.8</ele>
        <time>2015-06-20T08:16:54.000Z</time>
      </trkpt>
      <trkpt lat="47.15082" lon="0.92536">
        <ele>119</ele>
        <time>2015-06-20T08:17:02.000Z</time>
      </trkpt>
      <trkpt lat="47.15042" lon="0.92602">
        <ele>118.5</ele>
        <time>2015-06-20T08:17:10.000Z</time>
      </trkpt>
      <trkpt lat="47.1501" lon="0.92674">
        <ele>118.3</ele>
        <time>2015-06-20T08:17:18.000Z</time>
      </trkpt>
      <trkpt lat="47.14981" lon="0.92747">
        <ele>118.3</ele>
        <time>2015-06-20T08:17:26.000Z</time>
      </trkpt>
      <trkpt lat="47.14959" lon="0.92824">
        <ele>118.2</ele>
        <time>2015-06-20T08:17:34.000Z</time>
      </trkpt>
      <trkpt lat="47.1494" lon="0.929">
        <ele>117.5</ele>
        <time>2015-06-20T08:17:42.000Z</time>
      </trkpt>
      <trkpt lat="47.14918" lon="0.92982">
        <ele>114.7</ele>
        <time>2015-06-20T08:17:50.000Z</time>
      </trkpt>
      <trkpt lat="47.14895" lon="0.93054">
        <ele>112.3</ele>
        <time>2015-06-20T08:17:56.000Z</time>
      </trkpt>
      <trkpt lat="47.14872" lon="0.93126">
        <ele>109.8</ele>
        <time>2015-06-20T08:18:02.000Z</time>
      </trkpt>
      <trkpt lat="47.14844" lon="0.93198">
        <ele>108.5</ele>
        <time>2015-06-20T08:18:08.000Z</time>
      </trkpt>
      <trkpt lat="47.14813" lon="0.93265">
        <ele>110.1</ele>
        <time>2015-06-20T08:18:15.000Z</time>
      </trkpt>
      <trkpt lat="47.14782" lon="0.93331">
        <ele>109.4</ele>
        <time>2015-06-20T08:18:23.000Z</time>
      </trkpt>
      <trkpt lat="47.14767" lon="0.93392">
        <ele>108.6</ele>
        <time>2015-06-20T08:18:30.000Z</time>
      </trkpt>
      <trkpt lat="47.14755" lon="0.93474">
        <ele>107.4</ele>
        <time>2015-06-20T08:18:39.000Z</time>
      </trkpt>
      <trkpt lat="47.14746" lon="0.9356">
        <ele>105.5</ele>
        <time>2015-06-20T08:18:47.000Z</time>
      </trkpt>
      <trkpt lat="47.14747" lon="0.93639">
        <ele>101.7</ele>
        <time>2015-06-20T08:18:53.000Z</time>
      </trkpt>
      <trkpt lat="47.14741" lon="0.93733">
        <ele>96.9</ele>
        <time>2015-06-20T08:18:59.000Z</time>
      </trkpt>
      <trkpt lat="47.14725" lon="0.93795">
        <ele>92.5</ele>
        <time>2015-06-20T08:19:04.000Z</time>
      </trkpt>
      <trkpt lat="47.14686" lon="0.93829">
        <ele>88.5</ele>
        <time>2015-06-20T08:19:09.000Z</time>
      </trkpt>
      <trkpt lat="47.14634" lon="0.9387">
        <ele>86.2</ele>
        <time>2015-06-20T08:19:16.000Z</time>
      </trkpt>
      <trkpt lat="47.14587" lon="0.93915">
        <ele>89.7</ele>
        <time>2015-06-20T08:19:24.000Z</time>
      </trkpt>
      <trkpt lat="47.14581" lon="0.93955">
        <ele>91.6</ele>
        <time>2015-06-20T08:19:28.000Z</time>
      </trkpt>
      <trkpt lat="47.1458" lon="0.93986">
        <ele>93.3</ele>
        <time>2015-06-20T08:19:31.000Z</time>
      </trkpt>
      <trkpt lat="47.14568" lon="0.94002">
        <ele>95.1</ele>
        <time>2015-06-20T08:19:37.000Z</time>
      </trkpt>
      <trkpt lat="47.14542" lon="0.9398">
        <ele>95.8</ele>
        <time>2015-06-20T08:19:45.000Z</time>
      </trkpt>
      <trkpt lat="47.14534" lon="0.93974">
        <ele>95.9</ele>
        <time>2015-06-20T08:19:47.000Z</time>
      </trkpt>
      <trkpt lat="47.14498" lon="0.93956">
        <ele>96.4</ele>
        <time>2015-06-20T08:19:55.000Z</time>
      </trkpt>
      <trkpt lat="47.14444" lon="0.93938">
        <ele>95.7</ele>
        <time>2015-06-20T08:20:09.000Z</time>
      </trkpt>
      <trkpt lat="47.14424" lon="0.93926">
        <ele>95.1</ele>
        <time>2015-06-20T08:20:15.000Z</time>
      </trkpt>
      <trkpt lat="47.14409" lon="0.93871">
        <ele>94.7</ele>
        <time>2015-06-20T08:20:22.000Z</time>
      </trkpt>
      <trkpt lat="47.14378" lon="0.93848">
        <ele>96.4</ele>
        <time>2015-06-20T08:20:29.000Z</time>
      </trkpt>
      <trkpt lat="47.14324" lon="0.93845">
        <ele>98.9</ele>
        <time>2015-06-20T08:20:44.000Z</time>
      </trkpt>
      <trkpt lat="47.14267" lon="0.93843">
        <ele>104.2</ele>
        <time>2015-06-20T08:20:59.000Z</time>
      </trkpt>
      <trkpt lat="47.14212" lon="0.93845">
        <ele>107.8</ele>
        <time>2015-06-20T08:21:13.000Z</time>
      </trkpt>
      <trkpt lat="47.14154" lon="0.93847">
        <ele>109.9</ele>
        <time>2015-06-20T08:21:26.000Z</time>
      </trkpt>
      <trkpt lat="47.14135" lon="0.93847">
        <ele>110.5</ele>
        <time>2015-06-20T08:21:30.000Z</time>
      </trkpt>
      <trkpt lat="47.14077" lon="0.93849">
        <ele>110.6</ele>
        <time>2015-06-20T08:21:42.000Z</time>
      </trkpt>
      <trkpt lat="47.14067" lon="0.93852">
        <ele>110.7</ele>
        <time>2015-06-20T08:21:44.000Z</time>
      </trkpt>
      <trkpt lat="47.14048" lon="0.93858">
        <ele>110.9</ele>
        <time>2015-06-20T08:21:48.000Z</time>
      </trkpt>
      <trkpt lat="47.13995" lon="0.9388">
        <ele>110.7</ele>
        <time>2015-06-20T08:21:58.000Z</time>
      </trkpt>
      <trkpt lat="47.13971" lon="0.93892">
        <ele>111.1</ele>
        <time>2015-06-20T08:22:02.000Z</time>
      </trkpt>
      <trkpt lat="47.13951" lon="0.93898">
        <ele>111.3</ele>
        <time>2015-06-20T08:22:06.000Z</time>
      </trkpt>
      <trkpt lat="47.13895" lon="0.93892">
        <ele>111.8</ele>
        <time>2015-06-20T08:22:15.000Z</time>
      </trkpt>
      <trkpt lat="47.13865" lon="0.93885">
        <ele>112.7</ele>
        <time>2015-06-20T08:22:20.000Z</time>
      </trkpt>
      <trkpt lat="47.1381" lon="0.93873">
        <ele>113.9</ele>
        <time>2015-06-20T08:22:30.000Z</time>
      </trkpt>
      <trkpt lat="47.13755" lon="0.93864">
        <ele>114.8</ele>
        <time>2015-06-20T08:22:40.000Z</time>
      </trkpt>
      <trkpt lat="47.13696" lon="0.93857">
        <ele>115.1</ele>
        <time>2015-06-20T08:22:50.000Z</time>
      </trkpt>
      <trkpt lat="47.1365" lon="0.93851">
        <ele>116.6</ele>
        <time>2015-06-20T08:22:58.000Z</time>
      </trkpt>
      <trkpt lat="47.13592" lon="0.93837">
        <ele>118.4</ele>
        <time>2015-06-20T08:23:08.000Z</time>
      </trkpt>
      <trkpt lat="47.13533" lon="0.93824">
        <ele>120</ele>
        <time>2015-06-20T08:23:18.000Z</time>
      </trkpt>
      <trkpt lat="47.13477" lon="0.93814">
        <ele>120</ele>
        <time>2015-06-20T08:23:28.000Z</time>
      </trkpt>
      <trkpt lat="47.1342" lon="0.93801">
        <ele>120.7</ele>
        <time>2015-06-20T08:23:38.000Z</time>
      </trkpt>
      <trkpt lat="47.13367" lon="0.93784">
        <ele>121.2</ele>
        <time>2015-06-20T08:23:47.000Z</time>
      </trkpt>
      <trkpt lat="47.13348" lon="0.93774">
        <ele>121.5</ele>
        <time>2015-06-20T08:23:50.000Z</time>
      </trkpt>
      <trkpt lat="47.13328" lon="0.93758">
        <ele>122.2</ele>
        <time>2015-06-20T08:23:53.000Z</time>
      </trkpt>
      <trkpt lat="47.13283" lon="0.93716">
        <ele>123</ele>
        <time>2015-06-20T08:24:02.000Z</time>
      </trkpt>
      <trkpt lat="47.13235" lon="0.93673">
        <ele>124.4</ele>
        <time>2015-06-20T08:24:11.000Z</time>
      </trkpt>
      <trkpt lat="47.13181" lon="0.93643">
        <ele>125</ele>
        <time>2015-06-20T08:24:21.000Z</time>
      </trkpt>
      <trkpt lat="47.13165" lon="0.93637">
        <ele>125.1</ele>
        <time>2015-06-20T08:24:24.000Z</time>
      </trkpt>
      <trkpt lat="47.1311" lon="0.93627">
        <ele>126</ele>
        <time>2015-06-20T08:24:34.000Z</time>
      </trkpt>
      <trkpt lat="47.13104" lon="0.93628">
        <ele>126</ele>
        <time>2015-06-20T08:24:35.000Z</time>
      </trkpt>
      <trkpt lat="47.13048" lon="0.93623">
        <ele>126</ele>
        <time>2015-06-20T08:24:46.000Z</time>
      </trkpt>
      <trkpt lat="47.12999" lon="0.93615">
        <ele>126</ele>
        <time>2015-06-20T08:24:57.000Z</time>
      </trkpt>
      <trkpt lat="47.12942" lon="0.93607">
        <ele>126.2</ele>
        <time>2015-06-20T08:25:08.000Z</time>
      </trkpt>
      <trkpt lat="47.12885" lon="0.93593">
        <ele>127</ele>
        <time>2015-06-20T08:25:19.000Z</time>
      </trkpt>
      <trkpt lat="47.12829" lon="0.93579">
        <ele>126.9</ele>
        <time>2015-06-20T08:25:29.000Z</time>
      </trkpt>
      <trkpt lat="47.12772" lon="0.9356">
        <ele>126.7</ele>
        <time>2015-06-20T08:25:37.000Z</time>
      </trkpt>
      <trkpt lat="47.12717" lon="0.9354">
        <ele>125.5</ele>
        <time>2015-06-20T08:25:45.000Z</time>
      </trkpt>
      <trkpt lat="47.12665" lon="0.93514">
        <ele>125</ele>
        <time>2015-06-20T08:25:53.000Z</time>
      </trkpt>
      <trkpt lat="47.12614" lon="0.93485">
        <ele>125</ele>
        <time>2015-06-20T08:26:02.000Z</time>
      </trkpt>
      <trkpt lat="47.12569" lon="0.93454">
        <ele>124.8</ele>
        <time>2015-06-20T08:26:10.000Z</time>
      </trkpt>
      <trkpt lat="47.12516" lon="0.93417">
        <ele>125</ele>
        <time>2015-06-20T08:26:18.000Z</time>
      </trkpt>
      <trkpt lat="47.12469" lon="0.93376">
        <ele>125.1</ele>
        <time>2015-06-20T08:26:26.000Z</time>
      </trkpt>
      <trkpt lat="47.1242" lon="0.93329">
        <ele>126</ele>
        <time>2015-06-20T08:26:35.000Z</time>
      </trkpt>
      <trkpt lat="47.12374" lon="0.93289">
        <ele>126.5</ele>
        <time>2015-06-20T08:26:44.000Z</time>
      </trkpt>
      <trkpt lat="47.12321" lon="0.93263">
        <ele>127.7</ele>
        <time>2015-06-20T08:26:53.000Z</time>
      </trkpt>
      <trkpt lat="47.12269" lon="0.93238">
        <ele>128.3</ele>
        <time>2015-06-20T08:27:02.000Z</time>
      </trkpt>
      <trkpt lat="47.12217" lon="0.93211">
        <ele>129.2</ele>
        <time>2015-06-20T08:27:11.000Z</time>
      </trkpt>
      <trkpt lat="47.12164" lon="0.93183">
        <ele>130.1</ele>
        <time>2015-06-20T08:27:20.000Z</time>
      </trkpt>
      <trkpt lat="47.12116" lon="0.93145">
        <ele>131</ele>
        <time>2015-06-20T08:27:29.000Z</time>
      </trkpt>
      <trkpt lat="47.12068" lon="0.93107">
        <ele>131.6</ele>
        <time>2015-06-20T08:27:38.000Z</time>
      </trkpt>
      <trkpt lat="47.12025" lon="0.93065">
        <ele>132</ele>
        <time>2015-06-20T08:27:46.000Z</time>
      </trkpt>
      <trkpt lat="47.1201" lon="0.93032">
        <ele>132</ele>
        <time>2015-06-20T08:27:50.000Z</time>
      </trkpt>
      <trkpt lat="47.11982" lon="0.92959">
        <ele>133</ele>
        <time>2015-06-20T08:27:59.000Z</time>
      </trkpt>
      <trkpt lat="47.11955" lon="0.92889">
        <ele>134</ele>
        <time>2015-06-20T08:28:08.000Z</time>
      </trkpt>
      <trkpt lat="47.11929" lon="0.92818">
        <ele>134.2</ele>
        <time>2015-06-20T08:28:17.000Z</time>
      </trkpt>
      <trkpt lat="47.11901" lon="0.9274">
        <ele>134</ele>
        <time>2015-06-20T08:28:27.000Z</time>
      </trkpt>
      <trkpt lat="47.11871" lon="0.92674">
        <ele>134.9</ele>
        <time>2015-06-20T08:28:35.000Z</time>
      </trkpt>
      <trkpt lat="47.11843" lon="0.92606">
        <ele>135</ele>
        <time>2015-06-20T08:28:43.000Z</time>
      </trkpt>
      <trkpt lat="47.11814" lon="0.92539">
        <ele>135</ele>
        <time>2015-06-20T08:28:51.000Z</time>
      </trkpt>
      <trkpt lat="47.11784" lon="0.92465">
        <ele>135.8</ele>
        <time>2015-06-20T08:29:00.000Z</time>
      </trkpt>
      <trkpt lat="47.11757" lon="0.92396">
        <ele>136</ele>
        <time>2015-06-20T08:29:09.000Z</time>
      </trkpt>
      <trkpt lat="47.11729" lon="0.92325">
        <ele>136</ele>
        <time>2015-06-20T08:29:18.000Z</time>
      </trkpt>
      <trkpt lat="47.11701" lon="0.92254">
        <ele>137</ele>
        <time>2015-06-20T08:29:27.000Z</time>
      </trkpt>
      <trkpt lat="47.11673" lon="0.92182">
        <ele>138</ele>
        <time>2015-06-20T08:29:36.000Z</time>
      </trkpt>
      <trkpt lat="47.11645" lon="0.92112">
        <ele>138</ele>
        <time>2015-06-20T08:29:45.000Z</time>
      </trkpt>
      <trkpt lat="47.11616" lon="0.92039">
        <ele>138</ele>
        <time>2015-06-20T08:29:54.000Z</time>
      </trkpt>
      <trkpt lat="47.11587" lon="0.91967">
        <ele>138.9</ele>
        <time>2015-06-20T08:30:03.000Z</time>
      </trkpt>
      <trkpt lat="47.11559" lon="0.91895">
        <ele>139</ele>
        <time>2015-06-20T08:30:12.000Z</time>
      </trkpt>
      <trkpt lat="47.11531" lon="0.91823">
        <ele>139</ele>
        <time>2015-06-20T08:30:21.000Z</time>
      </trkpt>
      <trkpt lat="47.11512" lon="0.91774">
        <ele>139.6</ele>
        <time>2015-06-20T08:30:28.000Z</time>
      </trkpt>
      <trkpt lat="47.11487" lon="0.91737">
        <ele>140</ele>
        <time>2015-06-20T08:30:34.000Z</time>
      </trkpt>
      <trkpt lat="47.11469" lon="0.91727">
        <ele>140</ele>
        <time>2015-06-20T08:30:37.000Z</time>
      </trkpt>
      <trkpt lat="47.11415" lon="0.91712">
        <ele>140</ele>
        <time>2015-06-20T08:30:45.000Z</time>
      </trkpt>
      <trkpt lat="47.11358" lon="0.91691">
        <ele>140.9</ele>
        <time>2015-06-20T08:30:54.000Z</time>
      </trkpt>
      <trkpt lat="47.11299" lon="0.91671">
        <ele>140</ele>
        <time>2015-06-20T08:31:03.000Z</time>
      </trkpt>
      <trkpt lat="47.11244" lon="0.91652">
        <ele>139.4</ele>
        <time>2015-06-20T08:31:11.000Z</time>
      </trkpt>
      <trkpt lat="47.11186" lon="0.91631">
        <ele>138.7</ele>
        <time>2015-06-20T08:31:19.000Z</time>
      </trkpt>
      <trkpt lat="47.11132" lon="0.91612">
        <ele>137</ele>
        <time>2015-06-20T08:31:26.000Z</time>
      </trkpt>
      <trkpt lat="47.11075" lon="0.91592">
        <ele>136.7</ele>
        <time>2015-06-20T08:31:33.000Z</time>
      </trkpt>
      <trkpt lat="47.11017" lon="0.91571">
        <ele>136.4</ele>
        <time>2015-06-20T08:31:40.000Z</time>
      </trkpt>
      <trkpt lat="47.10964" lon="0.91553">
        <ele>136.1</ele>
        <time>2015-06-20T08:31:47.000Z</time>
      </trkpt>
      <trkpt lat="47.10912" lon="0.91534">
        <ele>137.1</ele>
        <time>2015-06-20T08:31:54.000Z</time>
      </trkpt>
      <trkpt lat="47.10879" lon="0.91524">
        <ele>138</ele>
        <time>2015-06-20T08:31:59.000Z</time>
      </trkpt>
      <trkpt lat="47.10825" lon="0.915">
        <ele>139.3</ele>
        <time>2015-06-20T08:32:08.000Z</time>
      </trkpt>
      <trkpt lat="47.10811" lon="0.9147">
        <ele>140</ele>
        <time>2015-06-20T08:32:12.000Z</time>
      </trkpt>
      <trkpt lat="47.10783" lon="0.91399">
        <ele>140.9</ele>
        <time>2015-06-20T08:32:21.000Z</time>
      </trkpt>
      <trkpt lat="47.10753" lon="0.91327">
        <ele>141.9</ele>
        <time>2015-06-20T08:32:30.000Z</time>
      </trkpt>
      <trkpt lat="47.10723" lon="0.91257">
        <ele>142</ele>
        <time>2015-06-20T08:32:39.000Z</time>
      </trkpt>
      <trkpt lat="47.10694" lon="0.91188">
        <ele>143</ele>
        <time>2015-06-20T08:32:48.000Z</time>
      </trkpt>
      <trkpt lat="47.10664" lon="0.91117">
        <ele>143</ele>
        <time>2015-06-20T08:32:57.000Z</time>
      </trkpt>
      <trkpt lat="47.10637" lon="0.91047">
        <ele>144</ele>
        <time>2015-06-20T08:33:06.000Z</time>
      </trkpt>
      <trkpt lat="47.10627" lon="0.91026">
        <ele>144</ele>
        <time>2015-06-20T08:33:09.000Z</time>
      </trkpt>
      <trkpt lat="47.10587" lon="0.91023">
        <ele>144</ele>
        <time>2015-06-20T08:33:15.000Z</time>
      </trkpt>
      <trkpt lat="47.1053" lon="0.91028">
        <ele>144</ele>
        <time>2015-06-20T08:33:23.000Z</time>
      </trkpt>
      <trkpt lat="47.10471" lon="0.91027">
        <ele>144</ele>
        <time>2015-06-20T08:33:32.000Z</time>
      </trkpt>
      <trkpt lat="47.10416" lon="0.91028">
        <ele>145</ele>
        <time>2015-06-20T08:33:40.000Z</time>
      </trkpt>
      <trkpt lat="47.10357" lon="0.91027">
        <ele>144.9</ele>
        <time>2015-06-20T08:33:49.000Z</time>
      </trkpt>
      <trkpt lat="47.10302" lon="0.91029">
        <ele>144</ele>
        <time>2015-06-20T08:33:57.000Z</time>
      </trkpt>
      <trkpt lat="47.10242" lon="0.91031">
        <ele>144</ele>
        <time>2015-06-20T08:34:06.000Z</time>
      </trkpt>
      <trkpt lat="47.10187" lon="0.91031">
        <ele>143</ele>
        <time>2015-06-20T08:34:13.000Z</time>
      </trkpt>
      <trkpt lat="47.1013" lon="0.91031">
        <ele>142.6</ele>
        <time>2015-06-20T08:34:20.000Z</time>
      </trkpt>
      <trkpt lat="47.10076" lon="0.91032">
        <ele>142</ele>
        <time>2015-06-20T08:34:27.000Z</time>
      </trkpt>
      <trkpt lat="47.10016" lon="0.91038">
        <ele>142</ele>
        <time>2015-06-20T08:34:35.000Z</time>
      </trkpt>
      <trkpt lat="47.09956" lon="0.9105">
        <ele>142</ele>
        <time>2015-06-20T08:34:43.000Z</time>
      </trkpt>
      <trkpt lat="47.09897" lon="0.91059">
        <ele>142</ele>
        <time>2015-06-20T08:34:51.000Z</time>
      </trkpt>
      <trkpt lat="47.09839" lon="0.91071">
        <ele>142</ele>
        <time>2015-06-20T08:34:59.000Z</time>
      </trkpt>
      <trkpt lat="47.09784" lon="0.9108">
        <ele>142.8</ele>
        <time>2015-06-20T08:35:07.000Z</time>
      </trkpt>
      <trkpt lat="47.09726" lon="0.91082">
        <ele>143</ele>
        <time>2015-06-20T08:35:16.000Z</time>
      </trkpt>
      <trkpt lat="47.09666" lon="0.91071">
        <ele>142</ele>
        <time>2015-06-20T08:35:25.000Z</time>
      </trkpt>
      <trkpt lat="47.09609" lon="0.91059">
        <ele>139.8</ele>
        <time>2015-06-20T08:35:33.000Z</time>
      </trkpt>
      <trkpt lat="47.09553" lon="0.91047">
        <ele>138.1</ele>
        <time>2015-06-20T08:35:42.000Z</time>
      </trkpt>
      <trkpt lat="47.09545" lon="0.91043">
        <ele>137.7</ele>
        <time>2015-06-20T08:35:44.000Z</time>
      </trkpt>
      <trkpt lat="47.09534" lon="0.91025">
        <ele>137.6</ele>
        <time>2015-06-20T08:35:48.000Z</time>
      </trkpt>
      <trkpt lat="47.095" lon="0.90959">
        <ele>137</ele>
        <time>2015-06-20T08:35:59.000Z</time>
      </trkpt>
      <trkpt lat="47.09464" lon="0.90893">
        <ele>134.2</ele>
        <time>2015-06-20T08:36:08.000Z</time>
      </trkpt>
      <trkpt lat="47.09427" lon="0.90831">
        <ele>131.9</ele>
        <time>2015-06-20T08:36:16.000Z</time>
      </trkpt>
      <trkpt lat="47.09391" lon="0.9077">
        <ele>128.8</ele>
        <time>2015-06-20T08:36:23.000Z</time>
      </trkpt>
      <trkpt lat="47.0935" lon="0.90706">
        <ele>125</ele>
        <time>2015-06-20T08:36:30.000Z</time>
      </trkpt>
      <trkpt lat="47.09307" lon="0.90645">
        <ele>121.3</ele>
        <time>2015-06-20T08:36:36.000Z</time>
      </trkpt>
      <trkpt lat="47.09262" lon="0.90584">
        <ele>118.9</ele>
        <time>2015-06-20T08:36:42.000Z</time>
      </trkpt>
      <trkpt lat="47.0922" lon="0.9053">
        <ele>117.9</ele>
        <time>2015-06-20T08:36:48.000Z</time>
      </trkpt>
      <trkpt lat="47.09174" lon="0.90472">
        <ele>116.6</ele>
        <time>2015-06-20T08:36:55.000Z</time>
      </trkpt>
      <trkpt lat="47.09141" lon="0.9041">
        <ele>115.1</ele>
        <time>2015-06-20T08:37:01.000Z</time>
      </trkpt>
      <trkpt lat="47.09117" lon="0.90339">
        <ele>114.2</ele>
        <time>2015-06-20T08:37:07.000Z</time>
      </trkpt>
      <trkpt lat="47.09097" lon="0.90258">
        <ele>113.5</ele>
        <time>2015-06-20T08:37:14.000Z</time>
      </trkpt>
      <trkpt lat="47.09076" lon="0.9018">
        <ele>113.5</ele>
        <time>2015-06-20T08:37:21.000Z</time>
      </trkpt>
      <trkpt lat="47.09055" lon="0.90098">
        <ele>113</ele>
        <time>2015-06-20T08:37:29.000Z</time>
      </trkpt>
      <trkpt lat="47.09034" lon="0.90017">
        <ele>113.3</ele>
        <time>2015-06-20T08:37:38.000Z</time>
      </trkpt>
      <trkpt lat="47.09016" lon="0.89942">
        <ele>113.7</ele>
        <time>2015-06-20T08:37:46.000Z</time>
      </trkpt>
      <trkpt lat="47.09011" lon="0.89916">
        <ele>113.2</ele>
        <time>2015-06-20T08:37:49.000Z</time>
      </trkpt>
      <trkpt lat="47.09001" lon="0.89836">
        <ele>113.1</ele>
        <time>2015-06-20T08:37:57.000Z</time>
      </trkpt>
      <trkpt lat="47.08988" lon="0.89756">
        <ele>113.3</ele>
        <time>2015-06-20T08:38:05.000Z</time>
      </trkpt>
      <trkpt lat="47.08976" lon="0.89679">
        <ele>112.4</ele>
        <time>2015-06-20T08:38:13.000Z</time>
      </trkpt>
      <trkpt lat="47.08971" lon="0.89595">
        <ele>112.9</ele>
        <time>2015-06-20T08:38:21.000Z</time>
      </trkpt>
      <trkpt lat="47.0896" lon="0.8951">
        <ele>113.1</ele>
        <time>2015-06-20T08:38:29.000Z</time>
      </trkpt>
      <trkpt lat="47.08949" lon="0.89425">
        <ele>111.8</ele>
        <time>2015-06-20T08:38:38.000Z</time>
      </trkpt>
      <trkpt lat="47.0894" lon="0.89344">
        <ele>112.5</ele>
        <time>2015-06-20T08:38:47.000Z</time>
      </trkpt>
      <trkpt lat="47.08931" lon="0.89262">
        <ele>111.1</ele>
        <time>2015-06-20T08:38:56.000Z</time>
      </trkpt>
      <trkpt lat="47.08929" lon="0.8924">
        <ele>110.2</ele>
        <time>2015-06-20T08:38:59.000Z</time>
      </trkpt>
      <trkpt lat="47.08892" lon="0.8926">
        <ele>107.3</ele>
        <time>2015-06-20T08:39:06.000Z</time>
      </trkpt>
      <trkpt lat="47.08849" lon="0.89318">
        <ele>105.3</ele>
        <time>2015-06-20T08:39:14.000Z</time>
      </trkpt>
      <trkpt lat="47.08807" lon="0.89369">
        <ele>107.2</ele>
        <time>2015-06-20T08:39:23.000Z</time>
      </trkpt>
      <trkpt lat="47.08761" lon="0.89422">
        <ele>109.7</ele>
        <time>2015-06-20T08:39:35.000Z</time>
      </trkpt>
      <trkpt lat="47.08737" lon="0.89452">
        <ele>111.9</ele>
        <time>2015-06-20T08:39:42.000Z</time>
      </trkpt>
      <trkpt lat="47.08706" lon="0.89521">
        <ele>116.9</ele>
        <time>2015-06-20T08:39:56.000Z</time>
      </trkpt>
      <trkpt lat="47.08697" lon="0.8956">
        <ele>119</ele>
        <time>2015-06-20T08:40:04.000Z</time>
      </trkpt>
      <trkpt lat="47.08677" lon="0.89636">
        <ele>122.6</ele>
        <time>2015-06-20T08:40:18.000Z</time>
      </trkpt>
      <trkpt lat="47.08669" lon="0.89659">
        <ele>123.6</ele>
        <time>2015-06-20T08:40:22.000Z</time>
      </trkpt>
      <trkpt lat="47.0865" lon="0.89694">
        <ele>124.6</ele>
        <time>2015-06-20T08:40:29.000Z</time>
      </trkpt>
      <trkpt lat="47.08608" lon="0.8975">
        <ele>122.9</ele>
        <time>2015-06-20T08:40:40.000Z</time>
      </trkpt>
      <trkpt lat="47.08566" lon="0.89802">
        <ele>120.4</ele>
        <time>2015-06-20T08:40:48.000Z</time>
      </trkpt>
      <trkpt lat="47.08523" lon="0.89854">
        <ele>120</ele>
        <time>2015-06-20T08:40:56.000Z</time>
      </trkpt>
      <trkpt lat="47.0848" lon="0.89907">
        <ele>121.4</ele>
        <time>2015-06-20T08:41:04.000Z</time>
      </trkpt>
      <trkpt lat="47.08437" lon="0.89961">
        <ele>125.3</ele>
        <time>2015-06-20T08:41:14.000Z</time>
      </trkpt>
      <trkpt lat="47.08396" lon="0.90014">
        <ele>127.9</ele>
        <time>2015-06-20T08:41:25.000Z</time>
      </trkpt>
      <trkpt lat="47.08352" lon="0.9007">
        <ele>129.2</ele>
        <time>2015-06-20T08:41:36.000Z</time>
      </trkpt>
      <trkpt lat="47.08308" lon="0.90127">
        <ele>130.9</ele>
        <time>2015-06-20T08:41:47.000Z</time>
      </trkpt>
      <trkpt lat="47.08268" lon="0.9018">
        <ele>132</ele>
        <time>2015-06-20T08:41:57.000Z</time>
      </trkpt>
      <trkpt lat="47.08225" lon="0.90234">
        <ele>132.4</ele>
        <time>2015-06-20T08:42:07.000Z</time>
      </trkpt>
      <trkpt lat="47.08182" lon="0.9029">
        <ele>133</ele>
        <time>2015-06-20T08:42:17.000Z</time>
      </trkpt>
      <trkpt lat="47.08138" lon="0.90348">
        <ele>133</ele>
        <time>2015-06-20T08:42:27.000Z</time>
      </trkpt>
      <trkpt lat="47.08097" lon="0.90401">
        <ele>133.8</ele>
        <time>2015-06-20T08:42:36.000Z</time>
      </trkpt>
      <trkpt lat="47.08055" lon="0.90455">
        <ele>133.6</ele>
        <time>2015-06-20T08:42:45.000Z</time>
      </trkpt>
      <trkpt lat="47.08012" lon="0.9051">
        <ele>133</ele>
        <time>2015-06-20T08:42:54.000Z</time>
      </trkpt>
      <trkpt lat="47.07969" lon="0.90566">
        <ele>134</ele>
        <time>2015-06-20T08:43:03.000Z</time>
      </trkpt>
      <trkpt lat="47.07928" lon="0.90619">
        <ele>134.7</ele>
        <time>2015-06-20T08:43:12.000Z</time>
      </trkpt>
      <trkpt lat="47.07883" lon="0.90677">
        <ele>136</ele>
        <time>2015-06-20T08:43:22.000Z</time>
      </trkpt>
      <trkpt lat="47.07841" lon="0.90731">
        <ele>136.2</ele>
        <time>2015-06-20T08:43:31.000Z</time>
      </trkpt>
      <trkpt lat="47.078" lon="0.90784">
        <ele>137</ele>
        <time>2015-06-20T08:43:40.000Z</time>
      </trkpt>
      <trkpt lat="47.07759" lon="0.90836">
        <ele>137.7</ele>
        <time>2015-06-20T08:43:49.000Z</time>
      </trkpt>
      <trkpt lat="47.07719" lon="0.9089">
        <ele>138.1</ele>
        <time>2015-06-20T08:43:58.000Z</time>
      </trkpt>
      <trkpt lat="47.07678" lon="0.90942">
        <ele>139</ele>
        <time>2015-06-20T08:44:07.000Z</time>
      </trkpt>
      <trkpt lat="47.07636" lon="0.90995">
        <ele>139.7</ele>
        <time>2015-06-20T08:44:16.000Z</time>
      </trkpt>
      <trkpt lat="47.07596" lon="0.91049">
        <ele>139.2</ele>
        <time>2015-06-20T08:44:25.000Z</time>
      </trkpt>
      <trkpt lat="47.0755" lon="0.91108">
        <ele>136.4</ele>
        <time>2015-06-20T08:44:35.000Z</time>
      </trkpt>
      <trkpt lat="47.07503" lon="0.91169">
        <ele>131.3</ele>
        <time>2015-06-20T08:44:42.000Z</time>
      </trkpt>
      <trkpt lat="47.07455" lon="0.91231">
        <ele>128.1</ele>
        <time>2015-06-20T08:44:48.000Z</time>
      </trkpt>
      <trkpt lat="47.07409" lon="0.9129">
        <ele>126.3</ele>
        <time>2015-06-20T08:44:54.000Z</time>
      </trkpt>
      <trkpt lat="47.07363" lon="0.91349">
        <ele>124.2</ele>
        <time>2015-06-20T08:45:00.000Z</time>
      </trkpt>
      <trkpt lat="47.07319" lon="0.91406">
        <ele>122</ele>
        <time>2015-06-20T08:45:06.000Z</time>
      </trkpt>
      <trkpt lat="47.07274" lon="0.91464">
        <ele>118.9</ele>
        <time>2015-06-20T08:45:12.000Z</time>
      </trkpt>
      <trkpt lat="47.07242" lon="0.91507">
        <ele>117.5</ele>
        <time>2015-06-20T08:45:17.000Z</time>
      </trkpt>
      <trkpt lat="47.07257" lon="0.91574">
        <ele>117.6</ele>
        <time>2015-06-20T08:45:24.000Z</time>
      </trkpt>
      <trkpt lat="47.07297" lon="0.91616">
        <ele>118</ele>
        <time>2015-06-20T08:45:31.000Z</time>
      </trkpt>
      <trkpt lat="47.07318" lon="0.91637">
        <ele>118.5</ele>
        <time>2015-06-20T08:45:35.000Z</time>
      </trkpt>
      <trkpt lat="47.07327" lon="0.91649">
        <ele>118.2</ele>
        <time>2015-06-20T08:45:37.000Z</time>
      </trkpt>
      <trkpt lat="47.07322" lon="0.91728">
        <ele>117.1</ele>
        <time>2015-06-20T08:45:46.000Z</time>
      </trkpt>
      <trkpt lat="47.07296" lon="0.9175">
        <ele>116.7</ele>
        <time>2015-06-20T08:45:51.000Z</time>
      </trkpt>
      <trkpt lat="47.07291" lon="0.91755">
        <ele>116.6</ele>
        <time>2015-06-20T08:45:52.000Z</time>
      </trkpt>
      <trkpt lat="47.07239" lon="0.91775">
        <ele>113.6</ele>
        <time>2015-06-20T08:46:02.000Z</time>
      </trkpt>
      <trkpt lat="47.07219" lon="0.91707">
        <ele>111.9</ele>
        <time>2015-06-20T08:46:09.000Z</time>
      </trkpt>
      <trkpt lat="47.07216" lon="0.91684">
        <ele>112.1</ele>
        <time>2015-06-20T08:46:11.000Z</time>
      </trkpt>
      <trkpt lat="47.07198" lon="0.91638">
        <ele>111.5</ele>
        <time>2015-06-20T08:46:16.000Z</time>
      </trkpt>
      <trkpt lat="47.0716" lon="0.9158">
        <ele>110</ele>
        <time>2015-06-20T08:46:25.000Z</time>
      </trkpt>
      <trkpt lat="47.07143" lon="0.9156">
        <ele>110.1</ele>
        <time>2015-06-20T08:46:29.000Z</time>
      </trkpt>
      <trkpt lat="47.07112" lon="0.91554">
        <ele>108.1</ele>
        <time>2015-06-20T08:46:34.000Z</time>
      </trkpt>
      <trkpt lat="47.07054" lon="0.91553">
        <ele>105</ele>
        <time>2015-06-20T08:46:43.000Z</time>
      </trkpt>
      <trkpt lat="47.06997" lon="0.91558">
        <ele>102.9</ele>
        <time>2015-06-20T08:46:50.000Z</time>
      </trkpt>
      <trkpt lat="47.0694" lon="0.9156">
        <ele>99.7</ele>
        <time>2015-06-20T08:46:57.000Z</time>
      </trkpt>
      <trkpt lat="47.0688" lon="0.91556">
        <ele>96</ele>
        <time>2015-06-20T08:47:04.000Z</time>
      </trkpt>
      <trkpt lat="47.06825" lon="0.91548">
        <ele>94.7</ele>
        <time>2015-06-20T08:47:10.000Z</time>
      </trkpt>
      <trkpt lat="47.06766" lon="0.91548">
        <ele>93.6</ele>
        <time>2015-06-20T08:47:17.000Z</time>
      </trkpt>
      <trkpt lat="47.06707" lon="0.91549">
        <ele>94.6</ele>
        <time>2015-06-20T08:47:24.000Z</time>
      </trkpt>
      <trkpt lat="47.06661" lon="0.9155">
        <ele>95.4</ele>
        <time>2015-06-20T08:47:30.000Z</time>
      </trkpt>
      <trkpt lat="47.06607" lon="0.91547">
        <ele>98</ele>
        <time>2015-06-20T08:47:40.000Z</time>
      </trkpt>
      <trkpt lat="47.06549" lon="0.91548">
        <ele>101</ele>
        <time>2015-06-20T08:47:51.000Z</time>
      </trkpt>
      <trkpt lat="47.06491" lon="0.91548">
        <ele>103.3</ele>
        <time>2015-06-20T08:48:03.000Z</time>
      </trkpt>
      <trkpt lat="47.06434" lon="0.91544">
        <ele>105</ele>
        <time>2015-06-20T08:48:14.000Z</time>
      </trkpt>
      <trkpt lat="47.06377" lon="0.9154">
        <ele>105</ele>
        <time>2015-06-20T08:48:24.000Z</time>
      </trkpt>
      <trkpt lat="47.06318" lon="0.91537">
        <ele>105.4</ele>
        <time>2015-06-20T08:48:34.000Z</time>
      </trkpt>
      <trkpt lat="47.06261" lon="0.91534">
        <ele>105.8</ele>
        <time>2015-06-20T08:48:44.000Z</time>
      </trkpt>
      <trkpt lat="47.06205" lon="0.91531">
        <ele>107.5</ele>
        <time>2015-06-20T08:48:54.000Z</time>
      </trkpt>
      <trkpt lat="47.06149" lon="0.91508">
        <ele>109.6</ele>
        <time>2015-06-20T08:49:05.000Z</time>
      </trkpt>
      <trkpt lat="47.06122" lon="0.91491">
        <ele>110.9</ele>
        <time>2015-06-20T08:49:11.000Z</time>
      </trkpt>
      <trkpt lat="47.0607" lon="0.91466">
        <ele>112.1</ele>
        <time>2015-06-20T08:49:22.000Z</time>
      </trkpt>
      <trkpt lat="47.06062" lon="0.9146">
        <ele>112.3</ele>
        <time>2015-06-20T08:55:11.000Z</time>
      </trkpt>
      <trkpt lat="47.06007" lon="0.91465">
        <ele>112</ele>
        <time>2015-06-20T08:55:26.000Z</time>
      </trkpt>
      <trkpt lat="47.0595" lon="0.91475">
        <ele>111.9</ele>
        <time>2015-06-20T08:55:35.000Z</time>
      </trkpt>
      <trkpt lat="47.05893" lon="0.91485">
        <ele>112.9</ele>
        <time>2015-06-20T08:55:44.000Z</time>
      </trkpt>
      <trkpt lat="47.05837" lon="0.91495">
        <ele>114.9</ele>
        <time>2015-06-20T08:55:55.000Z</time>
      </trkpt>
      <trkpt lat="47.05782" lon="0.91506">
        <ele>118.7</ele>
        <time>2015-06-20T08:56:08.000Z</time>
      </trkpt>
      <trkpt lat="47.05728" lon="0.91495">
        <ele>122.4</ele>
        <time>2015-06-20T08:56:22.000Z</time>
      </trkpt>
      <trkpt lat="47.05673" lon="0.9147">
        <ele>125.5</ele>
        <time>2015-06-20T08:56:36.000Z</time>
      </trkpt>
      <trkpt lat="47.05621" lon="0.91447">
        <ele>128.7</ele>
        <time>2015-06-20T08:56:50.000Z</time>
      </trkpt>
      <trkpt lat="47.05569" lon="0.91417">
        <ele>131.1</ele>
        <time>2015-06-20T08:57:04.000Z</time>
      </trkpt>
      <trkpt lat="47.05562" lon="0.9141">
        <ele>131.5</ele>
        <time>2015-06-20T08:57:06.000Z</time>
      </trkpt>
      <trkpt lat="47.0552" lon="0.91359">
        <ele>132.5</ele>
        <time>2015-06-20T08:57:18.000Z</time>
      </trkpt>
      <trkpt lat="47.05476" lon="0.91308">
        <ele>133.9</ele>
        <time>2015-06-20T08:57:29.000Z</time>
      </trkpt>
      <trkpt lat="47.05434" lon="0.91258">
        <ele>133.6</ele>
        <time>2015-06-20T08:57:39.000Z</time>
      </trkpt>
      <trkpt lat="47.05387" lon="0.91204">
        <ele>134</ele>
        <time>2015-06-20T08:57:49.000Z</time>
      </trkpt>
      <trkpt lat="47.05341" lon="0.91149">
        <ele>132.5</ele>
        <time>2015-06-20T08:57:58.000Z</time>
      </trkpt>
      <trkpt lat="47.05297" lon="0.91097">
        <ele>131</ele>
        <time>2015-06-20T08:58:06.000Z</time>
      </trkpt>
      <trkpt lat="47.05252" lon="0.91046">
        <ele>129.6</ele>
        <time>2015-06-20T08:58:13.000Z</time>
      </trkpt>
      <trkpt lat="47.0521" lon="0.90996">
        <ele>127.9</ele>
        <time>2015-06-20T08:58:19.000Z</time>
      </trkpt>
      <trkpt lat="47.05166" lon="0.90946">
        <ele>127.1</ele>
        <time>2015-06-20T08:58:25.000Z</time>
      </trkpt>
      <trkpt lat="47.05117" lon="0.90912">
        <ele>126.8</ele>
        <time>2015-06-20T08:58:31.000Z</time>
      </trkpt>
      <trkpt lat="47.05059" lon="0.90881">
        <ele>125.7</ele>
        <time>2015-06-20T08:58:38.000Z</time>
      </trkpt>
      <trkpt lat="47.05004" lon="0.90849">
        <ele>124.6</ele>
        <time>2015-06-20T08:58:45.000Z</time>
      </trkpt>
      <trkpt lat="47.04948" lon="0.90817">
        <ele>123</ele>
        <time>2015-06-20T08:58:52.000Z</time>
      </trkpt>
      <trkpt lat="47.04892" lon="0.90785">
        <ele>122</ele>
        <time>2015-06-20T08:58:59.000Z</time>
      </trkpt>
      <trkpt lat="47.04834" lon="0.90754">
        <ele>121</ele>
        <time>2015-06-20T08:59:06.000Z</time>
      </trkpt>
      <trkpt lat="47.04777" lon="0.90723">
        <ele>118.9</ele>
        <time>2015-06-20T08:59:13.000Z</time>
      </trkpt>
      <trkpt lat="47.04726" lon="0.90692">
        <ele>115.4</ele>
        <time>2015-06-20T08:59:19.000Z</time>
      </trkpt>
      <trkpt lat="47.04681" lon="0.90642">
        <ele>113.4</ele>
        <time>2015-06-20T08:59:25.000Z</time>
      </trkpt>
      <trkpt lat="47.04637" lon="0.90584">
        <ele>111.6</ele>
        <time>2015-06-20T08:59:31.000Z</time>
      </trkpt>
      <trkpt lat="47.04584" lon="0.90536">
        <ele>107.5</ele>
        <time>2015-06-20T08:59:37.000Z</time>
      </trkpt>
      <trkpt lat="47.04527" lon="0.90506">
        <ele>103.4</ele>
        <time>2015-06-20T08:59:43.000Z</time>
      </trkpt>
      <trkpt lat="47.04505" lon="0.90504">
        <ele>101.3</ele>
        <time>2015-06-20T08:59:45.000Z</time>
      </trkpt>
      <trkpt lat="47.04446" lon="0.90516">
        <ele>96.6</ele>
        <time>2015-06-20T08:59:50.000Z</time>
      </trkpt>
      <trkpt lat="47.04388" lon="0.90534">
        <ele>94</ele>
        <time>2015-06-20T08:59:55.000Z</time>
      </trkpt>
      <trkpt lat="47.04336" lon="0.90555">
        <ele>93.1</ele>
        <time>2015-06-20T09:00:00.000Z</time>
      </trkpt>
      <trkpt lat="47.04297" lon="0.90609">
        <ele>92.6</ele>
        <time>2015-06-20T09:00:06.000Z</time>
      </trkpt>
      <trkpt lat="47.04293" lon="0.90636">
        <ele>92.1</ele>
        <time>2015-06-20T09:00:08.000Z</time>
      </trkpt>
      <trkpt lat="47.0428" lon="0.9072">
        <ele>92.2</ele>
        <time>2015-06-20T09:00:14.000Z</time>
      </trkpt>
      <trkpt lat="47.04262" lon="0.90782">
        <ele>92.9</ele>
        <time>2015-06-20T09:00:20.000Z</time>
      </trkpt>
      <trkpt lat="47.0423" lon="0.90783">
        <ele>92.6</ele>
        <time>2015-06-20T09:00:26.000Z</time>
      </trkpt>
      <trkpt lat="47.04173" lon="0.90751">
        <ele>93</ele>
        <time>2015-06-20T09:00:35.000Z</time>
      </trkpt>
      <trkpt lat="47.04121" lon="0.9072">
        <ele>93.6</ele>
        <time>2015-06-20T09:00:44.000Z</time>
      </trkpt>
      <trkpt lat="47.04094" lon="0.90707">
        <ele>94.6</ele>
        <time>2015-06-20T09:00:49.000Z</time>
      </trkpt>
      <trkpt lat="47.04075" lon="0.90707">
        <ele>95.8</ele>
        <time>2015-06-20T09:00:53.000Z</time>
      </trkpt>
      <trkpt lat="47.0407" lon="0.90709">
        <ele>96.2</ele>
        <time>2015-06-20T09:00:54.000Z</time>
      </trkpt>
      <trkpt lat="47.04059" lon="0.9073">
        <ele>96.5</ele>
        <time>2015-06-20T09:00:58.000Z</time>
      </trkpt>
      <trkpt lat="47.0404" lon="0.90805">
        <ele>95</ele>
        <time>2015-06-20T09:01:08.000Z</time>
      </trkpt>
      <trkpt lat="47.04019" lon="0.90886">
        <ele>94.3</ele>
        <time>2015-06-20T09:01:17.000Z</time>
      </trkpt>
      <trkpt lat="47.0401" lon="0.90927">
        <ele>94.7</ele>
        <time>2015-06-20T09:01:22.000Z</time>
      </trkpt>
      <trkpt lat="47.03983" lon="0.90945">
        <ele>96.8</ele>
        <time>2015-06-20T09:01:27.000Z</time>
      </trkpt>
      <trkpt lat="47.03926" lon="0.90964">
        <ele>101.5</ele>
        <time>2015-06-20T09:01:39.000Z</time>
      </trkpt>
      <trkpt lat="47.03905" lon="0.90973">
        <ele>102.8</ele>
        <time>2015-06-20T09:01:44.000Z</time>
      </trkpt>
      <trkpt lat="47.03851" lon="0.90995">
        <ele>104.9</ele>
        <time>2015-06-20T09:01:56.000Z</time>
      </trkpt>
      <trkpt lat="47.03798" lon="0.91027">
        <ele>104.9</ele>
        <time>2015-06-20T09:02:07.000Z</time>
      </trkpt>
      <trkpt lat="47.03747" lon="0.91057">
        <ele>105</ele>
        <time>2015-06-20T09:02:17.000Z</time>
      </trkpt>
      <trkpt lat="47.03693" lon="0.91092">
        <ele>106.3</ele>
        <time>2015-06-20T09:02:27.000Z</time>
      </trkpt>
      <trkpt lat="47.0365" lon="0.9114">
        <ele>109.6</ele>
        <time>2015-06-20T09:02:38.000Z</time>
      </trkpt>
      <trkpt lat="47.03643" lon="0.91149">
        <ele>110.2</ele>
        <time>2015-06-20T09:02:40.000Z</time>
      </trkpt>
      <trkpt lat="47.0361" lon="0.91214">
        <ele>113.1</ele>
        <time>2015-06-20T09:02:52.000Z</time>
      </trkpt>
      <trkpt lat="47.03575" lon="0.91277">
        <ele>116</ele>
        <time>2015-06-20T09:03:04.000Z</time>
      </trkpt>
      <trkpt lat="47.03551" lon="0.91299">
        <ele>117.4</ele>
        <time>2015-06-20T09:03:10.000Z</time>
      </trkpt>
      <trkpt lat="47.03496" lon="0.91316">
        <ele>119.8</ele>
        <time>2015-06-20T09:03:22.000Z</time>
      </trkpt>
      <trkpt lat="47.03438" lon="0.9131">
        <ele>121.8</ele>
        <time>2015-06-20T09:03:34.000Z</time>
      </trkpt>
      <trkpt lat="47.03428" lon="0.91309">
        <ele>121.9</ele>
        <time>2015-06-20T09:03:36.000Z</time>
      </trkpt>
      <trkpt lat="47.03407" lon="0.91306">
        <ele>122.3</ele>
        <time>2015-06-20T09:03:40.000Z</time>
      </trkpt>
      <trkpt lat="47.03369" lon="0.91299">
        <ele>123.2</ele>
        <time>2015-06-20T09:03:47.000Z</time>
      </trkpt>
      <trkpt lat="47.03309" lon="0.91289">
        <ele>123.4</ele>
        <time>2015-06-20T09:03:57.000Z</time>
      </trkpt>
      <trkpt lat="47.03255" lon="0.91282">
        <ele>123.1</ele>
        <time>2015-06-20T09:04:05.000Z</time>
      </trkpt>
      <trkpt lat="47.03199" lon="0.91289">
        <ele>123.4</ele>
        <time>2015-06-20T09:04:13.000Z</time>
      </trkpt>
      <trkpt lat="47.03145" lon="0.91317">
        <ele>124.1</ele>
        <time>2015-06-20T09:04:22.000Z</time>
      </trkpt>
      <trkpt lat="47.03098" lon="0.91363">
        <ele>122</ele>
        <time>2015-06-20T09:04:30.000Z</time>
      </trkpt>
      <trkpt lat="47.03049" lon="0.91414">
        <ele>120</ele>
        <time>2015-06-20T09:04:37.000Z</time>
      </trkpt>
      <trkpt lat="47.02996" lon="0.9145">
        <ele>120.2</ele>
        <time>2015-06-20T09:04:44.000Z</time>
      </trkpt>
      <trkpt lat="47.0294" lon="0.9147">
        <ele>121.1</ele>
        <time>2015-06-20T09:04:51.000Z</time>
      </trkpt>
      <trkpt lat="47.02882" lon="0.91478">
        <ele>123.3</ele>
        <time>2015-06-20T09:04:59.000Z</time>
      </trkpt>
      <trkpt lat="47.02839" lon="0.91489">
        <ele>124.2</ele>
        <time>2015-06-20T09:05:05.000Z</time>
      </trkpt>
      <trkpt lat="47.02814" lon="0.91524">
        <ele>124.9</ele>
        <time>2015-06-20T09:05:10.000Z</time>
      </trkpt>
      <trkpt lat="47.02784" lon="0.91591">
        <ele>126</ele>
        <time>2015-06-20T09:05:18.000Z</time>
      </trkpt>
      <trkpt lat="47.0275" lon="0.91663">
        <ele>128</ele>
        <time>2015-06-20T09:05:27.000Z</time>
      </trkpt>
      <trkpt lat="47.02717" lon="0.91733">
        <ele>129.5</ele>
        <time>2015-06-20T09:05:37.000Z</time>
      </trkpt>
      <trkpt lat="47.027" lon="0.9177">
        <ele>130</ele>
        <time>2015-06-20T09:05:42.000Z</time>
      </trkpt>
      <trkpt lat="47.02681" lon="0.91847">
        <ele>131</ele>
        <time>2015-06-20T09:05:51.000Z</time>
      </trkpt>
      <trkpt lat="47.02656" lon="0.91922">
        <ele>131</ele>
        <time>2015-06-20T09:06:00.000Z</time>
      </trkpt>
      <trkpt lat="47.02633" lon="0.91995">
        <ele>131</ele>
        <time>2015-06-20T09:06:09.000Z</time>
      </trkpt>
      <trkpt lat="47.02631" lon="0.92004">
        <ele>131</ele>
        <time>2015-06-20T09:06:10.000Z</time>
      </trkpt>
      <trkpt lat="47.02627" lon="0.92091">
        <ele>131</ele>
        <time>2015-06-20T09:06:19.000Z</time>
      </trkpt>
      <trkpt lat="47.02623" lon="0.92166">
        <ele>131</ele>
        <time>2015-06-20T09:06:27.000Z</time>
      </trkpt>
      <trkpt lat="47.02587" lon="0.92182">
        <ele>131</ele>
        <time>2015-06-20T09:06:33.000Z</time>
      </trkpt>
      <trkpt lat="47.02531" lon="0.92184">
        <ele>130.1</ele>
        <time>2015-06-20T09:06:41.000Z</time>
      </trkpt>
      <trkpt lat="47.02495" lon="0.92189">
        <ele>130</ele>
        <time>2015-06-20T09:06:46.000Z</time>
      </trkpt>
      <trkpt lat="47.02458" lon="0.92246">
        <ele>130</ele>
        <time>2015-06-20T09:06:53.000Z</time>
      </trkpt>
      <trkpt lat="47.0243" lon="0.92317">
        <ele>129</ele>
        <time>2015-06-20T09:07:00.000Z</time>
      </trkpt>
      <trkpt lat="47.02402" lon="0.92389">
        <ele>129</ele>
        <time>2015-06-20T09:07:07.000Z</time>
      </trkpt>
      <trkpt lat="47.02375" lon="0.92459">
        <ele>129</ele>
        <time>2015-06-20T09:07:14.000Z</time>
      </trkpt>
      <trkpt lat="47.02347" lon="0.9253">
        <ele>129</ele>
        <time>2015-06-20T09:07:21.000Z</time>
      </trkpt>
      <trkpt lat="47.02319" lon="0.92599">
        <ele>129</ele>
        <time>2015-06-20T09:07:28.000Z</time>
      </trkpt>
      <trkpt lat="47.02291" lon="0.9267">
        <ele>129</ele>
        <time>2015-06-20T09:07:35.000Z</time>
      </trkpt>
      <trkpt lat="47.0226" lon="0.92746">
        <ele>128.5</ele>
        <time>2015-06-20T09:07:43.000Z</time>
      </trkpt>
      <trkpt lat="47.02251" lon="0.92763">
        <ele>128</ele>
        <time>2015-06-20T09:07:45.000Z</time>
      </trkpt>
      <trkpt lat="47.02204" lon="0.92768">
        <ele>127.3</ele>
        <time>2015-06-20T09:07:51.000Z</time>
      </trkpt>
      <trkpt lat="47.02146" lon="0.92751">
        <ele>127</ele>
        <time>2015-06-20T09:07:58.000Z</time>
      </trkpt>
      <trkpt lat="47.0209" lon="0.92751">
        <ele>127.7</ele>
        <time>2015-06-20T09:08:05.000Z</time>
      </trkpt>
      <trkpt lat="47.02038" lon="0.92773">
        <ele>127.7</ele>
        <time>2015-06-20T09:08:12.000Z</time>
      </trkpt>
      <trkpt lat="47.01999" lon="0.92786">
        <ele>128</ele>
        <time>2015-06-20T09:08:17.000Z</time>
      </trkpt>
      <trkpt lat="47.01954" lon="0.92769">
        <ele>128</ele>
        <time>2015-06-20T09:08:23.000Z</time>
      </trkpt>
      <trkpt lat="47.01897" lon="0.92737">
        <ele>128.7</ele>
        <time>2015-06-20T09:08:31.000Z</time>
      </trkpt>
      <trkpt lat="47.01841" lon="0.92704">
        <ele>129</ele>
        <time>2015-06-20T09:08:39.000Z</time>
      </trkpt>
      <trkpt lat="47.01789" lon="0.92675">
        <ele>129.6</ele>
        <time>2015-06-20T09:08:46.000Z</time>
      </trkpt>
      <trkpt lat="47.01736" lon="0.92652">
        <ele>130</ele>
        <time>2015-06-20T09:08:53.000Z</time>
      </trkpt>
      <trkpt lat="47.01682" lon="0.92635">
        <ele>130</ele>
        <time>2015-06-20T09:09:00.000Z</time>
      </trkpt>
      <trkpt lat="47.01628" lon="0.92618">
        <ele>130</ele>
        <time>2015-06-20T09:09:07.000Z</time>
      </trkpt>
      <trkpt lat="47.01572" lon="0.92601">
        <ele>130</ele>
        <time>2015-06-20T09:09:14.000Z</time>
      </trkpt>
      <trkpt lat="47.01517" lon="0.92583">
        <ele>130</ele>
        <time>2015-06-20T09:09:21.000Z</time>
      </trkpt>
      <trkpt lat="47.01462" lon="0.92566">
        <ele>130.6</ele>
        <time>2015-06-20T09:09:28.000Z</time>
      </trkpt>
      <trkpt lat="47.01408" lon="0.92549">
        <ele>131</ele>
        <time>2015-06-20T09:09:35.000Z</time>
      </trkpt>
      <trkpt lat="47.01353" lon="0.92532">
        <ele>131</ele>
        <time>2015-06-20T09:09:42.000Z</time>
      </trkpt>
      <trkpt lat="47.01299" lon="0.92514">
        <ele>131.5</ele>
        <time>2015-06-20T09:09:49.000Z</time>
      </trkpt>
      <trkpt lat="47.01244" lon="0.92499">
        <ele>131.2</ele>
        <time>2015-06-20T09:09:56.000Z</time>
      </trkpt>
      <trkpt lat="47.0119" lon="0.92483">
        <ele>131.9</ele>
        <time>2015-06-20T09:10:03.000Z</time>
      </trkpt>
      <trkpt lat="47.01135" lon="0.92471">
        <ele>131</ele>
        <time>2015-06-20T09:10:10.000Z</time>
      </trkpt>
      <trkpt lat="47.0108" lon="0.92476">
        <ele>131</ele>
        <time>2015-06-20T09:10:17.000Z</time>
      </trkpt>
      <trkpt lat="47.0104" lon="0.92478">
        <ele>131</ele>
        <time>2015-06-20T09:10:22.000Z</time>
      </trkpt>
      <trkpt lat="47.0101" lon="0.92464">
        <ele>131</ele>
        <time>2015-06-20T09:10:26.000Z</time>
      </trkpt>
      <trkpt lat="47.00956" lon="0.92446">
        <ele>131</ele>
        <time>2015-06-20T09:10:33.000Z</time>
      </trkpt>
      <trkpt lat="47.00895" lon="0.92433">
        <ele>131</ele>
        <time>2015-06-20T09:10:41.000Z</time>
      </trkpt>
      <trkpt lat="47.00841" lon="0.92422">
        <ele>132</ele>
        <time>2015-06-20T09:10:48.000Z</time>
      </trkpt>
      <trkpt lat="47.00786" lon="0.9241">
        <ele>131.2</ele>
        <time>2015-06-20T09:10:55.000Z</time>
      </trkpt>
      <trkpt lat="47.00729" lon="0.92399">
        <ele>130.3</ele>
        <time>2015-06-20T09:11:02.000Z</time>
      </trkpt>
      <trkpt lat="47.00671" lon="0.92387">
        <ele>130</ele>
        <time>2015-06-20T09:11:09.000Z</time>
      </trkpt>
      <trkpt lat="47.00616" lon="0.92375">
        <ele>129.5</ele>
        <time>2015-06-20T09:11:16.000Z</time>
      </trkpt>
      <trkpt lat="47.00561" lon="0.92356">
        <ele>130.6</ele>
        <time>2015-06-20T09:11:23.000Z</time>
      </trkpt>
      <trkpt lat="47.00509" lon="0.92336">
        <ele>130.7</ele>
        <time>2015-06-20T09:11:30.000Z</time>
      </trkpt>
      <trkpt lat="47.00449" lon="0.92319">
        <ele>131</ele>
        <time>2015-06-20T09:11:38.000Z</time>
      </trkpt>
      <trkpt lat="47.00395" lon="0.92311">
        <ele>131</ele>
        <time>2015-06-20T09:11:45.000Z</time>
      </trkpt>
      <trkpt lat="47.00341" lon="0.92305">
        <ele>130.3</ele>
        <time>2015-06-20T09:11:52.000Z</time>
      </trkpt>
      <trkpt lat="47.00285" lon="0.92298">
        <ele>128.8</ele>
        <time>2015-06-20T09:11:59.000Z</time>
      </trkpt>
      <trkpt lat="47.00225" lon="0.92289">
        <ele>127.1</ele>
        <time>2015-06-20T09:12:06.000Z</time>
      </trkpt>
      <trkpt lat="47.00168" lon="0.92263">
        <ele>126</ele>
        <time>2015-06-20T09:12:13.000Z</time>
      </trkpt>
      <trkpt lat="47.0011" lon="0.92233">
        <ele>125</ele>
        <time>2015-06-20T09:12:20.000Z</time>
      </trkpt>
      <trkpt lat="47.00056" lon="0.92204">
        <ele>124</ele>
        <time>2015-06-20T09:12:27.000Z</time>
      </trkpt>
      <trkpt lat="46.99999" lon="0.92181">
        <ele>122.4</ele>
        <time>2015-06-20T09:12:34.000Z</time>
      </trkpt>
      <trkpt lat="46.99941" lon="0.92184">
        <ele>121.3</ele>
        <time>2015-06-20T09:12:41.000Z</time>
      </trkpt>
      <trkpt lat="46.99886" lon="0.92192">
        <ele>120.1</ele>
        <time>2015-06-20T09:12:48.000Z</time>
      </trkpt>
      <trkpt lat="46.99829" lon="0.92206">
        <ele>120.5</ele>
        <time>2015-06-20T09:12:57.000Z</time>
      </trkpt>
      <trkpt lat="46.99775" lon="0.92221">
        <ele>122.1</ele>
        <time>2015-06-20T09:13:07.000Z</time>
      </trkpt>
      <trkpt lat="46.9974" lon="0.92233">
        <ele>123.6</ele>
        <time>2015-06-20T09:13:13.000Z</time>
      </trkpt>
      <trkpt lat="46.99701" lon="0.92242">
        <ele>124</ele>
        <time>2015-06-20T09:13:20.000Z</time>
      </trkpt>
      <trkpt lat="46.99644" lon="0.92222">
        <ele>124</ele>
        <time>2015-06-20T09:13:31.000Z</time>
      </trkpt>
      <trkpt lat="46.99586" lon="0.92209">
        <ele>123.5</ele>
        <time>2015-06-20T09:13:40.000Z</time>
      </trkpt>
      <trkpt lat="46.9955" lon="0.92198">
        <ele>122.1</ele>
        <time>2015-06-20T09:13:46.000Z</time>
      </trkpt>
      <trkpt lat="46.99499" lon="0.92154">
        <ele>118.5</ele>
        <time>2015-06-20T09:13:54.000Z</time>
      </trkpt>
      <trkpt lat="46.99452" lon="0.92111">
        <ele>115.3</ele>
        <time>2015-06-20T09:14:00.000Z</time>
      </trkpt>
      <trkpt lat="46.99396" lon="0.92079">
        <ele>112.7</ele>
        <time>2015-06-20T09:14:06.000Z</time>
      </trkpt>
      <trkpt lat="46.99343" lon="0.9206">
        <ele>113.1</ele>
        <time>2015-06-20T09:14:12.000Z</time>
      </trkpt>
      <trkpt lat="46.99288" lon="0.9204">
        <ele>114.3</ele>
        <time>2015-06-20T09:14:20.000Z</time>
      </trkpt>
      <trkpt lat="46.99234" lon="0.92017">
        <ele>114.9</ele>
        <time>2015-06-20T09:14:29.000Z</time>
      </trkpt>
      <trkpt lat="46.99215" lon="0.92003">
        <ele>112.2</ele>
        <time>2015-06-20T09:14:32.000Z</time>
      </trkpt>
      <trkpt lat="46.99192" lon="0.91951">
        <ele>108.8</ele>
        <time>2015-06-20T09:14:39.000Z</time>
      </trkpt>
      <trkpt lat="46.99204" lon="0.91896">
        <ele>105.2</ele>
        <time>2015-06-20T09:14:45.000Z</time>
      </trkpt>
      <trkpt lat="46.9923" lon="0.91852">
        <ele>104</ele>
        <time>2015-06-20T09:14:51.000Z</time>
      </trkpt>
      <trkpt lat="46.99217" lon="0.91815">
        <ele>104.4</ele>
        <time>2015-06-20T09:14:56.000Z</time>
      </trkpt>
      <trkpt lat="46.99212" lon="0.91809">
        <ele>104.2</ele>
        <time>2015-06-20T09:14:57.000Z</time>
      </trkpt>
      <trkpt lat="46.9917" lon="0.91748">
        <ele>102.3</ele>
        <time>2015-06-20T09:15:07.000Z</time>
      </trkpt>
      <trkpt lat="46.99129" lon="0.91689">
        <ele>102.8</ele>
        <time>2015-06-20T09:15:16.000Z</time>
      </trkpt>
      <trkpt lat="46.99124" lon="0.91683">
        <ele>102.7</ele>
        <time>2015-06-20T09:15:17.000Z</time>
      </trkpt>
      <trkpt lat="46.99113" lon="0.91673">
        <ele>102.1</ele>
        <time>2015-06-20T09:15:19.000Z</time>
      </trkpt>
      <trkpt lat="46.99067" lon="0.91676">
        <ele>101.7</ele>
        <time>2015-06-20T09:15:26.000Z</time>
      </trkpt>
      <trkpt lat="46.99022" lon="0.91684">
        <ele>101.8</ele>
        <time>2015-06-20T09:15:33.000Z</time>
      </trkpt>
      <trkpt lat="46.98966" lon="0.91673">
        <ele>100.4</ele>
        <time>2015-06-20T09:15:42.000Z</time>
      </trkpt>
      <trkpt lat="46.98924" lon="0.91659">
        <ele>99.8</ele>
        <time>2015-06-20T09:15:49.000Z</time>
      </trkpt>
      <trkpt lat="46.98872" lon="0.91626">
        <ele>98.8</ele>
        <time>2015-06-20T09:15:58.000Z</time>
      </trkpt>
      <trkpt lat="46.98851" lon="0.91605">
        <ele>98.2</ele>
        <time>2015-06-20T09:16:03.000Z</time>
      </trkpt>
      <trkpt lat="46.98801" lon="0.91566">
        <ele>97.9</ele>
        <time>2015-06-20T09:16:13.000Z</time>
      </trkpt>
      <trkpt lat="46.9875" lon="0.91542">
        <ele>101</ele>
        <time>2015-06-20T09:16:24.000Z</time>
      </trkpt>
      <trkpt lat="46.98696" lon="0.91517">
        <ele>106.3</ele>
        <time>2015-06-20T09:16:38.000Z</time>
      </trkpt>
      <trkpt lat="46.98644" lon="0.9149">
        <ele>109.4</ele>
        <time>2015-06-20T09:16:53.000Z</time>
      </trkpt>
      <trkpt lat="46.98591" lon="0.91465">
        <ele>113.4</ele>
        <time>2015-06-20T09:17:08.000Z</time>
      </trkpt>
      <trkpt lat="46.98539" lon="0.91442">
        <ele>118.7</ele>
        <time>2015-06-20T09:17:23.000Z</time>
      </trkpt>
      <trkpt lat="46.98486" lon="0.91422">
        <ele>122.6</ele>
        <time>2015-06-20T09:17:38.000Z</time>
      </trkpt>
      <trkpt lat="46.98431" lon="0.91411">
        <ele>126</ele>
        <time>2015-06-20T09:17:54.000Z</time>
      </trkpt>
      <trkpt lat="46.98375" lon="0.91409">
        <ele>129.1</ele>
        <time>2015-06-20T09:18:09.000Z</time>
      </trkpt>
      <trkpt lat="46.98319" lon="0.91412">
        <ele>130.6</ele>
        <time>2015-06-20T09:18:22.000Z</time>
      </trkpt>
      <trkpt lat="46.9826" lon="0.9141">
        <ele>130.3</ele>
        <time>2015-06-20T09:18:33.000Z</time>
      </trkpt>
      <trkpt lat="46.98205" lon="0.91394">
        <ele>130</ele>
        <time>2015-06-20T09:18:43.000Z</time>
      </trkpt>
      <trkpt lat="46.98147" lon="0.9137">
        <ele>128.5</ele>
        <time>2015-06-20T09:18:53.000Z</time>
      </trkpt>
      <trkpt lat="46.98091" lon="0.91347">
        <ele>126.3</ele>
        <time>2015-06-20T09:19:01.000Z</time>
      </trkpt>
      <trkpt lat="46.98034" lon="0.91323">
        <ele>123.4</ele>
        <time>2015-06-20T09:19:08.000Z</time>
      </trkpt>
      <trkpt lat="46.97978" lon="0.913">
        <ele>121.2</ele>
        <time>2015-06-20T09:19:14.000Z</time>
      </trkpt>
      <trkpt lat="46.97925" lon="0.91279">
        <ele>122.7</ele>
        <time>2015-06-20T09:19:20.000Z</time>
      </trkpt>
      <trkpt lat="46.97871" lon="0.91257">
        <ele>124</ele>
        <time>2015-06-20T09:19:27.000Z</time>
      </trkpt>
      <trkpt lat="46.97815" lon="0.91234">
        <ele>124.6</ele>
        <time>2015-06-20T09:19:34.000Z</time>
      </trkpt>
      <trkpt lat="46.97758" lon="0.9121">
        <ele>125</ele>
        <time>2015-06-20T09:19:41.000Z</time>
      </trkpt>
      <trkpt lat="46.97705" lon="0.91189">
        <ele>126.1</ele>
        <time>2015-06-20T09:19:48.000Z</time>
      </trkpt>
      <trkpt lat="46.97648" lon="0.91166">
        <ele>127.7</ele>
        <time>2015-06-20T09:19:56.000Z</time>
      </trkpt>
      <trkpt lat="46.97594" lon="0.91143">
        <ele>130.5</ele>
        <time>2015-06-20T09:20:04.000Z</time>
      </trkpt>
      <trkpt lat="46.97536" lon="0.91119">
        <ele>131.9</ele>
        <time>2015-06-20T09:20:13.000Z</time>
      </trkpt>
      <trkpt lat="46.97483" lon="0.91097">
        <ele>132.6</ele>
        <time>2015-06-20T09:20:21.000Z</time>
      </trkpt>
      <trkpt lat="46.97428" lon="0.91075">
        <ele>133</ele>
        <time>2015-06-20T09:20:29.000Z</time>
      </trkpt>
      <trkpt lat="46.97375" lon="0.91053">
        <ele>133</ele>
        <time>2015-06-20T09:20:36.000Z</time>
      </trkpt>
      <trkpt lat="46.97323" lon="0.91031">
        <ele>132</ele>
        <time>2015-06-20T09:20:43.000Z</time>
      </trkpt>
      <trkpt lat="46.97267" lon="0.91008">
        <ele>131</ele>
        <time>2015-06-20T09:20:50.000Z</time>
      </trkpt>
      <trkpt lat="46.97215" lon="0.90987">
        <ele>130</ele>
        <time>2015-06-20T09:20:57.000Z</time>
      </trkpt>
      <trkpt lat="46.97159" lon="0.90962">
        <ele>130</ele>
        <time>2015-06-20T09:21:05.000Z</time>
      </trkpt>
      <trkpt lat="46.97106" lon="0.90941">
        <ele>130</ele>
        <time>2015-06-20T09:21:12.000Z</time>
      </trkpt>
      <trkpt lat="46.97053" lon="0.90919">
        <ele>129.1</ele>
        <time>2015-06-20T09:21:19.000Z</time>
      </trkpt>
      <trkpt lat="46.96997" lon="0.90896">
        <ele>127.9</ele>
        <time>2015-06-20T09:21:26.000Z</time>
      </trkpt>
      <trkpt lat="46.96944" lon="0.90875">
        <ele>126.5</ele>
        <time>2015-06-20T09:21:33.000Z</time>
      </trkpt>
      <trkpt lat="46.96887" lon="0.90852">
        <ele>127.1</ele>
        <time>2015-06-20T09:21:40.000Z</time>
      </trkpt>
      <trkpt lat="46.96828" lon="0.90827">
        <ele>128.2</ele>
        <time>2015-06-20T09:21:48.000Z</time>
      </trkpt>
      <trkpt lat="46.96769" lon="0.90802">
        <ele>129.3</ele>
        <time>2015-06-20T09:21:56.000Z</time>
      </trkpt>
      <trkpt lat="46.96715" lon="0.90779">
        <ele>130</ele>
        <time>2015-06-20T09:22:04.000Z</time>
      </trkpt>
      <trkpt lat="46.96663" lon="0.9074">
        <ele>131.1</ele>
        <time>2015-06-20T09:22:12.000Z</time>
      </trkpt>
      <trkpt lat="46.96621" lon="0.90688">
        <ele>130.9</ele>
        <time>2015-06-20T09:22:20.000Z</time>
      </trkpt>
      <trkpt lat="46.96576" lon="0.90631">
        <ele>129.8</ele>
        <time>2015-06-20T09:22:28.000Z</time>
      </trkpt>
      <trkpt lat="46.9653" lon="0.90572">
        <ele>129</ele>
        <time>2015-06-20T09:22:36.000Z</time>
      </trkpt>
      <trkpt lat="46.96485" lon="0.90516">
        <ele>130.3</ele>
        <time>2015-06-20T09:22:44.000Z</time>
      </trkpt>
      <trkpt lat="46.96441" lon="0.90461">
        <ele>131</ele>
        <time>2015-06-20T09:22:52.000Z</time>
      </trkpt>
      <trkpt lat="46.96397" lon="0.90406">
        <ele>131</ele>
        <time>2015-06-20T09:23:00.000Z</time>
      </trkpt>
      <trkpt lat="46.96349" lon="0.90352">
        <ele>130.4</ele>
        <time>2015-06-20T09:23:08.000Z</time>
      </trkpt>
      <trkpt lat="46.96302" lon="0.90309">
        <ele>128.9</ele>
        <time>2015-06-20T09:23:15.000Z</time>
      </trkpt>
      <trkpt lat="46.96248" lon="0.90265">
        <ele>127</ele>
        <time>2015-06-20T09:23:22.000Z</time>
      </trkpt>
      <trkpt lat="46.96199" lon="0.90228">
        <ele>126.2</ele>
        <time>2015-06-20T09:23:28.000Z</time>
      </trkpt>
      <trkpt lat="46.9614" lon="0.90195">
        <ele>126</ele>
        <time>2015-06-20T09:23:35.000Z</time>
      </trkpt>
      <trkpt lat="46.96086" lon="0.90176">
        <ele>124.4</ele>
        <time>2015-06-20T09:23:41.000Z</time>
      </trkpt>
      <trkpt lat="46.96031" lon="0.90159">
        <ele>123.1</ele>
        <time>2015-06-20T09:23:47.000Z</time>
      </trkpt>
      <trkpt lat="46.95973" lon="0.90139">
        <ele>120.1</ele>
        <time>2015-06-20T09:23:53.000Z</time>
      </trkpt>
      <trkpt lat="46.9591" lon="0.90119">
        <ele>116.9</ele>
        <time>2015-06-20T09:23:59.000Z</time>
      </trkpt>
      <trkpt lat="46.95854" lon="0.90101">
        <ele>112.7</ele>
        <time>2015-06-20T09:24:04.000Z</time>
      </trkpt>
      <trkpt lat="46.958" lon="0.90083">
        <ele>113.2</ele>
        <time>2015-06-20T09:24:09.000Z</time>
      </trkpt>
      <trkpt lat="46.95738" lon="0.90063">
        <ele>116.9</ele>
        <time>2015-06-20T09:24:15.000Z</time>
      </trkpt>
      <trkpt lat="46.95683" lon="0.90045">
        <ele>120.8</ele>
        <time>2015-06-20T09:24:21.000Z</time>
      </trkpt>
      <trkpt lat="46.95626" lon="0.90026">
        <ele>124.5</ele>
        <time>2015-06-20T09:24:28.000Z</time>
      </trkpt>
      <trkpt lat="46.95568" lon="0.90008">
        <ele>127</ele>
        <time>2015-06-20T09:24:36.000Z</time>
      </trkpt>
      <trkpt lat="46.9551" lon="0.89987">
        <ele>127.4</ele>
        <time>2015-06-20T09:24:45.000Z</time>
      </trkpt>
      <trkpt lat="46.95454" lon="0.89951">
        <ele>126.4</ele>
        <time>2015-06-20T09:24:53.000Z</time>
      </trkpt>
      <trkpt lat="46.95401" lon="0.89911">
        <ele>123.9</ele>
        <time>2015-06-20T09:25:00.000Z</time>
      </trkpt>
      <trkpt lat="46.95349" lon="0.8987">
        <ele>120</ele>
        <time>2015-06-20T09:25:06.000Z</time>
      </trkpt>
      <trkpt lat="46.95293" lon="0.89828">
        <ele>117.3</ele>
        <time>2015-06-20T09:25:12.000Z</time>
      </trkpt>
      <trkpt lat="46.9524" lon="0.89789">
        <ele>116.2</ele>
        <time>2015-06-20T09:25:18.000Z</time>
      </trkpt>
      <trkpt lat="46.95191" lon="0.89751">
        <ele>114.7</ele>
        <time>2015-06-20T09:25:24.000Z</time>
      </trkpt>
      <trkpt lat="46.95143" lon="0.89715">
        <ele>113.4</ele>
        <time>2015-06-20T09:25:30.000Z</time>
      </trkpt>
      <trkpt lat="46.95088" lon="0.89676">
        <ele>113</ele>
        <time>2015-06-20T09:25:37.000Z</time>
      </trkpt>
      <trkpt lat="46.95038" lon="0.89637">
        <ele>110.8</ele>
        <time>2015-06-20T09:25:44.000Z</time>
      </trkpt>
      <trkpt lat="46.94986" lon="0.89599">
        <ele>111.4</ele>
        <time>2015-06-20T09:25:53.000Z</time>
      </trkpt>
      <trkpt lat="46.94969" lon="0.89583">
        <ele>111.9</ele>
        <time>2015-06-20T09:25:58.000Z</time>
      </trkpt>
      <trkpt lat="46.94912" lon="0.89577">
        <ele>108.9</ele>
        <time>2015-06-20T09:26:07.000Z</time>
      </trkpt>
      <trkpt lat="46.94855" lon="0.89572">
        <ele>105.5</ele>
        <time>2015-06-20T09:26:14.000Z</time>
      </trkpt>
      <trkpt lat="46.94799" lon="0.89567">
        <ele>102.2</ele>
        <time>2015-06-20T09:26:20.000Z</time>
      </trkpt>
      <trkpt lat="46.9474" lon="0.89562">
        <ele>98.6</ele>
        <time>2015-06-20T09:26:26.000Z</time>
      </trkpt>
      <trkpt lat="46.94677" lon="0.89557">
        <ele>93.7</ele>
        <time>2015-06-20T09:26:32.000Z</time>
      </trkpt>
      <trkpt lat="46.94618" lon="0.89552">
        <ele>91.4</ele>
        <time>2015-06-20T09:26:38.000Z</time>
      </trkpt>
      <trkpt lat="46.94608" lon="0.89549">
        <ele>91.1</ele>
        <time>2015-06-20T09:26:39.000Z</time>
      </trkpt>
      <trkpt lat="46.94559" lon="0.89514">
        <ele>90.1</ele>
        <time>2015-06-20T09:26:45.000Z</time>
      </trkpt>
      <trkpt lat="46.9451" lon="0.89464">
        <ele>91.1</ele>
        <time>2015-06-20T09:26:53.000Z</time>
      </trkpt>
      <trkpt lat="46.94486" lon="0.89443">
        <ele>90.1</ele>
        <time>2015-06-20T09:26:57.000Z</time>
      </trkpt>
      <trkpt lat="46.94459" lon="0.89427">
        <ele>89.6</ele>
        <time>2015-06-20T09:27:01.000Z</time>
      </trkpt>
      <trkpt lat="46.94407" lon="0.89425">
        <ele>89.2</ele>
        <time>2015-06-20T09:27:09.000Z</time>
      </trkpt>
      <trkpt lat="46.94369" lon="0.89428">
        <ele>91</ele>
        <time>2015-06-20T09:27:16.000Z</time>
      </trkpt>
      <trkpt lat="46.94345" lon="0.89446">
        <ele>91.6</ele>
        <time>2015-06-20T09:27:21.000Z</time>
      </trkpt>
      <trkpt lat="46.94298" lon="0.8949">
        <ele>92.7</ele>
        <time>2015-06-20T09:27:31.000Z</time>
      </trkpt>
      <trkpt lat="46.94252" lon="0.89533">
        <ele>90.8</ele>
        <time>2015-06-20T09:27:40.000Z</time>
      </trkpt>
      <trkpt lat="46.94206" lon="0.89578">
        <ele>87.6</ele>
        <time>2015-06-20T09:27:48.000Z</time>
      </trkpt>
      <trkpt lat="46.94155" lon="0.89627">
        <ele>87.4</ele>
        <time>2015-06-20T09:27:56.000Z</time>
      </trkpt>
      <trkpt lat="46.94109" lon="0.89674">
        <ele>89.6</ele>
        <time>2015-06-20T09:28:04.000Z</time>
      </trkpt>
      <trkpt lat="46.94062" lon="0.89719">
        <ele>91.8</ele>
        <time>2015-06-20T09:28:12.000Z</time>
      </trkpt>
      <trkpt lat="46.94016" lon="0.89763">
        <ele>93.6</ele>
        <time>2015-06-20T09:28:21.000Z</time>
      </trkpt>
      <trkpt lat="46.93969" lon="0.89807">
        <ele>98.3</ele>
        <time>2015-06-20T09:28:32.000Z</time>
      </trkpt>
      <trkpt lat="46.93922" lon="0.89854">
        <ele>102.7</ele>
        <time>2015-06-20T09:28:44.000Z</time>
      </trkpt>
      <trkpt lat="46.93873" lon="0.89899">
        <ele>105.7</ele>
        <time>2015-06-20T09:28:56.000Z</time>
      </trkpt>
      <trkpt lat="46.93828" lon="0.89943">
        <ele>107</ele>
        <time>2015-06-20T09:29:08.000Z</time>
      </trkpt>
      <trkpt lat="46.93781" lon="0.89988">
        <ele>106.1</ele>
        <time>2015-06-20T09:29:20.000Z</time>
      </trkpt>
      <trkpt lat="46.93734" lon="0.90034">
        <ele>107.1</ele>
        <time>2015-06-20T09:29:32.000Z</time>
      </trkpt>
      <trkpt lat="46.93689" lon="0.90078">
        <ele>109.9</ele>
        <time>2015-06-20T09:29:44.000Z</time>
      </trkpt>
      <trkpt lat="46.93644" lon="0.90124">
        <ele>113.2</ele>
        <time>2015-06-20T09:29:56.000Z</time>
      </trkpt>
      <trkpt lat="46.93604" lon="0.90186">
        <ele>115</ele>
        <time>2015-06-20T09:30:08.000Z</time>
      </trkpt>
      <trkpt lat="46.93571" lon="0.90249">
        <ele>116.3</ele>
        <time>2015-06-20T09:30:19.000Z</time>
      </trkpt>
      <trkpt lat="46.93539" lon="0.90314">
        <ele>119.8</ele>
        <time>2015-06-20T09:30:30.000Z</time>
      </trkpt>
      <trkpt lat="46.93507" lon="0.90379">
        <ele>121.6</ele>
        <time>2015-06-20T09:30:41.000Z</time>
      </trkpt>
      <trkpt lat="46.93473" lon="0.90447">
        <ele>121.9</ele>
        <time>2015-06-20T09:30:52.000Z</time>
      </trkpt>
      <trkpt lat="46.9344" lon="0.90514">
        <ele>121.7</ele>
        <time>2015-06-20T09:31:02.000Z</time>
      </trkpt>
      <trkpt lat="46.93406" lon="0.90582">
        <ele>123.8</ele>
        <time>2015-06-20T09:31:12.000Z</time>
      </trkpt>
      <trkpt lat="46.93374" lon="0.90647">
        <ele>125.3</ele>
        <time>2015-06-20T09:31:22.000Z</time>
      </trkpt>
      <trkpt lat="46.9334" lon="0.90713">
        <ele>125.8</ele>
        <time>2015-06-20T09:31:32.000Z</time>
      </trkpt>
      <trkpt lat="46.93307" lon="0.90781">
        <ele>127</ele>
        <time>2015-06-20T09:31:42.000Z</time>
      </trkpt>
      <trkpt lat="46.93274" lon="0.90849">
        <ele>128.1</ele>
        <time>2015-06-20T09:31:52.000Z</time>
      </trkpt>
      <trkpt lat="46.93239" lon="0.90918">
        <ele>129</ele>
        <time>2015-06-20T09:32:02.000Z</time>
      </trkpt>
      <trkpt lat="46.93206" lon="0.90985">
        <ele>129.6</ele>
        <time>2015-06-20T09:32:11.000Z</time>
      </trkpt>
      <trkpt lat="46.93174" lon="0.91049">
        <ele>130</ele>
        <time>2015-06-20T09:32:19.000Z</time>
      </trkpt>
      <trkpt lat="46.93141" lon="0.91116">
        <ele>130.9</ele>
        <time>2015-06-20T09:32:27.000Z</time>
      </trkpt>
      <trkpt lat="46.93106" lon="0.91185">
        <ele>130.9</ele>
        <time>2015-06-20T09:32:35.000Z</time>
      </trkpt>
      <trkpt lat="46.93071" lon="0.91257">
        <ele>130.4</ele>
        <time>2015-06-20T09:32:43.000Z</time>
      </trkpt>
      <trkpt lat="46.93038" lon="0.91323">
        <ele>130</ele>
        <time>2015-06-20T09:32:50.000Z</time>
      </trkpt>
      <trkpt lat="46.93005" lon="0.91388">
        <ele>129.2</ele>
        <time>2015-06-20T09:32:57.000Z</time>
      </trkpt>
      <trkpt lat="46.92971" lon="0.91459">
        <ele>128</ele>
        <time>2015-06-20T09:33:04.000Z</time>
      </trkpt>
      <trkpt lat="46.92935" lon="0.91531">
        <ele>126.9</ele>
        <time>2015-06-20T09:33:11.000Z</time>
      </trkpt>
      <trkpt lat="46.929" lon="0.91603">
        <ele>125.7</ele>
        <time>2015-06-20T09:33:18.000Z</time>
      </trkpt>
      <trkpt lat="46.92864" lon="0.91677">
        <ele>124.3</ele>
        <time>2015-06-20T09:33:25.000Z</time>
      </trkpt>
      <trkpt lat="46.92828" lon="0.91739">
        <ele>122.4</ele>
        <time>2015-06-20T09:33:30.000Z</time>
      </trkpt>
      <trkpt lat="46.92803" lon="0.91764">
        <ele>120.9</ele>
        <time>2015-06-20T09:33:33.000Z</time>
      </trkpt>
      <trkpt lat="46.92748" lon="0.91772">
        <ele>118</ele>
        <time>2015-06-20T09:33:38.000Z</time>
      </trkpt>
      <trkpt lat="46.92696" lon="0.91738">
        <ele>114.5</ele>
        <time>2015-06-20T09:33:43.000Z</time>
      </trkpt>
      <trkpt lat="46.92685" lon="0.91728">
        <ele>114</ele>
        <time>2015-06-20T09:33:44.000Z</time>
      </trkpt>
      <trkpt lat="46.92637" lon="0.9168">
        <ele>110.9</ele>
        <time>2015-06-20T09:33:49.000Z</time>
      </trkpt>
      <trkpt lat="46.92604" lon="0.91659">
        <ele>108.7</ele>
        <time>2015-06-20T09:33:52.000Z</time>
      </trkpt>
      <trkpt lat="46.92545" lon="0.91662">
        <ele>103.9</ele>
        <time>2015-06-20T09:33:57.000Z</time>
      </trkpt>
      <trkpt lat="46.92493" lon="0.9171">
        <ele>101.6</ele>
        <time>2015-06-20T09:34:02.000Z</time>
      </trkpt>
      <trkpt lat="46.92442" lon="0.91769">
        <ele>97.3</ele>
        <time>2015-06-20T09:34:07.000Z</time>
      </trkpt>
      <trkpt lat="46.92397" lon="0.91821">
        <ele>94.6</ele>
        <time>2015-06-20T09:34:12.000Z</time>
      </trkpt>
      <trkpt lat="46.92349" lon="0.91863">
        <ele>91.9</ele>
        <time>2015-06-20T09:34:17.000Z</time>
      </trkpt>
      <trkpt lat="46.923" lon="0.91874">
        <ele>88</ele>
        <time>2015-06-20T09:34:21.000Z</time>
      </trkpt>
      <trkpt lat="46.92239" lon="0.91876">
        <ele>84</ele>
        <time>2015-06-20T09:34:26.000Z</time>
      </trkpt>
      <trkpt lat="46.9218" lon="0.91878">
        <ele>82.1</ele>
        <time>2015-06-20T09:34:31.000Z</time>
      </trkpt>
      <trkpt lat="46.92119" lon="0.9188">
        <ele>82.7</ele>
        <time>2015-06-20T09:34:37.000Z</time>
      </trkpt>
      <trkpt lat="46.92082" lon="0.91883">
        <ele>82</ele>
        <time>2015-06-20T09:34:43.000Z</time>
      </trkpt>
      <trkpt lat="46.92057" lon="0.9187">
        <ele>81.4</ele>
        <time>2015-06-20T09:34:48.000Z</time>
      </trkpt>
      <trkpt lat="46.92032" lon="0.91845">
        <ele>81.6</ele>
        <time>2015-06-20T09:34:54.000Z</time>
      </trkpt>
      <trkpt lat="46.92001" lon="0.91807">
        <ele>84</ele>
        <time>2015-06-20T09:35:05.000Z</time>
      </trkpt>
      <trkpt lat="46.91957" lon="0.91754">
        <ele>87.5</ele>
        <time>2015-06-20T09:35:18.000Z</time>
      </trkpt>
      <trkpt lat="46.91947" lon="0.91743">
        <ele>88.4</ele>
        <time>2015-06-20T09:35:21.000Z</time>
      </trkpt>
      <trkpt lat="46.91928" lon="0.91725">
        <ele>89.3</ele>
        <time>2015-06-20T09:35:27.000Z</time>
      </trkpt>
      <trkpt lat="46.91874" lon="0.91719">
        <ele>92.5</ele>
        <time>2015-06-20T09:35:41.000Z</time>
      </trkpt>
      <trkpt lat="46.91818" lon="0.9172">
        <ele>95.6</ele>
        <time>2015-06-20T09:35:56.000Z</time>
      </trkpt>
      <trkpt lat="46.91762" lon="0.91723">
        <ele>98.2</ele>
        <time>2015-06-20T09:36:11.000Z</time>
      </trkpt>
      <trkpt lat="46.91705" lon="0.91726">
        <ele>101.4</ele>
        <time>2015-06-20T09:36:26.000Z</time>
      </trkpt>
      <trkpt lat="46.91649" lon="0.91736">
        <ele>105.4</ele>
        <time>2015-06-20T09:36:41.000Z</time>
      </trkpt>
      <trkpt lat="46.91595" lon="0.91765">
        <ele>108.1</ele>
        <time>2015-06-20T09:36:56.000Z</time>
      </trkpt>
      <trkpt lat="46.91541" lon="0.91789">
        <ele>109.4</ele>
        <time>2015-06-20T09:37:09.000Z</time>
      </trkpt>
      <trkpt lat="46.91485" lon="0.91791">
        <ele>111.1</ele>
        <time>2015-06-20T09:37:22.000Z</time>
      </trkpt>
      <trkpt lat="46.9143" lon="0.91781">
        <ele>112.4</ele>
        <time>2015-06-20T09:37:34.000Z</time>
      </trkpt>
      <trkpt lat="46.91373" lon="0.9177">
        <ele>113.4</ele>
        <time>2015-06-20T09:37:47.000Z</time>
      </trkpt>
      <trkpt lat="46.91316" lon="0.91756">
        <ele>113.6</ele>
        <time>2015-06-20T09:37:58.000Z</time>
      </trkpt>
      <trkpt lat="46.91265" lon="0.9173">
        <ele>114.7</ele>
        <time>2015-06-20T09:38:08.000Z</time>
      </trkpt>
      <trkpt lat="46.91211" lon="0.91702">
        <ele>118.2</ele>
        <time>2015-06-20T09:38:20.000Z</time>
      </trkpt>
      <trkpt lat="46.91186" lon="0.91693">
        <ele>119.4</ele>
        <time>2015-06-20T09:38:26.000Z</time>
      </trkpt>
      <trkpt lat="46.91133" lon="0.91664">
        <ele>122</ele>
        <time>2015-06-20T09:38:37.000Z</time>
      </trkpt>
      <trkpt lat="46.91078" lon="0.91637">
        <ele>120.8</ele>
        <time>2015-06-20T09:38:48.000Z</time>
      </trkpt>
      <trkpt lat="46.91023" lon="0.91608">
        <ele>118.8</ele>
        <time>2015-06-20T09:38:57.000Z</time>
      </trkpt>
      <trkpt lat="46.90969" lon="0.91592">
        <ele>116.1</ele>
        <time>2015-06-20T09:39:04.000Z</time>
      </trkpt>
      <trkpt lat="46.90914" lon="0.91582">
        <ele>112.8</ele>
        <time>2015-06-20T09:39:10.000Z</time>
      </trkpt>
      <trkpt lat="46.9085" lon="0.91573">
        <ele>107.2</ele>
        <time>2015-06-20T09:39:16.000Z</time>
      </trkpt>
      <trkpt lat="46.90793" lon="0.91563">
        <ele>105.1</ele>
        <time>2015-06-20T09:39:21.000Z</time>
      </trkpt>
      <trkpt lat="46.90733" lon="0.91553">
        <ele>101.9</ele>
        <time>2015-06-20T09:39:26.000Z</time>
      </trkpt>
      <trkpt lat="46.90678" lon="0.91544">
        <ele>102.6</ele>
        <time>2015-06-20T09:39:31.000Z</time>
      </trkpt>
      <trkpt lat="46.90621" lon="0.91537">
        <ele>106.3</ele>
        <time>2015-06-20T09:39:38.000Z</time>
      </trkpt>
      <trkpt lat="46.90563" lon="0.91524">
        <ele>108.9</ele>
        <time>2015-06-20T09:39:47.000Z</time>
      </trkpt>
      <trkpt lat="46.90503" lon="0.91517">
        <ele>109.8</ele>
        <time>2015-06-20T09:39:57.000Z</time>
      </trkpt>
      <trkpt lat="46.90449" lon="0.91507">
        <ele>111.4</ele>
        <time>2015-06-20T09:40:06.000Z</time>
      </trkpt>
      <trkpt lat="46.90394" lon="0.91507">
        <ele>111.8</ele>
        <time>2015-06-20T09:40:15.000Z</time>
      </trkpt>
      <trkpt lat="46.90338" lon="0.91508">
        <ele>113</ele>
        <time>2015-06-20T09:40:24.000Z</time>
      </trkpt>
      <trkpt lat="46.90284" lon="0.91508">
        <ele>116.1</ele>
        <time>2015-06-20T09:40:35.000Z</time>
      </trkpt>
      <trkpt lat="46.90229" lon="0.9151">
        <ele>119.1</ele>
        <time>2015-06-20T09:40:47.000Z</time>
      </trkpt>
      <trkpt lat="46.90171" lon="0.91511">
        <ele>120.9</ele>
        <time>2015-06-20T09:40:59.000Z</time>
      </trkpt>
      <trkpt lat="46.90114" lon="0.91512">
        <ele>122.5</ele>
        <time>2015-06-20T09:41:11.000Z</time>
      </trkpt>
      <trkpt lat="46.90055" lon="0.91513">
        <ele>122.5</ele>
        <time>2015-06-20T09:41:22.000Z</time>
      </trkpt>
      <trkpt lat="46.89998" lon="0.91515">
        <ele>122.5</ele>
        <time>2015-06-20T09:41:32.000Z</time>
      </trkpt>
      <trkpt lat="46.89943" lon="0.91516">
        <ele>122.4</ele>
        <time>2015-06-20T09:41:41.000Z</time>
      </trkpt>
      <trkpt lat="46.89886" lon="0.91517">
        <ele>122.4</ele>
        <time>2015-06-20T09:41:50.000Z</time>
      </trkpt>
      <trkpt lat="46.89832" lon="0.91518">
        <ele>121.3</ele>
        <time>2015-06-20T09:41:58.000Z</time>
      </trkpt>
      <trkpt lat="46.89771" lon="0.91519">
        <ele>119.3</ele>
        <time>2015-06-20T09:42:06.000Z</time>
      </trkpt>
      <trkpt lat="46.89713" lon="0.91521">
        <ele>120.3</ele>
        <time>2015-06-20T09:42:14.000Z</time>
      </trkpt>
      <trkpt lat="46.89656" lon="0.91521">
        <ele>122.5</ele>
        <time>2015-06-20T09:42:23.000Z</time>
      </trkpt>
      <trkpt lat="46.89602" lon="0.91523">
        <ele>124.1</ele>
        <time>2015-06-20T09:42:32.000Z</time>
      </trkpt>
      <trkpt lat="46.89543" lon="0.91524">
        <ele>123.6</ele>
        <time>2015-06-20T09:42:41.000Z</time>
      </trkpt>
      <trkpt lat="46.89486" lon="0.91526">
        <ele>122.6</ele>
        <time>2015-06-20T09:42:49.000Z</time>
      </trkpt>
      <trkpt lat="46.89431" lon="0.91527">
        <ele>120.5</ele>
        <time>2015-06-20T09:42:56.000Z</time>
      </trkpt>
      <trkpt lat="46.89372" lon="0.91528">
        <ele>121.6</ele>
        <time>2015-06-20T09:43:04.000Z</time>
      </trkpt>
      <trkpt lat="46.89317" lon="0.91529">
        <ele>123</ele>
        <time>2015-06-20T09:43:12.000Z</time>
      </trkpt>
      <trkpt lat="46.8926" lon="0.9153">
        <ele>123.7</ele>
        <time>2015-06-20T09:43:20.000Z</time>
      </trkpt>
      <trkpt lat="46.89206" lon="0.91531">
        <ele>124.1</ele>
        <time>2015-06-20T09:43:28.000Z</time>
      </trkpt>
      <trkpt lat="46.89146" lon="0.91533">
        <ele>124</ele>
        <time>2015-06-20T09:43:37.000Z</time>
      </trkpt>
      <trkpt lat="46.8909" lon="0.91534">
        <ele>124</ele>
        <time>2015-06-20T09:43:45.000Z</time>
      </trkpt>
      <trkpt lat="46.89029" lon="0.91536">
        <ele>125</ele>
        <time>2015-06-20T09:43:54.000Z</time>
      </trkpt>
      <trkpt lat="46.88975" lon="0.91537">
        <ele>125.9</ele>
        <time>2015-06-20T09:44:02.000Z</time>
      </trkpt>
      <trkpt lat="46.88914" lon="0.91538">
        <ele>126</ele>
        <time>2015-06-20T09:44:11.000Z</time>
      </trkpt>
      <trkpt lat="46.88855" lon="0.91539">
        <ele>127</ele>
        <time>2015-06-20T09:44:20.000Z</time>
      </trkpt>
      <trkpt lat="46.88796" lon="0.9154">
        <ele>128</ele>
        <time>2015-06-20T09:44:29.000Z</time>
      </trkpt>
      <trkpt lat="46.8874" lon="0.91543">
        <ele>129</ele>
        <time>2015-06-20T09:44:38.000Z</time>
      </trkpt>
      <trkpt lat="46.88727" lon="0.91546">
        <ele>129</ele>
        <time>2015-06-20T09:44:40.000Z</time>
      </trkpt>
      <trkpt lat="46.88674" lon="0.91579">
        <ele>129.7</ele>
        <time>2015-06-20T09:44:49.000Z</time>
      </trkpt>
      <trkpt lat="46.88624" lon="0.91619">
        <ele>130.5</ele>
        <time>2015-06-20T09:44:58.000Z</time>
      </trkpt>
      <trkpt lat="46.88573" lon="0.91659">
        <ele>131</ele>
        <time>2015-06-20T09:45:07.000Z</time>
      </trkpt>
      <trkpt lat="46.8852" lon="0.91701">
        <ele>131</ele>
        <time>2015-06-20T09:45:16.000Z</time>
      </trkpt>
      <trkpt lat="46.88469" lon="0.91743">
        <ele>130.9</ele>
        <time>2015-06-20T09:45:25.000Z</time>
      </trkpt>
      <trkpt lat="46.88417" lon="0.91783">
        <ele>127.5</ele>
        <time>2015-06-20T09:45:33.000Z</time>
      </trkpt>
      <trkpt lat="46.88398" lon="0.91804">
        <ele>127.7</ele>
        <time>2015-06-20T09:45:36.000Z</time>
      </trkpt>
      <trkpt lat="46.8838" lon="0.9185">
        <ele>125.5</ele>
        <time>2015-06-20T09:45:40.000Z</time>
      </trkpt>
      <trkpt lat="46.88356" lon="0.91936">
        <ele>119.1</ele>
        <time>2015-06-20T09:45:46.000Z</time>
      </trkpt>
      <trkpt lat="46.88333" lon="0.92022">
        <ele>110.1</ele>
        <time>2015-06-20T09:45:52.000Z</time>
      </trkpt>
      <trkpt lat="46.88326" lon="0.92051">
        <ele>107.9</ele>
        <time>2015-06-20T09:45:54.000Z</time>
      </trkpt>
      <trkpt lat="46.88326" lon="0.9213">
        <ele>105.5</ele>
        <time>2015-06-20T09:45:59.000Z</time>
      </trkpt>
      <trkpt lat="46.88335" lon="0.9221">
        <ele>104.1</ele>
        <time>2015-06-20T09:46:04.000Z</time>
      </trkpt>
      <trkpt lat="46.88338" lon="0.92239">
        <ele>104.4</ele>
        <time>2015-06-20T09:46:06.000Z</time>
      </trkpt>
      <trkpt lat="46.88303" lon="0.92295">
        <ele>104.9</ele>
        <time>2015-06-20T09:46:12.000Z</time>
      </trkpt>
      <trkpt lat="46.88245" lon="0.92308">
        <ele>106</ele>
        <time>2015-06-20T09:46:19.000Z</time>
      </trkpt>
      <trkpt lat="46.88194" lon="0.92335">
        <ele>108.1</ele>
        <time>2015-06-20T09:46:26.000Z</time>
      </trkpt>
      <trkpt lat="46.88139" lon="0.92347">
        <ele>112.5</ele>
        <time>2015-06-20T09:46:37.000Z</time>
      </trkpt>
      <trkpt lat="46.88084" lon="0.92355">
        <ele>116.9</ele>
        <time>2015-06-20T09:46:52.000Z</time>
      </trkpt>
      <trkpt lat="46.88029" lon="0.92364">
        <ele>120.9</ele>
        <time>2015-06-20T09:47:08.000Z</time>
      </trkpt>
      <trkpt lat="46.87972" lon="0.92377">
        <ele>123.6</ele>
        <time>2015-06-20T09:47:23.000Z</time>
      </trkpt>
      <trkpt lat="46.87915" lon="0.92388">
        <ele>126</ele>
        <time>2015-06-20T09:47:37.000Z</time>
      </trkpt>
      <trkpt lat="46.87869" lon="0.92397">
        <ele>127</ele>
        <time>2015-06-20T09:47:48.000Z</time>
      </trkpt>
      <trkpt lat="46.87814" lon="0.92415">
        <ele>128.6</ele>
        <time>2015-06-20T09:48:01.000Z</time>
      </trkpt>
      <trkpt lat="46.87759" lon="0.92436">
        <ele>129.7</ele>
        <time>2015-06-20T09:48:14.000Z</time>
      </trkpt>
      <trkpt lat="46.87703" lon="0.92458">
        <ele>130</ele>
        <time>2015-06-20T09:48:25.000Z</time>
      </trkpt>
      <trkpt lat="46.8765" lon="0.92479">
        <ele>130</ele>
        <time>2015-06-20T09:48:35.000Z</time>
      </trkpt>
      <trkpt lat="46.87593" lon="0.92497">
        <ele>130</ele>
        <time>2015-06-20T09:48:45.000Z</time>
      </trkpt>
      <trkpt lat="46.87538" lon="0.92495">
        <ele>130.6</ele>
        <time>2015-06-20T09:48:54.000Z</time>
      </trkpt>
      <trkpt lat="46.87483" lon="0.92486">
        <ele>131.6</ele>
        <time>2015-06-20T09:49:03.000Z</time>
      </trkpt>
      <trkpt lat="46.87428" lon="0.92479">
        <ele>132.1</ele>
        <time>2015-06-20T09:49:12.000Z</time>
      </trkpt>
      <trkpt lat="46.8737" lon="0.9247">
        <ele>133.7</ele>
        <time>2015-06-20T09:49:22.000Z</time>
      </trkpt>
      <trkpt lat="46.87313" lon="0.92462">
        <ele>134.7</ele>
        <time>2015-06-20T09:49:32.000Z</time>
      </trkpt>
      <trkpt lat="46.87254" lon="0.92453">
        <ele>135.3</ele>
        <time>2015-06-20T09:49:42.000Z</time>
      </trkpt>
      <trkpt lat="46.87199" lon="0.92445">
        <ele>136</ele>
        <time>2015-06-20T09:49:51.000Z</time>
      </trkpt>
      <trkpt lat="46.87144" lon="0.92431">
        <ele>136</ele>
        <time>2015-06-20T09:50:00.000Z</time>
      </trkpt>
      <trkpt lat="46.87087" lon="0.92415">
        <ele>136</ele>
        <time>2015-06-20T09:50:09.000Z</time>
      </trkpt>
      <trkpt lat="46.87033" lon="0.92401">
        <ele>136</ele>
        <time>2015-06-20T09:50:17.000Z</time>
      </trkpt>
      <trkpt lat="46.86975" lon="0.92382">
        <ele>135</ele>
        <time>2015-06-20T09:50:26.000Z</time>
      </trkpt>
      <trkpt lat="46.86961" lon="0.92383">
        <ele>135</ele>
        <time>2015-06-20T09:50:28.000Z</time>
      </trkpt>
      <trkpt lat="46.86926" lon="0.92393">
        <ele>134.4</ele>
        <time>2015-06-20T09:50:33.000Z</time>
      </trkpt>
      <trkpt lat="46.86872" lon="0.92415">
        <ele>134</ele>
        <time>2015-06-20T09:50:41.000Z</time>
      </trkpt>
      <trkpt lat="46.86818" lon="0.92437">
        <ele>133.6</ele>
        <time>2015-06-20T09:50:49.000Z</time>
      </trkpt>
      <trkpt lat="46.86763" lon="0.92454">
        <ele>132.3</ele>
        <time>2015-06-20T09:50:57.000Z</time>
      </trkpt>
      <trkpt lat="46.86741" lon="0.92452">
        <ele>131.7</ele>
        <time>2015-06-20T09:51:00.000Z</time>
      </trkpt>
      <trkpt lat="46.86726" lon="0.92446">
        <ele>131.1</ele>
        <time>2015-06-20T09:51:02.000Z</time>
      </trkpt>
      <trkpt lat="46.86681" lon="0.92422">
        <ele>129.9</ele>
        <time>2015-06-20T09:51:08.000Z</time>
      </trkpt>
      <trkpt lat="46.86657" lon="0.92419">
        <ele>129.2</ele>
        <time>2015-06-20T09:51:11.000Z</time>
      </trkpt>
      <trkpt lat="46.86617" lon="0.92438">
        <ele>127.2</ele>
        <time>2015-06-20T09:51:16.000Z</time>
      </trkpt>
      <trkpt lat="46.86566" lon="0.92482">
        <ele>122</ele>
        <time>2015-06-20T09:51:22.000Z</time>
      </trkpt>
      <trkpt lat="46.86509" lon="0.92517">
        <ele>116.4</ele>
        <time>2015-06-20T09:51:27.000Z</time>
      </trkpt>
      <trkpt lat="46.86448" lon="0.92545">
        <ele>114.1</ele>
        <time>2015-06-20T09:51:32.000Z</time>
      </trkpt>
      <trkpt lat="46.86425" lon="0.9255">
        <ele>113.7</ele>
        <time>2015-06-20T09:51:34.000Z</time>
      </trkpt>
      <trkpt lat="46.86365" lon="0.92536">
        <ele>114</ele>
        <time>2015-06-20T09:51:40.000Z</time>
      </trkpt>
      <trkpt lat="46.86339" lon="0.92538">
        <ele>115.5</ele>
        <time>2015-06-20T09:51:43.000Z</time>
      </trkpt>
      <trkpt lat="46.86285" lon="0.92564">
        <ele>119.9</ele>
        <time>2015-06-20T09:51:51.000Z</time>
      </trkpt>
      <trkpt lat="46.86248" lon="0.92594">
        <ele>123.1</ele>
        <time>2015-06-20T09:52:00.000Z</time>
      </trkpt>
      <trkpt lat="46.86219" lon="0.92625">
        <ele>123.9</ele>
        <time>2015-06-20T09:52:07.000Z</time>
      </trkpt>
      <trkpt lat="46.86163" lon="0.92645">
        <ele>119.7</ele>
        <time>2015-06-20T09:52:18.000Z</time>
      </trkpt>
      <trkpt lat="46.86112" lon="0.9264">
        <ele>109.6</ele>
        <time>2015-06-20T09:52:26.000Z</time>
      </trkpt>
      <trkpt lat="46.86071" lon="0.92619">
        <ele>108.8</ele>
        <time>2015-06-20T09:52:33.000Z</time>
      </trkpt>
      <trkpt lat="46.86036" lon="0.92602">
        <ele>105.7</ele>
        <time>2015-06-20T09:52:38.000Z</time>
      </trkpt>
      <trkpt lat="46.85975" lon="0.92606">
        <ele>100.6</ele>
        <time>2015-06-20T09:52:45.000Z</time>
      </trkpt>
      <trkpt lat="46.85957" lon="0.92614">
        <ele>98.9</ele>
        <time>2015-06-20T09:52:47.000Z</time>
      </trkpt>
      <trkpt lat="46.85908" lon="0.92651">
        <ele>93.2</ele>
        <time>2015-06-20T09:52:53.000Z</time>
      </trkpt>
      <trkpt lat="46.85855" lon="0.92679">
        <ele>88.9</ele>
        <time>2015-06-20T09:53:00.000Z</time>
      </trkpt>
      <trkpt lat="46.85799" lon="0.92695">
        <ele>83</ele>
        <time>2015-06-20T09:53:08.000Z</time>
      </trkpt>
      <trkpt lat="46.85786" lon="0.92677">
        <ele>83.4</ele>
        <time>2015-06-20T09:53:13.000Z</time>
      </trkpt>
      <trkpt lat="46.85761" lon="0.92606">
        <ele>83.9</ele>
        <time>2015-06-20T09:53:27.000Z</time>
      </trkpt>
      <trkpt lat="46.85747" lon="0.9256">
        <ele>83.9</ele>
        <time>2015-06-20T09:53:33.000Z</time>
      </trkpt>
      <trkpt lat="46.85725" lon="0.92486">
        <ele>85.2</ele>
        <time>2015-06-20T09:53:43.000Z</time>
      </trkpt>
      <trkpt lat="46.85709" lon="0.92426">
        <ele>83.6</ele>
        <time>2015-06-20T09:53:52.000Z</time>
      </trkpt>
      <trkpt lat="46.85721" lon="0.92404">
        <ele>84.4</ele>
        <time>2015-06-20T09:53:56.000Z</time>
      </trkpt>
      <trkpt lat="46.85762" lon="0.92348">
        <ele>88.3</ele>
        <time>2015-06-20T09:54:08.000Z</time>
      </trkpt>
      <trkpt lat="46.85802" lon="0.92291">
        <ele>91.2</ele>
        <time>2015-06-20T09:54:21.000Z</time>
      </trkpt>
      <trkpt lat="46.8584" lon="0.92232">
        <ele>93.5</ele>
        <time>2015-06-20T09:54:34.000Z</time>
      </trkpt>
      <trkpt lat="46.85881" lon="0.92179">
        <ele>93.7</ele>
        <time>2015-06-20T09:54:45.000Z</time>
      </trkpt>
      <trkpt lat="46.8592" lon="0.92123">
        <ele>91.5</ele>
        <time>2015-06-20T09:54:53.000Z</time>
      </trkpt>
      <trkpt lat="46.85924" lon="0.92114">
        <ele>91.5</ele>
        <time>2015-06-20T09:54:54.000Z</time>
      </trkpt>
      <trkpt lat="46.85954" lon="0.92037">
        <ele>84.7</ele>
        <time>2015-06-20T09:55:01.000Z</time>
      </trkpt>
      <trkpt lat="46.85976" lon="0.91957">
        <ele>81.4</ele>
        <time>2015-06-20T09:55:07.000Z</time>
      </trkpt>
      <trkpt lat="46.85999" lon="0.91879">
        <ele>83.7</ele>
        <time>2015-06-20T09:55:14.000Z</time>
      </trkpt>
      <trkpt lat="46.86025" lon="0.91805">
        <ele>87</ele>
        <time>2015-06-20T09:55:24.000Z</time>
      </trkpt>
      <trkpt lat="46.8605" lon="0.91731">
        <ele>89.7</ele>
        <time>2015-06-20T09:55:37.000Z</time>
      </trkpt>
      <trkpt lat="46.86073" lon="0.91659">
        <ele>92.2</ele>
        <time>2015-06-20T09:55:50.000Z</time>
      </trkpt>
      <trkpt lat="46.86097" lon="0.91586">
        <ele>95.4</ele>
        <time>2015-06-20T09:56:04.000Z</time>
      </trkpt>
      <trkpt lat="46.86121" lon="0.91511">
        <ele>99</ele>
        <time>2015-06-20T09:56:19.000Z</time>
      </trkpt>
      <trkpt lat="46.86145" lon="0.9144">
        <ele>102.1</ele>
        <time>2015-06-20T09:56:34.000Z</time>
      </trkpt>
      <trkpt lat="46.86167" lon="0.91368">
        <ele>105.4</ele>
        <time>2015-06-20T09:56:49.000Z</time>
      </trkpt>
      <trkpt lat="46.8619" lon="0.91295">
        <ele>108.2</ele>
        <time>2015-06-20T09:57:05.000Z</time>
      </trkpt>
      <trkpt lat="46.86216" lon="0.91224">
        <ele>112.1</ele>
        <time>2015-06-20T09:57:21.000Z</time>
      </trkpt>
      <trkpt lat="46.86249" lon="0.91158">
        <ele>116.3</ele>
        <time>2015-06-20T09:57:37.000Z</time>
      </trkpt>
      <trkpt lat="46.86283" lon="0.91096">
        <ele>118.6</ele>
        <time>2015-06-20T09:57:53.000Z</time>
      </trkpt>
      <trkpt lat="46.86319" lon="0.91029">
        <ele>120.5</ele>
        <time>2015-06-20T09:58:08.000Z</time>
      </trkpt>
      <trkpt lat="46.86354" lon="0.90962">
        <ele>119.1</ele>
        <time>2015-06-20T09:58:20.000Z</time>
      </trkpt>
      <trkpt lat="46.86391" lon="0.90894">
        <ele>117</ele>
        <time>2015-06-20T09:58:29.000Z</time>
      </trkpt>
      <trkpt lat="46.86425" lon="0.90831">
        <ele>119.4</ele>
        <time>2015-06-20T09:58:39.000Z</time>
      </trkpt>
      <trkpt lat="46.8646" lon="0.90764">
        <ele>122.5</ele>
        <time>2015-06-20T09:58:52.000Z</time>
      </trkpt>
      <trkpt lat="46.86465" lon="0.90754">
        <ele>122.8</ele>
        <time>2015-06-20T09:58:54.000Z</time>
      </trkpt>
      <trkpt lat="46.86483" lon="0.90721">
        <ele>124.4</ele>
        <time>2015-06-20T09:59:01.000Z</time>
      </trkpt>
      <trkpt lat="46.86525" lon="0.90663">
        <ele>125.9</ele>
        <time>2015-06-20T09:59:14.000Z</time>
      </trkpt>
      <trkpt lat="46.8656" lon="0.90627">
        <ele>127.2</ele>
        <time>2015-06-20T09:59:23.000Z</time>
      </trkpt>
      <trkpt lat="46.86608" lon="0.90581">
        <ele>128.8</ele>
        <time>2015-06-20T09:59:35.000Z</time>
      </trkpt>
      <trkpt lat="46.86654" lon="0.90535">
        <ele>129</ele>
        <time>2015-06-20T09:59:46.000Z</time>
      </trkpt>
      <trkpt lat="46.86704" lon="0.90485">
        <ele>127.5</ele>
        <time>2015-06-20T09:59:56.000Z</time>
      </trkpt>
      <trkpt lat="46.86751" lon="0.90438">
        <ele>125.8</ele>
        <time>2015-06-20T10:00:04.000Z</time>
      </trkpt>
      <trkpt lat="46.86796" lon="0.90381">
        <ele>124.4</ele>
        <time>2015-06-20T10:00:12.000Z</time>
      </trkpt>
      <trkpt lat="46.86828" lon="0.90309">
        <ele>124.7</ele>
        <time>2015-06-20T10:00:20.000Z</time>
      </trkpt>
      <trkpt lat="46.86856" lon="0.90238">
        <ele>127.3</ele>
        <time>2015-06-20T10:00:29.000Z</time>
      </trkpt>
      <trkpt lat="46.86879" lon="0.90182">
        <ele>129.5</ele>
        <time>2015-06-20T10:00:38.000Z</time>
      </trkpt>
      <trkpt lat="46.86893" lon="0.90136">
        <ele>131.2</ele>
        <time>2015-06-20T10:00:46.000Z</time>
      </trkpt>
      <trkpt lat="46.86872" lon="0.90129">
        <ele>130.8</ele>
        <time>2015-06-20T10:00:51.000Z</time>
      </trkpt>
      <trkpt lat="46.86815" lon="0.90126">
        <ele>129.6</ele>
        <time>2015-06-20T10:01:02.000Z</time>
      </trkpt>
      <trkpt lat="46.86757" lon="0.90121">
        <ele>130.1</ele>
        <time>2015-06-20T10:01:13.000Z</time>
      </trkpt>
      <trkpt lat="46.86703" lon="0.90115">
        <ele>131.5</ele>
        <time>2015-06-20T10:01:23.000Z</time>
      </trkpt>
      <trkpt lat="46.86647" lon="0.90114">
        <ele>131.9</ele>
        <time>2015-06-20T10:01:33.000Z</time>
      </trkpt>
      <trkpt lat="46.86589" lon="0.90111">
        <ele>132</ele>
        <time>2015-06-20T10:01:44.000Z</time>
      </trkpt>
      <trkpt lat="46.86533" lon="0.90101">
        <ele>130</ele>
        <time>2015-06-20T10:01:54.000Z</time>
      </trkpt>
      <trkpt lat="46.86527" lon="0.90099">
        <ele>129.5</ele>
        <time>2015-06-20T10:01:55.000Z</time>
      </trkpt>
      <trkpt lat="46.86469" lon="0.90076">
        <ele>123.5</ele>
        <time>2015-06-20T10:02:04.000Z</time>
      </trkpt>
      <trkpt lat="46.86412" lon="0.9005">
        <ele>118.4</ele>
        <time>2015-06-20T10:02:11.000Z</time>
      </trkpt>
      <trkpt lat="46.86354" lon="0.90025">
        <ele>114.2</ele>
        <time>2015-06-20T10:02:18.000Z</time>
      </trkpt>
      <trkpt lat="46.86348" lon="0.90021">
        <ele>113.3</ele>
        <time>2015-06-20T10:02:19.000Z</time>
      </trkpt>
      <trkpt lat="46.86355" lon="0.89974">
        <ele>108.7</ele>
        <time>2015-06-20T10:02:27.000Z</time>
      </trkpt>
      <trkpt lat="46.86392" lon="0.89943">
        <ele>106.1</ele>
        <time>2015-06-20T10:02:33.000Z</time>
      </trkpt>
      <trkpt lat="46.86393" lon="0.89885">
        <ele>100.2</ele>
        <time>2015-06-20T10:02:40.000Z</time>
      </trkpt>
      <trkpt lat="46.86388" lon="0.89874">
        <ele>98.9</ele>
        <time>2015-06-20T10:02:41.000Z</time>
      </trkpt>
      <trkpt lat="46.86348" lon="0.89806">
        <ele>94.6</ele>
        <time>2015-06-20T10:02:48.000Z</time>
      </trkpt>
      <trkpt lat="46.86241" lon="0.89828">
        <ele>87</ele>
        <time>2015-06-20T10:02:54.000Z</time>
      </trkpt>
      <trkpt lat="46.86191" lon="0.89796">
        <ele>81.7</ele>
        <time>2015-06-20T10:02:59.000Z</time>
      </trkpt>
      <trkpt lat="46.86136" lon="0.89758">
        <ele>76.8</ele>
        <time>2015-06-20T10:03:05.000Z</time>
      </trkpt>
      <trkpt lat="46.86082" lon="0.89722">
        <ele>71.9</ele>
        <time>2015-06-20T10:03:14.000Z</time>
      </trkpt>
      <trkpt lat="46.86025" lon="0.89683">
        <ele>68</ele>
        <time>2015-06-20T10:03:21.000Z</time>
      </trkpt>
      <trkpt lat="46.85973" lon="0.89653">
        <ele>66.5</ele>
        <time>2015-06-20T10:03:28.000Z</time>
      </trkpt>
      <trkpt lat="46.85949" lon="0.89651">
        <ele>66.4</ele>
        <time>2015-06-20T10:03:32.000Z</time>
      </trkpt>
      <trkpt lat="46.8593" lon="0.89655">
        <ele>67.1</ele>
        <time>2015-06-20T10:03:35.000Z</time>
      </trkpt>
      <trkpt lat="46.85876" lon="0.89672">
        <ele>69.4</ele>
        <time>2015-06-20T10:03:44.000Z</time>
      </trkpt>
      <trkpt lat="46.85854" lon="0.89674">
        <ele>70.3</ele>
        <time>2015-06-20T10:03:48.000Z</time>
      </trkpt>
      <trkpt lat="46.85804" lon="0.89657">
        <ele>73</ele>
        <time>2015-06-20T10:03:57.000Z</time>
      </trkpt>
      <trkpt lat="46.85793" lon="0.89649">
        <ele>73.4</ele>
        <time>2015-06-20T10:03:59.000Z</time>
      </trkpt>
      <trkpt lat="46.85783" lon="0.89641">
        <ele>73.8</ele>
        <time>2015-06-20T10:04:01.000Z</time>
      </trkpt>
      <trkpt lat="46.85766" lon="0.8961">
        <ele>75.5</ele>
        <time>2015-06-20T10:04:06.000Z</time>
      </trkpt>
      <trkpt lat="46.85764" lon="0.89595">
        <ele>76.1</ele>
        <time>2015-06-20T10:04:08.000Z</time>
      </trkpt>
      <trkpt lat="46.85749" lon="0.89557">
        <ele>77.9</ele>
        <time>2015-06-20T10:04:15.000Z</time>
      </trkpt>
      <trkpt lat="46.85703" lon="0.89508">
        <ele>79.5</ele>
        <time>2015-06-20T10:04:28.000Z</time>
      </trkpt>
      <trkpt lat="46.85655" lon="0.89467">
        <ele>80.2</ele>
        <time>2015-06-20T10:04:40.000Z</time>
      </trkpt>
      <trkpt lat="46.856" lon="0.8944">
        <ele>79.9</ele>
        <time>2015-06-20T10:04:52.000Z</time>
      </trkpt>
      <trkpt lat="46.85545" lon="0.89446">
        <ele>78.5</ele>
        <time>2015-06-20T10:05:02.000Z</time>
      </trkpt>
      <trkpt lat="46.85526" lon="0.89451">
        <ele>77.5</ele>
        <time>2015-06-20T10:05:05.000Z</time>
      </trkpt>
      <trkpt lat="46.85465" lon="0.89454">
        <ele>77.3</ele>
        <time>2015-06-20T10:05:14.000Z</time>
      </trkpt>
      <trkpt lat="46.85412" lon="0.8943">
        <ele>76.3</ele>
        <time>2015-06-20T10:05:22.000Z</time>
      </trkpt>
      <trkpt lat="46.85359" lon="0.8941">
        <ele>76.2</ele>
        <time>2015-06-20T10:05:30.000Z</time>
      </trkpt>
      <trkpt lat="46.85302" lon="0.89388">
        <ele>78</ele>
        <time>2015-06-20T10:05:39.000Z</time>
      </trkpt>
      <trkpt lat="46.85246" lon="0.89355">
        <ele>79.1</ele>
        <time>2015-06-20T10:05:49.000Z</time>
      </trkpt>
      <trkpt lat="46.8519" lon="0.89323">
        <ele>78.2</ele>
        <time>2015-06-20T10:05:58.000Z</time>
      </trkpt>
      <trkpt lat="46.85134" lon="0.89291">
        <ele>78</ele>
        <time>2015-06-20T10:06:06.000Z</time>
      </trkpt>
      <trkpt lat="46.85127" lon="0.8929">
        <ele>78</ele>
        <time>2015-06-20T10:06:07.000Z</time>
      </trkpt>
      <trkpt lat="46.85069" lon="0.89306">
        <ele>79</ele>
        <time>2015-06-20T10:06:16.000Z</time>
      </trkpt>
      <trkpt lat="46.85011" lon="0.89312">
        <ele>81.6</ele>
        <time>2015-06-20T10:06:26.000Z</time>
      </trkpt>
      <trkpt lat="46.84953" lon="0.89312">
        <ele>85.8</ele>
        <time>2015-06-20T10:06:38.000Z</time>
      </trkpt>
      <trkpt lat="46.84898" lon="0.89329">
        <ele>90.2</ele>
        <time>2015-06-20T10:06:52.000Z</time>
      </trkpt>
      <trkpt lat="46.84861" lon="0.89282">
        <ele>91.2</ele>
        <time>2015-06-20T10:07:08.000Z</time>
      </trkpt>
      <trkpt lat="46.8482" lon="0.89229">
        <ele>89.5</ele>
        <time>2015-06-20T10:07:20.000Z</time>
      </trkpt>
      <trkpt lat="46.84773" lon="0.89187">
        <ele>88.8</ele>
        <time>2015-06-20T10:07:29.000Z</time>
      </trkpt>
      <trkpt lat="46.84721" lon="0.89142">
        <ele>87.2</ele>
        <time>2015-06-20T10:07:37.000Z</time>
      </trkpt>
      <trkpt lat="46.84669" lon="0.89099">
        <ele>87</ele>
        <time>2015-06-20T10:07:46.000Z</time>
      </trkpt>
      <trkpt lat="46.8462" lon="0.8906">
        <ele>88.5</ele>
        <time>2015-06-20T10:07:55.000Z</time>
      </trkpt>
      <trkpt lat="46.8457" lon="0.8902">
        <ele>89.7</ele>
        <time>2015-06-20T10:08:05.000Z</time>
      </trkpt>
      <trkpt lat="46.84518" lon="0.88981">
        <ele>91.6</ele>
        <time>2015-06-20T10:08:16.000Z</time>
      </trkpt>
      <trkpt lat="46.84462" lon="0.88957">
        <ele>94.4</ele>
        <time>2015-06-20T10:08:28.000Z</time>
      </trkpt>
      <trkpt lat="46.84407" lon="0.88942">
        <ele>93.8</ele>
        <time>2015-06-20T10:08:40.000Z</time>
      </trkpt>
      <trkpt lat="46.84386" lon="0.88942">
        <ele>93.8</ele>
        <time>2015-06-20T10:08:44.000Z</time>
      </trkpt>
      <trkpt lat="46.84363" lon="0.88947">
        <ele>94.3</ele>
        <time>2015-06-20T10:08:49.000Z</time>
      </trkpt>
      <trkpt lat="46.84311" lon="0.88979">
        <ele>94.1</ele>
        <time>2015-06-20T10:09:00.000Z</time>
      </trkpt>
      <trkpt lat="46.84259" lon="0.89016">
        <ele>93.1</ele>
        <time>2015-06-20T10:09:12.000Z</time>
      </trkpt>
      <trkpt lat="46.84246" lon="0.89025">
        <ele>92.9</ele>
        <time>2015-06-20T10:09:15.000Z</time>
      </trkpt>
      <trkpt lat="46.84209" lon="0.88981">
        <ele>93.8</ele>
        <time>2015-06-20T10:09:25.000Z</time>
      </trkpt>
      <trkpt lat="46.84207" lon="0.88955">
        <ele>94.4</ele>
        <time>2015-06-20T10:09:28.000Z</time>
      </trkpt>
      <trkpt lat="46.84201" lon="0.8893">
        <ele>95.3</ele>
        <time>2015-06-20T10:09:31.000Z</time>
      </trkpt>
      <trkpt lat="46.84196" lon="0.88917">
        <ele>95.8</ele>
        <time>2015-06-20T10:09:33.000Z</time>
      </trkpt>
      <trkpt lat="46.84184" lon="0.88879">
        <ele>96.2</ele>
        <time>2015-06-20T10:09:40.000Z</time>
      </trkpt>
      <trkpt lat="46.84181" lon="0.88847">
        <ele>96.2</ele>
        <time>2015-06-20T10:09:45.000Z</time>
      </trkpt>
      <trkpt lat="46.84164" lon="0.88826">
        <ele>97.2</ele>
        <time>2015-06-20T10:09:52.000Z</time>
      </trkpt>
      <trkpt lat="46.8416" lon="0.88823">
        <ele>97.6</ele>
        <time>2015-06-20T10:09:53.000Z</time>
      </trkpt>
      <trkpt lat="46.84114" lon="0.88777">
        <ele>100.7</ele>
        <time>2015-06-20T10:10:06.000Z</time>
      </trkpt>
      <trkpt lat="46.84078" lon="0.88718">
        <ele>104.7</ele>
        <time>2015-06-20T10:10:21.000Z</time>
      </trkpt>
      <trkpt lat="46.8404" lon="0.88655">
        <ele>107.6</ele>
        <time>2015-06-20T10:10:37.000Z</time>
      </trkpt>
      <trkpt lat="46.84016" lon="0.88581">
        <ele>110.4</ele>
        <time>2015-06-20T10:10:54.000Z</time>
      </trkpt>
      <trkpt lat="46.83996" lon="0.88507">
        <ele>113.7</ele>
        <time>2015-06-20T10:11:11.000Z</time>
      </trkpt>
      <trkpt lat="46.83974" lon="0.88432">
        <ele>116.2</ele>
        <time>2015-06-20T10:11:29.000Z</time>
      </trkpt>
      <trkpt lat="46.83948" lon="0.88361">
        <ele>119.4</ele>
        <time>2015-06-20T10:11:45.000Z</time>
      </trkpt>
      <trkpt lat="46.8392" lon="0.88292">
        <ele>123.6</ele>
        <time>2015-06-20T10:12:00.000Z</time>
      </trkpt>
      <trkpt lat="46.83888" lon="0.88227">
        <ele>126.1</ele>
        <time>2015-06-20T10:12:14.000Z</time>
      </trkpt>
      <trkpt lat="46.83856" lon="0.8816">
        <ele>130.3</ele>
        <time>2015-06-20T10:12:29.000Z</time>
      </trkpt>
      <trkpt lat="46.83828" lon="0.88094">
        <ele>132.2</ele>
        <time>2015-06-20T10:12:44.000Z</time>
      </trkpt>
      <trkpt lat="46.83798" lon="0.88024">
        <ele>133.3</ele>
        <time>2015-06-20T10:12:59.000Z</time>
      </trkpt>
      <trkpt lat="46.83776" lon="0.87946">
        <ele>133.1</ele>
        <time>2015-06-20T10:13:13.000Z</time>
      </trkpt>
      <trkpt lat="46.83768" lon="0.87916">
        <ele>133.4</ele>
        <time>2015-06-20T10:13:20.000Z</time>
      </trkpt>
      <trkpt lat="46.83749" lon="0.87946">
        <ele>134</ele>
        <time>2015-06-20T10:13:27.000Z</time>
      </trkpt>
      <trkpt lat="46.83724" lon="0.88017">
        <ele>134.9</ele>
        <time>2015-06-20T10:13:39.000Z</time>
      </trkpt>
      <trkpt lat="46.83695" lon="0.88092">
        <ele>135</ele>
        <time>2015-06-20T10:13:51.000Z</time>
      </trkpt>
      <trkpt lat="46.83667" lon="0.88169">
        <ele>135</ele>
        <time>2015-06-20T10:14:02.000Z</time>
      </trkpt>
      <trkpt lat="46.83641" lon="0.88244">
        <ele>134.9</ele>
        <time>2015-06-20T10:14:12.000Z</time>
      </trkpt>
      <trkpt lat="46.83616" lon="0.88313">
        <ele>134</ele>
        <time>2015-06-20T10:14:21.000Z</time>
      </trkpt>
      <trkpt lat="46.83589" lon="0.88384">
        <ele>133.8</ele>
        <time>2015-06-20T10:14:30.000Z</time>
      </trkpt>
      <trkpt lat="46.83555" lon="0.88446">
        <ele>135</ele>
        <time>2015-06-20T10:14:39.000Z</time>
      </trkpt>
      <trkpt lat="46.83511" lon="0.88497">
        <ele>135</ele>
        <time>2015-06-20T10:14:48.000Z</time>
      </trkpt>
      <trkpt lat="46.83467" lon="0.88545">
        <ele>133.5</ele>
        <time>2015-06-20T10:14:58.000Z</time>
      </trkpt>
      <trkpt lat="46.83423" lon="0.88597">
        <ele>133.3</ele>
        <time>2015-06-20T10:15:08.000Z</time>
      </trkpt>
      <trkpt lat="46.83403" lon="0.88621">
        <ele>133.1</ele>
        <time>2015-06-20T10:15:13.000Z</time>
      </trkpt>
      <trkpt lat="46.83402" lon="0.88657">
        <ele>131.6</ele>
        <time>2015-06-20T10:15:18.000Z</time>
      </trkpt>
      <trkpt lat="46.83404" lon="0.88676">
        <ele>130.6</ele>
        <time>2015-06-20T10:15:21.000Z</time>
      </trkpt>
      <trkpt lat="46.83396" lon="0.88697">
        <ele>130.4</ele>
        <time>2015-06-20T10:15:25.000Z</time>
      </trkpt>
      <trkpt lat="46.83392" lon="0.88698">
        <ele>130.6</ele>
        <time>2015-06-20T10:15:26.000Z</time>
      </trkpt>
      <trkpt lat="46.83339" lon="0.88714">
        <ele>133.8</ele>
        <time>2015-06-20T10:15:43.000Z</time>
      </trkpt>
      <trkpt lat="46.8334" lon="0.88724">
        <ele>133.7</ele>
        <time>2015-06-20T10:15:46.000Z</time>
      </trkpt>
      <trkpt lat="46.83364" lon="0.88789">
        <ele>132.5</ele>
        <time>2015-06-20T10:15:58.000Z</time>
      </trkpt>
      <trkpt lat="46.83376" lon="0.88827">
        <ele>131.2</ele>
        <time>2015-06-20T10:16:03.000Z</time>
      </trkpt>
      <trkpt lat="46.83403" lon="0.88901">
        <ele>129.8</ele>
        <time>2015-06-20T10:16:12.000Z</time>
      </trkpt>
      <trkpt lat="46.83429" lon="0.88973">
        <ele>128</ele>
        <time>2015-06-20T10:16:19.000Z</time>
      </trkpt>
      <trkpt lat="46.83454" lon="0.89044">
        <ele>124.4</ele>
        <time>2015-06-20T10:16:25.000Z</time>
      </trkpt>
      <trkpt lat="46.83482" lon="0.89122">
        <ele>119.7</ele>
        <time>2015-06-20T10:16:31.000Z</time>
      </trkpt>
      <trkpt lat="46.83508" lon="0.89191">
        <ele>115.6</ele>
        <time>2015-06-20T10:16:36.000Z</time>
      </trkpt>
      <trkpt lat="46.83534" lon="0.89264">
        <ele>113.3</ele>
        <time>2015-06-20T10:16:41.000Z</time>
      </trkpt>
      <trkpt lat="46.8356" lon="0.89338">
        <ele>107.5</ele>
        <time>2015-06-20T10:16:46.000Z</time>
      </trkpt>
      <trkpt lat="46.83587" lon="0.89413">
        <ele>105.6</ele>
        <time>2015-06-20T10:16:51.000Z</time>
      </trkpt>
      <trkpt lat="46.83613" lon="0.89486">
        <ele>106</ele>
        <time>2015-06-20T10:16:56.000Z</time>
      </trkpt>
      <trkpt lat="46.83638" lon="0.89557">
        <ele>107</ele>
        <time>2015-06-20T10:17:02.000Z</time>
      </trkpt>
      <trkpt lat="46.83663" lon="0.89629">
        <ele>110</ele>
        <time>2015-06-20T10:17:09.000Z</time>
      </trkpt>
      <trkpt lat="46.83691" lon="0.89705">
        <ele>111</ele>
        <time>2015-06-20T10:17:19.000Z</time>
      </trkpt>
      <trkpt lat="46.83718" lon="0.89781">
        <ele>111.1</ele>
        <time>2015-06-20T10:17:30.000Z</time>
      </trkpt>
      <trkpt lat="46.83743" lon="0.89851">
        <ele>111.2</ele>
        <time>2015-06-20T10:17:39.000Z</time>
      </trkpt>
      <trkpt lat="46.8377" lon="0.89929">
        <ele>110.7</ele>
        <time>2015-06-20T10:17:48.000Z</time>
      </trkpt>
      <trkpt lat="46.83796" lon="0.90003">
        <ele>113.1</ele>
        <time>2015-06-20T10:17:58.000Z</time>
      </trkpt>
      <trkpt lat="46.83822" lon="0.90074">
        <ele>116.9</ele>
        <time>2015-06-20T10:18:09.000Z</time>
      </trkpt>
      <trkpt lat="46.83849" lon="0.90149">
        <ele>120.7</ele>
        <time>2015-06-20T10:18:21.000Z</time>
      </trkpt>
      <trkpt lat="46.83875" lon="0.90222">
        <ele>121</ele>
        <time>2015-06-20T10:18:32.000Z</time>
      </trkpt>
      <trkpt lat="46.83902" lon="0.903">
        <ele>120.1</ele>
        <time>2015-06-20T10:18:42.000Z</time>
      </trkpt>
      <trkpt lat="46.83928" lon="0.90375">
        <ele>118.3</ele>
        <time>2015-06-20T10:18:50.000Z</time>
      </trkpt>
      <trkpt lat="46.83955" lon="0.90453">
        <ele>115.4</ele>
        <time>2015-06-20T10:18:57.000Z</time>
      </trkpt>
      <trkpt lat="46.83983" lon="0.90532">
        <ele>111.7</ele>
        <time>2015-06-20T10:19:03.000Z</time>
      </trkpt>
      <trkpt lat="46.84008" lon="0.90605">
        <ele>108.4</ele>
        <time>2015-06-20T10:19:08.000Z</time>
      </trkpt>
      <trkpt lat="46.84035" lon="0.90682">
        <ele>104.8</ele>
        <time>2015-06-20T10:19:13.000Z</time>
      </trkpt>
      <trkpt lat="46.84061" lon="0.90756">
        <ele>101.8</ele>
        <time>2015-06-20T10:19:18.000Z</time>
      </trkpt>
      <trkpt lat="46.84088" lon="0.90834">
        <ele>102</ele>
        <time>2015-06-20T10:19:25.000Z</time>
      </trkpt>
      <trkpt lat="46.84113" lon="0.90905">
        <ele>108.2</ele>
        <time>2015-06-20T10:19:33.000Z</time>
      </trkpt>
      <trkpt lat="46.84138" lon="0.90978">
        <ele>115.2</ele>
        <time>2015-06-20T10:19:44.000Z</time>
      </trkpt>
      <trkpt lat="46.84163" lon="0.91054">
        <ele>119.6</ele>
        <time>2015-06-20T10:19:56.000Z</time>
      </trkpt>
      <trkpt lat="46.84183" lon="0.91107">
        <ele>121.5</ele>
        <time>2015-06-20T10:20:05.000Z</time>
      </trkpt>
      <trkpt lat="46.84208" lon="0.91178">
        <ele>123.2</ele>
        <time>2015-06-20T10:20:17.000Z</time>
      </trkpt>
      <trkpt lat="46.84234" lon="0.91255">
        <ele>124.5</ele>
        <time>2015-06-20T10:20:28.000Z</time>
      </trkpt>
      <trkpt lat="46.84261" lon="0.91332">
        <ele>123.6</ele>
        <time>2015-06-20T10:20:37.000Z</time>
      </trkpt>
      <trkpt lat="46.84288" lon="0.9141">
        <ele>123.4</ele>
        <time>2015-06-20T10:20:46.000Z</time>
      </trkpt>
      <trkpt lat="46.84313" lon="0.91485">
        <ele>124.3</ele>
        <time>2015-06-20T10:20:55.000Z</time>
      </trkpt>
      <trkpt lat="46.84338" lon="0.91558">
        <ele>125</ele>
        <time>2015-06-20T10:21:04.000Z</time>
      </trkpt>
      <trkpt lat="46.84364" lon="0.91632">
        <ele>125</ele>
        <time>2015-06-20T10:21:13.000Z</time>
      </trkpt>
      <trkpt lat="46.84389" lon="0.91708">
        <ele>125</ele>
        <time>2015-06-20T10:21:22.000Z</time>
      </trkpt>
      <trkpt lat="46.84414" lon="0.91779">
        <ele>124.8</ele>
        <time>2015-06-20T10:21:30.000Z</time>
      </trkpt>
      <trkpt lat="46.84439" lon="0.91852">
        <ele>123.9</ele>
        <time>2015-06-20T10:21:38.000Z</time>
      </trkpt>
      <trkpt lat="46.84465" lon="0.91927">
        <ele>122.2</ele>
        <time>2015-06-20T10:21:46.000Z</time>
      </trkpt>
      <trkpt lat="46.84491" lon="0.92001">
        <ele>121.3</ele>
        <time>2015-06-20T10:21:54.000Z</time>
      </trkpt>
      <trkpt lat="46.84516" lon="0.92075">
        <ele>119.6</ele>
        <time>2015-06-20T10:22:02.000Z</time>
      </trkpt>
      <trkpt lat="46.84541" lon="0.92147">
        <ele>116.9</ele>
        <time>2015-06-20T10:22:09.000Z</time>
      </trkpt>
      <trkpt lat="46.84568" lon="0.92227">
        <ele>114.4</ele>
        <time>2015-06-20T10:22:16.000Z</time>
      </trkpt>
      <trkpt lat="46.84594" lon="0.92299">
        <ele>112.6</ele>
        <time>2015-06-20T10:22:22.000Z</time>
      </trkpt>
      <trkpt lat="46.84618" lon="0.92371">
        <ele>109.4</ele>
        <time>2015-06-20T10:22:28.000Z</time>
      </trkpt>
      <trkpt lat="46.84644" lon="0.92448">
        <ele>104.9</ele>
        <time>2015-06-20T10:22:34.000Z</time>
      </trkpt>
      <trkpt lat="46.84673" lon="0.9253">
        <ele>99.1</ele>
        <time>2015-06-20T10:22:40.000Z</time>
      </trkpt>
      <trkpt lat="46.84698" lon="0.92603">
        <ele>95.5</ele>
        <time>2015-06-20T10:22:45.000Z</time>
      </trkpt>
      <trkpt lat="46.84724" lon="0.92678">
        <ele>93.8</ele>
        <time>2015-06-20T10:22:50.000Z</time>
      </trkpt>
      <trkpt lat="46.84752" lon="0.92762">
        <ele>91.9</ele>
        <time>2015-06-20T10:22:56.000Z</time>
      </trkpt>
      <trkpt lat="46.84765" lon="0.92804">
        <ele>91.3</ele>
        <time>2015-06-20T10:23:00.000Z</time>
      </trkpt>
      <trkpt lat="46.84769" lon="0.9284">
        <ele>90.6</ele>
        <time>2015-06-20T10:23:04.000Z</time>
      </trkpt>
      <trkpt lat="46.84794" lon="0.92858">
        <ele>89.4</ele>
        <time>2015-06-20T10:23:09.000Z</time>
      </trkpt>
      <trkpt lat="46.84854" lon="0.92876">
        <ele>86.1</ele>
        <time>2015-06-20T10:23:18.000Z</time>
      </trkpt>
      <trkpt lat="46.84886" lon="0.92884">
        <ele>84.9</ele>
        <time>2015-06-20T10:23:23.000Z</time>
      </trkpt>
      <trkpt lat="46.84924" lon="0.92855">
        <ele>81.5</ele>
        <time>2015-06-20T10:23:28.000Z</time>
      </trkpt>
      <trkpt lat="46.84959" lon="0.9282">
        <ele>79.7</ele>
        <time>2015-06-20T10:23:33.000Z</time>
      </trkpt>
      <trkpt lat="46.85001" lon="0.92826">
        <ele>78.7</ele>
        <time>2015-06-20T10:23:38.000Z</time>
      </trkpt>
      <trkpt lat="46.85021" lon="0.92839">
        <ele>77.6</ele>
        <time>2015-06-20T10:23:41.000Z</time>
      </trkpt>
      <trkpt lat="46.85063" lon="0.92901">
        <ele>74.1</ele>
        <time>2015-06-20T10:23:50.000Z</time>
      </trkpt>
      <trkpt lat="46.85097" lon="0.92955">
        <ele>72.7</ele>
        <time>2015-06-20T10:23:58.000Z</time>
      </trkpt>
      <trkpt lat="46.8512" lon="0.9297">
        <ele>72.8</ele>
        <time>2015-06-20T10:24:02.000Z</time>
      </trkpt>
      <trkpt lat="46.85175" lon="0.9299">
        <ele>72.1</ele>
        <time>2015-06-20T10:24:12.000Z</time>
      </trkpt>
      <trkpt lat="46.85232" lon="0.93012">
        <ele>69.5</ele>
        <time>2015-06-20T10:24:23.000Z</time>
      </trkpt>
      <trkpt lat="46.85286" lon="0.93031">
        <ele>74.5</ele>
        <time>2015-06-20T10:24:33.000Z</time>
      </trkpt>
      <trkpt lat="46.8534" lon="0.93051">
        <ele>78.3</ele>
        <time>2015-06-20T10:24:47.000Z</time>
      </trkpt>
      <trkpt lat="46.85372" lon="0.93067">
        <ele>80.6</ele>
        <time>2015-06-20T10:24:57.000Z</time>
      </trkpt>
      <trkpt lat="46.85387" lon="0.93051">
        <ele>80.9</ele>
        <time>2015-06-20T10:25:01.000Z</time>
      </trkpt>
      <trkpt lat="46.85421" lon="0.92989">
        <ele>84.2</ele>
        <time>2015-06-20T10:25:14.000Z</time>
      </trkpt>
      <trkpt lat="46.85457" lon="0.92922">
        <ele>87.3</ele>
        <time>2015-06-20T10:25:29.000Z</time>
      </trkpt>
      <trkpt lat="46.85458" lon="0.92916">
        <ele>87.5</ele>
        <time>2015-06-20T10:25:30.000Z</time>
      </trkpt>
      <trkpt lat="46.85468" lon="0.92839">
        <ele>86.8</ele>
        <time>2015-06-20T10:25:42.000Z</time>
      </trkpt>
      <trkpt lat="46.85493" lon="0.92773">
        <ele>88.1</ele>
        <time>2015-06-20T10:26:46.000Z</time>
      </trkpt>
      <trkpt lat="46.85491" lon="0.92761">
        <ele>87.6</ele>
        <time>2015-06-20T10:26:49.000Z</time>
      </trkpt>
      <trkpt lat="46.85477" lon="0.92786">
        <ele>86.8</ele>
        <time>2015-06-20T12:14:23.000Z</time>
      </trkpt>
      <trkpt lat="46.85474" lon="0.9281">
        <ele>87.1</ele>
        <time>2015-06-20T12:14:30.000Z</time>
      </trkpt>
      <trkpt lat="46.85462" lon="0.92888">
        <ele>86.9</ele>
        <time>2015-06-20T12:14:53.000Z</time>
      </trkpt>
      <trkpt lat="46.85483" lon="0.92942">
        <ele>89.8</ele>
        <time>2015-06-20T12:15:09.000Z</time>
      </trkpt>
      <trkpt lat="46.85537" lon="0.92938">
        <ele>93.4</ele>
        <time>2015-06-20T12:15:31.000Z</time>
      </trkpt>
      <trkpt lat="46.85585" lon="0.92962">
        <ele>96.2</ele>
        <time>2015-06-20T12:15:49.000Z</time>
      </trkpt>
      <trkpt lat="46.85604" lon="0.92982">
        <ele>97.2</ele>
        <time>2015-06-20T12:15:55.000Z</time>
      </trkpt>
      <trkpt lat="46.85614" lon="0.93001">
        <ele>97.6</ele>
        <time>2015-06-20T12:15:59.000Z</time>
      </trkpt>
      <trkpt lat="46.85638" lon="0.93075">
        <ele>99.9</ele>
        <time>2015-06-20T12:16:16.000Z</time>
      </trkpt>
      <trkpt lat="46.85658" lon="0.93151">
        <ele>101.6</ele>
        <time>2015-06-20T12:16:33.000Z</time>
      </trkpt>
      <trkpt lat="46.85677" lon="0.93225">
        <ele>103.2</ele>
        <time>2015-06-20T12:16:49.000Z</time>
      </trkpt>
      <trkpt lat="46.85704" lon="0.93296">
        <ele>106.4</ele>
        <time>2015-06-20T12:17:06.000Z</time>
      </trkpt>
      <trkpt lat="46.85737" lon="0.93363">
        <ele>110.4</ele>
        <time>2015-06-20T12:17:23.000Z</time>
      </trkpt>
      <trkpt lat="46.85767" lon="0.93432">
        <ele>112.9</ele>
        <time>2015-06-20T12:17:40.000Z</time>
      </trkpt>
      <trkpt lat="46.85792" lon="0.93505">
        <ele>114.1</ele>
        <time>2015-06-20T12:17:56.000Z</time>
      </trkpt>
      <trkpt lat="46.85813" lon="0.9358">
        <ele>115.3</ele>
        <time>2015-06-20T12:18:11.000Z</time>
      </trkpt>
      <trkpt lat="46.85836" lon="0.93651">
        <ele>116.4</ele>
        <time>2015-06-20T12:18:27.000Z</time>
      </trkpt>
      <trkpt lat="46.8586" lon="0.93728">
        <ele>118.4</ele>
        <time>2015-06-20T12:18:43.000Z</time>
      </trkpt>
      <trkpt lat="46.85881" lon="0.93802">
        <ele>119</ele>
        <time>2015-06-20T12:18:58.000Z</time>
      </trkpt>
      <trkpt lat="46.85905" lon="0.93876">
        <ele>121.2</ele>
        <time>2015-06-20T12:19:13.000Z</time>
      </trkpt>
      <trkpt lat="46.85927" lon="0.93948">
        <ele>122.4</ele>
        <time>2015-06-20T12:19:28.000Z</time>
      </trkpt>
      <trkpt lat="46.85952" lon="0.94022">
        <ele>124.7</ele>
        <time>2015-06-20T12:19:44.000Z</time>
      </trkpt>
      <trkpt lat="46.85993" lon="0.94079">
        <ele>126.8</ele>
        <time>2015-06-20T12:20:01.000Z</time>
      </trkpt>
      <trkpt lat="46.86042" lon="0.94114">
        <ele>128.5</ele>
        <time>2015-06-20T12:20:17.000Z</time>
      </trkpt>
      <trkpt lat="46.86095" lon="0.9415">
        <ele>129.1</ele>
        <time>2015-06-20T12:20:31.000Z</time>
      </trkpt>
      <trkpt lat="46.86145" lon="0.94183">
        <ele>129.4</ele>
        <time>2015-06-20T12:20:42.000Z</time>
      </trkpt>
      <trkpt lat="46.86195" lon="0.94217">
        <ele>129.6</ele>
        <time>2015-06-20T12:20:52.000Z</time>
      </trkpt>
      <trkpt lat="46.86244" lon="0.9425">
        <ele>130</ele>
        <time>2015-06-20T12:21:02.000Z</time>
      </trkpt>
      <trkpt lat="46.86297" lon="0.94285">
        <ele>131.2</ele>
        <time>2015-06-20T12:21:13.000Z</time>
      </trkpt>
      <trkpt lat="46.8635" lon="0.9432">
        <ele>132</ele>
        <time>2015-06-20T12:21:24.000Z</time>
      </trkpt>
      <trkpt lat="46.86403" lon="0.94356">
        <ele>132.4</ele>
        <time>2015-06-20T12:21:35.000Z</time>
      </trkpt>
      <trkpt lat="46.86455" lon="0.9439">
        <ele>133</ele>
        <time>2015-06-20T12:21:45.000Z</time>
      </trkpt>
      <trkpt lat="46.86506" lon="0.94425">
        <ele>132.6</ele>
        <time>2015-06-20T12:21:55.000Z</time>
      </trkpt>
      <trkpt lat="46.86558" lon="0.9446">
        <ele>131.9</ele>
        <time>2015-06-20T12:22:04.000Z</time>
      </trkpt>
      <trkpt lat="46.86609" lon="0.94494">
        <ele>131</ele>
        <time>2015-06-20T12:22:12.000Z</time>
      </trkpt>
      <trkpt lat="46.86662" lon="0.9453">
        <ele>129.9</ele>
        <time>2015-06-20T12:22:20.000Z</time>
      </trkpt>
      <trkpt lat="46.86717" lon="0.94568">
        <ele>128.9</ele>
        <time>2015-06-20T12:22:28.000Z</time>
      </trkpt>
      <trkpt lat="46.86771" lon="0.94604">
        <ele>128</ele>
        <time>2015-06-20T12:22:36.000Z</time>
      </trkpt>
      <trkpt lat="46.86822" lon="0.94639">
        <ele>127.4</ele>
        <time>2015-06-20T12:22:44.000Z</time>
      </trkpt>
      <trkpt lat="46.86872" lon="0.94671">
        <ele>126.7</ele>
        <time>2015-06-20T12:22:52.000Z</time>
      </trkpt>
      <trkpt lat="46.86922" lon="0.94705">
        <ele>126.4</ele>
        <time>2015-06-20T12:23:00.000Z</time>
      </trkpt>
      <trkpt lat="46.86975" lon="0.94741">
        <ele>126.7</ele>
        <time>2015-06-20T12:23:09.000Z</time>
      </trkpt>
      <trkpt lat="46.87024" lon="0.94775">
        <ele>127</ele>
        <time>2015-06-20T12:23:18.000Z</time>
      </trkpt>
      <trkpt lat="46.87077" lon="0.9481">
        <ele>127.8</ele>
        <time>2015-06-20T12:23:28.000Z</time>
      </trkpt>
      <trkpt lat="46.87128" lon="0.94844">
        <ele>128</ele>
        <time>2015-06-20T12:23:38.000Z</time>
      </trkpt>
      <trkpt lat="46.8718" lon="0.94881">
        <ele>127.9</ele>
        <time>2015-06-20T12:23:48.000Z</time>
      </trkpt>
      <trkpt lat="46.87229" lon="0.94913">
        <ele>127.6</ele>
        <time>2015-06-20T12:23:57.000Z</time>
      </trkpt>
      <trkpt lat="46.8728" lon="0.94947">
        <ele>127.1</ele>
        <time>2015-06-20T12:24:06.000Z</time>
      </trkpt>
      <trkpt lat="46.87329" lon="0.9498">
        <ele>127</ele>
        <time>2015-06-20T12:24:15.000Z</time>
      </trkpt>
      <trkpt lat="46.87382" lon="0.95015">
        <ele>128.3</ele>
        <time>2015-06-20T12:24:25.000Z</time>
      </trkpt>
      <trkpt lat="46.87432" lon="0.95049">
        <ele>129.4</ele>
        <time>2015-06-20T12:24:35.000Z</time>
      </trkpt>
      <trkpt lat="46.87485" lon="0.95085">
        <ele>130.5</ele>
        <time>2015-06-20T12:24:46.000Z</time>
      </trkpt>
      <trkpt lat="46.87538" lon="0.95121">
        <ele>131</ele>
        <time>2015-06-20T12:24:57.000Z</time>
      </trkpt>
      <trkpt lat="46.87588" lon="0.95155">
        <ele>131.6</ele>
        <time>2015-06-20T12:25:07.000Z</time>
      </trkpt>
      <trkpt lat="46.87641" lon="0.95191">
        <ele>132</ele>
        <time>2015-06-20T12:25:17.000Z</time>
      </trkpt>
      <trkpt lat="46.87695" lon="0.95225">
        <ele>132</ele>
        <time>2015-06-20T12:25:27.000Z</time>
      </trkpt>
      <trkpt lat="46.87719" lon="0.95237">
        <ele>132</ele>
        <time>2015-06-20T12:25:31.000Z</time>
      </trkpt>
      <trkpt lat="46.87747" lon="0.95225">
        <ele>132</ele>
        <time>2015-06-20T12:25:36.000Z</time>
      </trkpt>
      <trkpt lat="46.87799" lon="0.95188">
        <ele>132</ele>
        <time>2015-06-20T12:25:46.000Z</time>
      </trkpt>
      <trkpt lat="46.8785" lon="0.95152">
        <ele>132</ele>
        <time>2015-06-20T12:25:56.000Z</time>
      </trkpt>
      <trkpt lat="46.87903" lon="0.95116">
        <ele>132</ele>
        <time>2015-06-20T12:26:06.000Z</time>
      </trkpt>
      <trkpt lat="46.87954" lon="0.9508">
        <ele>132</ele>
        <time>2015-06-20T12:26:16.000Z</time>
      </trkpt>
      <trkpt lat="46.88008" lon="0.95044">
        <ele>131</ele>
        <time>2015-06-20T12:26:26.000Z</time>
      </trkpt>
      <trkpt lat="46.88061" lon="0.95007">
        <ele>129.8</ele>
        <time>2015-06-20T12:26:35.000Z</time>
      </trkpt>
      <trkpt lat="46.88113" lon="0.94971">
        <ele>128.9</ele>
        <time>2015-06-20T12:26:44.000Z</time>
      </trkpt>
      <trkpt lat="46.88166" lon="0.94934">
        <ele>128</ele>
        <time>2015-06-20T12:26:53.000Z</time>
      </trkpt>
      <trkpt lat="46.88216" lon="0.949">
        <ele>127.1</ele>
        <time>2015-06-20T12:27:01.000Z</time>
      </trkpt>
      <trkpt lat="46.88272" lon="0.94862">
        <ele>124.4</ele>
        <time>2015-06-20T12:27:09.000Z</time>
      </trkpt>
      <trkpt lat="46.88325" lon="0.94827">
        <ele>121.2</ele>
        <time>2015-06-20T12:27:16.000Z</time>
      </trkpt>
      <trkpt lat="46.88381" lon="0.94788">
        <ele>116.6</ele>
        <time>2015-06-20T12:27:23.000Z</time>
      </trkpt>
      <trkpt lat="46.88436" lon="0.94752">
        <ele>114.9</ele>
        <time>2015-06-20T12:27:30.000Z</time>
      </trkpt>
      <trkpt lat="46.8849" lon="0.94724">
        <ele>118.9</ele>
        <time>2015-06-20T12:27:39.000Z</time>
      </trkpt>
      <trkpt lat="46.88542" lon="0.947">
        <ele>123</ele>
        <time>2015-06-20T12:27:51.000Z</time>
      </trkpt>
      <trkpt lat="46.88594" lon="0.94665">
        <ele>126.8</ele>
        <time>2015-06-20T12:28:03.000Z</time>
      </trkpt>
      <trkpt lat="46.88643" lon="0.94627">
        <ele>129.1</ele>
        <time>2015-06-20T12:28:15.000Z</time>
      </trkpt>
      <trkpt lat="46.88693" lon="0.94588">
        <ele>131.8</ele>
        <time>2015-06-20T12:28:28.000Z</time>
      </trkpt>
      <trkpt lat="46.88743" lon="0.94547">
        <ele>133.8</ele>
        <time>2015-06-20T12:28:41.000Z</time>
      </trkpt>
      <trkpt lat="46.88794" lon="0.94503">
        <ele>135</ele>
        <time>2015-06-20T12:28:53.000Z</time>
      </trkpt>
      <trkpt lat="46.88844" lon="0.94468">
        <ele>135</ele>
        <time>2015-06-20T12:29:04.000Z</time>
      </trkpt>
      <trkpt lat="46.88894" lon="0.94433">
        <ele>134.9</ele>
        <time>2015-06-20T12:29:14.000Z</time>
      </trkpt>
      <trkpt lat="46.88945" lon="0.94398">
        <ele>134</ele>
        <time>2015-06-20T12:29:24.000Z</time>
      </trkpt>
      <trkpt lat="46.88994" lon="0.94364">
        <ele>134</ele>
        <time>2015-06-20T12:29:33.000Z</time>
      </trkpt>
      <trkpt lat="46.89047" lon="0.94327">
        <ele>133</ele>
        <time>2015-06-20T12:29:43.000Z</time>
      </trkpt>
      <trkpt lat="46.89097" lon="0.94293">
        <ele>133</ele>
        <time>2015-06-20T12:29:52.000Z</time>
      </trkpt>
      <trkpt lat="46.89151" lon="0.94257">
        <ele>132.6</ele>
        <time>2015-06-20T12:30:02.000Z</time>
      </trkpt>
      <trkpt lat="46.892" lon="0.94224">
        <ele>133.2</ele>
        <time>2015-06-20T12:30:12.000Z</time>
      </trkpt>
      <trkpt lat="46.89252" lon="0.94188">
        <ele>134.1</ele>
        <time>2015-06-20T12:30:23.000Z</time>
      </trkpt>
      <trkpt lat="46.89302" lon="0.94153">
        <ele>135.9</ele>
        <time>2015-06-20T12:30:34.000Z</time>
      </trkpt>
      <trkpt lat="46.89352" lon="0.94119">
        <ele>137</ele>
        <time>2015-06-20T12:30:45.000Z</time>
      </trkpt>
      <trkpt lat="46.89402" lon="0.94086">
        <ele>137</ele>
        <time>2015-06-20T12:30:55.000Z</time>
      </trkpt>
      <trkpt lat="46.89454" lon="0.94049">
        <ele>137.2</ele>
        <time>2015-06-20T12:31:05.000Z</time>
      </trkpt>
      <trkpt lat="46.89507" lon="0.94013">
        <ele>137.4</ele>
        <time>2015-06-20T12:31:15.000Z</time>
      </trkpt>
      <trkpt lat="46.89558" lon="0.93979">
        <ele>137</ele>
        <time>2015-06-20T12:31:24.000Z</time>
      </trkpt>
      <trkpt lat="46.89611" lon="0.93942">
        <ele>137</ele>
        <time>2015-06-20T12:31:33.000Z</time>
      </trkpt>
      <trkpt lat="46.89662" lon="0.93907">
        <ele>137</ele>
        <time>2015-06-20T12:31:42.000Z</time>
      </trkpt>
      <trkpt lat="46.89713" lon="0.93871">
        <ele>136.3</ele>
        <time>2015-06-20T12:31:51.000Z</time>
      </trkpt>
      <trkpt lat="46.89766" lon="0.93835">
        <ele>136</ele>
        <time>2015-06-20T12:32:00.000Z</time>
      </trkpt>
      <trkpt lat="46.89822" lon="0.93798">
        <ele>135</ele>
        <time>2015-06-20T12:32:09.000Z</time>
      </trkpt>
      <trkpt lat="46.89872" lon="0.93764">
        <ele>134</ele>
        <time>2015-06-20T12:32:17.000Z</time>
      </trkpt>
      <trkpt lat="46.89927" lon="0.93726">
        <ele>133.1</ele>
        <time>2015-06-20T12:32:26.000Z</time>
      </trkpt>
      <trkpt lat="46.89979" lon="0.9369">
        <ele>131.8</ele>
        <time>2015-06-20T12:32:34.000Z</time>
      </trkpt>
      <trkpt lat="46.90033" lon="0.93653">
        <ele>130.4</ele>
        <time>2015-06-20T12:32:42.000Z</time>
      </trkpt>
      <trkpt lat="46.90088" lon="0.93615">
        <ele>128.6</ele>
        <time>2015-06-20T12:32:50.000Z</time>
      </trkpt>
      <trkpt lat="46.90142" lon="0.9358">
        <ele>131.1</ele>
        <time>2015-06-20T12:32:59.000Z</time>
      </trkpt>
      <trkpt lat="46.90191" lon="0.93547">
        <ele>131.9</ele>
        <time>2015-06-20T12:33:08.000Z</time>
      </trkpt>
      <trkpt lat="46.90242" lon="0.93511">
        <ele>131</ele>
        <time>2015-06-20T12:33:17.000Z</time>
      </trkpt>
      <trkpt lat="46.90292" lon="0.93475">
        <ele>129.5</ele>
        <time>2015-06-20T12:33:25.000Z</time>
      </trkpt>
      <trkpt lat="46.90342" lon="0.93441">
        <ele>128.9</ele>
        <time>2015-06-20T12:33:33.000Z</time>
      </trkpt>
      <trkpt lat="46.90396" lon="0.93405">
        <ele>130.2</ele>
        <time>2015-06-20T12:33:42.000Z</time>
      </trkpt>
      <trkpt lat="46.90446" lon="0.93371">
        <ele>131.7</ele>
        <time>2015-06-20T12:33:51.000Z</time>
      </trkpt>
      <trkpt lat="46.90495" lon="0.93338">
        <ele>132.8</ele>
        <time>2015-06-20T12:34:00.000Z</time>
      </trkpt>
      <trkpt lat="46.90545" lon="0.93303">
        <ele>133</ele>
        <time>2015-06-20T12:34:09.000Z</time>
      </trkpt>
      <trkpt lat="46.90598" lon="0.93268">
        <ele>133</ele>
        <time>2015-06-20T12:34:18.000Z</time>
      </trkpt>
      <trkpt lat="46.90651" lon="0.93231">
        <ele>132.6</ele>
        <time>2015-06-20T12:34:27.000Z</time>
      </trkpt>
      <trkpt lat="46.90702" lon="0.93197">
        <ele>131.7</ele>
        <time>2015-06-20T12:34:35.000Z</time>
      </trkpt>
      <trkpt lat="46.90755" lon="0.9316">
        <ele>130</ele>
        <time>2015-06-20T12:34:43.000Z</time>
      </trkpt>
      <trkpt lat="46.90809" lon="0.93123">
        <ele>128.9</ele>
        <time>2015-06-20T12:34:51.000Z</time>
      </trkpt>
      <trkpt lat="46.90863" lon="0.93087">
        <ele>127.2</ele>
        <time>2015-06-20T12:34:59.000Z</time>
      </trkpt>
      <trkpt lat="46.90915" lon="0.93051">
        <ele>127.8</ele>
        <time>2015-06-20T12:35:07.000Z</time>
      </trkpt>
      <trkpt lat="46.90966" lon="0.93015">
        <ele>127</ele>
        <time>2015-06-20T12:35:15.000Z</time>
      </trkpt>
      <trkpt lat="46.91017" lon="0.9298">
        <ele>126</ele>
        <time>2015-06-20T12:35:23.000Z</time>
      </trkpt>
      <trkpt lat="46.91068" lon="0.92945">
        <ele>124</ele>
        <time>2015-06-20T12:35:31.000Z</time>
      </trkpt>
      <trkpt lat="46.9112" lon="0.92909">
        <ele>122.5</ele>
        <time>2015-06-20T12:35:39.000Z</time>
      </trkpt>
      <trkpt lat="46.91171" lon="0.92874">
        <ele>120.8</ele>
        <time>2015-06-20T12:35:46.000Z</time>
      </trkpt>
      <trkpt lat="46.91224" lon="0.92837">
        <ele>118.2</ele>
        <time>2015-06-20T12:35:53.000Z</time>
      </trkpt>
      <trkpt lat="46.91274" lon="0.92797">
        <ele>117.5</ele>
        <time>2015-06-20T12:36:00.000Z</time>
      </trkpt>
      <trkpt lat="46.91316" lon="0.92735">
        <ele>114.9</ele>
        <time>2015-06-20T12:36:07.000Z</time>
      </trkpt>
      <trkpt lat="46.9134" lon="0.92661">
        <ele>112.7</ele>
        <time>2015-06-20T12:36:13.000Z</time>
      </trkpt>
      <trkpt lat="46.91354" lon="0.92582">
        <ele>110.8</ele>
        <time>2015-06-20T12:36:19.000Z</time>
      </trkpt>
      <trkpt lat="46.91367" lon="0.92504">
        <ele>109.6</ele>
        <time>2015-06-20T12:36:25.000Z</time>
      </trkpt>
      <trkpt lat="46.91382" lon="0.92427">
        <ele>107.5</ele>
        <time>2015-06-20T12:36:31.000Z</time>
      </trkpt>
      <trkpt lat="46.91401" lon="0.92353">
        <ele>104.8</ele>
        <time>2015-06-20T12:36:37.000Z</time>
      </trkpt>
      <trkpt lat="46.91432" lon="0.92273">
        <ele>102.3</ele>
        <time>2015-06-20T12:36:44.000Z</time>
      </trkpt>
      <trkpt lat="46.91467" lon="0.9221">
        <ele>100.7</ele>
        <time>2015-06-20T12:36:50.000Z</time>
      </trkpt>
      <trkpt lat="46.91512" lon="0.92147">
        <ele>99.5</ele>
        <time>2015-06-20T12:36:57.000Z</time>
      </trkpt>
      <trkpt lat="46.91562" lon="0.92097">
        <ele>98.2</ele>
        <time>2015-06-20T12:37:04.000Z</time>
      </trkpt>
      <trkpt lat="46.91617" lon="0.92059">
        <ele>97.5</ele>
        <time>2015-06-20T12:37:11.000Z</time>
      </trkpt>
      <trkpt lat="46.91674" lon="0.92036">
        <ele>96.4</ele>
        <time>2015-06-20T12:37:18.000Z</time>
      </trkpt>
      <trkpt lat="46.91736" lon="0.9203">
        <ele>93.7</ele>
        <time>2015-06-20T12:37:25.000Z</time>
      </trkpt>
      <trkpt lat="46.9179" lon="0.92035">
        <ele>92.1</ele>
        <time>2015-06-20T12:37:31.000Z</time>
      </trkpt>
      <trkpt lat="46.91846" lon="0.9205">
        <ele>90.3</ele>
        <time>2015-06-20T12:37:38.000Z</time>
      </trkpt>
      <trkpt lat="46.91901" lon="0.92069">
        <ele>87.9</ele>
        <time>2015-06-20T12:37:44.000Z</time>
      </trkpt>
      <trkpt lat="46.91955" lon="0.92087">
        <ele>86</ele>
        <time>2015-06-20T12:37:50.000Z</time>
      </trkpt>
      <trkpt lat="46.9199" lon="0.92093">
        <ele>84.6</ele>
        <time>2015-06-20T12:37:54.000Z</time>
      </trkpt>
      <trkpt lat="46.9203" lon="0.92045">
        <ele>83.6</ele>
        <time>2015-06-20T12:38:00.000Z</time>
      </trkpt>
      <trkpt lat="46.92037" lon="0.92021">
        <ele>82.8</ele>
        <time>2015-06-20T12:38:02.000Z</time>
      </trkpt>
      <trkpt lat="46.9206" lon="0.91945">
        <ele>81.8</ele>
        <time>2015-06-20T12:38:09.000Z</time>
      </trkpt>
      <trkpt lat="46.92076" lon="0.91898">
        <ele>82</ele>
        <time>2015-06-20T12:38:14.000Z</time>
      </trkpt>
      <trkpt lat="46.92115" lon="0.9188">
        <ele>82.8</ele>
        <time>2015-06-20T12:38:20.000Z</time>
      </trkpt>
      <trkpt lat="46.92175" lon="0.91879">
        <ele>82</ele>
        <time>2015-06-20T12:38:28.000Z</time>
      </trkpt>
      <trkpt lat="46.9219" lon="0.9188">
        <ele>82.5</ele>
        <time>2015-06-20T12:38:30.000Z</time>
      </trkpt>
      <trkpt lat="46.92249" lon="0.91877">
        <ele>84.5</ele>
        <time>2015-06-20T12:38:39.000Z</time>
      </trkpt>
      <trkpt lat="46.92282" lon="0.91872">
        <ele>86.4</ele>
        <time>2015-06-20T12:38:46.000Z</time>
      </trkpt>
      <trkpt lat="46.92291" lon="0.91872">
        <ele>87.1</ele>
        <time>2015-06-20T12:38:48.000Z</time>
      </trkpt>
      <trkpt lat="46.92346" lon="0.91864">
        <ele>91.8</ele>
        <time>2015-06-20T12:39:02.000Z</time>
      </trkpt>
      <trkpt lat="46.92395" lon="0.91826">
        <ele>94.4</ele>
        <time>2015-06-20T12:39:18.000Z</time>
      </trkpt>
      <trkpt lat="46.92439" lon="0.91774">
        <ele>97</ele>
        <time>2015-06-20T12:39:35.000Z</time>
      </trkpt>
      <trkpt lat="46.92484" lon="0.91723">
        <ele>100.3</ele>
        <time>2015-06-20T12:39:52.000Z</time>
      </trkpt>
      <trkpt lat="46.92528" lon="0.91675">
        <ele>103</ele>
        <time>2015-06-20T12:40:09.000Z</time>
      </trkpt>
      <trkpt lat="46.92581" lon="0.91655">
        <ele>106.3</ele>
        <time>2015-06-20T12:40:26.000Z</time>
      </trkpt>
      <trkpt lat="46.92632" lon="0.91678">
        <ele>110.7</ele>
        <time>2015-06-20T12:40:42.000Z</time>
      </trkpt>
      <trkpt lat="46.92678" lon="0.91724">
        <ele>113.1</ele>
        <time>2015-06-20T12:40:59.000Z</time>
      </trkpt>
      <trkpt lat="46.92728" lon="0.91766">
        <ele>116.2</ele>
        <time>2015-06-20T12:41:16.000Z</time>
      </trkpt>
      <trkpt lat="46.92782" lon="0.91778">
        <ele>119.2</ele>
        <time>2015-06-20T12:41:32.000Z</time>
      </trkpt>
      <trkpt lat="46.92829" lon="0.91742">
        <ele>122.3</ele>
        <time>2015-06-20T12:41:47.000Z</time>
      </trkpt>
      <trkpt lat="46.92865" lon="0.91679">
        <ele>124.2</ele>
        <time>2015-06-20T12:42:01.000Z</time>
      </trkpt>
      <trkpt lat="46.92899" lon="0.91611">
        <ele>125.6</ele>
        <time>2015-06-20T12:42:14.000Z</time>
      </trkpt>
      <trkpt lat="46.92933" lon="0.91544">
        <ele>126.7</ele>
        <time>2015-06-20T12:42:26.000Z</time>
      </trkpt>
      <trkpt lat="46.92954" lon="0.91501">
        <ele>127.4</ele>
        <time>2015-06-20T12:42:34.000Z</time>
      </trkpt>
      <trkpt lat="46.92988" lon="0.91434">
        <ele>128.7</ele>
        <time>2015-06-20T12:42:47.000Z</time>
      </trkpt>
      <trkpt lat="46.9302" lon="0.91368">
        <ele>129.7</ele>
        <time>2015-06-20T12:43:00.000Z</time>
      </trkpt>
      <trkpt lat="46.93053" lon="0.91301">
        <ele>130</ele>
        <time>2015-06-20T12:43:12.000Z</time>
      </trkpt>
      <trkpt lat="46.93086" lon="0.91233">
        <ele>131</ele>
        <time>2015-06-20T12:43:23.000Z</time>
      </trkpt>
      <trkpt lat="46.9312" lon="0.91167">
        <ele>131</ele>
        <time>2015-06-20T12:43:33.000Z</time>
      </trkpt>
      <trkpt lat="46.93153" lon="0.91101">
        <ele>130.3</ele>
        <time>2015-06-20T12:43:42.000Z</time>
      </trkpt>
      <trkpt lat="46.93184" lon="0.91036">
        <ele>130</ele>
        <time>2015-06-20T12:43:50.000Z</time>
      </trkpt>
      <trkpt lat="46.9322" lon="0.90965">
        <ele>129.1</ele>
        <time>2015-06-20T12:43:59.000Z</time>
      </trkpt>
      <trkpt lat="46.93252" lon="0.90901">
        <ele>128.9</ele>
        <time>2015-06-20T12:44:07.000Z</time>
      </trkpt>
      <trkpt lat="46.93285" lon="0.90835">
        <ele>128</ele>
        <time>2015-06-20T12:44:15.000Z</time>
      </trkpt>
      <trkpt lat="46.93319" lon="0.90766">
        <ele>127</ele>
        <time>2015-06-20T12:44:23.000Z</time>
      </trkpt>
      <trkpt lat="46.93351" lon="0.90699">
        <ele>125.4</ele>
        <time>2015-06-20T12:44:31.000Z</time>
      </trkpt>
      <trkpt lat="46.93387" lon="0.90627">
        <ele>125.1</ele>
        <time>2015-06-20T12:44:39.000Z</time>
      </trkpt>
      <trkpt lat="46.93422" lon="0.90558">
        <ele>123.4</ele>
        <time>2015-06-20T12:44:47.000Z</time>
      </trkpt>
      <trkpt lat="46.93458" lon="0.90485">
        <ele>121.3</ele>
        <time>2015-06-20T12:44:55.000Z</time>
      </trkpt>
      <trkpt lat="46.93492" lon="0.90416">
        <ele>122.3</ele>
        <time>2015-06-20T12:45:03.000Z</time>
      </trkpt>
      <trkpt lat="46.93527" lon="0.90346">
        <ele>121.1</ele>
        <time>2015-06-20T12:45:11.000Z</time>
      </trkpt>
      <trkpt lat="46.93563" lon="0.90273">
        <ele>116.9</ele>
        <time>2015-06-20T12:45:19.000Z</time>
      </trkpt>
      <trkpt lat="46.93599" lon="0.90202">
        <ele>115.1</ele>
        <time>2015-06-20T12:45:26.000Z</time>
      </trkpt>
      <trkpt lat="46.93639" lon="0.90136">
        <ele>113.9</ele>
        <time>2015-06-20T12:45:33.000Z</time>
      </trkpt>
      <trkpt lat="46.93689" lon="0.90083">
        <ele>109.6</ele>
        <time>2015-06-20T12:45:40.000Z</time>
      </trkpt>
      <trkpt lat="46.93741" lon="0.90032">
        <ele>105.9</ele>
        <time>2015-06-20T12:45:47.000Z</time>
      </trkpt>
      <trkpt lat="46.93789" lon="0.89987">
        <ele>105.9</ele>
        <time>2015-06-20T12:45:53.000Z</time>
      </trkpt>
      <trkpt lat="46.93836" lon="0.89942">
        <ele>107</ele>
        <time>2015-06-20T12:45:59.000Z</time>
      </trkpt>
      <trkpt lat="46.93883" lon="0.89896">
        <ele>105.4</ele>
        <time>2015-06-20T12:46:05.000Z</time>
      </trkpt>
      <trkpt lat="46.93934" lon="0.89847">
        <ele>102.2</ele>
        <time>2015-06-20T12:46:11.000Z</time>
      </trkpt>
      <trkpt lat="46.93986" lon="0.89796">
        <ele>96.7</ele>
        <time>2015-06-20T12:46:17.000Z</time>
      </trkpt>
      <trkpt lat="46.94032" lon="0.89752">
        <ele>93</ele>
        <time>2015-06-20T12:46:22.000Z</time>
      </trkpt>
      <trkpt lat="46.94078" lon="0.89706">
        <ele>91.3</ele>
        <time>2015-06-20T12:46:27.000Z</time>
      </trkpt>
      <trkpt lat="46.9413" lon="0.89657">
        <ele>88.8</ele>
        <time>2015-06-20T12:46:33.000Z</time>
      </trkpt>
      <trkpt lat="46.94176" lon="0.89614">
        <ele>87</ele>
        <time>2015-06-20T12:46:39.000Z</time>
      </trkpt>
      <trkpt lat="46.94222" lon="0.89568">
        <ele>88.6</ele>
        <time>2015-06-20T12:46:46.000Z</time>
      </trkpt>
      <trkpt lat="46.94271" lon="0.8952">
        <ele>91.5</ele>
        <time>2015-06-20T12:46:55.000Z</time>
      </trkpt>
      <trkpt lat="46.94319" lon="0.89474">
        <ele>92.4</ele>
        <time>2015-06-20T12:47:05.000Z</time>
      </trkpt>
      <trkpt lat="46.94369" lon="0.8943">
        <ele>91</ele>
        <time>2015-06-20T12:47:15.000Z</time>
      </trkpt>
      <trkpt lat="46.94425" lon="0.89423">
        <ele>89</ele>
        <time>2015-06-20T12:47:24.000Z</time>
      </trkpt>
      <trkpt lat="46.94473" lon="0.89429">
        <ele>90.2</ele>
        <time>2015-06-20T12:47:32.000Z</time>
      </trkpt>
      <trkpt lat="46.94509" lon="0.89455">
        <ele>91.5</ele>
        <time>2015-06-20T12:47:39.000Z</time>
      </trkpt>
      <trkpt lat="46.94554" lon="0.89508">
        <ele>90.4</ele>
        <time>2015-06-20T12:47:49.000Z</time>
      </trkpt>
      <trkpt lat="46.94607" lon="0.89547">
        <ele>91.1</ele>
        <time>2015-06-20T12:48:00.000Z</time>
      </trkpt>
      <trkpt lat="46.94621" lon="0.89554">
        <ele>91.4</ele>
        <time>2015-06-20T12:48:03.000Z</time>
      </trkpt>
      <trkpt lat="46.94679" lon="0.89557">
        <ele>93.8</ele>
        <time>2015-06-20T12:48:15.000Z</time>
      </trkpt>
      <trkpt lat="46.94736" lon="0.89562">
        <ele>98.1</ele>
        <time>2015-06-20T12:48:29.000Z</time>
      </trkpt>
      <trkpt lat="46.94793" lon="0.89568">
        <ele>101.9</ele>
        <time>2015-06-20T12:48:43.000Z</time>
      </trkpt>
      <trkpt lat="46.94849" lon="0.89571">
        <ele>105.3</ele>
        <time>2015-06-20T12:48:58.000Z</time>
      </trkpt>
      <trkpt lat="46.94906" lon="0.89578">
        <ele>108.4</ele>
        <time>2015-06-20T12:49:14.000Z</time>
      </trkpt>
      <trkpt lat="46.94962" lon="0.89585">
        <ele>111.5</ele>
        <time>2015-06-20T12:49:31.000Z</time>
      </trkpt>
      <trkpt lat="46.95014" lon="0.89566">
        <ele>114.8</ele>
        <time>2015-06-20T12:49:47.000Z</time>
      </trkpt>
      <trkpt lat="46.95065" lon="0.89529">
        <ele>118.2</ele>
        <time>2015-06-20T12:50:04.000Z</time>
      </trkpt>
      <trkpt lat="46.95117" lon="0.89494">
        <ele>121.4</ele>
        <time>2015-06-20T12:50:21.000Z</time>
      </trkpt>
      <trkpt lat="46.95169" lon="0.89459">
        <ele>124.1</ele>
        <time>2015-06-20T12:50:38.000Z</time>
      </trkpt>
      <trkpt lat="46.95219" lon="0.89424">
        <ele>126.6</ele>
        <time>2015-06-20T12:50:54.000Z</time>
      </trkpt>
      <trkpt lat="46.95269" lon="0.8939">
        <ele>128</ele>
        <time>2015-06-20T12:51:08.000Z</time>
      </trkpt>
      <trkpt lat="46.95319" lon="0.89355">
        <ele>126.8</ele>
        <time>2015-06-20T12:51:18.000Z</time>
      </trkpt>
      <trkpt lat="46.95372" lon="0.89317">
        <ele>125.4</ele>
        <time>2015-06-20T12:51:27.000Z</time>
      </trkpt>
      <trkpt lat="46.95425" lon="0.8928">
        <ele>123.4</ele>
        <time>2015-06-20T12:51:35.000Z</time>
      </trkpt>
      <trkpt lat="46.95478" lon="0.89243">
        <ele>123.1</ele>
        <time>2015-06-20T12:51:43.000Z</time>
      </trkpt>
      <trkpt lat="46.95526" lon="0.89208">
        <ele>124.4</ele>
        <time>2015-06-20T12:51:51.000Z</time>
      </trkpt>
      <trkpt lat="46.95579" lon="0.8917">
        <ele>124.9</ele>
        <time>2015-06-20T12:52:00.000Z</time>
      </trkpt>
      <trkpt lat="46.9563" lon="0.89133">
        <ele>125.9</ele>
        <time>2015-06-20T12:52:09.000Z</time>
      </trkpt>
      <trkpt lat="46.95679" lon="0.89098">
        <ele>126.5</ele>
        <time>2015-06-20T12:52:18.000Z</time>
      </trkpt>
      <trkpt lat="46.9573" lon="0.89061">
        <ele>127</ele>
        <time>2015-06-20T12:52:27.000Z</time>
      </trkpt>
      <trkpt lat="46.95781" lon="0.89024">
        <ele>127</ele>
        <time>2015-06-20T12:52:36.000Z</time>
      </trkpt>
      <trkpt lat="46.95833" lon="0.88987">
        <ele>127</ele>
        <time>2015-06-20T12:52:45.000Z</time>
      </trkpt>
      <trkpt lat="46.95885" lon="0.88949">
        <ele>126.1</ele>
        <time>2015-06-20T12:52:54.000Z</time>
      </trkpt>
      <trkpt lat="46.95936" lon="0.88913">
        <ele>126</ele>
        <time>2015-06-20T12:53:02.000Z</time>
      </trkpt>
      <trkpt lat="46.95987" lon="0.88877">
        <ele>126</ele>
        <time>2015-06-20T12:53:10.000Z</time>
      </trkpt>
      <trkpt lat="46.96036" lon="0.8884">
        <ele>126.7</ele>
        <time>2015-06-20T12:53:18.000Z</time>
      </trkpt>
      <trkpt lat="46.96091" lon="0.88801">
        <ele>127</ele>
        <time>2015-06-20T12:53:27.000Z</time>
      </trkpt>
      <trkpt lat="46.9614" lon="0.88767">
        <ele>128</ele>
        <time>2015-06-20T12:53:35.000Z</time>
      </trkpt>
      <trkpt lat="46.9619" lon="0.88731">
        <ele>128</ele>
        <time>2015-06-20T12:53:43.000Z</time>
      </trkpt>
      <trkpt lat="46.9624" lon="0.88695">
        <ele>128</ele>
        <time>2015-06-20T12:53:51.000Z</time>
      </trkpt>
      <trkpt lat="46.96294" lon="0.88657">
        <ele>128</ele>
        <time>2015-06-20T12:54:00.000Z</time>
      </trkpt>
      <trkpt lat="46.96345" lon="0.8862">
        <ele>127.6</ele>
        <time>2015-06-20T12:54:09.000Z</time>
      </trkpt>
      <trkpt lat="46.96394" lon="0.88584">
        <ele>127</ele>
        <time>2015-06-20T12:54:18.000Z</time>
      </trkpt>
      <trkpt lat="46.96445" lon="0.88549">
        <ele>128</ele>
        <time>2015-06-20T12:54:27.000Z</time>
      </trkpt>
      <trkpt lat="46.96494" lon="0.88513">
        <ele>128.1</ele>
        <time>2015-06-20T12:54:36.000Z</time>
      </trkpt>
      <trkpt lat="46.96544" lon="0.88477">
        <ele>129</ele>
        <time>2015-06-20T12:54:45.000Z</time>
      </trkpt>
      <trkpt lat="46.96594" lon="0.88441">
        <ele>129</ele>
        <time>2015-06-20T12:54:54.000Z</time>
      </trkpt>
      <trkpt lat="46.96647" lon="0.88406">
        <ele>128.4</ele>
        <time>2015-06-20T12:55:03.000Z</time>
      </trkpt>
      <trkpt lat="46.96698" lon="0.8838">
        <ele>127.9</ele>
        <time>2015-06-20T12:55:11.000Z</time>
      </trkpt>
      <trkpt lat="46.9675" lon="0.88355">
        <ele>127.2</ele>
        <time>2015-06-20T12:55:19.000Z</time>
      </trkpt>
      <trkpt lat="46.96802" lon="0.8833">
        <ele>127</ele>
        <time>2015-06-20T12:55:27.000Z</time>
      </trkpt>
      <trkpt lat="46.96859" lon="0.88302">
        <ele>126.2</ele>
        <time>2015-06-20T12:55:36.000Z</time>
      </trkpt>
      <trkpt lat="46.96911" lon="0.88277">
        <ele>126</ele>
        <time>2015-06-20T12:55:44.000Z</time>
      </trkpt>
      <trkpt lat="46.96965" lon="0.8825">
        <ele>125</ele>
        <time>2015-06-20T12:55:52.000Z</time>
      </trkpt>
      <trkpt lat="46.97021" lon="0.88223">
        <ele>123.3</ele>
        <time>2015-06-20T12:56:00.000Z</time>
      </trkpt>
      <trkpt lat="46.97076" lon="0.88195">
        <ele>122.3</ele>
        <time>2015-06-20T12:56:08.000Z</time>
      </trkpt>
      <trkpt lat="46.97133" lon="0.88167">
        <ele>122</ele>
        <time>2015-06-20T12:56:16.000Z</time>
      </trkpt>
      <trkpt lat="46.97192" lon="0.88138">
        <ele>121.1</ele>
        <time>2015-06-20T12:56:24.000Z</time>
      </trkpt>
      <trkpt lat="46.97251" lon="0.88109">
        <ele>120</ele>
        <time>2015-06-20T12:56:32.000Z</time>
      </trkpt>
      <trkpt lat="46.97309" lon="0.88081">
        <ele>118.9</ele>
        <time>2015-06-20T12:56:40.000Z</time>
      </trkpt>
      <trkpt lat="46.97362" lon="0.88055">
        <ele>118</ele>
        <time>2015-06-20T12:56:47.000Z</time>
      </trkpt>
      <trkpt lat="46.97413" lon="0.88029">
        <ele>117</ele>
        <time>2015-06-20T12:56:54.000Z</time>
      </trkpt>
      <trkpt lat="46.97468" lon="0.87987">
        <ele>115.6</ele>
        <time>2015-06-20T12:57:02.000Z</time>
      </trkpt>
      <trkpt lat="46.97513" lon="0.87931">
        <ele>113.1</ele>
        <time>2015-06-20T12:57:09.000Z</time>
      </trkpt>
      <trkpt lat="46.97549" lon="0.87873">
        <ele>110.2</ele>
        <time>2015-06-20T12:57:15.000Z</time>
      </trkpt>
      <trkpt lat="46.97588" lon="0.87807">
        <ele>105.9</ele>
        <time>2015-06-20T12:57:21.000Z</time>
      </trkpt>
      <trkpt lat="46.97628" lon="0.87741">
        <ele>104</ele>
        <time>2015-06-20T12:57:27.000Z</time>
      </trkpt>
      <trkpt lat="46.97652" lon="0.87712">
        <ele>103.2</ele>
        <time>2015-06-20T12:57:30.000Z</time>
      </trkpt>
      <trkpt lat="46.9771" lon="0.87688">
        <ele>100.5</ele>
        <time>2015-06-20T12:57:36.000Z</time>
      </trkpt>
      <trkpt lat="46.97764" lon="0.87678">
        <ele>98.5</ele>
        <time>2015-06-20T12:57:42.000Z</time>
      </trkpt>
      <trkpt lat="46.97822" lon="0.87666">
        <ele>96.8</ele>
        <time>2015-06-20T12:57:49.000Z</time>
      </trkpt>
      <trkpt lat="46.9788" lon="0.87654">
        <ele>94.8</ele>
        <time>2015-06-20T12:57:56.000Z</time>
      </trkpt>
      <trkpt lat="46.9794" lon="0.8764">
        <ele>93.1</ele>
        <time>2015-06-20T12:58:03.000Z</time>
      </trkpt>
      <trkpt lat="46.98" lon="0.87627">
        <ele>90</ele>
        <time>2015-06-20T12:58:10.000Z</time>
      </trkpt>
      <trkpt lat="46.98061" lon="0.87613">
        <ele>88.9</ele>
        <time>2015-06-20T12:58:17.000Z</time>
      </trkpt>
      <trkpt lat="46.98116" lon="0.87601">
        <ele>88.8</ele>
        <time>2015-06-20T12:58:24.000Z</time>
      </trkpt>
      <trkpt lat="46.98156" lon="0.87596">
        <ele>90.5</ele>
        <time>2015-06-20T12:58:30.000Z</time>
      </trkpt>
      <trkpt lat="46.98192" lon="0.87608">
        <ele>94.5</ele>
        <time>2015-06-20T12:58:37.000Z</time>
      </trkpt>
      <trkpt lat="46.98236" lon="0.87656">
        <ele>99.2</ele>
        <time>2015-06-20T12:58:50.000Z</time>
      </trkpt>
      <trkpt lat="46.98261" lon="0.87728">
        <ele>101.1</ele>
        <time>2015-06-20T12:59:04.000Z</time>
      </trkpt>
      <trkpt lat="46.98284" lon="0.87805">
        <ele>102.9</ele>
        <time>2015-06-20T12:59:19.000Z</time>
      </trkpt>
      <trkpt lat="46.98315" lon="0.87873">
        <ele>107</ele>
        <time>2015-06-20T12:59:35.000Z</time>
      </trkpt>
      <trkpt lat="46.98363" lon="0.87917">
        <ele>111.1</ele>
        <time>2015-06-20T12:59:51.000Z</time>
      </trkpt>
      <trkpt lat="46.98418" lon="0.87935">
        <ele>115.1</ele>
        <time>2015-06-20T13:00:09.000Z</time>
      </trkpt>
      <trkpt lat="46.98473" lon="0.87939">
        <ele>118.2</ele>
        <time>2015-06-20T13:00:27.000Z</time>
      </trkpt>
      <trkpt lat="46.98528" lon="0.87946">
        <ele>121</ele>
        <time>2015-06-20T13:00:46.000Z</time>
      </trkpt>
      <trkpt lat="46.98584" lon="0.87951">
        <ele>124.8</ele>
        <time>2015-06-20T13:01:05.000Z</time>
      </trkpt>
      <trkpt lat="46.9864" lon="0.87955">
        <ele>127.1</ele>
        <time>2015-06-20T13:01:23.000Z</time>
      </trkpt>
      <trkpt lat="46.98695" lon="0.87962">
        <ele>127</ele>
        <time>2015-06-20T13:01:36.000Z</time>
      </trkpt>
      <trkpt lat="46.98751" lon="0.87967">
        <ele>125.9</ele>
        <time>2015-06-20T13:01:46.000Z</time>
      </trkpt>
      <trkpt lat="46.98809" lon="0.87973">
        <ele>123.7</ele>
        <time>2015-06-20T13:01:55.000Z</time>
      </trkpt>
      <trkpt lat="46.98869" lon="0.87978">
        <ele>119</ele>
        <time>2015-06-20T13:02:03.000Z</time>
      </trkpt>
      <trkpt lat="46.98929" lon="0.87984">
        <ele>116.4</ele>
        <time>2015-06-20T13:02:10.000Z</time>
      </trkpt>
      <trkpt lat="46.98967" lon="0.87992">
        <ele>113.7</ele>
        <time>2015-06-20T13:02:14.000Z</time>
      </trkpt>
      <trkpt lat="46.99016" lon="0.88046">
        <ele>108.1</ele>
        <time>2015-06-20T13:02:20.000Z</time>
      </trkpt>
      <trkpt lat="46.99051" lon="0.88108">
        <ele>105.6</ele>
        <time>2015-06-20T13:02:25.000Z</time>
      </trkpt>
      <trkpt lat="46.99089" lon="0.88169">
        <ele>103.9</ele>
        <time>2015-06-20T13:02:30.000Z</time>
      </trkpt>
      <trkpt lat="46.99143" lon="0.88179">
        <ele>102.5</ele>
        <time>2015-06-20T13:02:36.000Z</time>
      </trkpt>
      <trkpt lat="46.99152" lon="0.88175">
        <ele>102.7</ele>
        <time>2015-06-20T13:02:37.000Z</time>
      </trkpt>
      <trkpt lat="46.99185" lon="0.88158">
        <ele>104.5</ele>
        <time>2015-06-20T13:02:41.000Z</time>
      </trkpt>
      <trkpt lat="46.99233" lon="0.88187">
        <ele>108.5</ele>
        <time>2015-06-20T13:02:48.000Z</time>
      </trkpt>
      <trkpt lat="46.99242" lon="0.88201">
        <ele>108.9</ele>
        <time>2015-06-20T13:02:50.000Z</time>
      </trkpt>
      <trkpt lat="46.99276" lon="0.88199">
        <ele>113</ele>
        <time>2015-06-20T13:02:57.000Z</time>
      </trkpt>
      <trkpt lat="46.99328" lon="0.88165">
        <ele>118.5</ele>
        <time>2015-06-20T13:03:13.000Z</time>
      </trkpt>
      <trkpt lat="46.99378" lon="0.88132">
        <ele>121.3</ele>
        <time>2015-06-20T13:03:29.000Z</time>
      </trkpt>
      <trkpt lat="46.99428" lon="0.88093">
        <ele>123.1</ele>
        <time>2015-06-20T13:03:46.000Z</time>
      </trkpt>
      <trkpt lat="46.99475" lon="0.88054">
        <ele>125</ele>
        <time>2015-06-20T13:04:00.000Z</time>
      </trkpt>
      <trkpt lat="46.99525" lon="0.8801">
        <ele>125</ele>
        <time>2015-06-20T13:04:14.000Z</time>
      </trkpt>
      <trkpt lat="46.99569" lon="0.8796">
        <ele>124.7</ele>
        <time>2015-06-20T13:04:26.000Z</time>
      </trkpt>
      <trkpt lat="46.99611" lon="0.8791">
        <ele>125</ele>
        <time>2015-06-20T13:04:37.000Z</time>
      </trkpt>
      <trkpt lat="46.99656" lon="0.87856">
        <ele>124.4</ele>
        <time>2015-06-20T13:04:48.000Z</time>
      </trkpt>
      <trkpt lat="46.99699" lon="0.87804">
        <ele>123.8</ele>
        <time>2015-06-20T13:04:57.000Z</time>
      </trkpt>
      <trkpt lat="46.99745" lon="0.87752">
        <ele>122.2</ele>
        <time>2015-06-20T13:05:06.000Z</time>
      </trkpt>
      <trkpt lat="46.99787" lon="0.87702">
        <ele>122</ele>
        <time>2015-06-20T13:05:14.000Z</time>
      </trkpt>
      <trkpt lat="46.99834" lon="0.87647">
        <ele>122</ele>
        <time>2015-06-20T13:05:23.000Z</time>
      </trkpt>
      <trkpt lat="46.99878" lon="0.87595">
        <ele>122</ele>
        <time>2015-06-20T13:05:32.000Z</time>
      </trkpt>
      <trkpt lat="46.9992" lon="0.87544">
        <ele>122</ele>
        <time>2015-06-20T13:05:41.000Z</time>
      </trkpt>
      <trkpt lat="46.99963" lon="0.87493">
        <ele>122.4</ele>
        <time>2015-06-20T13:05:50.000Z</time>
      </trkpt>
      <trkpt lat="47.00005" lon="0.87443">
        <ele>123.2</ele>
        <time>2015-06-20T13:05:59.000Z</time>
      </trkpt>
      <trkpt lat="47.00049" lon="0.87391">
        <ele>124</ele>
        <time>2015-06-20T13:06:08.000Z</time>
      </trkpt>
      <trkpt lat="47.00092" lon="0.8734">
        <ele>125</ele>
        <time>2015-06-20T13:06:17.000Z</time>
      </trkpt>
      <trkpt lat="47.00136" lon="0.87288">
        <ele>125.9</ele>
        <time>2015-06-20T13:06:26.000Z</time>
      </trkpt>
      <trkpt lat="47.0018" lon="0.87237">
        <ele>127</ele>
        <time>2015-06-20T13:06:35.000Z</time>
      </trkpt>
      <trkpt lat="47.00222" lon="0.87186">
        <ele>127</ele>
        <time>2015-06-20T13:06:44.000Z</time>
      </trkpt>
      <trkpt lat="47.00263" lon="0.87132">
        <ele>128</ele>
        <time>2015-06-20T13:06:53.000Z</time>
      </trkpt>
      <trkpt lat="47.00303" lon="0.87073">
        <ele>128</ele>
        <time>2015-06-20T13:07:02.000Z</time>
      </trkpt>
      <trkpt lat="47.00342" lon="0.87013">
        <ele>128</ele>
        <time>2015-06-20T13:07:11.000Z</time>
      </trkpt>
      <trkpt lat="47.00383" lon="0.86951">
        <ele>128</ele>
        <time>2015-06-20T13:07:20.000Z</time>
      </trkpt>
      <trkpt lat="47.00423" lon="0.86891">
        <ele>127.8</ele>
        <time>2015-06-20T13:07:29.000Z</time>
      </trkpt>
      <trkpt lat="47.00465" lon="0.86828">
        <ele>127</ele>
        <time>2015-06-20T13:07:38.000Z</time>
      </trkpt>
      <trkpt lat="47.00503" lon="0.8677">
        <ele>126.9</ele>
        <time>2015-06-20T13:07:46.000Z</time>
      </trkpt>
      <trkpt lat="47.00544" lon="0.86707">
        <ele>126.2</ele>
        <time>2015-06-20T13:07:55.000Z</time>
      </trkpt>
      <trkpt lat="47.00582" lon="0.8665">
        <ele>125</ele>
        <time>2015-06-20T13:08:03.000Z</time>
      </trkpt>
      <trkpt lat="47.00622" lon="0.86588">
        <ele>123.6</ele>
        <time>2015-06-20T13:08:11.000Z</time>
      </trkpt>
      <trkpt lat="47.00664" lon="0.86525">
        <ele>123.1</ele>
        <time>2015-06-20T13:08:19.000Z</time>
      </trkpt>
      <trkpt lat="47.00705" lon="0.86463">
        <ele>121.4</ele>
        <time>2015-06-20T13:08:27.000Z</time>
      </trkpt>
      <trkpt lat="47.00746" lon="0.86401">
        <ele>121.9</ele>
        <time>2015-06-20T13:08:35.000Z</time>
      </trkpt>
      <trkpt lat="47.00787" lon="0.8634">
        <ele>123.3</ele>
        <time>2015-06-20T13:08:44.000Z</time>
      </trkpt>
      <trkpt lat="47.00825" lon="0.86282">
        <ele>124.7</ele>
        <time>2015-06-20T13:08:53.000Z</time>
      </trkpt>
      <trkpt lat="47.00867" lon="0.86219">
        <ele>125</ele>
        <time>2015-06-20T13:09:03.000Z</time>
      </trkpt>
      <trkpt lat="47.00905" lon="0.86161">
        <ele>124.9</ele>
        <time>2015-06-20T13:09:12.000Z</time>
      </trkpt>
      <trkpt lat="47.00946" lon="0.86098">
        <ele>123.5</ele>
        <time>2015-06-20T13:09:21.000Z</time>
      </trkpt>
      <trkpt lat="47.00984" lon="0.8604">
        <ele>121.6</ele>
        <time>2015-06-20T13:09:29.000Z</time>
      </trkpt>
      <trkpt lat="47.01023" lon="0.85981">
        <ele>121.8</ele>
        <time>2015-06-20T13:09:37.000Z</time>
      </trkpt>
      <trkpt lat="47.01063" lon="0.85922">
        <ele>122.2</ele>
        <time>2015-06-20T13:09:46.000Z</time>
      </trkpt>
      <trkpt lat="47.01104" lon="0.85859">
        <ele>122.8</ele>
        <time>2015-06-20T13:09:56.000Z</time>
      </trkpt>
      <trkpt lat="47.01145" lon="0.85798">
        <ele>123.1</ele>
        <time>2015-06-20T13:10:06.000Z</time>
      </trkpt>
      <trkpt lat="47.01185" lon="0.85736">
        <ele>124.3</ele>
        <time>2015-06-20T13:10:16.000Z</time>
      </trkpt>
      <trkpt lat="47.01226" lon="0.85674">
        <ele>125</ele>
        <time>2015-06-20T13:10:26.000Z</time>
      </trkpt>
      <trkpt lat="47.01266" lon="0.85612">
        <ele>124</ele>
        <time>2015-06-20T13:10:36.000Z</time>
      </trkpt>
      <trkpt lat="47.01305" lon="0.85553">
        <ele>124</ele>
        <time>2015-06-20T13:10:45.000Z</time>
      </trkpt>
      <trkpt lat="47.01344" lon="0.85494">
        <ele>124.7</ele>
        <time>2015-06-20T13:10:54.000Z</time>
      </trkpt>
      <trkpt lat="47.01382" lon="0.85436">
        <ele>124.5</ele>
        <time>2015-06-20T13:11:03.000Z</time>
      </trkpt>
      <trkpt lat="47.0142" lon="0.85378">
        <ele>125</ele>
        <time>2015-06-20T13:11:12.000Z</time>
      </trkpt>
      <trkpt lat="47.01461" lon="0.85316">
        <ele>125.6</ele>
        <time>2015-06-20T13:11:22.000Z</time>
      </trkpt>
      <trkpt lat="47.01503" lon="0.85253">
        <ele>126</ele>
        <time>2015-06-20T13:11:32.000Z</time>
      </trkpt>
      <trkpt lat="47.01544" lon="0.8519">
        <ele>126</ele>
        <time>2015-06-20T13:11:42.000Z</time>
      </trkpt>
      <trkpt lat="47.01586" lon="0.85127">
        <ele>127</ele>
        <time>2015-06-20T13:11:52.000Z</time>
      </trkpt>
      <trkpt lat="47.01623" lon="0.8507">
        <ele>127</ele>
        <time>2015-06-20T13:12:01.000Z</time>
      </trkpt>
      <trkpt lat="47.01661" lon="0.85013">
        <ele>127</ele>
        <time>2015-06-20T13:12:10.000Z</time>
      </trkpt>
      <trkpt lat="47.01698" lon="0.84956">
        <ele>128</ele>
        <time>2015-06-20T13:12:19.000Z</time>
      </trkpt>
      <trkpt lat="47.01736" lon="0.84899">
        <ele>127.4</ele>
        <time>2015-06-20T13:12:28.000Z</time>
      </trkpt>
      <trkpt lat="47.01776" lon="0.84837">
        <ele>127</ele>
        <time>2015-06-20T13:12:37.000Z</time>
      </trkpt>
      <trkpt lat="47.01816" lon="0.84776">
        <ele>127</ele>
        <time>2015-06-20T13:12:46.000Z</time>
      </trkpt>
      <trkpt lat="47.01858" lon="0.84715">
        <ele>127</ele>
        <time>2015-06-20T13:12:55.000Z</time>
      </trkpt>
      <trkpt lat="47.01897" lon="0.84654">
        <ele>126</ele>
        <time>2015-06-20T13:13:04.000Z</time>
      </trkpt>
      <trkpt lat="47.01936" lon="0.84595">
        <ele>126</ele>
        <time>2015-06-20T13:13:13.000Z</time>
      </trkpt>
      <trkpt lat="47.01974" lon="0.84538">
        <ele>126</ele>
        <time>2015-06-20T13:13:22.000Z</time>
      </trkpt>
      <trkpt lat="47.02013" lon="0.84478">
        <ele>126.4</ele>
        <time>2015-06-20T13:13:31.000Z</time>
      </trkpt>
      <trkpt lat="47.02053" lon="0.84418">
        <ele>126.1</ele>
        <time>2015-06-20T13:13:40.000Z</time>
      </trkpt>
      <trkpt lat="47.02094" lon="0.84355">
        <ele>125.6</ele>
        <time>2015-06-20T13:13:49.000Z</time>
      </trkpt>
      <trkpt lat="47.02136" lon="0.84292">
        <ele>125</ele>
        <time>2015-06-20T13:13:58.000Z</time>
      </trkpt>
      <trkpt lat="47.02174" lon="0.84233">
        <ele>123.9</ele>
        <time>2015-06-20T13:14:06.000Z</time>
      </trkpt>
      <trkpt lat="47.02212" lon="0.84176">
        <ele>124.7</ele>
        <time>2015-06-20T13:14:14.000Z</time>
      </trkpt>
      <trkpt lat="47.02251" lon="0.84116">
        <ele>125</ele>
        <time>2015-06-20T13:14:23.000Z</time>
      </trkpt>
      <trkpt lat="47.02289" lon="0.84058">
        <ele>126</ele>
        <time>2015-06-20T13:14:32.000Z</time>
      </trkpt>
      <trkpt lat="47.02329" lon="0.83998">
        <ele>126</ele>
        <time>2015-06-20T13:14:41.000Z</time>
      </trkpt>
      <trkpt lat="47.02372" lon="0.83934">
        <ele>125.2</ele>
        <time>2015-06-20T13:14:50.000Z</time>
      </trkpt>
      <trkpt lat="47.02413" lon="0.83872">
        <ele>125</ele>
        <time>2015-06-20T13:14:59.000Z</time>
      </trkpt>
      <trkpt lat="47.02454" lon="0.83809">
        <ele>124.1</ele>
        <time>2015-06-20T13:15:08.000Z</time>
      </trkpt>
      <trkpt lat="47.02496" lon="0.83746">
        <ele>121.8</ele>
        <time>2015-06-20T13:15:16.000Z</time>
      </trkpt>
      <trkpt lat="47.02537" lon="0.83684">
        <ele>120.2</ele>
        <time>2015-06-20T13:15:24.000Z</time>
      </trkpt>
      <trkpt lat="47.02577" lon="0.83622">
        <ele>118.5</ele>
        <time>2015-06-20T13:15:32.000Z</time>
      </trkpt>
      <trkpt lat="47.02618" lon="0.8356">
        <ele>118.6</ele>
        <time>2015-06-20T13:15:40.000Z</time>
      </trkpt>
      <trkpt lat="47.02657" lon="0.83502">
        <ele>119</ele>
        <time>2015-06-20T13:15:48.000Z</time>
      </trkpt>
      <trkpt lat="47.02694" lon="0.83445">
        <ele>121</ele>
        <time>2015-06-20T13:15:56.000Z</time>
      </trkpt>
      <trkpt lat="47.02734" lon="0.83384">
        <ele>121.5</ele>
        <time>2015-06-20T13:16:05.000Z</time>
      </trkpt>
      <trkpt lat="47.02773" lon="0.83325">
        <ele>121.7</ele>
        <time>2015-06-20T13:16:14.000Z</time>
      </trkpt>
      <trkpt lat="47.02815" lon="0.83262">
        <ele>121.4</ele>
        <time>2015-06-20T13:16:23.000Z</time>
      </trkpt>
      <trkpt lat="47.02853" lon="0.83204">
        <ele>119.5</ele>
        <time>2015-06-20T13:16:31.000Z</time>
      </trkpt>
      <trkpt lat="47.02892" lon="0.83144">
        <ele>116.1</ele>
        <time>2015-06-20T13:16:38.000Z</time>
      </trkpt>
      <trkpt lat="47.02932" lon="0.83088">
        <ele>112.6</ele>
        <time>2015-06-20T13:16:44.000Z</time>
      </trkpt>
      <trkpt lat="47.02977" lon="0.83034">
        <ele>110.2</ele>
        <time>2015-06-20T13:16:50.000Z</time>
      </trkpt>
      <trkpt lat="47.03021" lon="0.82982">
        <ele>108.1</ele>
        <time>2015-06-20T13:16:56.000Z</time>
      </trkpt>
      <trkpt lat="47.0307" lon="0.82927">
        <ele>107</ele>
        <time>2015-06-20T13:17:03.000Z</time>
      </trkpt>
      <trkpt lat="47.03112" lon="0.82878">
        <ele>106</ele>
        <time>2015-06-20T13:17:09.000Z</time>
      </trkpt>
      <trkpt lat="47.03159" lon="0.82825">
        <ele>105</ele>
        <time>2015-06-20T13:17:16.000Z</time>
      </trkpt>
      <trkpt lat="47.03203" lon="0.82773">
        <ele>106.3</ele>
        <time>2015-06-20T13:17:23.000Z</time>
      </trkpt>
      <trkpt lat="47.03247" lon="0.82723">
        <ele>107.9</ele>
        <time>2015-06-20T13:17:31.000Z</time>
      </trkpt>
      <trkpt lat="47.03292" lon="0.82672">
        <ele>109.5</ele>
        <time>2015-06-20T13:17:41.000Z</time>
      </trkpt>
      <trkpt lat="47.03337" lon="0.82619">
        <ele>111</ele>
        <time>2015-06-20T13:17:52.000Z</time>
      </trkpt>
      <trkpt lat="47.03382" lon="0.82567">
        <ele>111.3</ele>
        <time>2015-06-20T13:18:02.000Z</time>
      </trkpt>
      <trkpt lat="47.03427" lon="0.82515">
        <ele>111.2</ele>
        <time>2015-06-20T13:18:12.000Z</time>
      </trkpt>
      <trkpt lat="47.03472" lon="0.82462">
        <ele>111</ele>
        <time>2015-06-20T13:18:22.000Z</time>
      </trkpt>
      <trkpt lat="47.03515" lon="0.82411">
        <ele>110.9</ele>
        <time>2015-06-20T13:18:32.000Z</time>
      </trkpt>
      <trkpt lat="47.0356" lon="0.82362">
        <ele>108.8</ele>
        <time>2015-06-20T13:18:41.000Z</time>
      </trkpt>
      <trkpt lat="47.03603" lon="0.82312">
        <ele>107.3</ele>
        <time>2015-06-20T13:18:49.000Z</time>
      </trkpt>
      <trkpt lat="47.03652" lon="0.82256">
        <ele>105.5</ele>
        <time>2015-06-20T13:18:57.000Z</time>
      </trkpt>
      <trkpt lat="47.03699" lon="0.82203">
        <ele>103.6</ele>
        <time>2015-06-20T13:19:04.000Z</time>
      </trkpt>
      <trkpt lat="47.03743" lon="0.82152">
        <ele>102.2</ele>
        <time>2015-06-20T13:19:11.000Z</time>
      </trkpt>
      <trkpt lat="47.03788" lon="0.821">
        <ele>101.4</ele>
        <time>2015-06-20T13:19:18.000Z</time>
      </trkpt>
      <trkpt lat="47.03831" lon="0.82051">
        <ele>100.1</ele>
        <time>2015-06-20T13:19:25.000Z</time>
      </trkpt>
      <trkpt lat="47.03879" lon="0.82001">
        <ele>97.7</ele>
        <time>2015-06-20T13:19:33.000Z</time>
      </trkpt>
      <trkpt lat="47.03929" lon="0.81962">
        <ele>95.5</ele>
        <time>2015-06-20T13:19:40.000Z</time>
      </trkpt>
      <trkpt lat="47.03985" lon="0.81924">
        <ele>90.9</ele>
        <time>2015-06-20T13:19:47.000Z</time>
      </trkpt>
      <trkpt lat="47.0404" lon="0.81891">
        <ele>86.2</ele>
        <time>2015-06-20T13:19:53.000Z</time>
      </trkpt>
      <trkpt lat="47.04065" lon="0.81875">
        <ele>84.7</ele>
        <time>2015-06-20T13:19:56.000Z</time>
      </trkpt>
      <trkpt lat="47.04125" lon="0.81862">
        <ele>82.5</ele>
        <time>2015-06-20T13:20:03.000Z</time>
      </trkpt>
      <trkpt lat="47.0418" lon="0.81851">
        <ele>80.5</ele>
        <time>2015-06-20T13:20:10.000Z</time>
      </trkpt>
      <trkpt lat="47.04224" lon="0.81833">
        <ele>80</ele>
        <time>2015-06-20T13:20:16.000Z</time>
      </trkpt>
      <trkpt lat="47.04277" lon="0.81792">
        <ele>79.5</ele>
        <time>2015-06-20T13:20:24.000Z</time>
      </trkpt>
      <trkpt lat="47.04321" lon="0.81733">
        <ele>79.8</ele>
        <time>2015-06-20T13:20:33.000Z</time>
      </trkpt>
      <trkpt lat="47.04346" lon="0.81729">
        <ele>79.4</ele>
        <time>2015-06-20T13:20:37.000Z</time>
      </trkpt>
      <trkpt lat="47.04404" lon="0.81727">
        <ele>77</ele>
        <time>2015-06-20T13:20:45.000Z</time>
      </trkpt>
      <trkpt lat="47.04449" lon="0.81729">
        <ele>75.2</ele>
        <time>2015-06-20T13:20:51.000Z</time>
      </trkpt>
      <trkpt lat="47.04478" lon="0.8174">
        <ele>74.8</ele>
        <time>2015-06-20T13:20:55.000Z</time>
      </trkpt>
      <trkpt lat="47.04533" lon="0.81741">
        <ele>73.7</ele>
        <time>2015-06-20T13:21:03.000Z</time>
      </trkpt>
      <trkpt lat="47.04548" lon="0.81737">
        <ele>73.5</ele>
        <time>2015-06-20T13:21:05.000Z</time>
      </trkpt>
      <trkpt lat="47.04604" lon="0.81711">
        <ele>74.8</ele>
        <time>2015-06-20T13:21:13.000Z</time>
      </trkpt>
      <trkpt lat="47.04659" lon="0.81688">
        <ele>75.8</ele>
        <time>2015-06-20T13:21:22.000Z</time>
      </trkpt>
      <trkpt lat="47.0467" lon="0.81685">
        <ele>76</ele>
        <time>2015-06-20T13:21:24.000Z</time>
      </trkpt>
      <trkpt lat="47.04693" lon="0.81671">
        <ele>76.8</ele>
        <time>2015-06-20T13:21:28.000Z</time>
      </trkpt>
      <trkpt lat="47.0471" lon="0.81652">
        <ele>79.2</ele>
        <time>2015-06-20T13:21:32.000Z</time>
      </trkpt>
      <trkpt lat="47.04736" lon="0.81583">
        <ele>83</ele>
        <time>2015-06-20T13:21:47.000Z</time>
      </trkpt>
      <trkpt lat="47.04767" lon="0.81515">
        <ele>87.9</ele>
        <time>2015-06-20T13:22:03.000Z</time>
      </trkpt>
      <trkpt lat="47.04797" lon="0.81444">
        <ele>90.1</ele>
        <time>2015-06-20T13:22:20.000Z</time>
      </trkpt>
      <trkpt lat="47.04822" lon="0.81372">
        <ele>93</ele>
        <time>2015-06-20T13:22:37.000Z</time>
      </trkpt>
      <trkpt lat="47.04846" lon="0.81299">
        <ele>96.8</ele>
        <time>2015-06-20T13:22:53.000Z</time>
      </trkpt>
      <trkpt lat="47.04877" lon="0.81229">
        <ele>98.9</ele>
        <time>2015-06-20T13:23:10.000Z</time>
      </trkpt>
      <trkpt lat="47.04915" lon="0.81167">
        <ele>97.9</ele>
        <time>2015-06-20T13:23:22.000Z</time>
      </trkpt>
      <trkpt lat="47.04952" lon="0.81105">
        <ele>97.2</ele>
        <time>2015-06-20T13:23:32.000Z</time>
      </trkpt>
      <trkpt lat="47.04992" lon="0.81046">
        <ele>101.2</ele>
        <time>2015-06-20T13:23:44.000Z</time>
      </trkpt>
      <trkpt lat="47.05038" lon="0.81003">
        <ele>105.6</ele>
        <time>2015-06-20T13:23:59.000Z</time>
      </trkpt>
      <trkpt lat="47.05085" lon="0.80962">
        <ele>109.5</ele>
        <time>2015-06-20T13:24:15.000Z</time>
      </trkpt>
      <trkpt lat="47.05131" lon="0.80918">
        <ele>112.7</ele>
        <time>2015-06-20T13:24:31.000Z</time>
      </trkpt>
      <trkpt lat="47.05175" lon="0.80866">
        <ele>114</ele>
        <time>2015-06-20T13:24:46.000Z</time>
      </trkpt>
      <trkpt lat="47.05209" lon="0.80797">
        <ele>113.5</ele>
        <time>2015-06-20T13:24:59.000Z</time>
      </trkpt>
      <trkpt lat="47.05213" lon="0.80792">
        <ele>113.3</ele>
        <time>2015-06-20T13:25:00.000Z</time>
      </trkpt>
      <trkpt lat="47.05239" lon="0.80775">
        <ele>112.4</ele>
        <time>2015-06-20T13:25:05.000Z</time>
      </trkpt>
      <trkpt lat="47.05266" lon="0.80765">
        <ele>111.4</ele>
        <time>2015-06-20T13:25:10.000Z</time>
      </trkpt>
      <trkpt lat="47.05285" lon="0.80771">
        <ele>110.5</ele>
        <time>2015-06-20T13:25:15.000Z</time>
      </trkpt>
      <trkpt lat="47.05294" lon="0.80773">
        <ele>109.9</ele>
        <time>2015-06-20T13:25:17.000Z</time>
      </trkpt>
      <trkpt lat="47.05312" lon="0.80752">
        <ele>109.5</ele>
        <time>2015-06-20T13:25:22.000Z</time>
      </trkpt>
      <trkpt lat="47.05319" lon="0.80741">
        <ele>109</ele>
        <time>2015-06-20T13:25:24.000Z</time>
      </trkpt>
      <trkpt lat="47.05366" lon="0.80701">
        <ele>106.6</ele>
        <time>2015-06-20T13:25:33.000Z</time>
      </trkpt>
      <trkpt lat="47.05416" lon="0.80662">
        <ele>104.2</ele>
        <time>2015-06-20T13:25:41.000Z</time>
      </trkpt>
      <trkpt lat="47.05464" lon="0.80618">
        <ele>101.6</ele>
        <time>2015-06-20T13:25:48.000Z</time>
      </trkpt>
      <trkpt lat="47.05516" lon="0.80572">
        <ele>97.7</ele>
        <time>2015-06-20T13:25:55.000Z</time>
      </trkpt>
      <trkpt lat="47.05563" lon="0.8053">
        <ele>95.3</ele>
        <time>2015-06-20T13:26:01.000Z</time>
      </trkpt>
      <trkpt lat="47.05614" lon="0.80484">
        <ele>94.5</ele>
        <time>2015-06-20T13:26:08.000Z</time>
      </trkpt>
      <trkpt lat="47.05663" lon="0.80443">
        <ele>92.4</ele>
        <time>2015-06-20T13:26:17.000Z</time>
      </trkpt>
      <trkpt lat="47.05719" lon="0.80415">
        <ele>89.2</ele>
        <time>2015-06-20T13:26:24.000Z</time>
      </trkpt>
      <trkpt lat="47.05772" lon="0.80395">
        <ele>86.4</ele>
        <time>2015-06-20T13:26:30.000Z</time>
      </trkpt>
      <trkpt lat="47.0583" lon="0.80375">
        <ele>83.6</ele>
        <time>2015-06-20T13:26:36.000Z</time>
      </trkpt>
      <trkpt lat="47.05889" lon="0.80353">
        <ele>81.7</ele>
        <time>2015-06-20T13:26:42.000Z</time>
      </trkpt>
      <trkpt lat="47.05946" lon="0.80333">
        <ele>79.9</ele>
        <time>2015-06-20T13:26:48.000Z</time>
      </trkpt>
      <trkpt lat="47.06006" lon="0.80312">
        <ele>78.2</ele>
        <time>2015-06-20T13:26:55.000Z</time>
      </trkpt>
      <trkpt lat="47.06062" lon="0.80291">
        <ele>79.1</ele>
        <time>2015-06-20T13:27:02.000Z</time>
      </trkpt>
      <trkpt lat="47.06118" lon="0.80269">
        <ele>79</ele>
        <time>2015-06-20T13:27:10.000Z</time>
      </trkpt>
      <trkpt lat="47.06173" lon="0.80245">
        <ele>79.8</ele>
        <time>2015-06-20T13:27:18.000Z</time>
      </trkpt>
      <trkpt lat="47.06229" lon="0.8022">
        <ele>78.7</ele>
        <time>2015-06-20T13:27:26.000Z</time>
      </trkpt>
      <trkpt lat="47.06284" lon="0.80191">
        <ele>76.9</ele>
        <time>2015-06-20T13:27:34.000Z</time>
      </trkpt>
      <trkpt lat="47.06339" lon="0.80152">
        <ele>76.9</ele>
        <time>2015-06-20T13:27:42.000Z</time>
      </trkpt>
      <trkpt lat="47.06389" lon="0.80115">
        <ele>76.9</ele>
        <time>2015-06-20T13:27:50.000Z</time>
      </trkpt>
      <trkpt lat="47.06437" lon="0.80078">
        <ele>77</ele>
        <time>2015-06-20T13:27:58.000Z</time>
      </trkpt>
      <trkpt lat="47.06486" lon="0.80036">
        <ele>77.9</ele>
        <time>2015-06-20T13:28:07.000Z</time>
      </trkpt>
      <trkpt lat="47.06538" lon="0.79991">
        <ele>79</ele>
        <time>2015-06-20T13:28:17.000Z</time>
      </trkpt>
      <trkpt lat="47.06588" lon="0.79947">
        <ele>79.9</ele>
        <time>2015-06-20T13:28:28.000Z</time>
      </trkpt>
      <trkpt lat="47.066" lon="0.79936">
        <ele>80.1</ele>
        <time>2015-06-20T13:28:31.000Z</time>
      </trkpt>
      <trkpt lat="47.06623" lon="0.79867">
        <ele>81.8</ele>
        <time>2015-06-20T13:28:48.000Z</time>
      </trkpt>
      <trkpt lat="47.06629" lon="0.79796">
        <ele>83.2</ele>
        <time>2015-06-20T13:29:00.000Z</time>
      </trkpt>
      <trkpt lat="47.06636" lon="0.79778">
        <ele>83.2</ele>
        <time>2015-06-20T13:29:03.000Z</time>
      </trkpt>
      <trkpt lat="47.06645" lon="0.79758">
        <ele>83.6</ele>
        <time>2015-06-20T13:29:07.000Z</time>
      </trkpt>
      <trkpt lat="47.06654" lon="0.79744">
        <ele>83.8</ele>
        <time>2015-06-20T13:29:10.000Z</time>
      </trkpt>
      <trkpt lat="47.06691" lon="0.79685">
        <ele>84.5</ele>
        <time>2015-06-20T13:29:22.000Z</time>
      </trkpt>
      <trkpt lat="47.06698" lon="0.79667">
        <ele>85.1</ele>
        <time>2015-06-20T13:29:25.000Z</time>
      </trkpt>
      <trkpt lat="47.06701" lon="0.79641">
        <ele>85.9</ele>
        <time>2015-06-20T13:29:29.000Z</time>
      </trkpt>
      <trkpt lat="47.06701" lon="0.79635">
        <ele>86</ele>
        <time>2015-06-20T13:29:30.000Z</time>
      </trkpt>
      <trkpt lat="47.0669" lon="0.79551">
        <ele>88.3</ele>
        <time>2015-06-20T13:29:43.000Z</time>
      </trkpt>
      <trkpt lat="47.06677" lon="0.79468">
        <ele>90.7</ele>
        <time>2015-06-20T13:29:56.000Z</time>
      </trkpt>
      <trkpt lat="47.06675" lon="0.79387">
        <ele>92.8</ele>
        <time>2015-06-20T13:30:09.000Z</time>
      </trkpt>
      <trkpt lat="47.06689" lon="0.79305">
        <ele>94.4</ele>
        <time>2015-06-20T13:30:24.000Z</time>
      </trkpt>
      <trkpt lat="47.06711" lon="0.79229">
        <ele>96.6</ele>
        <time>2015-06-20T13:30:37.000Z</time>
      </trkpt>
      <trkpt lat="47.06713" lon="0.79217">
        <ele>96.6</ele>
        <time>2015-06-20T13:30:39.000Z</time>
      </trkpt>
      <trkpt lat="47.06717" lon="0.79197">
        <ele>96.4</ele>
        <time>2015-06-20T13:30:42.000Z</time>
      </trkpt>
      <trkpt lat="47.06717" lon="0.79179">
        <ele>97.4</ele>
        <time>2015-06-20T13:30:45.000Z</time>
      </trkpt>
      <trkpt lat="47.06707" lon="0.79097">
        <ele>100.1</ele>
        <time>2015-06-20T13:30:59.000Z</time>
      </trkpt>
      <trkpt lat="47.06711" lon="0.79016">
        <ele>100.6</ele>
        <time>2015-06-20T13:31:12.000Z</time>
      </trkpt>
      <trkpt lat="47.06713" lon="0.7901">
        <ele>100.5</ele>
        <time>2015-06-20T13:31:13.000Z</time>
      </trkpt>
      <trkpt lat="47.06747" lon="0.78977">
        <ele>100.2</ele>
        <time>2015-06-20T13:31:21.000Z</time>
      </trkpt>
      <trkpt lat="47.06802" lon="0.78947">
        <ele>100</ele>
        <time>2015-06-20T13:31:32.000Z</time>
      </trkpt>
      <trkpt lat="47.06856" lon="0.78914">
        <ele>101.1</ele>
        <time>2015-06-20T13:31:44.000Z</time>
      </trkpt>
      <trkpt lat="47.06898" lon="0.78863">
        <ele>103</ele>
        <time>2015-06-20T13:31:57.000Z</time>
      </trkpt>
      <trkpt lat="47.06936" lon="0.78808">
        <ele>105</ele>
        <time>2015-06-20T13:32:10.000Z</time>
      </trkpt>
      <trkpt lat="47.06984" lon="0.78769">
        <ele>107.6</ele>
        <time>2015-06-20T13:32:24.000Z</time>
      </trkpt>
      <trkpt lat="47.07015" lon="0.78746">
        <ele>108.2</ele>
        <time>2015-06-20T13:32:32.000Z</time>
      </trkpt>
      <trkpt lat="47.07028" lon="0.78715">
        <ele>110.3</ele>
        <time>2015-06-20T13:32:38.000Z</time>
      </trkpt>
      <trkpt lat="47.07029" lon="0.78676">
        <ele>111.7</ele>
        <time>2015-06-20T13:32:45.000Z</time>
      </trkpt>
      <trkpt lat="47.07045" lon="0.78659">
        <ele>113.4</ele>
        <time>2015-06-20T13:32:51.000Z</time>
      </trkpt>
      <trkpt lat="47.07094" lon="0.78622">
        <ele>116.6</ele>
        <time>2015-06-20T13:33:09.000Z</time>
      </trkpt>
      <trkpt lat="47.07137" lon="0.78574">
        <ele>120.9</ele>
        <time>2015-06-20T13:33:29.000Z</time>
      </trkpt>
      <trkpt lat="47.07179" lon="0.78522">
        <ele>123.6</ele>
        <time>2015-06-20T13:33:50.000Z</time>
      </trkpt>
      <trkpt lat="47.07206" lon="0.78459">
        <ele>124.3</ele>
        <time>2015-06-20T13:34:06.000Z</time>
      </trkpt>
      <trkpt lat="47.07203" lon="0.78432">
        <ele>124.7</ele>
        <time>2015-06-20T13:34:11.000Z</time>
      </trkpt>
      <trkpt lat="47.07179" lon="0.78359">
        <ele>124</ele>
        <time>2015-06-20T13:34:23.000Z</time>
      </trkpt>
      <trkpt lat="47.07187" lon="0.7833">
        <ele>123.9</ele>
        <time>2015-06-20T13:34:28.000Z</time>
      </trkpt>
      <trkpt lat="47.07191" lon="0.78326">
        <ele>123.8</ele>
        <time>2015-06-20T13:34:29.000Z</time>
      </trkpt>
      <trkpt lat="47.072" lon="0.78319">
        <ele>123.4</ele>
        <time>2015-06-20T13:34:31.000Z</time>
      </trkpt>
      <trkpt lat="47.07217" lon="0.78308">
        <ele>123</ele>
        <time>2015-06-20T13:34:34.000Z</time>
      </trkpt>
      <trkpt lat="47.07269" lon="0.7828">
        <ele>121.3</ele>
        <time>2015-06-20T13:34:43.000Z</time>
      </trkpt>
      <trkpt lat="47.07318" lon="0.78238">
        <ele>119.5</ele>
        <time>2015-06-20T13:34:51.000Z</time>
      </trkpt>
      <trkpt lat="47.07371" lon="0.78192">
        <ele>117.7</ele>
        <time>2015-06-20T13:34:59.000Z</time>
      </trkpt>
      <trkpt lat="47.07422" lon="0.78144">
        <ele>115</ele>
        <time>2015-06-20T13:35:07.000Z</time>
      </trkpt>
      <trkpt lat="47.07473" lon="0.78115">
        <ele>113.1</ele>
        <time>2015-06-20T13:35:14.000Z</time>
      </trkpt>
      <trkpt lat="47.07528" lon="0.7808">
        <ele>108.9</ele>
        <time>2015-06-20T13:35:21.000Z</time>
      </trkpt>
      <trkpt lat="47.07582" lon="0.78059">
        <ele>106.2</ele>
        <time>2015-06-20T13:35:27.000Z</time>
      </trkpt>
      <trkpt lat="47.07645" lon="0.78056">
        <ele>103</ele>
        <time>2015-06-20T13:35:34.000Z</time>
      </trkpt>
      <trkpt lat="47.077" lon="0.78052">
        <ele>104.2</ele>
        <time>2015-06-20T13:35:41.000Z</time>
      </trkpt>
      <trkpt lat="47.07742" lon="0.78027">
        <ele>106.2</ele>
        <time>2015-06-20T13:35:48.000Z</time>
      </trkpt>
      <trkpt lat="47.07797" lon="0.77994">
        <ele>107.2</ele>
        <time>2015-06-20T13:35:59.000Z</time>
      </trkpt>
      <trkpt lat="47.07855" lon="0.77974">
        <ele>105.4</ele>
        <time>2015-06-20T13:36:09.000Z</time>
      </trkpt>
      <trkpt lat="47.07908" lon="0.77951">
        <ele>103.8</ele>
        <time>2015-06-20T13:36:17.000Z</time>
      </trkpt>
      <trkpt lat="47.07962" lon="0.77924">
        <ele>104.9</ele>
        <time>2015-06-20T13:36:26.000Z</time>
      </trkpt>
      <trkpt lat="47.08015" lon="0.77899">
        <ele>107.2</ele>
        <time>2015-06-20T13:36:36.000Z</time>
      </trkpt>
      <trkpt lat="47.08056" lon="0.77872">
        <ele>109.6</ele>
        <time>2015-06-20T13:36:46.000Z</time>
      </trkpt>
      <trkpt lat="47.08099" lon="0.77825">
        <ele>113.7</ele>
        <time>2015-06-20T13:37:03.000Z</time>
      </trkpt>
      <trkpt lat="47.08146" lon="0.77785">
        <ele>116.3</ele>
        <time>2015-06-20T13:37:18.000Z</time>
      </trkpt>
      <trkpt lat="47.0819" lon="0.77738">
        <ele>118.8</ele>
        <time>2015-06-20T13:37:36.000Z</time>
      </trkpt>
      <trkpt lat="47.08234" lon="0.77691">
        <ele>118.9</ele>
        <time>2015-06-20T13:37:50.000Z</time>
      </trkpt>
      <trkpt lat="47.08277" lon="0.77639">
        <ele>117</ele>
        <time>2015-06-20T13:38:02.000Z</time>
      </trkpt>
      <trkpt lat="47.083" lon="0.77603">
        <ele>115.4</ele>
        <time>2015-06-20T13:38:08.000Z</time>
      </trkpt>
      <trkpt lat="47.0834" lon="0.77545">
        <ele>112.6</ele>
        <time>2015-06-20T13:38:16.000Z</time>
      </trkpt>
      <trkpt lat="47.08391" lon="0.77508">
        <ele>108.7</ele>
        <time>2015-06-20T13:38:23.000Z</time>
      </trkpt>
      <trkpt lat="47.0842" lon="0.77487">
        <ele>104.9</ele>
        <time>2015-06-20T13:38:27.000Z</time>
      </trkpt>
      <trkpt lat="47.08443" lon="0.77422">
        <ele>100.3</ele>
        <time>2015-06-20T13:38:33.000Z</time>
      </trkpt>
      <trkpt lat="47.08447" lon="0.77408">
        <ele>99.5</ele>
        <time>2015-06-20T13:38:34.000Z</time>
      </trkpt>
      <trkpt lat="47.08478" lon="0.77343">
        <ele>96.2</ele>
        <time>2015-06-20T13:38:39.000Z</time>
      </trkpt>
      <trkpt lat="47.08513" lon="0.77277">
        <ele>92</ele>
        <time>2015-06-20T13:38:44.000Z</time>
      </trkpt>
      <trkpt lat="47.08549" lon="0.77211">
        <ele>89.1</ele>
        <time>2015-06-20T13:38:49.000Z</time>
      </trkpt>
      <trkpt lat="47.08585" lon="0.77149">
        <ele>89</ele>
        <time>2015-06-20T13:38:54.000Z</time>
      </trkpt>
      <trkpt lat="47.08616" lon="0.77087">
        <ele>90</ele>
        <time>2015-06-20T13:39:00.000Z</time>
      </trkpt>
      <trkpt lat="47.08629" lon="0.7701">
        <ele>93.5</ele>
        <time>2015-06-20T13:39:07.000Z</time>
      </trkpt>
      <trkpt lat="47.0865" lon="0.76932">
        <ele>97.5</ele>
        <time>2015-06-20T13:39:19.000Z</time>
      </trkpt>
      <trkpt lat="47.0868" lon="0.76861">
        <ele>101.5</ele>
        <time>2015-06-20T13:39:36.000Z</time>
      </trkpt>
      <trkpt lat="47.08724" lon="0.76808">
        <ele>104.1</ele>
        <time>2015-06-20T13:39:52.000Z</time>
      </trkpt>
      <trkpt lat="47.08767" lon="0.7676">
        <ele>107.3</ele>
        <time>2015-06-20T13:40:08.000Z</time>
      </trkpt>
      <trkpt lat="47.08797" lon="0.76693">
        <ele>109.7</ele>
        <time>2015-06-20T13:40:24.000Z</time>
      </trkpt>
      <trkpt lat="47.08824" lon="0.76618">
        <ele>111.9</ele>
        <time>2015-06-20T13:40:39.000Z</time>
      </trkpt>
      <trkpt lat="47.08856" lon="0.76548">
        <ele>113.9</ele>
        <time>2015-06-20T13:40:54.000Z</time>
      </trkpt>
      <trkpt lat="47.08887" lon="0.76477">
        <ele>114</ele>
        <time>2015-06-20T13:41:08.000Z</time>
      </trkpt>
      <trkpt lat="47.0892" lon="0.76412">
        <ele>113.8</ele>
        <time>2015-06-20T13:41:19.000Z</time>
      </trkpt>
      <trkpt lat="47.08959" lon="0.76353">
        <ele>114</ele>
        <time>2015-06-20T13:41:29.000Z</time>
      </trkpt>
      <trkpt lat="47.09004" lon="0.76301">
        <ele>113.7</ele>
        <time>2015-06-20T13:41:38.000Z</time>
      </trkpt>
      <trkpt lat="47.09049" lon="0.76251">
        <ele>113</ele>
        <time>2015-06-20T13:41:46.000Z</time>
      </trkpt>
      <trkpt lat="47.09093" lon="0.76204">
        <ele>112</ele>
        <time>2015-06-20T13:41:54.000Z</time>
      </trkpt>
      <trkpt lat="47.09137" lon="0.76156">
        <ele>111</ele>
        <time>2015-06-20T13:42:01.000Z</time>
      </trkpt>
      <trkpt lat="47.09186" lon="0.76103">
        <ele>109.3</ele>
        <time>2015-06-20T13:42:09.000Z</time>
      </trkpt>
      <trkpt lat="47.0923" lon="0.76055">
        <ele>108.7</ele>
        <time>2015-06-20T13:42:17.000Z</time>
      </trkpt>
      <trkpt lat="47.09234" lon="0.76049">
        <ele>108.7</ele>
        <time>2015-06-20T13:42:18.000Z</time>
      </trkpt>
      <trkpt lat="47.09244" lon="0.76019">
        <ele>109</ele>
        <time>2015-06-20T13:42:22.000Z</time>
      </trkpt>
      <trkpt lat="47.09244" lon="0.76009">
        <ele>109</ele>
        <time>2015-06-20T13:42:23.000Z</time>
      </trkpt>
      <trkpt lat="47.09248" lon="0.75958">
        <ele>109.5</ele>
        <time>2015-06-20T13:42:28.000Z</time>
      </trkpt>
      <trkpt lat="47.0926" lon="0.75928">
        <ele>110.2</ele>
        <time>2015-06-20T13:42:32.000Z</time>
      </trkpt>
      <trkpt lat="47.093" lon="0.75867">
        <ele>111</ele>
        <time>2015-06-20T13:42:42.000Z</time>
      </trkpt>
      <trkpt lat="47.09338" lon="0.75809">
        <ele>112.9</ele>
        <time>2015-06-20T13:42:52.000Z</time>
      </trkpt>
      <trkpt lat="47.09377" lon="0.7575">
        <ele>114</ele>
        <time>2015-06-20T13:43:03.000Z</time>
      </trkpt>
      <trkpt lat="47.09416" lon="0.75689">
        <ele>115</ele>
        <time>2015-06-20T13:43:14.000Z</time>
      </trkpt>
      <trkpt lat="47.09456" lon="0.75628">
        <ele>114.6</ele>
        <time>2015-06-20T13:43:24.000Z</time>
      </trkpt>
      <trkpt lat="47.09495" lon="0.75566">
        <ele>114.1</ele>
        <time>2015-06-20T13:43:33.000Z</time>
      </trkpt>
      <trkpt lat="47.09534" lon="0.75507">
        <ele>114.6</ele>
        <time>2015-06-20T13:43:41.000Z</time>
      </trkpt>
      <trkpt lat="47.0957" lon="0.75446">
        <ele>114.4</ele>
        <time>2015-06-20T13:43:49.000Z</time>
      </trkpt>
      <trkpt lat="47.0961" lon="0.75384">
        <ele>114</ele>
        <time>2015-06-20T13:43:58.000Z</time>
      </trkpt>
      <trkpt lat="47.09649" lon="0.75319">
        <ele>114</ele>
        <time>2015-06-20T13:44:07.000Z</time>
      </trkpt>
      <trkpt lat="47.0969" lon="0.75256">
        <ele>114</ele>
        <time>2015-06-20T13:44:16.000Z</time>
      </trkpt>
      <trkpt lat="47.09731" lon="0.75193">
        <ele>114</ele>
        <time>2015-06-20T13:44:25.000Z</time>
      </trkpt>
      <trkpt lat="47.0977" lon="0.75133">
        <ele>114</ele>
        <time>2015-06-20T13:44:33.000Z</time>
      </trkpt>
      <trkpt lat="47.09811" lon="0.7508">
        <ele>115</ele>
        <time>2015-06-20T13:44:41.000Z</time>
      </trkpt>
      <trkpt lat="47.09857" lon="0.75029">
        <ele>115.8</ele>
        <time>2015-06-20T13:44:50.000Z</time>
      </trkpt>
      <trkpt lat="47.099" lon="0.74969">
        <ele>116</ele>
        <time>2015-06-20T13:44:59.000Z</time>
      </trkpt>
      <trkpt lat="47.09943" lon="0.74913">
        <ele>116.9</ele>
        <time>2015-06-20T13:45:08.000Z</time>
      </trkpt>
      <trkpt lat="47.09987" lon="0.74858">
        <ele>117</ele>
        <time>2015-06-20T13:45:17.000Z</time>
      </trkpt>
      <trkpt lat="47.10035" lon="0.74805">
        <ele>116.7</ele>
        <time>2015-06-20T13:45:26.000Z</time>
      </trkpt>
      <trkpt lat="47.10083" lon="0.74754">
        <ele>116</ele>
        <time>2015-06-20T13:45:35.000Z</time>
      </trkpt>
      <trkpt lat="47.10125" lon="0.74697">
        <ele>116</ele>
        <time>2015-06-20T13:45:44.000Z</time>
      </trkpt>
      <trkpt lat="47.10166" lon="0.74642">
        <ele>116</ele>
        <time>2015-06-20T13:45:53.000Z</time>
      </trkpt>
      <trkpt lat="47.10209" lon="0.74583">
        <ele>115.5</ele>
        <time>2015-06-20T13:46:02.000Z</time>
      </trkpt>
      <trkpt lat="47.10249" lon="0.74529">
        <ele>115</ele>
        <time>2015-06-20T13:46:10.000Z</time>
      </trkpt>
      <trkpt lat="47.10288" lon="0.74474">
        <ele>115</ele>
        <time>2015-06-20T13:46:18.000Z</time>
      </trkpt>
      <trkpt lat="47.10331" lon="0.74415">
        <ele>115</ele>
        <time>2015-06-20T13:46:27.000Z</time>
      </trkpt>
      <trkpt lat="47.10375" lon="0.74355">
        <ele>115</ele>
        <time>2015-06-20T13:46:36.000Z</time>
      </trkpt>
      <trkpt lat="47.10415" lon="0.743">
        <ele>114.8</ele>
        <time>2015-06-20T13:46:44.000Z</time>
      </trkpt>
      <trkpt lat="47.10456" lon="0.74244">
        <ele>114</ele>
        <time>2015-06-20T13:46:52.000Z</time>
      </trkpt>
      <trkpt lat="47.10501" lon="0.74193">
        <ele>113</ele>
        <time>2015-06-20T13:47:00.000Z</time>
      </trkpt>
      <trkpt lat="47.10556" lon="0.74161">
        <ele>114</ele>
        <time>2015-06-20T13:47:09.000Z</time>
      </trkpt>
      <trkpt lat="47.10601" lon="0.74114">
        <ele>114.6</ele>
        <time>2015-06-20T13:47:19.000Z</time>
      </trkpt>
      <trkpt lat="47.10638" lon="0.74056">
        <ele>115</ele>
        <time>2015-06-20T13:47:29.000Z</time>
      </trkpt>
      <trkpt lat="47.10672" lon="0.73987">
        <ele>115.6</ele>
        <time>2015-06-20T13:47:40.000Z</time>
      </trkpt>
      <trkpt lat="47.10704" lon="0.73915">
        <ele>116</ele>
        <time>2015-06-20T13:47:51.000Z</time>
      </trkpt>
      <trkpt lat="47.10731" lon="0.73843">
        <ele>115.2</ele>
        <time>2015-06-20T13:48:01.000Z</time>
      </trkpt>
      <trkpt lat="47.10756" lon="0.73772">
        <ele>115</ele>
        <time>2015-06-20T13:48:10.000Z</time>
      </trkpt>
      <trkpt lat="47.10783" lon="0.73697">
        <ele>114</ele>
        <time>2015-06-20T13:48:19.000Z</time>
      </trkpt>
      <trkpt lat="47.10805" lon="0.73621">
        <ele>114</ele>
        <time>2015-06-20T13:48:28.000Z</time>
      </trkpt>
      <trkpt lat="47.10837" lon="0.73554">
        <ele>115.2</ele>
        <time>2015-06-20T13:48:38.000Z</time>
      </trkpt>
      <trkpt lat="47.10875" lon="0.73496">
        <ele>116</ele>
        <time>2015-06-20T13:48:49.000Z</time>
      </trkpt>
      <trkpt lat="47.10916" lon="0.73438">
        <ele>117</ele>
        <time>2015-06-20T13:49:01.000Z</time>
      </trkpt>
      <trkpt lat="47.10962" lon="0.73393">
        <ele>117.1</ele>
        <time>2015-06-20T13:49:13.000Z</time>
      </trkpt>
      <trkpt lat="47.1101" lon="0.73349">
        <ele>116.4</ele>
        <time>2015-06-20T13:49:24.000Z</time>
      </trkpt>
      <trkpt lat="47.11053" lon="0.73296">
        <ele>114.7</ele>
        <time>2015-06-20T13:49:34.000Z</time>
      </trkpt>
      <trkpt lat="47.11093" lon="0.73243">
        <ele>114.3</ele>
        <time>2015-06-20T13:49:44.000Z</time>
      </trkpt>
      <trkpt lat="47.11135" lon="0.73183">
        <ele>114.9</ele>
        <time>2015-06-20T13:49:55.000Z</time>
      </trkpt>
      <trkpt lat="47.11176" lon="0.73129">
        <ele>115</ele>
        <time>2015-06-20T13:50:06.000Z</time>
      </trkpt>
      <trkpt lat="47.11191" lon="0.73128">
        <ele>115</ele>
        <time>2015-06-20T13:50:10.000Z</time>
      </trkpt>
      <trkpt lat="47.11201" lon="0.73122">
        <ele>115</ele>
        <time>2015-06-20T13:50:13.000Z</time>
      </trkpt>
      <trkpt lat="47.11202" lon="0.73089">
        <ele>115</ele>
        <time>2015-06-20T13:50:18.000Z</time>
      </trkpt>
      <trkpt lat="47.11208" lon="0.73005">
        <ele>115.4</ele>
        <time>2015-06-20T13:50:28.000Z</time>
      </trkpt>
      <trkpt lat="47.1121" lon="0.72984">
        <ele>115.8</ele>
        <time>2015-06-20T13:50:31.000Z</time>
      </trkpt>
      <trkpt lat="47.11219" lon="0.72933">
        <ele>116</ele>
        <time>2015-06-20T13:50:39.000Z</time>
      </trkpt>
      <trkpt lat="47.11231" lon="0.72921">
        <ele>116</ele>
        <time>2015-06-20T13:50:43.000Z</time>
      </trkpt>
      <trkpt lat="47.11236" lon="0.72918">
        <ele>116</ele>
        <time>2015-06-20T13:50:44.000Z</time>
      </trkpt>
      <trkpt lat="47.11284" lon="0.72875">
        <ele>116</ele>
        <time>2015-06-20T13:50:54.000Z</time>
      </trkpt>
      <trkpt lat="47.11293" lon="0.72864">
        <ele>116</ele>
        <time>2015-06-20T13:50:56.000Z</time>
      </trkpt>
      <trkpt lat="47.11307" lon="0.72849">
        <ele>116</ele>
        <time>2015-06-20T13:50:59.000Z</time>
      </trkpt>
      <trkpt lat="47.11363" lon="0.72825">
        <ele>116.3</ele>
        <time>2015-06-20T13:51:09.000Z</time>
      </trkpt>
      <trkpt lat="47.11391" lon="0.72826">
        <ele>116.3</ele>
        <time>2015-06-20T13:51:14.000Z</time>
      </trkpt>
      <trkpt lat="47.11423" lon="0.72796">
        <ele>116.5</ele>
        <time>2015-06-20T13:51:21.000Z</time>
      </trkpt>
      <trkpt lat="47.11457" lon="0.72731">
        <ele>117</ele>
        <time>2015-06-20T13:51:31.000Z</time>
      </trkpt>
      <trkpt lat="47.115" lon="0.72679">
        <ele>117</ele>
        <time>2015-06-20T13:51:41.000Z</time>
      </trkpt>
      <trkpt lat="47.1155" lon="0.72644">
        <ele>117</ele>
        <time>2015-06-20T13:51:51.000Z</time>
      </trkpt>
      <trkpt lat="47.11601" lon="0.72609">
        <ele>118</ele>
        <time>2015-06-20T13:52:01.000Z</time>
      </trkpt>
      <trkpt lat="47.11651" lon="0.72574">
        <ele>118</ele>
        <time>2015-06-20T13:52:11.000Z</time>
      </trkpt>
      <trkpt lat="47.11704" lon="0.72538">
        <ele>118.2</ele>
        <time>2015-06-20T13:52:21.000Z</time>
      </trkpt>
      <trkpt lat="47.11758" lon="0.725">
        <ele>119</ele>
        <time>2015-06-20T13:52:31.000Z</time>
      </trkpt>
      <trkpt lat="47.11807" lon="0.72466">
        <ele>119</ele>
        <time>2015-06-20T13:52:40.000Z</time>
      </trkpt>
      <trkpt lat="47.11861" lon="0.7243">
        <ele>119</ele>
        <time>2015-06-20T13:52:50.000Z</time>
      </trkpt>
      <trkpt lat="47.1191" lon="0.72396">
        <ele>119</ele>
        <time>2015-06-20T13:52:59.000Z</time>
      </trkpt>
      <trkpt lat="47.11959" lon="0.72362">
        <ele>119</ele>
        <time>2015-06-20T13:53:08.000Z</time>
      </trkpt>
      <trkpt lat="47.12014" lon="0.72327">
        <ele>119</ele>
        <time>2015-06-20T13:53:18.000Z</time>
      </trkpt>
      <trkpt lat="47.12067" lon="0.72317">
        <ele>119</ele>
        <time>2015-06-20T13:53:27.000Z</time>
      </trkpt>
      <trkpt lat="47.12126" lon="0.72317">
        <ele>119</ele>
        <time>2015-06-20T13:53:37.000Z</time>
      </trkpt>
      <trkpt lat="47.12184" lon="0.72315">
        <ele>119</ele>
        <time>2015-06-20T13:53:47.000Z</time>
      </trkpt>
      <trkpt lat="47.12243" lon="0.72311">
        <ele>118.3</ele>
        <time>2015-06-20T13:53:57.000Z</time>
      </trkpt>
      <trkpt lat="47.12297" lon="0.72306">
        <ele>118</ele>
        <time>2015-06-20T13:54:06.000Z</time>
      </trkpt>
      <trkpt lat="47.12356" lon="0.723">
        <ele>118</ele>
        <time>2015-06-20T13:54:16.000Z</time>
      </trkpt>
      <trkpt lat="47.12415" lon="0.72294">
        <ele>118</ele>
        <time>2015-06-20T13:54:26.000Z</time>
      </trkpt>
      <trkpt lat="47.1247" lon="0.7229">
        <ele>118</ele>
        <time>2015-06-20T13:54:35.000Z</time>
      </trkpt>
      <trkpt lat="47.12525" lon="0.72284">
        <ele>118</ele>
        <time>2015-06-20T13:54:44.000Z</time>
      </trkpt>
      <trkpt lat="47.12579" lon="0.7228">
        <ele>118</ele>
        <time>2015-06-20T13:54:53.000Z</time>
      </trkpt>
      <trkpt lat="47.12635" lon="0.72275">
        <ele>118</ele>
        <time>2015-06-20T13:55:02.000Z</time>
      </trkpt>
      <trkpt lat="47.1269" lon="0.7227">
        <ele>117.9</ele>
        <time>2015-06-20T13:55:11.000Z</time>
      </trkpt>
      <trkpt lat="47.12745" lon="0.72265">
        <ele>118</ele>
        <time>2015-06-20T13:55:20.000Z</time>
      </trkpt>
      <trkpt lat="47.12803" lon="0.7226">
        <ele>118</ele>
        <time>2015-06-20T13:55:30.000Z</time>
      </trkpt>
      <trkpt lat="47.12861" lon="0.72255">
        <ele>119</ele>
        <time>2015-06-20T13:55:40.000Z</time>
      </trkpt>
      <trkpt lat="47.12917" lon="0.7225">
        <ele>119</ele>
        <time>2015-06-20T13:55:50.000Z</time>
      </trkpt>
      <trkpt lat="47.12972" lon="0.72243">
        <ele>119.2</ele>
        <time>2015-06-20T13:56:00.000Z</time>
      </trkpt>
      <trkpt lat="47.13027" lon="0.72238">
        <ele>120</ele>
        <time>2015-06-20T13:56:10.000Z</time>
      </trkpt>
      <trkpt lat="47.13085" lon="0.7223">
        <ele>120.1</ele>
        <time>2015-06-20T13:56:20.000Z</time>
      </trkpt>
      <trkpt lat="47.13144" lon="0.72222">
        <ele>121</ele>
        <time>2015-06-20T13:56:31.000Z</time>
      </trkpt>
      <trkpt lat="47.13202" lon="0.72213">
        <ele>121</ele>
        <time>2015-06-20T13:56:41.000Z</time>
      </trkpt>
      <trkpt lat="47.13261" lon="0.72203">
        <ele>121</ele>
        <time>2015-06-20T13:56:51.000Z</time>
      </trkpt>
      <trkpt lat="47.13316" lon="0.72201">
        <ele>121</ele>
        <time>2015-06-20T13:57:00.000Z</time>
      </trkpt>
      <trkpt lat="47.13371" lon="0.72206">
        <ele>121</ele>
        <time>2015-06-20T13:57:09.000Z</time>
      </trkpt>
      <trkpt lat="47.13429" lon="0.72213">
        <ele>121</ele>
        <time>2015-06-20T13:57:19.000Z</time>
      </trkpt>
      <trkpt lat="47.13485" lon="0.7222">
        <ele>121</ele>
        <time>2015-06-20T13:57:28.000Z</time>
      </trkpt>
      <trkpt lat="47.13544" lon="0.72227">
        <ele>120.4</ele>
        <time>2015-06-20T13:57:38.000Z</time>
      </trkpt>
      <trkpt lat="47.13599" lon="0.72233">
        <ele>120</ele>
        <time>2015-06-20T13:57:47.000Z</time>
      </trkpt>
      <trkpt lat="47.13654" lon="0.7224">
        <ele>119.5</ele>
        <time>2015-06-20T13:57:56.000Z</time>
      </trkpt>
      <trkpt lat="47.13704" lon="0.7227">
        <ele>119</ele>
        <time>2015-06-20T13:58:04.000Z</time>
      </trkpt>
      <trkpt lat="47.13757" lon="0.7231">
        <ele>119</ele>
        <time>2015-06-20T13:58:13.000Z</time>
      </trkpt>
      <trkpt lat="47.13812" lon="0.72325">
        <ele>119</ele>
        <time>2015-06-20T13:58:22.000Z</time>
      </trkpt>
      <trkpt lat="47.13824" lon="0.72326">
        <ele>119</ele>
        <time>2015-06-20T13:58:24.000Z</time>
      </trkpt>
      <trkpt lat="47.13882" lon="0.72343">
        <ele>119.7</ele>
        <time>2015-06-20T13:58:34.000Z</time>
      </trkpt>
      <trkpt lat="47.13935" lon="0.72339">
        <ele>120</ele>
        <time>2015-06-20T13:58:43.000Z</time>
      </trkpt>
      <trkpt lat="47.13987" lon="0.72314">
        <ele>119.7</ele>
        <time>2015-06-20T13:58:52.000Z</time>
      </trkpt>
      <trkpt lat="47.14041" lon="0.72278">
        <ele>119.5</ele>
        <time>2015-06-20T13:59:02.000Z</time>
      </trkpt>
      <trkpt lat="47.14096" lon="0.72242">
        <ele>119</ele>
        <time>2015-06-20T13:59:12.000Z</time>
      </trkpt>
      <trkpt lat="47.14144" lon="0.72207">
        <ele>119</ele>
        <time>2015-06-20T13:59:21.000Z</time>
      </trkpt>
      <trkpt lat="47.14189" lon="0.72161">
        <ele>119</ele>
        <time>2015-06-20T13:59:30.000Z</time>
      </trkpt>
      <trkpt lat="47.1424" lon="0.7212">
        <ele>119</ele>
        <time>2015-06-20T13:59:41.000Z</time>
      </trkpt>
      <trkpt lat="47.14296" lon="0.72095">
        <ele>119</ele>
        <time>2015-06-20T13:59:53.000Z</time>
      </trkpt>
      <trkpt lat="47.14306" lon="0.72095">
        <ele>119</ele>
        <time>2015-06-20T13:59:55.000Z</time>
      </trkpt>
      <trkpt lat="47.14327" lon="0.72128">
        <ele>119</ele>
        <time>2015-06-20T14:00:01.000Z</time>
      </trkpt>
      <trkpt lat="47.14353" lon="0.72198">
        <ele>118</ele>
        <time>2015-06-20T14:00:11.000Z</time>
      </trkpt>
      <trkpt lat="47.14378" lon="0.7227">
        <ele>118</ele>
        <time>2015-06-20T14:00:22.000Z</time>
      </trkpt>
      <trkpt lat="47.14405" lon="0.72345">
        <ele>117.6</ele>
        <time>2015-06-20T14:00:33.000Z</time>
      </trkpt>
      <trkpt lat="47.14433" lon="0.72418">
        <ele>117</ele>
        <time>2015-06-20T14:00:43.000Z</time>
      </trkpt>
      <trkpt lat="47.14459" lon="0.7249">
        <ele>116</ele>
        <time>2015-06-20T14:00:53.000Z</time>
      </trkpt>
      <trkpt lat="47.14489" lon="0.72557">
        <ele>116</ele>
        <time>2015-06-20T14:01:03.000Z</time>
      </trkpt>
      <trkpt lat="47.14514" lon="0.72602">
        <ele>116</ele>
        <time>2015-06-20T14:01:11.000Z</time>
      </trkpt>
      <trkpt lat="47.14543" lon="0.72575">
        <ele>116</ele>
        <time>2015-06-20T14:01:19.000Z</time>
      </trkpt>
      <trkpt lat="47.14576" lon="0.7252">
        <ele>116</ele>
        <time>2015-06-20T14:01:29.000Z</time>
      </trkpt>
      <trkpt lat="47.14608" lon="0.72503">
        <ele>116</ele>
        <time>2015-06-20T14:01:35.000Z</time>
      </trkpt>
      <trkpt lat="47.14614" lon="0.72503">
        <ele>116</ele>
        <time>2015-06-20T14:01:36.000Z</time>
      </trkpt>
      <trkpt lat="47.14669" lon="0.72502">
        <ele>116</ele>
        <time>2015-06-20T14:01:45.000Z</time>
      </trkpt>
      <trkpt lat="47.14726" lon="0.72506">
        <ele>116</ele>
        <time>2015-06-20T14:01:56.000Z</time>
      </trkpt>
      <trkpt lat="47.14786" lon="0.72508">
        <ele>116</ele>
        <time>2015-06-20T14:02:05.000Z</time>
      </trkpt>
      <trkpt lat="47.1482" lon="0.72508">
        <ele>116</ele>
        <time>2015-06-20T14:02:11.000Z</time>
      </trkpt>
      <trkpt lat="47.14878" lon="0.72511">
        <ele>116</ele>
        <time>2015-06-20T14:02:22.000Z</time>
      </trkpt>
      <trkpt lat="47.14934" lon="0.72514">
        <ele>116</ele>
        <time>2015-06-20T14:02:31.000Z</time>
      </trkpt>
      <trkpt lat="47.14988" lon="0.72516">
        <ele>115.7</ele>
        <time>2015-06-20T14:02:39.000Z</time>
      </trkpt>
      <trkpt lat="47.15044" lon="0.72517">
        <ele>115.2</ele>
        <time>2015-06-20T14:02:48.000Z</time>
      </trkpt>
      <trkpt lat="47.15103" lon="0.7252">
        <ele>115</ele>
        <time>2015-06-20T14:02:58.000Z</time>
      </trkpt>
      <trkpt lat="47.15162" lon="0.72521">
        <ele>115.6</ele>
        <time>2015-06-20T14:03:07.000Z</time>
      </trkpt>
      <trkpt lat="47.15217" lon="0.72523">
        <ele>116</ele>
        <time>2015-06-20T14:03:17.000Z</time>
      </trkpt>
      <trkpt lat="47.15276" lon="0.72526">
        <ele>116</ele>
        <time>2015-06-20T14:03:27.000Z</time>
      </trkpt>
      <trkpt lat="47.15334" lon="0.72528">
        <ele>116</ele>
        <time>2015-06-20T14:03:37.000Z</time>
      </trkpt>
      <trkpt lat="47.15394" lon="0.7253">
        <ele>116</ele>
        <time>2015-06-20T14:03:47.000Z</time>
      </trkpt>
      <trkpt lat="47.15448" lon="0.7254">
        <ele>116</ele>
        <time>2015-06-20T14:03:56.000Z</time>
      </trkpt>
      <trkpt lat="47.15502" lon="0.72556">
        <ele>116</ele>
        <time>2015-06-20T14:04:05.000Z</time>
      </trkpt>
      <trkpt lat="47.15557" lon="0.72579">
        <ele>116</ele>
        <time>2015-06-20T14:04:14.000Z</time>
      </trkpt>
      <trkpt lat="47.15607" lon="0.72612">
        <ele>116</ele>
        <time>2015-06-20T14:04:23.000Z</time>
      </trkpt>
      <trkpt lat="47.15656" lon="0.72651">
        <ele>116</ele>
        <time>2015-06-20T14:04:32.000Z</time>
      </trkpt>
      <trkpt lat="47.15704" lon="0.7269">
        <ele>116</ele>
        <time>2015-06-20T14:04:41.000Z</time>
      </trkpt>
      <trkpt lat="47.15754" lon="0.72724">
        <ele>116</ele>
        <time>2015-06-20T14:04:50.000Z</time>
      </trkpt>
      <trkpt lat="47.15812" lon="0.72738">
        <ele>116</ele>
        <time>2015-06-20T14:05:00.000Z</time>
      </trkpt>
      <trkpt lat="47.15871" lon="0.72743">
        <ele>116.5</ele>
        <time>2015-06-20T14:05:10.000Z</time>
      </trkpt>
      <trkpt lat="47.15925" lon="0.72749">
        <ele>117</ele>
        <time>2015-06-20T14:05:20.000Z</time>
      </trkpt>
      <trkpt lat="47.15984" lon="0.72754">
        <ele>116</ele>
        <time>2015-06-20T14:05:30.000Z</time>
      </trkpt>
      <trkpt lat="47.16003" lon="0.72756">
        <ele>116</ele>
        <time>2015-06-20T14:05:33.000Z</time>
      </trkpt>
      <trkpt lat="47.16055" lon="0.72773">
        <ele>116</ele>
        <time>2015-06-20T14:05:42.000Z</time>
      </trkpt>
      <trkpt lat="47.16061" lon="0.72778">
        <ele>115.8</ele>
        <time>2015-06-20T14:05:43.000Z</time>
      </trkpt>
      <trkpt lat="47.16086" lon="0.72808">
        <ele>115.1</ele>
        <time>2015-06-20T14:05:48.000Z</time>
      </trkpt>
      <trkpt lat="47.16098" lon="0.72837">
        <ele>115.4</ele>
        <time>2015-06-20T14:05:52.000Z</time>
      </trkpt>
      <trkpt lat="47.161" lon="0.72845">
        <ele>115.2</ele>
        <time>2015-06-20T14:05:53.000Z</time>
      </trkpt>
      <trkpt lat="47.16116" lon="0.7293">
        <ele>115</ele>
        <time>2015-06-20T14:06:03.000Z</time>
      </trkpt>
      <trkpt lat="47.1613" lon="0.73013">
        <ele>114</ele>
        <time>2015-06-20T14:06:13.000Z</time>
      </trkpt>
      <trkpt lat="47.16133" lon="0.7303">
        <ele>114</ele>
        <time>2015-06-20T14:06:15.000Z</time>
      </trkpt>
      <trkpt lat="47.1616" lon="0.731">
        <ele>114</ele>
        <time>2015-06-20T14:06:24.000Z</time>
      </trkpt>
      <trkpt lat="47.16204" lon="0.73154">
        <ele>114</ele>
        <time>2015-06-20T14:06:33.000Z</time>
      </trkpt>
      <trkpt lat="47.1625" lon="0.73206">
        <ele>114</ele>
        <time>2015-06-20T14:06:42.000Z</time>
      </trkpt>
      <trkpt lat="47.16292" lon="0.73255">
        <ele>113</ele>
        <time>2015-06-20T14:06:50.000Z</time>
      </trkpt>
      <trkpt lat="47.1634" lon="0.7331">
        <ele>113.1</ele>
        <time>2015-06-20T14:06:59.000Z</time>
      </trkpt>
      <trkpt lat="47.16382" lon="0.73359">
        <ele>113.9</ele>
        <time>2015-06-20T14:07:07.000Z</time>
      </trkpt>
      <trkpt lat="47.16425" lon="0.73409">
        <ele>114</ele>
        <time>2015-06-20T14:07:15.000Z</time>
      </trkpt>
      <trkpt lat="47.16474" lon="0.73447">
        <ele>114</ele>
        <time>2015-06-20T14:07:23.000Z</time>
      </trkpt>
      <trkpt lat="47.16527" lon="0.7347">
        <ele>114</ele>
        <time>2015-06-20T14:07:31.000Z</time>
      </trkpt>
      <trkpt lat="47.1658" lon="0.73494">
        <ele>113</ele>
        <time>2015-06-20T14:07:39.000Z</time>
      </trkpt>
      <trkpt lat="47.16639" lon="0.73519">
        <ele>113</ele>
        <time>2015-06-20T14:07:48.000Z</time>
      </trkpt>
      <trkpt lat="47.16697" lon="0.73545">
        <ele>113</ele>
        <time>2015-06-20T14:07:57.000Z</time>
      </trkpt>
      <trkpt lat="47.16752" lon="0.73568">
        <ele>112.5</ele>
        <time>2015-06-20T14:08:06.000Z</time>
      </trkpt>
      <trkpt lat="47.16809" lon="0.73592">
        <ele>112</ele>
        <time>2015-06-20T14:08:15.000Z</time>
      </trkpt>
      <trkpt lat="47.16865" lon="0.73616">
        <ele>112.3</ele>
        <time>2015-06-20T14:08:24.000Z</time>
      </trkpt>
      <trkpt lat="47.16917" lon="0.73647">
        <ele>113</ele>
        <time>2015-06-20T14:08:33.000Z</time>
      </trkpt>
      <trkpt lat="47.16967" lon="0.73694">
        <ele>112.2</ele>
        <time>2015-06-20T14:08:42.000Z</time>
      </trkpt>
      <trkpt lat="47.17012" lon="0.73739">
        <ele>112</ele>
        <time>2015-06-20T14:08:50.000Z</time>
      </trkpt>
      <trkpt lat="47.17062" lon="0.73789">
        <ele>112</ele>
        <time>2015-06-20T14:08:59.000Z</time>
      </trkpt>
      <trkpt lat="47.17106" lon="0.73835">
        <ele>112</ele>
        <time>2015-06-20T14:09:07.000Z</time>
      </trkpt>
      <trkpt lat="47.17151" lon="0.73881">
        <ele>112</ele>
        <time>2015-06-20T14:09:15.000Z</time>
      </trkpt>
      <trkpt lat="47.17196" lon="0.73926">
        <ele>111</ele>
        <time>2015-06-20T14:09:23.000Z</time>
      </trkpt>
      <trkpt lat="47.17242" lon="0.73972">
        <ele>111</ele>
        <time>2015-06-20T14:09:31.000Z</time>
      </trkpt>
      <trkpt lat="47.17285" lon="0.74023">
        <ele>111</ele>
        <time>2015-06-20T14:09:39.000Z</time>
      </trkpt>
      <trkpt lat="47.17317" lon="0.74094">
        <ele>110</ele>
        <time>2015-06-20T14:09:47.000Z</time>
      </trkpt>
      <trkpt lat="47.17345" lon="0.74169">
        <ele>110.1</ele>
        <time>2015-06-20T14:09:55.000Z</time>
      </trkpt>
      <trkpt lat="47.17372" lon="0.74241">
        <ele>111</ele>
        <time>2015-06-20T14:10:03.000Z</time>
      </trkpt>
      <trkpt lat="47.17399" lon="0.74311">
        <ele>110</ele>
        <time>2015-06-20T14:10:11.000Z</time>
      </trkpt>
      <trkpt lat="47.17426" lon="0.74383">
        <ele>110</ele>
        <time>2015-06-20T14:10:19.000Z</time>
      </trkpt>
      <trkpt lat="47.17454" lon="0.74455">
        <ele>110</ele>
        <time>2015-06-20T14:10:27.000Z</time>
      </trkpt>
      <trkpt lat="47.17478" lon="0.74519">
        <ele>110</ele>
        <time>2015-06-20T14:10:35.000Z</time>
      </trkpt>
      <trkpt lat="47.17489" lon="0.74536">
        <ele>110</ele>
        <time>2015-06-20T14:10:38.000Z</time>
      </trkpt>
      <trkpt lat="47.17517" lon="0.74543">
        <ele>110</ele>
        <time>2015-06-20T14:10:43.000Z</time>
      </trkpt>
      <trkpt lat="47.17573" lon="0.74543">
        <ele>109</ele>
        <time>2015-06-20T14:10:52.000Z</time>
      </trkpt>
      <trkpt lat="47.1763" lon="0.74545">
        <ele>108.9</ele>
        <time>2015-06-20T14:11:01.000Z</time>
      </trkpt>
      <trkpt lat="47.17686" lon="0.74544">
        <ele>108.6</ele>
        <time>2015-06-20T14:11:10.000Z</time>
      </trkpt>
      <trkpt lat="47.17739" lon="0.74527">
        <ele>108</ele>
        <time>2015-06-20T14:11:19.000Z</time>
      </trkpt>
      <trkpt lat="47.17781" lon="0.74503">
        <ele>108</ele>
        <time>2015-06-20T14:11:27.000Z</time>
      </trkpt>
      <trkpt lat="47.17815" lon="0.74534">
        <ele>108</ele>
        <time>2015-06-20T14:11:34.000Z</time>
      </trkpt>
      <trkpt lat="47.17833" lon="0.74557">
        <ele>108</ele>
        <time>2015-06-20T14:11:38.000Z</time>
      </trkpt>
      <trkpt lat="47.17857" lon="0.74571">
        <ele>108</ele>
        <time>2015-06-20T14:11:42.000Z</time>
      </trkpt>
      <trkpt lat="47.17912" lon="0.7458">
        <ele>109.1</ele>
        <time>2015-06-20T14:11:51.000Z</time>
      </trkpt>
      <trkpt lat="47.17966" lon="0.74571">
        <ele>110</ele>
        <time>2015-06-20T14:12:00.000Z</time>
      </trkpt>
      <trkpt lat="47.18021" lon="0.74559">
        <ele>110</ele>
        <time>2015-06-20T14:12:09.000Z</time>
      </trkpt>
      <trkpt lat="47.18079" lon="0.74542">
        <ele>110</ele>
        <time>2015-06-20T14:12:19.000Z</time>
      </trkpt>
      <trkpt lat="47.18084" lon="0.74538">
        <ele>110</ele>
        <time>2015-06-20T14:12:20.000Z</time>
      </trkpt>
      <trkpt lat="47.18118" lon="0.745">
        <ele>110</ele>
        <time>2015-06-20T14:12:27.000Z</time>
      </trkpt>
      <trkpt lat="47.18132" lon="0.74474">
        <ele>110</ele>
        <time>2015-06-20T14:12:31.000Z</time>
      </trkpt>
      <trkpt lat="47.1817" lon="0.74408">
        <ele>109</ele>
        <time>2015-06-20T14:12:41.000Z</time>
      </trkpt>
      <trkpt lat="47.18184" lon="0.74389">
        <ele>109</ele>
        <time>2015-06-20T14:12:45.000Z</time>
      </trkpt>
      <trkpt lat="47.18215" lon="0.74393">
        <ele>108.4</ele>
        <time>2015-06-20T14:12:51.000Z</time>
      </trkpt>
      <trkpt lat="47.18266" lon="0.74435">
        <ele>108.3</ele>
        <time>2015-06-20T14:13:01.000Z</time>
      </trkpt>
      <trkpt lat="47.18292" lon="0.74469">
        <ele>108.4</ele>
        <time>2015-06-20T14:13:07.000Z</time>
      </trkpt>
      <trkpt lat="47.18316" lon="0.74541">
        <ele>108</ele>
        <time>2015-06-20T14:13:16.000Z</time>
      </trkpt>
      <trkpt lat="47.18339" lon="0.74619">
        <ele>107</ele>
        <time>2015-06-20T14:13:26.000Z</time>
      </trkpt>
      <trkpt lat="47.18361" lon="0.74698">
        <ele>107</ele>
        <time>2015-06-20T14:13:36.000Z</time>
      </trkpt>
      <trkpt lat="47.18378" lon="0.7474">
        <ele>107</ele>
        <time>2015-06-20T14:13:47.000Z</time>
      </trkpt>
      <trkpt lat="47.18419" lon="0.74685">
        <ele>107</ele>
        <time>2015-06-20T14:14:01.000Z</time>
      </trkpt>
      <trkpt lat="47.18466" lon="0.74637">
        <ele>107</ele>
        <time>2015-06-20T14:14:13.000Z</time>
      </trkpt>
      <trkpt lat="47.18483" lon="0.74628">
        <ele>107.4</ele>
        <time>2015-06-20T14:14:17.000Z</time>
      </trkpt>
      <trkpt lat="47.18538" lon="0.74616">
        <ele>108</ele>
        <time>2015-06-20T14:14:27.000Z</time>
      </trkpt>
      <trkpt lat="47.18576" lon="0.74603">
        <ele>108</ele>
        <time>2015-06-20T14:14:34.000Z</time>
      </trkpt>
      <trkpt lat="47.18618" lon="0.74579">
        <ele>108</ele>
        <time>2015-06-20T14:14:42.000Z</time>
      </trkpt>
      <trkpt lat="47.18661" lon="0.74556">
        <ele>108</ele>
        <time>2015-06-20T14:14:50.000Z</time>
      </trkpt>
      <trkpt lat="47.18688" lon="0.7455">
        <ele>108.8</ele>
        <time>2015-06-20T14:14:55.000Z</time>
      </trkpt>
      <trkpt lat="47.18731" lon="0.74552">
        <ele>109</ele>
        <time>2015-06-20T14:15:03.000Z</time>
      </trkpt>
      <trkpt lat="47.18786" lon="0.74547">
        <ele>109</ele>
        <time>2015-06-20T14:15:14.000Z</time>
      </trkpt>
      <trkpt lat="47.1883" lon="0.74525">
        <ele>109</ele>
        <time>2015-06-20T14:15:41.000Z</time>
      </trkpt>
      <trkpt lat="47.18831" lon="0.74527">
        <ele>109</ele>
        <time>2015-06-20T14:16:57.000Z</time>
      </trkpt>
      <trkpt lat="47.18832" lon="0.74521">
        <ele>109</ele>
        <time>2015-06-20T14:17:19.000Z</time>
      </trkpt>
      <trkpt lat="47.1884" lon="0.74517">
        <ele>109.1</ele>
        <time>2015-06-20T14:17:23.000Z</time>
      </trkpt>
      <trkpt lat="47.18863" lon="0.74513">
        <ele>109.4</ele>
        <time>2015-06-20T14:17:29.000Z</time>
      </trkpt>
      <trkpt lat="47.18919" lon="0.74542">
        <ele>108.9</ele>
        <time>2015-06-20T14:17:41.000Z</time>
      </trkpt>
      <trkpt lat="47.18928" lon="0.74551">
        <ele>108.6</ele>
        <time>2015-06-20T14:17:43.000Z</time>
      </trkpt>
      <trkpt lat="47.18972" lon="0.74606">
        <ele>108</ele>
        <time>2015-06-20T14:17:53.000Z</time>
      </trkpt>
      <trkpt lat="47.18981" lon="0.74613">
        <ele>108</ele>
        <time>2015-06-20T14:17:55.000Z</time>
      </trkpt>
      <trkpt lat="47.19009" lon="0.74634">
        <ele>108</ele>
        <time>2015-06-20T14:18:01.000Z</time>
      </trkpt>
      <trkpt lat="47.19056" lon="0.74683">
        <ele>108</ele>
        <time>2015-06-20T14:18:11.000Z</time>
      </trkpt>
      <trkpt lat="47.19096" lon="0.74746">
        <ele>108.9</ele>
        <time>2015-06-20T14:18:21.000Z</time>
      </trkpt>
      <trkpt lat="47.19141" lon="0.74801">
        <ele>110</ele>
        <time>2015-06-20T14:18:31.000Z</time>
      </trkpt>
      <trkpt lat="47.19188" lon="0.74839">
        <ele>110</ele>
        <time>2015-06-20T14:18:40.000Z</time>
      </trkpt>
      <trkpt lat="47.19243" lon="0.74874">
        <ele>110</ele>
        <time>2015-06-20T14:18:50.000Z</time>
      </trkpt>
      <trkpt lat="47.19294" lon="0.74906">
        <ele>110</ele>
        <time>2015-06-20T14:18:59.000Z</time>
      </trkpt>
      <trkpt lat="47.19346" lon="0.7494">
        <ele>110</ele>
        <time>2015-06-20T14:19:08.000Z</time>
      </trkpt>
      <trkpt lat="47.194" lon="0.74974">
        <ele>110.5</ele>
        <time>2015-06-20T14:19:18.000Z</time>
      </trkpt>
      <trkpt lat="47.19451" lon="0.75007">
        <ele>112.4</ele>
        <time>2015-06-20T14:19:28.000Z</time>
      </trkpt>
      <trkpt lat="47.19501" lon="0.75039">
        <ele>113</ele>
        <time>2015-06-20T14:19:38.000Z</time>
      </trkpt>
      <trkpt lat="47.19555" lon="0.75075">
        <ele>113</ele>
        <time>2015-06-20T14:19:48.000Z</time>
      </trkpt>
      <trkpt lat="47.19612" lon="0.75101">
        <ele>113</ele>
        <time>2015-06-20T14:19:58.000Z</time>
      </trkpt>
      <trkpt lat="47.19671" lon="0.75108">
        <ele>111.1</ele>
        <time>2015-06-20T14:20:07.000Z</time>
      </trkpt>
      <trkpt lat="47.19728" lon="0.75113">
        <ele>110</ele>
        <time>2015-06-20T14:20:16.000Z</time>
      </trkpt>
      <trkpt lat="47.19782" lon="0.75116">
        <ele>109</ele>
        <time>2015-06-20T14:20:24.000Z</time>
      </trkpt>
      <trkpt lat="47.1984" lon="0.75119">
        <ele>108</ele>
        <time>2015-06-20T14:20:32.000Z</time>
      </trkpt>
      <trkpt lat="47.19895" lon="0.75129">
        <ele>107.3</ele>
        <time>2015-06-20T14:20:40.000Z</time>
      </trkpt>
      <trkpt lat="47.19947" lon="0.75157">
        <ele>107</ele>
        <time>2015-06-20T14:20:48.000Z</time>
      </trkpt>
      <trkpt lat="47.20003" lon="0.75191">
        <ele>107</ele>
        <time>2015-06-20T14:20:57.000Z</time>
      </trkpt>
      <trkpt lat="47.20057" lon="0.75225">
        <ele>107.1</ele>
        <time>2015-06-20T14:21:06.000Z</time>
      </trkpt>
      <trkpt lat="47.2011" lon="0.75256">
        <ele>107.7</ele>
        <time>2015-06-20T14:21:15.000Z</time>
      </trkpt>
      <trkpt lat="47.2016" lon="0.75296">
        <ele>107.4</ele>
        <time>2015-06-20T14:21:24.000Z</time>
      </trkpt>
      <trkpt lat="47.20199" lon="0.75336">
        <ele>106.9</ele>
        <time>2015-06-20T14:21:33.000Z</time>
      </trkpt>
      <trkpt lat="47.2022" lon="0.75317">
        <ele>107.6</ele>
        <time>2015-06-20T14:21:39.000Z</time>
      </trkpt>
      <trkpt lat="47.2025" lon="0.7525">
        <ele>109</ele>
        <time>2015-06-20T14:21:49.000Z</time>
      </trkpt>
      <trkpt lat="47.20285" lon="0.75189">
        <ele>110</ele>
        <time>2015-06-20T14:21:59.000Z</time>
      </trkpt>
      <trkpt lat="47.20306" lon="0.75172">
        <ele>110.8</ele>
        <time>2015-06-20T14:22:04.000Z</time>
      </trkpt>
      <trkpt lat="47.20356" lon="0.75141">
        <ele>111</ele>
        <time>2015-06-20T14:22:14.000Z</time>
      </trkpt>
      <trkpt lat="47.20411" lon="0.75117">
        <ele>111.8</ele>
        <time>2015-06-20T14:22:24.000Z</time>
      </trkpt>
      <trkpt lat="47.20465" lon="0.75088">
        <ele>112</ele>
        <time>2015-06-20T14:22:34.000Z</time>
      </trkpt>
      <trkpt lat="47.20512" lon="0.75043">
        <ele>112.2</ele>
        <time>2015-06-20T14:22:44.000Z</time>
      </trkpt>
      <trkpt lat="47.20562" lon="0.74996">
        <ele>113</ele>
        <time>2015-06-20T14:22:54.000Z</time>
      </trkpt>
      <trkpt lat="47.20609" lon="0.74955">
        <ele>113</ele>
        <time>2015-06-20T14:23:04.000Z</time>
      </trkpt>
      <trkpt lat="47.20613" lon="0.74949">
        <ele>113</ele>
        <time>2015-06-20T14:23:05.000Z</time>
      </trkpt>
      <trkpt lat="47.20624" lon="0.74919">
        <ele>113</ele>
        <time>2015-06-20T14:23:09.000Z</time>
      </trkpt>
      <trkpt lat="47.20665" lon="0.74916">
        <ele>113</ele>
        <time>2015-06-20T14:23:17.000Z</time>
      </trkpt>
      <trkpt lat="47.20723" lon="0.74932">
        <ele>113</ele>
        <time>2015-06-20T14:23:27.000Z</time>
      </trkpt>
      <trkpt lat="47.20779" lon="0.74932">
        <ele>111.9</ele>
        <time>2015-06-20T14:23:35.000Z</time>
      </trkpt>
      <trkpt lat="47.20841" lon="0.74927">
        <ele>110.7</ele>
        <time>2015-06-20T14:23:43.000Z</time>
      </trkpt>
      <trkpt lat="47.20898" lon="0.7492">
        <ele>110</ele>
        <time>2015-06-20T14:23:51.000Z</time>
      </trkpt>
      <trkpt lat="47.20952" lon="0.74909">
        <ele>110.2</ele>
        <time>2015-06-20T14:23:59.000Z</time>
      </trkpt>
      <trkpt lat="47.2101" lon="0.74896">
        <ele>110</ele>
        <time>2015-06-20T14:24:08.000Z</time>
      </trkpt>
      <trkpt lat="47.21066" lon="0.74876">
        <ele>110.7</ele>
        <time>2015-06-20T14:24:17.000Z</time>
      </trkpt>
      <trkpt lat="47.21119" lon="0.74856">
        <ele>111</ele>
        <time>2015-06-20T14:24:26.000Z</time>
      </trkpt>
      <trkpt lat="47.21174" lon="0.74841">
        <ele>110.8</ele>
        <time>2015-06-20T14:24:35.000Z</time>
      </trkpt>
      <trkpt lat="47.21233" lon="0.74841">
        <ele>109.6</ele>
        <time>2015-06-20T14:24:44.000Z</time>
      </trkpt>
      <trkpt lat="47.21288" lon="0.7484">
        <ele>108.6</ele>
        <time>2015-06-20T14:24:52.000Z</time>
      </trkpt>
      <trkpt lat="47.21345" lon="0.74834">
        <ele>107.6</ele>
        <time>2015-06-20T14:25:00.000Z</time>
      </trkpt>
      <trkpt lat="47.21399" lon="0.74827">
        <ele>107</ele>
        <time>2015-06-20T14:25:08.000Z</time>
      </trkpt>
      <trkpt lat="47.21457" lon="0.7482">
        <ele>107</ele>
        <time>2015-06-20T14:25:17.000Z</time>
      </trkpt>
      <trkpt lat="47.21512" lon="0.74816">
        <ele>106.8</ele>
        <time>2015-06-20T14:25:25.000Z</time>
      </trkpt>
      <trkpt lat="47.21569" lon="0.74814">
        <ele>106.8</ele>
        <time>2015-06-20T14:25:34.000Z</time>
      </trkpt>
      <trkpt lat="47.21623" lon="0.74813">
        <ele>107</ele>
        <time>2015-06-20T14:25:43.000Z</time>
      </trkpt>
      <trkpt lat="47.21645" lon="0.74812">
        <ele>107</ele>
        <time>2015-06-20T14:25:47.000Z</time>
      </trkpt>
      <trkpt lat="47.2169" lon="0.74809">
        <ele>107</ele>
        <time>2015-06-20T14:25:56.000Z</time>
      </trkpt>
      <trkpt lat="47.21745" lon="0.74791">
        <ele>107</ele>
        <time>2015-06-20T14:26:05.000Z</time>
      </trkpt>
      <trkpt lat="47.21803" lon="0.74774">
        <ele>106</ele>
        <time>2015-06-20T14:26:14.000Z</time>
      </trkpt>
      <trkpt lat="47.21861" lon="0.74755">
        <ele>105</ele>
        <time>2015-06-20T14:26:23.000Z</time>
      </trkpt>
      <trkpt lat="47.21916" lon="0.74737">
        <ele>104</ele>
        <time>2015-06-20T14:26:31.000Z</time>
      </trkpt>
      <trkpt lat="47.21974" lon="0.74719">
        <ele>102.1</ele>
        <time>2015-06-20T14:26:40.000Z</time>
      </trkpt>
      <trkpt lat="47.22033" lon="0.74702">
        <ele>101.2</ele>
        <time>2015-06-20T14:26:48.000Z</time>
      </trkpt>
      <trkpt lat="47.22088" lon="0.74692">
        <ele>99.8</ele>
        <time>2015-06-20T14:26:56.000Z</time>
      </trkpt>
      <trkpt lat="47.22143" lon="0.74683">
        <ele>98.8</ele>
        <time>2015-06-20T14:27:04.000Z</time>
      </trkpt>
      <trkpt lat="47.22202" lon="0.74677">
        <ele>97.8</ele>
        <time>2015-06-20T14:27:13.000Z</time>
      </trkpt>
      <trkpt lat="47.22222" lon="0.74675">
        <ele>97.3</ele>
        <time>2015-06-20T14:27:16.000Z</time>
      </trkpt>
      <trkpt lat="47.22275" lon="0.74642">
        <ele>96.2</ele>
        <time>2015-06-20T14:27:24.000Z</time>
      </trkpt>
      <trkpt lat="47.22326" lon="0.74608">
        <ele>95.6</ele>
        <time>2015-06-20T14:27:32.000Z</time>
      </trkpt>
      <trkpt lat="47.22362" lon="0.74588">
        <ele>95.2</ele>
        <time>2015-06-20T14:27:38.000Z</time>
      </trkpt>
      <trkpt lat="47.22382" lon="0.74584">
        <ele>95</ele>
        <time>2015-06-20T14:27:41.000Z</time>
      </trkpt>
      <trkpt lat="47.22442" lon="0.74589">
        <ele>95</ele>
        <time>2015-06-20T14:27:49.000Z</time>
      </trkpt>
      <trkpt lat="47.22456" lon="0.74593">
        <ele>95</ele>
        <time>2015-06-20T14:27:51.000Z</time>
      </trkpt>
      <trkpt lat="47.22507" lon="0.74625">
        <ele>95</ele>
        <time>2015-06-20T14:27:59.000Z</time>
      </trkpt>
      <trkpt lat="47.22559" lon="0.74655">
        <ele>95</ele>
        <time>2015-06-20T14:28:07.000Z</time>
      </trkpt>
      <trkpt lat="47.22613" lon="0.74669">
        <ele>94.9</ele>
        <time>2015-06-20T14:28:15.000Z</time>
      </trkpt>
      <trkpt lat="47.22673" lon="0.74676">
        <ele>94.7</ele>
        <time>2015-06-20T14:28:24.000Z</time>
      </trkpt>
      <trkpt lat="47.22731" lon="0.74679">
        <ele>95.2</ele>
        <time>2015-06-20T14:28:34.000Z</time>
      </trkpt>
      <trkpt lat="47.22766" lon="0.74685">
        <ele>95.7</ele>
        <time>2015-06-20T14:28:41.000Z</time>
      </trkpt>
      <trkpt lat="47.22824" lon="0.74673">
        <ele>96.5</ele>
        <time>2015-06-20T14:28:48.000Z</time>
      </trkpt>
      <trkpt lat="47.22879" lon="0.74672">
        <ele>97</ele>
        <time>2015-06-20T14:28:57.000Z</time>
      </trkpt>
      <trkpt lat="47.22934" lon="0.74677">
        <ele>97</ele>
        <time>2015-06-20T14:29:07.000Z</time>
      </trkpt>
      <trkpt lat="47.22989" lon="0.74698">
        <ele>96</ele>
        <time>2015-06-20T14:29:20.000Z</time>
      </trkpt>
      <trkpt lat="47.22998" lon="0.74704">
        <ele>96</ele>
        <time>2015-06-20T14:29:22.000Z</time>
      </trkpt>
      <trkpt lat="47.23013" lon="0.74736">
        <ele>95.8</ele>
        <time>2015-06-20T14:29:27.000Z</time>
      </trkpt>
      <trkpt lat="47.23025" lon="0.74784">
        <ele>95.1</ele>
        <time>2015-06-20T14:29:34.000Z</time>
      </trkpt>
      <trkpt lat="47.23055" lon="0.74797">
        <ele>94.3</ele>
        <time>2015-06-20T14:29:40.000Z</time>
      </trkpt>
      <trkpt lat="47.23109" lon="0.748">
        <ele>94</ele>
        <time>2015-06-20T14:29:49.000Z</time>
      </trkpt>
      <trkpt lat="47.23163" lon="0.74804">
        <ele>93.8</ele>
        <time>2015-06-20T14:29:58.000Z</time>
      </trkpt>
      <trkpt lat="47.23219" lon="0.74808">
        <ele>93</ele>
        <time>2015-06-20T14:30:07.000Z</time>
      </trkpt>
      <trkpt lat="47.23275" lon="0.74812">
        <ele>92.8</ele>
        <time>2015-06-20T14:30:16.000Z</time>
      </trkpt>
      <trkpt lat="47.23332" lon="0.74829">
        <ele>91.2</ele>
        <time>2015-06-20T14:30:25.000Z</time>
      </trkpt>
      <trkpt lat="47.23386" lon="0.7485">
        <ele>89.5</ele>
        <time>2015-06-20T14:30:33.000Z</time>
      </trkpt>
      <trkpt lat="47.23445" lon="0.74865">
        <ele>88.9</ele>
        <time>2015-06-20T14:30:41.000Z</time>
      </trkpt>
      <trkpt lat="47.23503" lon="0.74886">
        <ele>88.1</ele>
        <time>2015-06-20T14:30:49.000Z</time>
      </trkpt>
      <trkpt lat="47.23559" lon="0.74886">
        <ele>88.2</ele>
        <time>2015-06-20T14:30:57.000Z</time>
      </trkpt>
      <trkpt lat="47.23616" lon="0.74861">
        <ele>89.8</ele>
        <time>2015-06-20T14:31:06.000Z</time>
      </trkpt>
      <trkpt lat="47.23664" lon="0.74823">
        <ele>89.1</ele>
        <time>2015-06-20T14:31:14.000Z</time>
      </trkpt>
      <trkpt lat="47.23714" lon="0.74791">
        <ele>89</ele>
        <time>2015-06-20T14:31:22.000Z</time>
      </trkpt>
      <trkpt lat="47.23771" lon="0.74762">
        <ele>89.9</ele>
        <time>2015-06-20T14:31:32.000Z</time>
      </trkpt>
      <trkpt lat="47.23829" lon="0.7475">
        <ele>90.8</ele>
        <time>2015-06-20T14:31:42.000Z</time>
      </trkpt>
      <trkpt lat="47.23885" lon="0.74754">
        <ele>91</ele>
        <time>2015-06-20T14:31:52.000Z</time>
      </trkpt>
      <trkpt lat="47.23939" lon="0.74793">
        <ele>91</ele>
        <time>2015-06-20T14:32:02.000Z</time>
      </trkpt>
      <trkpt lat="47.2397" lon="0.74795">
        <ele>91</ele>
        <time>2015-06-20T14:32:07.000Z</time>
      </trkpt>
      <trkpt lat="47.24027" lon="0.74787">
        <ele>90.7</ele>
        <time>2015-06-20T14:32:16.000Z</time>
      </trkpt>
      <trkpt lat="47.24085" lon="0.74781">
        <ele>89.9</ele>
        <time>2015-06-20T14:32:25.000Z</time>
      </trkpt>
      <trkpt lat="47.2414" lon="0.74773">
        <ele>87</ele>
        <time>2015-06-20T14:32:33.000Z</time>
      </trkpt>
      <trkpt lat="47.24194" lon="0.74764">
        <ele>84</ele>
        <time>2015-06-20T14:32:40.000Z</time>
      </trkpt>
      <trkpt lat="47.24251" lon="0.74752">
        <ele>83.9</ele>
        <time>2015-06-20T14:32:47.000Z</time>
      </trkpt>
      <trkpt lat="47.24257" lon="0.74749">
        <ele>84.3</ele>
        <time>2015-06-20T14:32:48.000Z</time>
      </trkpt>
      <trkpt lat="47.24281" lon="0.74721">
        <ele>85.9</ele>
        <time>2015-06-20T14:32:53.000Z</time>
      </trkpt>
      <trkpt lat="47.24318" lon="0.74658">
        <ele>86.9</ele>
        <time>2015-06-20T14:33:03.000Z</time>
      </trkpt>
      <trkpt lat="47.24332" lon="0.74636">
        <ele>87.2</ele>
        <time>2015-06-20T14:33:07.000Z</time>
      </trkpt>
      <trkpt lat="47.24354" lon="0.74607">
        <ele>87.4</ele>
        <time>2015-06-20T14:33:13.000Z</time>
      </trkpt>
      <trkpt lat="47.24399" lon="0.74608">
        <ele>85.7</ele>
        <time>2015-06-20T14:33:22.000Z</time>
      </trkpt>
      <trkpt lat="47.24405" lon="0.74612">
        <ele>85.4</ele>
        <time>2015-06-20T14:33:23.000Z</time>
      </trkpt>
      <trkpt lat="47.24437" lon="0.74636">
        <ele>83.4</ele>
        <time>2015-06-20T14:33:28.000Z</time>
      </trkpt>
      <trkpt lat="47.24455" lon="0.74708">
        <ele>81.1</ele>
        <time>2015-06-20T14:33:35.000Z</time>
      </trkpt>
      <trkpt lat="47.24445" lon="0.74744">
        <ele>80.2</ele>
        <time>2015-06-20T14:33:38.000Z</time>
      </trkpt>
      <trkpt lat="47.24416" lon="0.74823">
        <ele>80</ele>
        <time>2015-06-20T14:33:45.000Z</time>
      </trkpt>
      <trkpt lat="47.24392" lon="0.74896">
        <ele>83.1</ele>
        <time>2015-06-20T14:33:52.000Z</time>
      </trkpt>
      <trkpt lat="47.24372" lon="0.7497">
        <ele>87</ele>
        <time>2015-06-20T14:34:03.000Z</time>
      </trkpt>
      <trkpt lat="47.24368" lon="0.75">
        <ele>90.2</ele>
        <time>2015-06-20T14:34:08.000Z</time>
      </trkpt>
      <trkpt lat="47.2438" lon="0.75026">
        <ele>90.7</ele>
        <time>2015-06-20T14:34:13.000Z</time>
      </trkpt>
      <trkpt lat="47.24427" lon="0.75071">
        <ele>91</ele>
        <time>2015-06-20T14:34:24.000Z</time>
      </trkpt>
      <trkpt lat="47.24475" lon="0.75109">
        <ele>91.9</ele>
        <time>2015-06-20T14:34:35.000Z</time>
      </trkpt>
      <trkpt lat="47.24506" lon="0.75174">
        <ele>92.1</ele>
        <time>2015-06-20T14:34:46.000Z</time>
      </trkpt>
      <trkpt lat="47.24532" lon="0.75252">
        <ele>93</ele>
        <time>2015-06-20T14:34:57.000Z</time>
      </trkpt>
      <trkpt lat="47.24553" lon="0.75334">
        <ele>93</ele>
        <time>2015-06-20T14:35:07.000Z</time>
      </trkpt>
      <trkpt lat="47.2456" lon="0.75393">
        <ele>93</ele>
        <time>2015-06-20T14:35:14.000Z</time>
      </trkpt>
      <trkpt lat="47.24562" lon="0.7547">
        <ele>93</ele>
        <time>2015-06-20T14:35:23.000Z</time>
      </trkpt>
      <trkpt lat="47.24562" lon="0.75546">
        <ele>93</ele>
        <time>2015-06-20T14:35:39.000Z</time>
      </trkpt>
      <trkpt lat="47.24576" lon="0.7554">
        <ele>93</ele>
        <time>2015-06-20T14:35:43.000Z</time>
      </trkpt>
      <trkpt lat="47.24628" lon="0.7552">
        <ele>93</ele>
        <time>2015-06-20T14:35:53.000Z</time>
      </trkpt>
      <trkpt lat="47.24683" lon="0.75501">
        <ele>93</ele>
        <time>2015-06-20T14:36:02.000Z</time>
      </trkpt>
      <trkpt lat="47.24738" lon="0.75482">
        <ele>93</ele>
        <time>2015-06-20T14:36:11.000Z</time>
      </trkpt>
      <trkpt lat="47.24793" lon="0.75463">
        <ele>93</ele>
        <time>2015-06-20T14:36:20.000Z</time>
      </trkpt>
      <trkpt lat="47.24848" lon="0.75445">
        <ele>92</ele>
        <time>2015-06-20T14:36:29.000Z</time>
      </trkpt>
      <trkpt lat="47.24904" lon="0.75426">
        <ele>91.6</ele>
        <time>2015-06-20T14:36:38.000Z</time>
      </trkpt>
      <trkpt lat="47.24957" lon="0.75408">
        <ele>90.9</ele>
        <time>2015-06-20T14:36:46.000Z</time>
      </trkpt>
      <trkpt lat="47.2501" lon="0.75389">
        <ele>90.7</ele>
        <time>2015-06-20T14:36:54.000Z</time>
      </trkpt>
      <trkpt lat="47.25067" lon="0.7537">
        <ele>90</ele>
        <time>2015-06-20T14:37:03.000Z</time>
      </trkpt>
      <trkpt lat="47.25123" lon="0.75351">
        <ele>87.8</ele>
        <time>2015-06-20T14:37:11.000Z</time>
      </trkpt>
      <trkpt lat="47.25183" lon="0.75329">
        <ele>83.6</ele>
        <time>2015-06-20T14:37:18.000Z</time>
      </trkpt>
      <trkpt lat="47.25238" lon="0.75309">
        <ele>83.1</ele>
        <time>2015-06-20T14:37:24.000Z</time>
      </trkpt>
      <trkpt lat="47.25291" lon="0.75289">
        <ele>83.6</ele>
        <time>2015-06-20T14:37:31.000Z</time>
      </trkpt>
      <trkpt lat="47.25334" lon="0.75276">
        <ele>82.9</ele>
        <time>2015-06-20T14:37:37.000Z</time>
      </trkpt>
      <trkpt lat="47.2539" lon="0.75286">
        <ele>82</ele>
        <time>2015-06-20T14:37:44.000Z</time>
      </trkpt>
      <trkpt lat="47.25414" lon="0.7529">
        <ele>80.6</ele>
        <time>2015-06-20T14:37:47.000Z</time>
      </trkpt>
      <trkpt lat="47.25456" lon="0.75271">
        <ele>77.7</ele>
        <time>2015-06-20T14:37:52.000Z</time>
      </trkpt>
      <trkpt lat="47.25511" lon="0.75234">
        <ele>78.6</ele>
        <time>2015-06-20T14:37:59.000Z</time>
      </trkpt>
      <trkpt lat="47.25519" lon="0.75231">
        <ele>78.7</ele>
        <time>2015-06-20T14:38:00.000Z</time>
      </trkpt>
      <trkpt lat="47.25549" lon="0.75228">
        <ele>78.8</ele>
        <time>2015-06-20T14:38:04.000Z</time>
      </trkpt>
      <trkpt lat="47.25608" lon="0.75235">
        <ele>81</ele>
        <time>2015-06-20T14:38:13.000Z</time>
      </trkpt>
      <trkpt lat="47.25662" lon="0.75229">
        <ele>83.9</ele>
        <time>2015-06-20T14:38:24.000Z</time>
      </trkpt>
      <trkpt lat="47.25699" lon="0.75194">
        <ele>86</ele>
        <time>2015-06-20T14:38:33.000Z</time>
      </trkpt>
      <trkpt lat="47.25734" lon="0.75138">
        <ele>87.6</ele>
        <time>2015-06-20T14:38:44.000Z</time>
      </trkpt>
      <trkpt lat="47.25757" lon="0.75125">
        <ele>87.5</ele>
        <time>2015-06-20T14:38:49.000Z</time>
      </trkpt>
      <trkpt lat="47.25782" lon="0.75118">
        <ele>87.8</ele>
        <time>2015-06-20T14:38:54.000Z</time>
      </trkpt>
      <trkpt lat="47.2583" lon="0.75078">
        <ele>89</ele>
        <time>2015-06-20T14:39:05.000Z</time>
      </trkpt>
      <trkpt lat="47.25869" lon="0.75018">
        <ele>90.5</ele>
        <time>2015-06-20T14:39:16.000Z</time>
      </trkpt>
      <trkpt lat="47.25911" lon="0.7496">
        <ele>91.1</ele>
        <time>2015-06-20T14:39:27.000Z</time>
      </trkpt>
      <trkpt lat="47.25957" lon="0.74908">
        <ele>90.6</ele>
        <time>2015-06-20T14:39:37.000Z</time>
      </trkpt>
      <trkpt lat="47.26" lon="0.74857">
        <ele>90</ele>
        <time>2015-06-20T14:39:46.000Z</time>
      </trkpt>
      <trkpt lat="47.26043" lon="0.74806">
        <ele>91</ele>
        <time>2015-06-20T14:39:55.000Z</time>
      </trkpt>
      <trkpt lat="47.26088" lon="0.74759">
        <ele>92</ele>
        <time>2015-06-20T14:40:04.000Z</time>
      </trkpt>
      <trkpt lat="47.26135" lon="0.74711">
        <ele>91.5</ele>
        <time>2015-06-20T14:40:13.000Z</time>
      </trkpt>
      <trkpt lat="47.26183" lon="0.74664">
        <ele>91</ele>
        <time>2015-06-20T14:40:22.000Z</time>
      </trkpt>
      <trkpt lat="47.26238" lon="0.74644">
        <ele>91</ele>
        <time>2015-06-20T14:40:30.000Z</time>
      </trkpt>
      <trkpt lat="47.26296" lon="0.74625">
        <ele>91</ele>
        <time>2015-06-20T14:40:39.000Z</time>
      </trkpt>
      <trkpt lat="47.26354" lon="0.74598">
        <ele>90.1</ele>
        <time>2015-06-20T14:40:48.000Z</time>
      </trkpt>
      <trkpt lat="47.26411" lon="0.74569">
        <ele>90.8</ele>
        <time>2015-06-20T14:40:57.000Z</time>
      </trkpt>
      <trkpt lat="47.26462" lon="0.74544">
        <ele>90.5</ele>
        <time>2015-06-20T14:41:05.000Z</time>
      </trkpt>
      <trkpt lat="47.26519" lon="0.74517">
        <ele>90.9</ele>
        <time>2015-06-20T14:41:14.000Z</time>
      </trkpt>
      <trkpt lat="47.26572" lon="0.74495">
        <ele>91</ele>
        <time>2015-06-20T14:41:22.000Z</time>
      </trkpt>
      <trkpt lat="47.26624" lon="0.74473">
        <ele>90.5</ele>
        <time>2015-06-20T14:41:30.000Z</time>
      </trkpt>
      <trkpt lat="47.26678" lon="0.74448">
        <ele>90</ele>
        <time>2015-06-20T14:41:38.000Z</time>
      </trkpt>
      <trkpt lat="47.26731" lon="0.74422">
        <ele>90</ele>
        <time>2015-06-20T14:41:46.000Z</time>
      </trkpt>
      <trkpt lat="47.26786" lon="0.74391">
        <ele>89.7</ele>
        <time>2015-06-20T14:41:55.000Z</time>
      </trkpt>
      <trkpt lat="47.26834" lon="0.74354">
        <ele>89.3</ele>
        <time>2015-06-20T14:42:03.000Z</time>
      </trkpt>
      <trkpt lat="47.26887" lon="0.74312">
        <ele>89</ele>
        <time>2015-06-20T14:42:12.000Z</time>
      </trkpt>
      <trkpt lat="47.2693" lon="0.74287">
        <ele>89</ele>
        <time>2015-06-20T14:42:19.000Z</time>
      </trkpt>
      <trkpt lat="47.26989" lon="0.74276">
        <ele>90</ele>
        <time>2015-06-20T14:42:28.000Z</time>
      </trkpt>
      <trkpt lat="47.27046" lon="0.7427">
        <ele>91</ele>
        <time>2015-06-20T14:42:37.000Z</time>
      </trkpt>
      <trkpt lat="47.27105" lon="0.74266">
        <ele>91</ele>
        <time>2015-06-20T14:42:46.000Z</time>
      </trkpt>
      <trkpt lat="47.27162" lon="0.74268">
        <ele>91</ele>
        <time>2015-06-20T14:42:55.000Z</time>
      </trkpt>
      <trkpt lat="47.27222" lon="0.74261">
        <ele>91</ele>
        <time>2015-06-20T14:43:04.000Z</time>
      </trkpt>
      <trkpt lat="47.27279" lon="0.74247">
        <ele>90.9</ele>
        <time>2015-06-20T14:43:13.000Z</time>
      </trkpt>
      <trkpt lat="47.27336" lon="0.7423">
        <ele>90.3</ele>
        <time>2015-06-20T14:43:22.000Z</time>
      </trkpt>
      <trkpt lat="47.27389" lon="0.74217">
        <ele>90</ele>
        <time>2015-06-20T14:43:30.000Z</time>
      </trkpt>
      <trkpt lat="47.27447" lon="0.74204">
        <ele>90</ele>
        <time>2015-06-20T14:43:39.000Z</time>
      </trkpt>
      <trkpt lat="47.27506" lon="0.74181">
        <ele>90</ele>
        <time>2015-06-20T14:43:48.000Z</time>
      </trkpt>
      <trkpt lat="47.27557" lon="0.74151">
        <ele>89.1</ele>
        <time>2015-06-20T14:43:56.000Z</time>
      </trkpt>
      <trkpt lat="47.27614" lon="0.74121">
        <ele>90</ele>
        <time>2015-06-20T14:44:05.000Z</time>
      </trkpt>
      <trkpt lat="47.27672" lon="0.74103">
        <ele>90</ele>
        <time>2015-06-20T14:44:14.000Z</time>
      </trkpt>
      <trkpt lat="47.27731" lon="0.741">
        <ele>90.4</ele>
        <time>2015-06-20T14:44:23.000Z</time>
      </trkpt>
      <trkpt lat="47.27789" lon="0.74108">
        <ele>90</ele>
        <time>2015-06-20T14:44:32.000Z</time>
      </trkpt>
      <trkpt lat="47.27843" lon="0.74121">
        <ele>90</ele>
        <time>2015-06-20T14:44:40.000Z</time>
      </trkpt>
      <trkpt lat="47.27903" lon="0.74129">
        <ele>90</ele>
        <time>2015-06-20T14:44:49.000Z</time>
      </trkpt>
      <trkpt lat="47.27959" lon="0.74128">
        <ele>89.3</ele>
        <time>2015-06-20T14:44:58.000Z</time>
      </trkpt>
      <trkpt lat="47.28003" lon="0.74126">
        <ele>89</ele>
        <time>2015-06-20T14:45:05.000Z</time>
      </trkpt>
      <trkpt lat="47.28024" lon="0.7414">
        <ele>89</ele>
        <time>2015-06-20T14:45:09.000Z</time>
      </trkpt>
      <trkpt lat="47.28047" lon="0.74133">
        <ele>88.5</ele>
        <time>2015-06-20T14:45:13.000Z</time>
      </trkpt>
      <trkpt lat="47.28104" lon="0.74117">
        <ele>89</ele>
        <time>2015-06-20T14:45:22.000Z</time>
      </trkpt>
      <trkpt lat="47.2816" lon="0.741">
        <ele>89</ele>
        <time>2015-06-20T14:45:31.000Z</time>
      </trkpt>
      <trkpt lat="47.28217" lon="0.74081">
        <ele>88</ele>
        <time>2015-06-20T14:45:41.000Z</time>
      </trkpt>
      <trkpt lat="47.2827" lon="0.74063">
        <ele>85.8</ele>
        <time>2015-06-20T14:45:49.000Z</time>
      </trkpt>
      <trkpt lat="47.28323" lon="0.74046">
        <ele>83.4</ele>
        <time>2015-06-20T14:45:56.000Z</time>
      </trkpt>
      <trkpt lat="47.2833" lon="0.74042">
        <ele>83.1</ele>
        <time>2015-06-20T14:45:57.000Z</time>
      </trkpt>
      <trkpt lat="47.28379" lon="0.73984">
        <ele>79.9</ele>
        <time>2015-06-20T14:46:04.000Z</time>
      </trkpt>
      <trkpt lat="47.28393" lon="0.73903">
        <ele>75.8</ele>
        <time>2015-06-20T14:46:10.000Z</time>
      </trkpt>
      <trkpt lat="47.28397" lon="0.73844">
        <ele>73.1</ele>
        <time>2015-06-20T14:46:14.000Z</time>
      </trkpt>
      <trkpt lat="47.2844" lon="0.73776">
        <ele>69</ele>
        <time>2015-06-20T14:46:20.000Z</time>
      </trkpt>
      <trkpt lat="47.28471" lon="0.73762">
        <ele>67.1</ele>
        <time>2015-06-20T14:46:23.000Z</time>
      </trkpt>
      <trkpt lat="47.28531" lon="0.7374">
        <ele>62.6</ele>
        <time>2015-06-20T14:46:29.000Z</time>
      </trkpt>
      <trkpt lat="47.28589" lon="0.73717">
        <ele>61.3</ele>
        <time>2015-06-20T14:46:36.000Z</time>
      </trkpt>
      <trkpt lat="47.28643" lon="0.73695">
        <ele>59</ele>
        <time>2015-06-20T14:46:42.000Z</time>
      </trkpt>
      <trkpt lat="47.28694" lon="0.73671">
        <ele>57.2</ele>
        <time>2015-06-20T14:46:48.000Z</time>
      </trkpt>
      <trkpt lat="47.28747" lon="0.73646">
        <ele>56.3</ele>
        <time>2015-06-20T14:46:55.000Z</time>
      </trkpt>
      <trkpt lat="47.28802" lon="0.73609">
        <ele>55.1</ele>
        <time>2015-06-20T14:47:03.000Z</time>
      </trkpt>
      <trkpt lat="47.28857" lon="0.73576">
        <ele>53.3</ele>
        <time>2015-06-20T14:47:11.000Z</time>
      </trkpt>
      <trkpt lat="47.28912" lon="0.73543">
        <ele>54.6</ele>
        <time>2015-06-20T14:47:20.000Z</time>
      </trkpt>
      <trkpt lat="47.28967" lon="0.73511">
        <ele>54.7</ele>
        <time>2015-06-20T14:47:29.000Z</time>
      </trkpt>
      <trkpt lat="47.28984" lon="0.73499">
        <ele>54.5</ele>
        <time>2015-06-20T14:47:32.000Z</time>
      </trkpt>
      <trkpt lat="47.29036" lon="0.73469">
        <ele>54.7</ele>
        <time>2015-06-20T14:47:41.000Z</time>
      </trkpt>
      <trkpt lat="47.29065" lon="0.73452">
        <ele>54.9</ele>
        <time>2015-06-20T14:47:46.000Z</time>
      </trkpt>
      <trkpt lat="47.29082" lon="0.73449">
        <ele>55.5</ele>
        <time>2015-06-20T14:47:49.000Z</time>
      </trkpt>
      <trkpt lat="47.29101" lon="0.7344">
        <ele>56.1</ele>
        <time>2015-06-20T14:47:53.000Z</time>
      </trkpt>
      <trkpt lat="47.29127" lon="0.7341">
        <ele>60.3</ele>
        <time>2015-06-20T14:48:00.000Z</time>
      </trkpt>
      <trkpt lat="47.29143" lon="0.73433">
        <ele>62</ele>
        <time>2015-06-20T14:48:04.000Z</time>
      </trkpt>
      <trkpt lat="47.29176" lon="0.73498">
        <ele>61.1</ele>
        <time>2015-06-20T14:48:14.000Z</time>
      </trkpt>
      <trkpt lat="47.2921" lon="0.73562">
        <ele>57.9</ele>
        <time>2015-06-20T14:48:23.000Z</time>
      </trkpt>
      <trkpt lat="47.29235" lon="0.73595">
        <ele>57.2</ele>
        <time>2015-06-20T14:48:28.000Z</time>
      </trkpt>
      <trkpt lat="47.29258" lon="0.73607">
        <ele>56.7</ele>
        <time>2015-06-20T14:48:32.000Z</time>
      </trkpt>
      <trkpt lat="47.29314" lon="0.73612">
        <ele>57.6</ele>
        <time>2015-06-20T14:48:41.000Z</time>
      </trkpt>
      <trkpt lat="47.29369" lon="0.73632">
        <ele>60.6</ele>
        <time>2015-06-20T14:48:53.000Z</time>
      </trkpt>
      <trkpt lat="47.2942" lon="0.73667">
        <ele>61.2</ele>
        <time>2015-06-20T14:49:03.000Z</time>
      </trkpt>
      <trkpt lat="47.29469" lon="0.73703">
        <ele>62.5</ele>
        <time>2015-06-20T14:49:13.000Z</time>
      </trkpt>
      <trkpt lat="47.2952" lon="0.73735">
        <ele>67.6</ele>
        <time>2015-06-20T14:49:26.000Z</time>
      </trkpt>
      <trkpt lat="47.2957" lon="0.73775">
        <ele>71.7</ele>
        <time>2015-06-20T14:49:46.000Z</time>
      </trkpt>
      <trkpt lat="47.29613" lon="0.73829">
        <ele>77.6</ele>
        <time>2015-06-20T14:50:07.000Z</time>
      </trkpt>
      <trkpt lat="47.29667" lon="0.73859">
        <ele>81</ele>
        <time>2015-06-20T14:50:29.000Z</time>
      </trkpt>
      <trkpt lat="47.29723" lon="0.73877">
        <ele>84</ele>
        <time>2015-06-20T14:50:37.000Z</time>
      </trkpt>
      <trkpt lat="47.29777" lon="0.739">
        <ele>86</ele>
        <time>2015-06-20T14:50:52.000Z</time>
      </trkpt>
      <trkpt lat="47.29831" lon="0.73922">
        <ele>86</ele>
        <time>2015-06-20T14:51:04.000Z</time>
      </trkpt>
      <trkpt lat="47.29887" lon="0.7393">
        <ele>87</ele>
        <time>2015-06-20T14:51:13.000Z</time>
      </trkpt>
      <trkpt lat="47.29942" lon="0.73947">
        <ele>87</ele>
        <time>2015-06-20T14:51:22.000Z</time>
      </trkpt>
      <trkpt lat="47.3" lon="0.7396">
        <ele>87</ele>
        <time>2015-06-20T14:51:31.000Z</time>
      </trkpt>
      <trkpt lat="47.30056" lon="0.73983">
        <ele>88</ele>
        <time>2015-06-20T14:51:40.000Z</time>
      </trkpt>
      <trkpt lat="47.3011" lon="0.74008">
        <ele>88</ele>
        <time>2015-06-20T14:51:49.000Z</time>
      </trkpt>
      <trkpt lat="47.30165" lon="0.7403">
        <ele>88</ele>
        <time>2015-06-20T14:51:58.000Z</time>
      </trkpt>
      <trkpt lat="47.30219" lon="0.74055">
        <ele>88.9</ele>
        <time>2015-06-20T14:52:07.000Z</time>
      </trkpt>
      <trkpt lat="47.3028" lon="0.74064">
        <ele>89</ele>
        <time>2015-06-20T14:52:15.000Z</time>
      </trkpt>
      <trkpt lat="47.30338" lon="0.74072">
        <ele>89</ele>
        <time>2015-06-20T14:52:24.000Z</time>
      </trkpt>
      <trkpt lat="47.30394" lon="0.7408">
        <ele>88.1</ele>
        <time>2015-06-20T14:52:33.000Z</time>
      </trkpt>
      <trkpt lat="47.30453" lon="0.74087">
        <ele>89</ele>
        <time>2015-06-20T14:52:42.000Z</time>
      </trkpt>
      <trkpt lat="47.30512" lon="0.74095">
        <ele>89</ele>
        <time>2015-06-20T14:52:51.000Z</time>
      </trkpt>
      <trkpt lat="47.30571" lon="0.74098">
        <ele>89</ele>
        <time>2015-06-20T14:53:00.000Z</time>
      </trkpt>
      <trkpt lat="47.30631" lon="0.74103">
        <ele>89.2</ele>
        <time>2015-06-20T14:53:09.000Z</time>
      </trkpt>
      <trkpt lat="47.30687" lon="0.74125">
        <ele>89.1</ele>
        <time>2015-06-20T14:53:18.000Z</time>
      </trkpt>
      <trkpt lat="47.30742" lon="0.74155">
        <ele>89</ele>
        <time>2015-06-20T14:53:27.000Z</time>
      </trkpt>
      <trkpt lat="47.30797" lon="0.74173">
        <ele>89</ele>
        <time>2015-06-20T14:53:36.000Z</time>
      </trkpt>
      <trkpt lat="47.30853" lon="0.74174">
        <ele>89</ele>
        <time>2015-06-20T14:53:45.000Z</time>
      </trkpt>
      <trkpt lat="47.3091" lon="0.74165">
        <ele>89</ele>
        <time>2015-06-20T14:53:54.000Z</time>
      </trkpt>
      <trkpt lat="47.30965" lon="0.74155">
        <ele>88.2</ele>
        <time>2015-06-20T14:54:03.000Z</time>
      </trkpt>
      <trkpt lat="47.3102" lon="0.74142">
        <ele>88.6</ele>
        <time>2015-06-20T14:54:12.000Z</time>
      </trkpt>
      <trkpt lat="47.31076" lon="0.74133">
        <ele>88.8</ele>
        <time>2015-06-20T14:54:21.000Z</time>
      </trkpt>
      <trkpt lat="47.31129" lon="0.74121">
        <ele>89.4</ele>
        <time>2015-06-20T14:54:30.000Z</time>
      </trkpt>
      <trkpt lat="47.31183" lon="0.74099">
        <ele>91</ele>
        <time>2015-06-20T14:54:40.000Z</time>
      </trkpt>
      <trkpt lat="47.3124" lon="0.74088">
        <ele>93.9</ele>
        <time>2015-06-20T14:54:51.000Z</time>
      </trkpt>
      <trkpt lat="47.31295" lon="0.7408">
        <ele>92.8</ele>
        <time>2015-06-20T14:55:01.000Z</time>
      </trkpt>
      <trkpt lat="47.31351" lon="0.74078">
        <ele>92.1</ele>
        <time>2015-06-20T14:55:10.000Z</time>
      </trkpt>
      <trkpt lat="47.31406" lon="0.74088">
        <ele>89.5</ele>
        <time>2015-06-20T14:55:17.000Z</time>
      </trkpt>
      <trkpt lat="47.31466" lon="0.74099">
        <ele>88.3</ele>
        <time>2015-06-20T14:55:24.000Z</time>
      </trkpt>
      <trkpt lat="47.31526" lon="0.74095">
        <ele>89</ele>
        <time>2015-06-20T14:55:32.000Z</time>
      </trkpt>
      <trkpt lat="47.31586" lon="0.7409">
        <ele>88.9</ele>
        <time>2015-06-20T14:55:41.000Z</time>
      </trkpt>
      <trkpt lat="47.3164" lon="0.74087">
        <ele>88</ele>
        <time>2015-06-20T14:55:49.000Z</time>
      </trkpt>
      <trkpt lat="47.31698" lon="0.74082">
        <ele>88.9</ele>
        <time>2015-06-20T14:55:58.000Z</time>
      </trkpt>
      <trkpt lat="47.31756" lon="0.74077">
        <ele>89</ele>
        <time>2015-06-20T14:56:07.000Z</time>
      </trkpt>
      <trkpt lat="47.3181" lon="0.74072">
        <ele>89.5</ele>
        <time>2015-06-20T14:56:15.000Z</time>
      </trkpt>
      <trkpt lat="47.31864" lon="0.74065">
        <ele>90</ele>
        <time>2015-06-20T14:56:23.000Z</time>
      </trkpt>
      <trkpt lat="47.31924" lon="0.74057">
        <ele>90.3</ele>
        <time>2015-06-20T14:56:32.000Z</time>
      </trkpt>
      <trkpt lat="47.31982" lon="0.7405">
        <ele>91</ele>
        <time>2015-06-20T14:56:41.000Z</time>
      </trkpt>
      <trkpt lat="47.32039" lon="0.74047">
        <ele>91</ele>
        <time>2015-06-20T14:56:50.000Z</time>
      </trkpt>
      <trkpt lat="47.32098" lon="0.74044">
        <ele>91.5</ele>
        <time>2015-06-20T14:56:59.000Z</time>
      </trkpt>
      <trkpt lat="47.32154" lon="0.74043">
        <ele>92</ele>
        <time>2015-06-20T14:57:08.000Z</time>
      </trkpt>
      <trkpt lat="47.32214" lon="0.74041">
        <ele>91.7</ele>
        <time>2015-06-20T14:57:17.000Z</time>
      </trkpt>
      <trkpt lat="47.32272" lon="0.7404">
        <ele>91.6</ele>
        <time>2015-06-20T14:57:26.000Z</time>
      </trkpt>
      <trkpt lat="47.3233" lon="0.74045">
        <ele>92</ele>
        <time>2015-06-20T14:57:35.000Z</time>
      </trkpt>
      <trkpt lat="47.32385" lon="0.74054">
        <ele>92</ele>
        <time>2015-06-20T14:57:44.000Z</time>
      </trkpt>
      <trkpt lat="47.32441" lon="0.74064">
        <ele>92.9</ele>
        <time>2015-06-20T14:57:53.000Z</time>
      </trkpt>
      <trkpt lat="47.32497" lon="0.74076">
        <ele>93</ele>
        <time>2015-06-20T14:58:02.000Z</time>
      </trkpt>
      <trkpt lat="47.32553" lon="0.74083">
        <ele>93.9</ele>
        <time>2015-06-20T14:58:11.000Z</time>
      </trkpt>
      <trkpt lat="47.3261" lon="0.74072">
        <ele>95.8</ele>
        <time>2015-06-20T14:58:21.000Z</time>
      </trkpt>
      <trkpt lat="47.32665" lon="0.74043">
        <ele>97.9</ele>
        <time>2015-06-20T14:58:32.000Z</time>
      </trkpt>
      <trkpt lat="47.3272" lon="0.7401">
        <ele>92.4</ele>
        <time>2015-06-20T14:58:43.000Z</time>
      </trkpt>
      <trkpt lat="47.32774" lon="0.73977">
        <ele>96.7</ele>
        <time>2015-06-20T14:58:52.000Z</time>
      </trkpt>
      <trkpt lat="47.32829" lon="0.73955">
        <ele>90.1</ele>
        <time>2015-06-20T14:58:59.000Z</time>
      </trkpt>
      <trkpt lat="47.32888" lon="0.73944">
        <ele>86.1</ele>
        <time>2015-06-20T14:59:06.000Z</time>
      </trkpt>
      <trkpt lat="47.32948" lon="0.73936">
        <ele>92.3</ele>
        <time>2015-06-20T14:59:14.000Z</time>
      </trkpt>
      <trkpt lat="47.33008" lon="0.7393">
        <ele>92</ele>
        <time>2015-06-20T14:59:22.000Z</time>
      </trkpt>
      <trkpt lat="47.33065" lon="0.73931">
        <ele>92</ele>
        <time>2015-06-20T14:59:31.000Z</time>
      </trkpt>
      <trkpt lat="47.33124" lon="0.73923">
        <ele>92</ele>
        <time>2015-06-20T14:59:40.000Z</time>
      </trkpt>
      <trkpt lat="47.3318" lon="0.73899">
        <ele>92</ele>
        <time>2015-06-20T14:59:48.000Z</time>
      </trkpt>
      <trkpt lat="47.33237" lon="0.73866">
        <ele>91.1</ele>
        <time>2015-06-20T14:59:56.000Z</time>
      </trkpt>
      <trkpt lat="47.33291" lon="0.73834">
        <ele>91</ele>
        <time>2015-06-20T15:00:04.000Z</time>
      </trkpt>
      <trkpt lat="47.33342" lon="0.73807">
        <ele>90.6</ele>
        <time>2015-06-20T15:00:12.000Z</time>
      </trkpt>
      <trkpt lat="47.33398" lon="0.73791">
        <ele>88.8</ele>
        <time>2015-06-20T15:00:20.000Z</time>
      </trkpt>
      <trkpt lat="47.33456" lon="0.73789">
        <ele>89.2</ele>
        <time>2015-06-20T15:00:28.000Z</time>
      </trkpt>
      <trkpt lat="47.33513" lon="0.73796">
        <ele>88.3</ele>
        <time>2015-06-20T15:00:37.000Z</time>
      </trkpt>
      <trkpt lat="47.33524" lon="0.73802">
        <ele>88.7</ele>
        <time>2015-06-20T15:00:39.000Z</time>
      </trkpt>
      <trkpt lat="47.33534" lon="0.73811">
        <ele>89</ele>
        <time>2015-06-20T15:00:41.000Z</time>
      </trkpt>
      <trkpt lat="47.33542" lon="0.73835">
        <ele>89.5</ele>
        <time>2015-06-20T15:00:44.000Z</time>
      </trkpt>
      <trkpt lat="47.3358" lon="0.73831">
        <ele>89</ele>
        <time>2015-06-20T15:00:51.000Z</time>
      </trkpt>
      <trkpt lat="47.33612" lon="0.73826">
        <ele>88.7</ele>
        <time>2015-06-20T15:00:56.000Z</time>
      </trkpt>
      <trkpt lat="47.3364" lon="0.73804">
        <ele>89</ele>
        <time>2015-06-20T15:01:01.000Z</time>
      </trkpt>
      <trkpt lat="47.33668" lon="0.73773">
        <ele>88</ele>
        <time>2015-06-20T15:01:07.000Z</time>
      </trkpt>
      <trkpt lat="47.33705" lon="0.73787">
        <ele>87</ele>
        <time>2015-06-20T15:01:13.000Z</time>
      </trkpt>
      <trkpt lat="47.33749" lon="0.73832">
        <ele>87</ele>
        <time>2015-06-20T15:01:21.000Z</time>
      </trkpt>
      <trkpt lat="47.33798" lon="0.73883">
        <ele>87.5</ele>
        <time>2015-06-20T15:01:30.000Z</time>
      </trkpt>
      <trkpt lat="47.33843" lon="0.73929">
        <ele>88.7</ele>
        <time>2015-06-20T15:01:39.000Z</time>
      </trkpt>
      <trkpt lat="47.33865" lon="0.73951">
        <ele>89</ele>
        <time>2015-06-20T15:01:44.000Z</time>
      </trkpt>
      <trkpt lat="47.33877" lon="0.73967">
        <ele>89.5</ele>
        <time>2015-06-20T15:01:48.000Z</time>
      </trkpt>
      <trkpt lat="47.33868" lon="0.74041">
        <ele>89</ele>
        <time>2015-06-20T15:01:58.000Z</time>
      </trkpt>
      <trkpt lat="47.33856" lon="0.74121">
        <ele>88.9</ele>
        <time>2015-06-20T15:02:08.000Z</time>
      </trkpt>
      <trkpt lat="47.33849" lon="0.74162">
        <ele>89</ele>
        <time>2015-06-20T15:02:13.000Z</time>
      </trkpt>
      <trkpt lat="47.33823" lon="0.7421">
        <ele>89.4</ele>
        <time>2015-06-20T15:02:20.000Z</time>
      </trkpt>
      <trkpt lat="47.33782" lon="0.74272">
        <ele>89.2</ele>
        <time>2015-06-20T15:02:31.000Z</time>
      </trkpt>
      <trkpt lat="47.3376" lon="0.74311">
        <ele>88.5</ele>
        <time>2015-06-20T15:02:37.000Z</time>
      </trkpt>
      <trkpt lat="47.33749" lon="0.74356">
        <ele>89</ele>
        <time>2015-06-20T15:02:43.000Z</time>
      </trkpt>
      <trkpt lat="47.33761" lon="0.74392">
        <ele>90</ele>
        <time>2015-06-20T15:02:48.000Z</time>
      </trkpt>
      <trkpt lat="47.33791" lon="0.74459">
        <ele>90</ele>
        <time>2015-06-20T15:02:57.000Z</time>
      </trkpt>
      <trkpt lat="47.33823" lon="0.74527">
        <ele>90</ele>
        <time>2015-06-20T15:03:06.000Z</time>
      </trkpt>
      <trkpt lat="47.33852" lon="0.74595">
        <ele>90.1</ele>
        <time>2015-06-20T15:03:15.000Z</time>
      </trkpt>
      <trkpt lat="47.33883" lon="0.74668">
        <ele>91</ele>
        <time>2015-06-20T15:03:25.000Z</time>
      </trkpt>
      <trkpt lat="47.33909" lon="0.74743">
        <ele>91.1</ele>
        <time>2015-06-20T15:03:35.000Z</time>
      </trkpt>
      <trkpt lat="47.33935" lon="0.74817">
        <ele>91</ele>
        <time>2015-06-20T15:03:45.000Z</time>
      </trkpt>
      <trkpt lat="47.33964" lon="0.74886">
        <ele>90.9</ele>
        <time>2015-06-20T15:03:57.000Z</time>
      </trkpt>
      <trkpt lat="47.33974" lon="0.74884">
        <ele>90.8</ele>
        <time>2015-06-20T15:04:00.000Z</time>
      </trkpt>
      <trkpt lat="47.34" lon="0.74862">
        <ele>90</ele>
        <time>2015-06-20T15:04:05.000Z</time>
      </trkpt>
      <trkpt lat="47.34048" lon="0.7485">
        <ele>90</ele>
        <time>2015-06-20T15:04:13.000Z</time>
      </trkpt>
      <trkpt lat="47.34072" lon="0.74831">
        <ele>90.6</ele>
        <time>2015-06-20T15:04:17.000Z</time>
      </trkpt>
      <trkpt lat="47.34117" lon="0.74781">
        <ele>91.8</ele>
        <time>2015-06-20T15:04:26.000Z</time>
      </trkpt>
      <trkpt lat="47.34164" lon="0.74727">
        <ele>91</ele>
        <time>2015-06-20T15:04:35.000Z</time>
      </trkpt>
      <trkpt lat="47.3421" lon="0.74674">
        <ele>91</ele>
        <time>2015-06-20T15:04:44.000Z</time>
      </trkpt>
      <trkpt lat="47.34259" lon="0.74635">
        <ele>92</ele>
        <time>2015-06-20T15:04:53.000Z</time>
      </trkpt>
      <trkpt lat="47.34309" lon="0.74603">
        <ele>93</ele>
        <time>2015-06-20T15:05:02.000Z</time>
      </trkpt>
      <trkpt lat="47.34325" lon="0.74593">
        <ele>93</ele>
        <time>2015-06-20T15:05:05.000Z</time>
      </trkpt>
      <trkpt lat="47.34381" lon="0.74565">
        <ele>93.7</ele>
        <time>2015-06-20T15:05:15.000Z</time>
      </trkpt>
      <trkpt lat="47.34434" lon="0.74536">
        <ele>94</ele>
        <time>2015-06-20T15:05:25.000Z</time>
      </trkpt>
      <trkpt lat="47.34486" lon="0.74507">
        <ele>94</ele>
        <time>2015-06-20T15:05:34.000Z</time>
      </trkpt>
      <trkpt lat="47.34538" lon="0.7448">
        <ele>94</ele>
        <time>2015-06-20T15:05:44.000Z</time>
      </trkpt>
      <trkpt lat="47.34593" lon="0.74459">
        <ele>94</ele>
        <time>2015-06-20T15:05:53.000Z</time>
      </trkpt>
      <trkpt lat="47.3465" lon="0.74444">
        <ele>94</ele>
        <time>2015-06-20T15:06:02.000Z</time>
      </trkpt>
      <trkpt lat="47.34706" lon="0.74423">
        <ele>93.2</ele>
        <time>2015-06-20T15:06:11.000Z</time>
      </trkpt>
      <trkpt lat="47.34751" lon="0.74406">
        <ele>93</ele>
        <time>2015-06-20T15:06:19.000Z</time>
      </trkpt>
      <trkpt lat="47.34779" lon="0.74385">
        <ele>92</ele>
        <time>2015-06-20T15:06:24.000Z</time>
      </trkpt>
      <trkpt lat="47.3482" lon="0.74333">
        <ele>92</ele>
        <time>2015-06-20T15:06:33.000Z</time>
      </trkpt>
      <trkpt lat="47.34823" lon="0.74326">
        <ele>92</ele>
        <time>2015-06-20T15:06:34.000Z</time>
      </trkpt>
      <trkpt lat="47.34857" lon="0.74262">
        <ele>92.5</ele>
        <time>2015-06-20T15:06:43.000Z</time>
      </trkpt>
      <trkpt lat="47.34875" lon="0.74234">
        <ele>93</ele>
        <time>2015-06-20T15:06:48.000Z</time>
      </trkpt>
      <trkpt lat="47.34919" lon="0.74187">
        <ele>94</ele>
        <time>2015-06-20T15:06:59.000Z</time>
      </trkpt>
      <trkpt lat="47.34961" lon="0.74142">
        <ele>94</ele>
        <time>2015-06-20T15:07:09.000Z</time>
      </trkpt>
      <trkpt lat="47.34972" lon="0.74124">
        <ele>93.5</ele>
        <time>2015-06-20T15:07:12.000Z</time>
      </trkpt>
      <trkpt lat="47.34994" lon="0.74081">
        <ele>92.2</ele>
        <time>2015-06-20T15:07:19.000Z</time>
      </trkpt>
      <trkpt lat="47.35026" lon="0.74053">
        <ele>90.1</ele>
        <time>2015-06-20T15:07:26.000Z</time>
      </trkpt>
      <trkpt lat="47.35036" lon="0.7408">
        <ele>90.9</ele>
        <time>2015-06-20T15:07:31.000Z</time>
      </trkpt>
      <trkpt lat="47.35053" lon="0.74162">
        <ele>92.1</ele>
        <time>2015-06-20T15:07:42.000Z</time>
      </trkpt>
      <trkpt lat="47.35077" lon="0.74239">
        <ele>93.7</ele>
        <time>2015-06-20T15:07:53.000Z</time>
      </trkpt>
      <trkpt lat="47.35104" lon="0.74309">
        <ele>94.1</ele>
        <time>2015-06-20T15:08:03.000Z</time>
      </trkpt>
      <trkpt lat="47.35127" lon="0.74389">
        <ele>95</ele>
        <time>2015-06-20T15:08:14.000Z</time>
      </trkpt>
      <trkpt lat="47.35146" lon="0.74471">
        <ele>94.7</ele>
        <time>2015-06-20T15:08:25.000Z</time>
      </trkpt>
      <trkpt lat="47.35164" lon="0.7455">
        <ele>95.7</ele>
        <time>2015-06-20T15:08:36.000Z</time>
      </trkpt>
      <trkpt lat="47.35175" lon="0.74602">
        <ele>95.1</ele>
        <time>2015-06-20T15:08:43.000Z</time>
      </trkpt>
      <trkpt lat="47.35193" lon="0.74683">
        <ele>95</ele>
        <time>2015-06-20T15:08:54.000Z</time>
      </trkpt>
      <trkpt lat="47.35213" lon="0.74765">
        <ele>95</ele>
        <time>2015-06-20T15:09:04.000Z</time>
      </trkpt>
      <trkpt lat="47.35229" lon="0.74826">
        <ele>94.7</ele>
        <time>2015-06-20T15:09:13.000Z</time>
      </trkpt>
      <trkpt lat="47.35255" lon="0.74823">
        <ele>93.9</ele>
        <time>2015-06-20T15:09:19.000Z</time>
      </trkpt>
      <trkpt lat="47.35308" lon="0.74801">
        <ele>93</ele>
        <time>2015-06-20T15:09:28.000Z</time>
      </trkpt>
      <trkpt lat="47.35363" lon="0.74785">
        <ele>92.2</ele>
        <time>2015-06-20T15:09:38.000Z</time>
      </trkpt>
      <trkpt lat="47.35375" lon="0.74785">
        <ele>92.1</ele>
        <time>2015-06-20T15:09:40.000Z</time>
      </trkpt>
      <trkpt lat="47.35403" lon="0.74807">
        <ele>91.5</ele>
        <time>2015-06-20T15:09:45.000Z</time>
      </trkpt>
      <trkpt lat="47.35409" lon="0.74812">
        <ele>91.4</ele>
        <time>2015-06-20T15:09:46.000Z</time>
      </trkpt>
      <trkpt lat="47.35462" lon="0.7484">
        <ele>90.5</ele>
        <time>2015-06-20T15:09:55.000Z</time>
      </trkpt>
      <trkpt lat="47.35518" lon="0.74842">
        <ele>89.4</ele>
        <time>2015-06-20T15:10:04.000Z</time>
      </trkpt>
      <trkpt lat="47.35524" lon="0.74843">
        <ele>89.1</ele>
        <time>2015-06-20T15:10:05.000Z</time>
      </trkpt>
      <trkpt lat="47.35552" lon="0.74879">
        <ele>89.1</ele>
        <time>2015-06-20T15:10:12.000Z</time>
      </trkpt>
      <trkpt lat="47.35564" lon="0.74927">
        <ele>89.3</ele>
        <time>2015-06-20T15:10:18.000Z</time>
      </trkpt>
      <trkpt lat="47.35562" lon="0.74995">
        <ele>90</ele>
        <time>2015-06-20T15:10:26.000Z</time>
      </trkpt>
      <trkpt lat="47.35569" lon="0.75026">
        <ele>90.5</ele>
        <time>2015-06-20T15:10:30.000Z</time>
      </trkpt>
      <trkpt lat="47.35594" lon="0.75099">
        <ele>90.3</ele>
        <time>2015-06-20T15:10:39.000Z</time>
      </trkpt>
      <trkpt lat="47.35621" lon="0.7517">
        <ele>89</ele>
        <time>2015-06-20T15:10:48.000Z</time>
      </trkpt>
      <trkpt lat="47.35658" lon="0.75234">
        <ele>88.6</ele>
        <time>2015-06-20T15:10:57.000Z</time>
      </trkpt>
      <trkpt lat="47.35694" lon="0.75295">
        <ele>87.4</ele>
        <time>2015-06-20T15:11:07.000Z</time>
      </trkpt>
      <trkpt lat="47.35732" lon="0.75357">
        <ele>86.5</ele>
        <time>2015-06-20T15:11:15.000Z</time>
      </trkpt>
      <trkpt lat="47.3576" lon="0.75425">
        <ele>85.8</ele>
        <time>2015-06-20T15:11:23.000Z</time>
      </trkpt>
      <trkpt lat="47.35784" lon="0.75497">
        <ele>85.1</ele>
        <time>2015-06-20T15:11:31.000Z</time>
      </trkpt>
      <trkpt lat="47.35808" lon="0.7557">
        <ele>84</ele>
        <time>2015-06-20T15:11:39.000Z</time>
      </trkpt>
      <trkpt lat="47.35834" lon="0.75637">
        <ele>83</ele>
        <time>2015-06-20T15:11:47.000Z</time>
      </trkpt>
      <trkpt lat="47.35876" lon="0.75693">
        <ele>82.5</ele>
        <time>2015-06-20T15:11:56.000Z</time>
      </trkpt>
      <trkpt lat="47.35898" lon="0.75724">
        <ele>82</ele>
        <time>2015-06-20T15:12:01.000Z</time>
      </trkpt>
      <trkpt lat="47.35917" lon="0.75753">
        <ele>82.1</ele>
        <time>2015-06-20T15:12:06.000Z</time>
      </trkpt>
      <trkpt lat="47.35952" lon="0.75746">
        <ele>82.5</ele>
        <time>2015-06-20T15:12:15.000Z</time>
      </trkpt>
      <trkpt lat="47.35991" lon="0.75682">
        <ele>82.6</ele>
        <time>2015-06-20T15:12:25.000Z</time>
      </trkpt>
      <trkpt lat="47.36023" lon="0.75612">
        <ele>81.4</ele>
        <time>2015-06-20T15:12:34.000Z</time>
      </trkpt>
      <trkpt lat="47.36055" lon="0.75537">
        <ele>80.7</ele>
        <time>2015-06-20T15:12:43.000Z</time>
      </trkpt>
      <trkpt lat="47.3609" lon="0.75469">
        <ele>82.6</ele>
        <time>2015-06-20T15:12:53.000Z</time>
      </trkpt>
      <trkpt lat="47.36127" lon="0.7541">
        <ele>85.5</ele>
        <time>2015-06-20T15:13:03.000Z</time>
      </trkpt>
      <trkpt lat="47.36152" lon="0.7537">
        <ele>86.6</ele>
        <time>2015-06-20T15:13:10.000Z</time>
      </trkpt>
      <trkpt lat="47.3616" lon="0.75355">
        <ele>87</ele>
        <time>2015-06-20T15:13:13.000Z</time>
      </trkpt>
      <trkpt lat="47.36163" lon="0.75337">
        <ele>87</ele>
        <time>2015-06-20T15:13:17.000Z</time>
      </trkpt>
      <trkpt lat="47.36159" lon="0.75333">
        <ele>87</ele>
        <time>2015-06-20T15:13:18.000Z</time>
      </trkpt>
      <trkpt lat="47.36148" lon="0.75305">
        <ele>87.3</ele>
        <time>2015-06-20T15:13:22.000Z</time>
      </trkpt>
      <trkpt lat="47.36131" lon="0.75222">
        <ele>89</ele>
        <time>2015-06-20T15:13:33.000Z</time>
      </trkpt>
      <trkpt lat="47.36115" lon="0.75142">
        <ele>90</ele>
        <time>2015-06-20T15:13:44.000Z</time>
      </trkpt>
      <trkpt lat="47.361" lon="0.75062">
        <ele>91</ele>
        <time>2015-06-20T15:13:55.000Z</time>
      </trkpt>
      <trkpt lat="47.3609" lon="0.75009">
        <ele>90</ele>
        <time>2015-06-20T15:14:02.000Z</time>
      </trkpt>
      <trkpt lat="47.3609" lon="0.74989">
        <ele>90</ele>
        <time>2015-06-20T15:14:05.000Z</time>
      </trkpt>
      <trkpt lat="47.36075" lon="0.74987">
        <ele>89.9</ele>
        <time>2015-06-20T15:14:09.000Z</time>
      </trkpt>
      <trkpt lat="47.36057" lon="0.75005">
        <ele>90</ele>
        <time>2015-06-20T15:14:13.000Z</time>
      </trkpt>
      <trkpt lat="47.36004" lon="0.75034">
        <ele>89</ele>
        <time>2015-06-20T15:14:22.000Z</time>
      </trkpt>
      <trkpt lat="47.35948" lon="0.75064">
        <ele>87.1</ele>
        <time>2015-06-20T15:14:30.000Z</time>
      </trkpt>
      <trkpt lat="47.35897" lon="0.75091">
        <ele>86.8</ele>
        <time>2015-06-20T15:14:37.000Z</time>
      </trkpt>
      <trkpt lat="47.3584" lon="0.75116">
        <ele>86</ele>
        <time>2015-06-20T15:14:45.000Z</time>
      </trkpt>
      <trkpt lat="47.35786" lon="0.75156">
        <ele>86.7</ele>
        <time>2015-06-20T15:14:54.000Z</time>
      </trkpt>
      <trkpt lat="47.35775" lon="0.75168">
        <ele>87</ele>
        <time>2015-06-20T15:14:56.000Z</time>
      </trkpt>
      <trkpt lat="47.35733" lon="0.75219">
        <ele>87.1</ele>
        <time>2015-06-20T15:15:05.000Z</time>
      </trkpt>
      <trkpt lat="47.35692" lon="0.75271">
        <ele>88</ele>
        <time>2015-06-20T15:15:17.000Z</time>
      </trkpt>
      <trkpt lat="47.35688" lon="0.75273">
        <ele>88</ele>
        <time>2015-06-20T15:15:18.000Z</time>
      </trkpt>
      <trkpt lat="47.35674" lon="0.75259">
        <ele>88</ele>
        <time>2015-06-20T15:15:22.000Z</time>
      </trkpt>
      <trkpt lat="47.35635" lon="0.75194">
        <ele>89</ele>
        <time>2015-06-20T15:15:32.000Z</time>
      </trkpt>
      <trkpt lat="47.35603" lon="0.75122">
        <ele>90</ele>
        <time>2015-06-20T15:15:42.000Z</time>
      </trkpt>
      <trkpt lat="47.35579" lon="0.75049">
        <ele>90.8</ele>
        <time>2015-06-20T15:15:52.000Z</time>
      </trkpt>
      <trkpt lat="47.35568" lon="0.75016">
        <ele>90.3</ele>
        <time>2015-06-20T15:15:57.000Z</time>
      </trkpt>
      <trkpt lat="47.35563" lon="0.75003">
        <ele>90.1</ele>
        <time>2015-06-20T15:15:59.000Z</time>
      </trkpt>
      <trkpt lat="47.35547" lon="0.75009">
        <ele>90.5</ele>
        <time>2015-06-20T15:16:04.000Z</time>
      </trkpt>
      <trkpt lat="47.355" lon="0.75058">
        <ele>91</ele>
        <time>2015-06-20T15:16:18.000Z</time>
      </trkpt>
      <trkpt lat="47.35458" lon="0.75117">
        <ele>92.1</ele>
        <time>2015-06-20T15:16:31.000Z</time>
      </trkpt>
      <trkpt lat="47.35451" lon="0.75126">
        <ele>92.4</ele>
        <time>2015-06-20T15:16:33.000Z</time>
      </trkpt>
      <trkpt lat="47.35426" lon="0.75149">
        <ele>92.9</ele>
        <time>2015-06-20T15:16:42.000Z</time>
      </trkpt>
      <trkpt lat="47.35422" lon="0.75138">
        <ele>93</ele>
        <time>2015-06-20T15:17:02.000Z</time>
      </trkpt>
      <trkpt lat="47.35423" lon="0.7511">
        <ele>92.7</ele>
        <time>2015-06-20T15:17:23.000Z</time>
      </trkpt>
      <trkpt lat="47.35412" lon="0.7508">
        <ele>92.1</ele>
        <time>2015-06-20T15:17:53.000Z</time>
      </trkpt>
    </trkseg>
  </trk>
</gpx>